<?xml version='1.0' encoding='UTF-8'?><gpx version="1.1" creator="JPX - https://github.com/jenetics/jpx" xmlns="http://www.topografix.com/GPX/1/1"><trk><trkseg><trkpt lat="44.5065033" lon="8.8923267"><ele>126.0</ele><time>2026-03-28T11:14:02.015Z</time></trkpt><trkpt lat="44.5064617" lon="8.8924217"><ele>126.0</ele><time>2026-03-28T11:14:04.015Z</time></trkpt><trkpt lat="44.5064233" lon="8.8925033"><ele>126.0</ele><time>2026-03-28T11:14:06.014Z</time></trkpt><trkpt lat="44.5064167" lon="8.8926267"><ele>126.0</ele><time>2026-03-28T11:14:09.015Z</time></trkpt><trkpt lat="44.5064633" lon="8.8927533"><ele>126.0</ele><time>2026-03-28T11:14:29.014Z</time></trkpt><trkpt lat="44.5064283" lon="8.89283"><ele>126.0</ele><time>2026-03-28T11:15:09.015Z</time></trkpt><trkpt lat="44.506415" lon="8.8929517"><ele>125.8</ele><time>2026-03-28T11:15:35.015Z</time></trkpt><trkpt lat="44.5064117" lon="8.8930583"><ele>125.6</ele><time>2026-03-28T11:15:37.015Z</time></trkpt><trkpt lat="44.5064233" lon="8.8932083"><ele>125.4</ele><time>2026-03-28T11:15:39.015Z</time></trkpt><trkpt lat="44.5064417" lon="8.8933683"><ele>125.2</ele><time>2026-03-28T11:15:41.015Z</time></trkpt><trkpt lat="44.506445" lon="8.8934567"><ele>125.0</ele><time>2026-03-28T11:15:42.015Z</time></trkpt><trkpt lat="44.5064733" lon="8.8936233"><ele>124.71428571428571</ele><time>2026-03-28T11:15:44.015Z</time></trkpt><trkpt lat="44.5064867" lon="8.8937183"><ele>124.42857142857144</ele><time>2026-03-28T11:15:45.015Z</time></trkpt><trkpt lat="44.50649" lon="8.893825"><ele>124.14285714285715</ele><time>2026-03-28T11:15:46.015Z</time></trkpt><trkpt lat="44.5064783" lon="8.8939383"><ele>123.85714285714286</ele><time>2026-03-28T11:15:47.015Z</time></trkpt><trkpt lat="44.5064717" lon="8.894045"><ele>123.57142857142858</ele><time>2026-03-28T11:15:48.015Z</time></trkpt><trkpt lat="44.5064683" lon="8.89415"><ele>123.2857142857143</ele><time>2026-03-28T11:15:49.015Z</time></trkpt><trkpt lat="44.50647" lon="8.8942417"><ele>123.00000000000001</ele><time>2026-03-28T11:15:50.015Z</time></trkpt><trkpt lat="44.5064733" lon="8.8943367"><ele>121.80000000000001</ele><time>2026-03-28T11:15:51.015Z</time></trkpt><trkpt lat="44.50644" lon="8.8945"><ele>120.60000000000001</ele><time>2026-03-28T11:15:53.015Z</time></trkpt><trkpt lat="44.5064183" lon="8.8946067"><ele>119.39999999999999</ele><time>2026-03-28T11:15:54.015Z</time></trkpt><trkpt lat="44.5064" lon="8.8947117"><ele>118.19999999999999</ele><time>2026-03-28T11:15:55.015Z</time></trkpt><trkpt lat="44.5063883" lon="8.8948383"><ele>117.0</ele><time>2026-03-28T11:15:56.015Z</time></trkpt><trkpt lat="44.506375" lon="8.894955"><ele>117.0</ele><time>2026-03-28T11:15:57.015Z</time></trkpt><trkpt lat="44.506355" lon="8.8950733"><ele>116.99999999999999</ele><time>2026-03-28T11:15:58.015Z</time></trkpt><trkpt lat="44.5063383" lon="8.8951933"><ele>116.99999999999999</ele><time>2026-03-28T11:15:59.015Z</time></trkpt><trkpt lat="44.5063233" lon="8.8953167"><ele>117.0</ele><time>2026-03-28T11:16:00.015Z</time></trkpt><trkpt lat="44.5063033" lon="8.89545"><ele>117.0</ele><time>2026-03-28T11:16:01.014Z</time></trkpt><trkpt lat="44.5062967" lon="8.89559"><ele>117.0</ele><time>2026-03-28T11:16:02.015Z</time></trkpt><trkpt lat="44.5062817" lon="8.8957233"><ele>116.99999999999999</ele><time>2026-03-28T11:16:03.015Z</time></trkpt><trkpt lat="44.5062533" lon="8.8958333"><ele>116.99999999999999</ele><time>2026-03-28T11:16:04.015Z</time></trkpt><trkpt lat="44.50622" lon="8.8959467"><ele>117.0</ele><time>2026-03-28T11:16:05.015Z</time></trkpt><trkpt lat="44.5061717" lon="8.8960583"><ele>117.0</ele><time>2026-03-28T11:16:06.015Z</time></trkpt><trkpt lat="44.5061217" lon="8.89617"><ele>117.0</ele><time>2026-03-28T11:16:07.015Z</time></trkpt><trkpt lat="44.5060467" lon="8.8962683"><ele>116.99999999999999</ele><time>2026-03-28T11:16:08.015Z</time></trkpt><trkpt lat="44.5059617" lon="8.8963667"><ele>116.99999999999999</ele><time>2026-03-28T11:16:09.014Z</time></trkpt><trkpt lat="44.5058733" lon="8.8964667"><ele>117.0</ele><time>2026-03-28T11:16:10.015Z</time></trkpt><trkpt lat="44.5057933" lon="8.8965717"><ele>117.0</ele><time>2026-03-28T11:16:11.015Z</time></trkpt><trkpt lat="44.5057317" lon="8.8966667"><ele>117.8</ele><time>2026-03-28T11:16:12.015Z</time></trkpt><trkpt lat="44.5056567" lon="8.8967583"><ele>118.6</ele><time>2026-03-28T11:16:13.015Z</time></trkpt><trkpt lat="44.5055817" lon="8.8968483"><ele>119.39999999999999</ele><time>2026-03-28T11:16:14.015Z</time></trkpt><trkpt lat="44.5055017" lon="8.896945"><ele>120.19999999999999</ele><time>2026-03-28T11:16:15.015Z</time></trkpt><trkpt lat="44.505425" lon="8.89704"><ele>121.0</ele><time>2026-03-28T11:16:16.015Z</time></trkpt><trkpt lat="44.50534" lon="8.8971317"><ele>121.0</ele><time>2026-03-28T11:16:17.014Z</time></trkpt><trkpt lat="44.5052417" lon="8.897215"><ele>121.0</ele><time>2026-03-28T11:16:18.015Z</time></trkpt><trkpt lat="44.5051433" lon="8.897305"><ele>121.0</ele><time>2026-03-28T11:16:19.015Z</time></trkpt><trkpt lat="44.50504" lon="8.897375"><ele>121.0</ele><time>2026-03-28T11:16:20.015Z</time></trkpt><trkpt lat="44.5049567" lon="8.897445"><ele>121.0</ele><time>2026-03-28T11:16:21.015Z</time></trkpt><trkpt lat="44.5048683" lon="8.8975017"><ele>121.00000000000001</ele><time>2026-03-28T11:16:22.015Z</time></trkpt><trkpt lat="44.5047833" lon="8.89756"><ele>121.0</ele><time>2026-03-28T11:16:23.015Z</time></trkpt><trkpt lat="44.5047083" lon="8.897605"><ele>121.0</ele><time>2026-03-28T11:16:24.015Z</time></trkpt><trkpt lat="44.50463" lon="8.8976367"><ele>121.0</ele><time>2026-03-28T11:16:25.015Z</time></trkpt><trkpt lat="44.5045567" lon="8.89769"><ele>121.00000000000001</ele><time>2026-03-28T11:16:26.015Z</time></trkpt><trkpt lat="44.5045017" lon="8.897735"><ele>121.0</ele><time>2026-03-28T11:16:27.015Z</time></trkpt><trkpt lat="44.5044383" lon="8.8977817"><ele>121.16666666666667</ele><time>2026-03-28T11:16:28.015Z</time></trkpt><trkpt lat="44.5043817" lon="8.897825"><ele>121.33333333333334</ele><time>2026-03-28T11:16:29.015Z</time></trkpt><trkpt lat="44.5043133" lon="8.8978767"><ele>121.5</ele><time>2026-03-28T11:16:30.015Z</time></trkpt><trkpt lat="44.504235" lon="8.897935"><ele>121.66666666666666</ele><time>2026-03-28T11:16:31.015Z</time></trkpt><trkpt lat="44.504165" lon="8.8979817"><ele>121.83333333333333</ele><time>2026-03-28T11:16:32.014Z</time></trkpt><trkpt lat="44.5040933" lon="8.8980267"><ele>122.0</ele><time>2026-03-28T11:16:33.015Z</time></trkpt><trkpt lat="44.5040167" lon="8.89808"><ele>121.99999999999999</ele><time>2026-03-28T11:16:34.014Z</time></trkpt><trkpt lat="44.50394" lon="8.8981217"><ele>122.0</ele><time>2026-03-28T11:16:35.015Z</time></trkpt><trkpt lat="44.5038667" lon="8.8981617"><ele>122.0</ele><time>2026-03-28T11:16:36.014Z</time></trkpt><trkpt lat="44.50379" lon="8.8982017"><ele>122.0</ele><time>2026-03-28T11:16:37.015Z</time></trkpt><trkpt lat="44.5037267" lon="8.89825"><ele>121.99999999999999</ele><time>2026-03-28T11:16:38.015Z</time></trkpt><trkpt lat="44.5036583" lon="8.89829"><ele>122.0</ele><time>2026-03-28T11:16:39.015Z</time></trkpt><trkpt lat="44.5035883" lon="8.89834"><ele>121.42857142857142</ele><time>2026-03-28T11:16:40.015Z</time></trkpt><trkpt lat="44.5035333" lon="8.898385"><ele>120.85714285714286</ele><time>2026-03-28T11:16:41.014Z</time></trkpt><trkpt lat="44.5034517" lon="8.8984633"><ele>120.28571428571428</ele><time>2026-03-28T11:16:43.014Z</time></trkpt><trkpt lat="44.503395" lon="8.8985467"><ele>119.71428571428571</ele><time>2026-03-28T11:16:45.014Z</time></trkpt><trkpt lat="44.5033483" lon="8.89862"><ele>119.14285714285714</ele><time>2026-03-28T11:16:47.013Z</time></trkpt><trkpt lat="44.5032917" lon="8.8986767"><ele>118.57142857142857</ele><time>2026-03-28T11:16:49.014Z</time></trkpt><trkpt lat="44.5032567" lon="8.8987517"><ele>118.0</ele><time>2026-03-28T11:16:50.014Z</time></trkpt><trkpt lat="44.503215" lon="8.8988467"><ele>118.0</ele><time>2026-03-28T11:16:51.014Z</time></trkpt><trkpt lat="44.5031683" lon="8.8989467"><ele>118.00000000000001</ele><time>2026-03-28T11:16:52.014Z</time></trkpt><trkpt lat="44.50312" lon="8.89906"><ele>118.00000000000001</ele><time>2026-03-28T11:16:53.014Z</time></trkpt><trkpt lat="44.503065" lon="8.8991783"><ele>118.0</ele><time>2026-03-28T11:16:54.013Z</time></trkpt><trkpt lat="44.5030033" lon="8.8993033"><ele>118.0</ele><time>2026-03-28T11:16:55.013Z</time></trkpt><trkpt lat="44.502925" lon="8.8994233"><ele>116.75</ele><time>2026-03-28T11:16:56.013Z</time></trkpt><trkpt lat="44.5028467" lon="8.89954"><ele>115.5</ele><time>2026-03-28T11:16:57.014Z</time></trkpt><trkpt lat="44.502745" lon="8.899635"><ele>114.25</ele><time>2026-03-28T11:16:58.014Z</time></trkpt><trkpt lat="44.50265" lon="8.89971"><ele>113.0</ele><time>2026-03-28T11:16:59.014Z</time></trkpt><trkpt lat="44.502555" lon="8.8997733"><ele>113.0</ele><time>2026-03-28T11:17:00.014Z</time></trkpt><trkpt lat="44.5024517" lon="8.8998417"><ele>113.0</ele><time>2026-03-28T11:17:01.014Z</time></trkpt><trkpt lat="44.502345" lon="8.8999117"><ele>113.0</ele><time>2026-03-28T11:17:02.014Z</time></trkpt><trkpt lat="44.50224" lon="8.899995"><ele>113.0</ele><time>2026-03-28T11:17:03.014Z</time></trkpt><trkpt lat="44.5021283" lon="8.9000967"><ele>114.75</ele><time>2026-03-28T11:17:04.014Z</time></trkpt><trkpt lat="44.5020317" lon="8.9002133"><ele>116.5</ele><time>2026-03-28T11:17:05.014Z</time></trkpt><trkpt lat="44.5019367" lon="8.9003233"><ele>118.25</ele><time>2026-03-28T11:17:06.014Z</time></trkpt><trkpt lat="44.50185" lon="8.9004517"><ele>120.0</ele><time>2026-03-28T11:17:07.014Z</time></trkpt><trkpt lat="44.501755" lon="8.90056"><ele>120.0</ele><time>2026-03-28T11:17:08.014Z</time></trkpt><trkpt lat="44.501665" lon="8.9006783"><ele>120.0</ele><time>2026-03-28T11:17:09.014Z</time></trkpt><trkpt lat="44.5015667" lon="8.900765"><ele>120.0</ele><time>2026-03-28T11:17:10.014Z</time></trkpt><trkpt lat="44.5014833" lon="8.90087"><ele>120.0</ele><time>2026-03-28T11:17:11.014Z</time></trkpt><trkpt lat="44.501395" lon="8.90097"><ele>120.0</ele><time>2026-03-28T11:17:12.013Z</time></trkpt><trkpt lat="44.5012983" lon="8.901055"><ele>120.0</ele><time>2026-03-28T11:17:13.013Z</time></trkpt><trkpt lat="44.5012" lon="8.9011167"><ele>120.0</ele><time>2026-03-28T11:17:14.014Z</time></trkpt><trkpt lat="44.5010867" lon="8.9011717"><ele>120.0</ele><time>2026-03-28T11:17:15.013Z</time></trkpt><trkpt lat="44.50097" lon="8.901225"><ele>120.0</ele><time>2026-03-28T11:17:16.013Z</time></trkpt><trkpt lat="44.5008517" lon="8.9012667"><ele>120.0</ele><time>2026-03-28T11:17:17.014Z</time></trkpt><trkpt lat="44.50075" lon="8.90132"><ele>120.0</ele><time>2026-03-28T11:17:18.013Z</time></trkpt><trkpt lat="44.5006583" lon="8.9013717"><ele>120.0</ele><time>2026-03-28T11:17:19.014Z</time></trkpt><trkpt lat="44.5005617" lon="8.9014317"><ele>120.0</ele><time>2026-03-28T11:17:20.013Z</time></trkpt><trkpt lat="44.5004667" lon="8.901495"><ele>117.2</ele><time>2026-03-28T11:17:21.013Z</time></trkpt><trkpt lat="44.5003783" lon="8.901565"><ele>114.4</ele><time>2026-03-28T11:17:22.014Z</time></trkpt><trkpt lat="44.5003067" lon="8.9016567"><ele>111.6</ele><time>2026-03-28T11:17:23.014Z</time></trkpt><trkpt lat="44.5002417" lon="8.9017633"><ele>108.8</ele><time>2026-03-28T11:17:24.014Z</time></trkpt><trkpt lat="44.5001983" lon="8.90187"><ele>106.0</ele><time>2026-03-28T11:17:25.013Z</time></trkpt><trkpt lat="44.5001733" lon="8.9019933"><ele>106.00000000000001</ele><time>2026-03-28T11:17:26.013Z</time></trkpt><trkpt lat="44.500165" lon="8.9021217"><ele>106.0</ele><time>2026-03-28T11:17:27.013Z</time></trkpt><trkpt lat="44.5001767" lon="8.90223"><ele>106.0</ele><time>2026-03-28T11:17:28.013Z</time></trkpt><trkpt lat="44.5001983" lon="8.9023333"><ele>106.0</ele><time>2026-03-28T11:17:29.013Z</time></trkpt><trkpt lat="44.5002433" lon="8.9024367"><ele>106.00000000000001</ele><time>2026-03-28T11:17:30.014Z</time></trkpt><trkpt lat="44.5003167" lon="8.902525"><ele>106.0</ele><time>2026-03-28T11:17:31.014Z</time></trkpt><trkpt lat="44.5003783" lon="8.9026033"><ele>106.66666666666667</ele><time>2026-03-28T11:17:32.014Z</time></trkpt><trkpt lat="44.5004517" lon="8.902675"><ele>107.33333333333334</ele><time>2026-03-28T11:17:33.014Z</time></trkpt><trkpt lat="44.500515" lon="8.902745"><ele>108.0</ele><time>2026-03-28T11:17:34.014Z</time></trkpt><trkpt lat="44.5005633" lon="8.9028267"><ele>108.66666666666666</ele><time>2026-03-28T11:17:35.014Z</time></trkpt><trkpt lat="44.500625" lon="8.9029067"><ele>109.33333333333333</ele><time>2026-03-28T11:17:36.014Z</time></trkpt><trkpt lat="44.5006633" lon="8.903"><ele>110.0</ele><time>2026-03-28T11:17:37.014Z</time></trkpt><trkpt lat="44.500725" lon="8.9030833"><ele>109.99999999999999</ele><time>2026-03-28T11:17:38.014Z</time></trkpt><trkpt lat="44.50078" lon="8.90317"><ele>110.0</ele><time>2026-03-28T11:17:39.014Z</time></trkpt><trkpt lat="44.5008" lon="8.9032683"><ele>110.0</ele><time>2026-03-28T11:17:40.013Z</time></trkpt><trkpt lat="44.5008317" lon="8.903375"><ele>110.0</ele><time>2026-03-28T11:17:41.014Z</time></trkpt><trkpt lat="44.500865" lon="8.90347"><ele>110.0</ele><time>2026-03-28T11:17:42.014Z</time></trkpt><trkpt lat="44.500895" lon="8.90355"><ele>109.99999999999999</ele><time>2026-03-28T11:17:43.013Z</time></trkpt><trkpt lat="44.5009233" lon="8.903635"><ele>110.0</ele><time>2026-03-28T11:17:44.014Z</time></trkpt><trkpt lat="44.5009617" lon="8.9037867"><ele>108.66666666666666</ele><time>2026-03-28T11:17:46.013Z</time></trkpt><trkpt lat="44.5009983" lon="8.9038783"><ele>107.33333333333333</ele><time>2026-03-28T11:17:48.013Z</time></trkpt><trkpt lat="44.501035" lon="8.9039867"><ele>106.0</ele><time>2026-03-28T11:18:37.014Z</time></trkpt><trkpt lat="44.5010883" lon="8.90408"><ele>104.66666666666666</ele><time>2026-03-28T11:18:39.014Z</time></trkpt><trkpt lat="44.5011283" lon="8.904155"><ele>103.33333333333333</ele><time>2026-03-28T11:18:40.013Z</time></trkpt><trkpt lat="44.5011733" lon="8.9042517"><ele>102.0</ele><time>2026-03-28T11:18:41.014Z</time></trkpt><trkpt lat="44.50122" lon="8.9043483"><ele>101.66666666666667</ele><time>2026-03-28T11:18:42.014Z</time></trkpt><trkpt lat="44.50126" lon="8.9044433"><ele>101.33333333333334</ele><time>2026-03-28T11:18:43.013Z</time></trkpt><trkpt lat="44.5013183" lon="8.9045633"><ele>101.0</ele><time>2026-03-28T11:18:45.013Z</time></trkpt><trkpt lat="44.5012833" lon="8.904645"><ele>100.66666666666667</ele><time>2026-03-28T11:20:07.014Z</time></trkpt><trkpt lat="44.50119" lon="8.904645"><ele>100.33333333333334</ele><time>2026-03-28T11:20:10.014Z</time></trkpt><trkpt lat="44.5011217" lon="8.9045333"><ele>100.0</ele><time>2026-03-28T11:20:12.013Z</time></trkpt><trkpt lat="44.5010933" lon="8.9044533"><ele>100.00000000000001</ele><time>2026-03-28T11:20:13.013Z</time></trkpt><trkpt lat="44.5010533" lon="8.9043817"><ele>100.0</ele><time>2026-03-28T11:20:14.013Z</time></trkpt><trkpt lat="44.5009933" lon="8.9042317"><ele>100.0</ele><time>2026-03-28T11:20:16.014Z</time></trkpt><trkpt lat="44.500935" lon="8.9041517"><ele>100.0</ele><time>2026-03-28T11:20:18.014Z</time></trkpt><trkpt lat="44.50084" lon="8.9042067"><ele>100.00000000000001</ele><time>2026-03-28T11:20:20.014Z</time></trkpt><trkpt lat="44.5007767" lon="8.9042633"><ele>100.0</ele><time>2026-03-28T11:20:21.014Z</time></trkpt><trkpt lat="44.5007183" lon="8.9043133"><ele>100.00000000000001</ele><time>2026-03-28T11:20:22.013Z</time></trkpt><trkpt lat="44.50068" lon="8.9044333"><ele>100.0</ele><time>2026-03-28T11:20:24.013Z</time></trkpt><trkpt lat="44.500725" lon="8.9045117"><ele>100.0</ele><time>2026-03-28T11:20:32.014Z</time></trkpt><trkpt lat="44.5008233" lon="8.9046283"><ele>100.0</ele><time>2026-03-28T11:20:34.014Z</time></trkpt><trkpt lat="44.5008767" lon="8.9046917"><ele>100.00000000000001</ele><time>2026-03-28T11:20:35.013Z</time></trkpt><trkpt lat="44.5009317" lon="8.904755"><ele>100.0</ele><time>2026-03-28T11:20:36.014Z</time></trkpt><trkpt lat="44.500995" lon="8.9048167"><ele>100.00000000000001</ele><time>2026-03-28T11:20:37.014Z</time></trkpt><trkpt lat="44.5010717" lon="8.9048867"><ele>100.0</ele><time>2026-03-28T11:20:38.014Z</time></trkpt><trkpt lat="44.5011367" lon="8.9049567"><ele>100.0</ele><time>2026-03-28T11:20:39.014Z</time></trkpt><trkpt lat="44.5012117" lon="8.9050267"><ele>100.0</ele><time>2026-03-28T11:20:40.013Z</time></trkpt><trkpt lat="44.5012767" lon="8.9050917"><ele>100.00000000000001</ele><time>2026-03-28T11:20:41.013Z</time></trkpt><trkpt lat="44.5013333" lon="8.9051583"><ele>100.0</ele><time>2026-03-28T11:20:42.014Z</time></trkpt><trkpt lat="44.5013833" lon="8.9052367"><ele>99.8</ele><time>2026-03-28T11:20:43.014Z</time></trkpt><trkpt lat="44.5014533" lon="8.905385"><ele>99.6</ele><time>2026-03-28T11:20:45.014Z</time></trkpt><trkpt lat="44.5014833" lon="8.90547"><ele>99.4</ele><time>2026-03-28T11:20:46.013Z</time></trkpt><trkpt lat="44.5015483" lon="8.9055333"><ele>99.2</ele><time>2026-03-28T11:20:47.014Z</time></trkpt><trkpt lat="44.5016367" lon="8.9055883"><ele>99.0</ele><time>2026-03-28T11:20:48.014Z</time></trkpt><trkpt lat="44.5017217" lon="8.90565"><ele>99.0</ele><time>2026-03-28T11:20:49.014Z</time></trkpt><trkpt lat="44.5018" lon="8.9057133"><ele>99.0</ele><time>2026-03-28T11:20:50.013Z</time></trkpt><trkpt lat="44.5018817" lon="8.90577"><ele>99.0</ele><time>2026-03-28T11:20:51.014Z</time></trkpt><trkpt lat="44.5019717" lon="8.905825"><ele>99.0</ele><time>2026-03-28T11:20:52.014Z</time></trkpt><trkpt lat="44.5020617" lon="8.90589"><ele>99.0</ele><time>2026-03-28T11:20:53.013Z</time></trkpt><trkpt lat="44.50214" lon="8.9059517"><ele>99.33333333333333</ele><time>2026-03-28T11:20:54.014Z</time></trkpt><trkpt lat="44.5022117" lon="8.9060117"><ele>99.66666666666666</ele><time>2026-03-28T11:20:55.014Z</time></trkpt><trkpt lat="44.502265" lon="8.9060617"><ele>100.0</ele><time>2026-03-28T11:20:56.014Z</time></trkpt><trkpt lat="44.5023283" lon="8.9061017"><ele>100.33333333333333</ele><time>2026-03-28T11:20:57.014Z</time></trkpt><trkpt lat="44.5023967" lon="8.9061417"><ele>100.66666666666666</ele><time>2026-03-28T11:20:58.013Z</time></trkpt><trkpt lat="44.5024717" lon="8.9061767"><ele>101.0</ele><time>2026-03-28T11:20:59.014Z</time></trkpt><trkpt lat="44.5025617" lon="8.9061883"><ele>100.99999999999999</ele><time>2026-03-28T11:21:00.014Z</time></trkpt><trkpt lat="44.502645" lon="8.90617"><ele>101.0</ele><time>2026-03-28T11:21:01.014Z</time></trkpt><trkpt lat="44.5027233" lon="8.90613"><ele>101.0</ele><time>2026-03-28T11:21:02.014Z</time></trkpt><trkpt lat="44.5028067" lon="8.9060867"><ele>101.0</ele><time>2026-03-28T11:21:03.014Z</time></trkpt><trkpt lat="44.5028967" lon="8.90606"><ele>100.99999999999999</ele><time>2026-03-28T11:21:04.014Z</time></trkpt><trkpt lat="44.502995" lon="8.906045"><ele>101.0</ele><time>2026-03-28T11:21:05.013Z</time></trkpt><trkpt lat="44.5030983" lon="8.9060433"><ele>101.19999999999999</ele><time>2026-03-28T11:21:06.014Z</time></trkpt><trkpt lat="44.503215" lon="8.9060217"><ele>101.39999999999999</ele><time>2026-03-28T11:21:07.013Z</time></trkpt><trkpt lat="44.5033117" lon="8.906075"><ele>101.6</ele><time>2026-03-28T11:21:08.013Z</time></trkpt><trkpt lat="44.5034117" lon="8.9061133"><ele>101.8</ele><time>2026-03-28T11:21:09.014Z</time></trkpt><trkpt lat="44.5034983" lon="8.9061633"><ele>102.0</ele><time>2026-03-28T11:21:10.014Z</time></trkpt><trkpt lat="44.5035717" lon="8.9062367"><ele>102.0</ele><time>2026-03-28T11:21:11.014Z</time></trkpt><trkpt lat="44.503645" lon="8.9063167"><ele>102.0</ele><time>2026-03-28T11:21:12.013Z</time></trkpt><trkpt lat="44.5037017" lon="8.9064167"><ele>102.0</ele><time>2026-03-28T11:21:13.014Z</time></trkpt><trkpt lat="44.503755" lon="8.906525"><ele>102.0</ele><time>2026-03-28T11:21:14.014Z</time></trkpt><trkpt lat="44.5038033" lon="8.9066167"><ele>102.0</ele><time>2026-03-28T11:21:15.013Z</time></trkpt><trkpt lat="44.5038417" lon="8.9067"><ele>102.0</ele><time>2026-03-28T11:21:16.014Z</time></trkpt><trkpt lat="44.5038917" lon="8.9067733"><ele>102.16666666666667</ele><time>2026-03-28T11:21:17.014Z</time></trkpt><trkpt lat="44.5039433" lon="8.9068467"><ele>102.33333333333334</ele><time>2026-03-28T11:21:18.013Z</time></trkpt><trkpt lat="44.5039983" lon="8.9069183"><ele>102.5</ele><time>2026-03-28T11:21:19.013Z</time></trkpt><trkpt lat="44.5040533" lon="8.906985"><ele>102.66666666666667</ele><time>2026-03-28T11:21:20.013Z</time></trkpt><trkpt lat="44.5041017" lon="8.9070783"><ele>102.83333333333334</ele><time>2026-03-28T11:21:21.014Z</time></trkpt><trkpt lat="44.50415" lon="8.90715"><ele>103.0</ele><time>2026-03-28T11:21:22.014Z</time></trkpt><trkpt lat="44.5042117" lon="8.9072167"><ele>103.00000000000001</ele><time>2026-03-28T11:21:23.014Z</time></trkpt><trkpt lat="44.50428" lon="8.9072967"><ele>103.0</ele><time>2026-03-28T11:21:24.014Z</time></trkpt><trkpt lat="44.5043483" lon="8.9073733"><ele>103.0</ele><time>2026-03-28T11:21:25.013Z</time></trkpt><trkpt lat="44.5044283" lon="8.90744"><ele>103.0</ele><time>2026-03-28T11:21:26.014Z</time></trkpt><trkpt lat="44.5044983" lon="8.9075017"><ele>103.00000000000001</ele><time>2026-03-28T11:21:27.013Z</time></trkpt><trkpt lat="44.504565" lon="8.9075467"><ele>103.0</ele><time>2026-03-28T11:21:28.014Z</time></trkpt><trkpt lat="44.5046483" lon="8.90763"><ele>103.66666666666667</ele><time>2026-03-28T11:21:30.014Z</time></trkpt><trkpt lat="44.504725" lon="8.9076667"><ele>104.33333333333334</ele><time>2026-03-28T11:21:33.014Z</time></trkpt><trkpt lat="44.5047983" lon="8.9077083"><ele>105.0</ele><time>2026-03-28T11:21:47.014Z</time></trkpt><trkpt lat="44.5048883" lon="8.9078"><ele>105.66666666666666</ele><time>2026-03-28T11:21:49.014Z</time></trkpt><trkpt lat="44.504945" lon="8.90785"><ele>106.33333333333333</ele><time>2026-03-28T11:21:50.014Z</time></trkpt><trkpt lat="44.5050067" lon="8.907915"><ele>107.0</ele><time>2026-03-28T11:21:51.013Z</time></trkpt><trkpt lat="44.505075" lon="8.907965"><ele>106.99999999999999</ele><time>2026-03-28T11:21:52.014Z</time></trkpt><trkpt lat="44.5051417" lon="8.9080233"><ele>107.0</ele><time>2026-03-28T11:21:53.014Z</time></trkpt><trkpt lat="44.505215" lon="8.90809"><ele>107.0</ele><time>2026-03-28T11:21:54.014Z</time></trkpt><trkpt lat="44.50528" lon="8.9081717"><ele>107.0</ele><time>2026-03-28T11:21:55.013Z</time></trkpt><trkpt lat="44.50535" lon="8.9082533"><ele>106.99999999999999</ele><time>2026-03-28T11:21:56.014Z</time></trkpt><trkpt lat="44.505435" lon="8.90833"><ele>107.0</ele><time>2026-03-28T11:21:57.014Z</time></trkpt><trkpt lat="44.5055183" lon="8.9084033"><ele>107.19999999999999</ele><time>2026-03-28T11:21:58.014Z</time></trkpt><trkpt lat="44.505605" lon="8.9084783"><ele>107.39999999999999</ele><time>2026-03-28T11:21:59.014Z</time></trkpt><trkpt lat="44.5056917" lon="8.908555"><ele>107.60000000000001</ele><time>2026-03-28T11:22:00.014Z</time></trkpt><trkpt lat="44.50576" lon="8.9086333"><ele>107.80000000000001</ele><time>2026-03-28T11:22:01.014Z</time></trkpt><trkpt lat="44.505845" lon="8.9087033"><ele>108.0</ele><time>2026-03-28T11:22:02.013Z</time></trkpt><trkpt lat="44.5059433" lon="8.9087567"><ele>108.0</ele><time>2026-03-28T11:22:03.014Z</time></trkpt><trkpt lat="44.5060383" lon="8.9088167"><ele>108.00000000000001</ele><time>2026-03-28T11:22:04.014Z</time></trkpt><trkpt lat="44.5061467" lon="8.9088567"><ele>108.00000000000001</ele><time>2026-03-28T11:22:05.014Z</time></trkpt><trkpt lat="44.5062533" lon="8.9089083"><ele>108.0</ele><time>2026-03-28T11:22:06.014Z</time></trkpt><trkpt lat="44.5063533" lon="8.9089567"><ele>108.0</ele><time>2026-03-28T11:22:07.014Z</time></trkpt><trkpt lat="44.506455" lon="8.9089983"><ele>109.25</ele><time>2026-03-28T11:22:08.014Z</time></trkpt><trkpt lat="44.5065567" lon="8.9090417"><ele>110.5</ele><time>2026-03-28T11:22:09.014Z</time></trkpt><trkpt lat="44.5066667" lon="8.9090817"><ele>111.75</ele><time>2026-03-28T11:22:10.014Z</time></trkpt><trkpt lat="44.5067783" lon="8.9091267"><ele>113.0</ele><time>2026-03-28T11:22:11.013Z</time></trkpt><trkpt lat="44.5068833" lon="8.9091967"><ele>112.5</ele><time>2026-03-28T11:22:12.014Z</time></trkpt><trkpt lat="44.5069867" lon="8.9092633"><ele>112.0</ele><time>2026-03-28T11:22:13.014Z</time></trkpt><trkpt lat="44.5070917" lon="8.909325"><ele>111.5</ele><time>2026-03-28T11:22:14.014Z</time></trkpt><trkpt lat="44.5072033" lon="8.9093917"><ele>111.0</ele><time>2026-03-28T11:22:15.014Z</time></trkpt><trkpt lat="44.5073" lon="8.9094667"><ele>111.0</ele><time>2026-03-28T11:22:16.014Z</time></trkpt><trkpt lat="44.5073917" lon="8.9095517"><ele>111.0</ele><time>2026-03-28T11:22:17.014Z</time></trkpt><trkpt lat="44.50748" lon="8.909635"><ele>111.0</ele><time>2026-03-28T11:22:18.014Z</time></trkpt><trkpt lat="44.5075667" lon="8.9097283"><ele>111.0</ele><time>2026-03-28T11:22:19.014Z</time></trkpt><trkpt lat="44.5076467" lon="8.90983"><ele>111.0</ele><time>2026-03-28T11:22:20.014Z</time></trkpt><trkpt lat="44.5076933" lon="8.90995"><ele>111.0</ele><time>2026-03-28T11:22:21.014Z</time></trkpt><trkpt lat="44.507735" lon="8.9100883"><ele>111.0</ele><time>2026-03-28T11:22:22.013Z</time></trkpt><trkpt lat="44.5077683" lon="8.9102467"><ele>111.0</ele><time>2026-03-28T11:22:23.014Z</time></trkpt><trkpt lat="44.5077783" lon="8.910415"><ele>111.0</ele><time>2026-03-28T11:22:24.014Z</time></trkpt><trkpt lat="44.507805" lon="8.91059"><ele>111.0</ele><time>2026-03-28T11:22:25.014Z</time></trkpt><trkpt lat="44.5078483" lon="8.910755"><ele>111.0</ele><time>2026-03-28T11:22:26.014Z</time></trkpt><trkpt lat="44.50789" lon="8.9109067"><ele>111.0</ele><time>2026-03-28T11:22:27.014Z</time></trkpt><trkpt lat="44.5079367" lon="8.91105"><ele>111.0</ele><time>2026-03-28T11:22:28.014Z</time></trkpt><trkpt lat="44.50799" lon="8.9111933"><ele>112.5</ele><time>2026-03-28T11:22:29.014Z</time></trkpt><trkpt lat="44.50803" lon="8.9113533"><ele>114.0</ele><time>2026-03-28T11:22:30.013Z</time></trkpt><trkpt lat="44.5080683" lon="8.9115167"><ele>115.5</ele><time>2026-03-28T11:22:31.014Z</time></trkpt><trkpt lat="44.5081267" lon="8.9116717"><ele>117.0</ele><time>2026-03-28T11:22:32.014Z</time></trkpt><trkpt lat="44.508175" lon="8.91182"><ele>117.0</ele><time>2026-03-28T11:22:33.014Z</time></trkpt><trkpt lat="44.508225" lon="8.9119617"><ele>116.99999999999999</ele><time>2026-03-28T11:22:34.014Z</time></trkpt><trkpt lat="44.508275" lon="8.9121117"><ele>116.99999999999999</ele><time>2026-03-28T11:22:35.014Z</time></trkpt><trkpt lat="44.5083083" lon="8.9122617"><ele>117.0</ele><time>2026-03-28T11:22:36.014Z</time></trkpt><trkpt lat="44.5083483" lon="8.91239"><ele>117.0</ele><time>2026-03-28T11:22:37.014Z</time></trkpt><trkpt lat="44.5083733" lon="8.91252"><ele>117.19999999999999</ele><time>2026-03-28T11:22:38.014Z</time></trkpt><trkpt lat="44.5084083" lon="8.9126467"><ele>117.39999999999999</ele><time>2026-03-28T11:22:39.014Z</time></trkpt><trkpt lat="44.5084583" lon="8.9127533"><ele>117.60000000000001</ele><time>2026-03-28T11:22:40.014Z</time></trkpt><trkpt lat="44.5085367" lon="8.91284"><ele>117.80000000000001</ele><time>2026-03-28T11:22:41.013Z</time></trkpt><trkpt lat="44.5086417" lon="8.9128983"><ele>118.0</ele><time>2026-03-28T11:22:42.013Z</time></trkpt><trkpt lat="44.5087567" lon="8.9129317"><ele>118.00000000000001</ele><time>2026-03-28T11:22:43.014Z</time></trkpt><trkpt lat="44.5088567" lon="8.9129183"><ele>118.0</ele><time>2026-03-28T11:22:44.014Z</time></trkpt><trkpt lat="44.5089517" lon="8.912895"><ele>118.0</ele><time>2026-03-28T11:22:45.014Z</time></trkpt><trkpt lat="44.5090217" lon="8.9128767"><ele>118.0</ele><time>2026-03-28T11:22:46.013Z</time></trkpt><trkpt lat="44.5090983" lon="8.91287"><ele>118.00000000000001</ele><time>2026-03-28T11:22:48.014Z</time></trkpt><trkpt lat="44.5091717" lon="8.9129367"><ele>118.0</ele><time>2026-03-28T11:22:50.013Z</time></trkpt><trkpt lat="44.5092117" lon="8.9130733"><ele>118.00000000000001</ele><time>2026-03-28T11:22:52.013Z</time></trkpt><trkpt lat="44.5092367" lon="8.9131717"><ele>118.0</ele><time>2026-03-28T11:22:54.013Z</time></trkpt><trkpt lat="44.509175" lon="8.913275"><ele>118.0</ele><time>2026-03-28T11:23:03.013Z</time></trkpt><trkpt lat="44.50912" lon="8.9133317"><ele>118.0</ele><time>2026-03-28T11:23:04.013Z</time></trkpt><trkpt lat="44.5090717" lon="8.9133967"><ele>118.00000000000001</ele><time>2026-03-28T11:23:05.013Z</time></trkpt><trkpt lat="44.5090233" lon="8.9134783"><ele>118.0</ele><time>2026-03-28T11:23:07.013Z</time></trkpt><trkpt lat="44.5089317" lon="8.9134783"><ele>120.60000000000001</ele><time>2026-03-28T11:30:47.011Z</time></trkpt><trkpt lat="44.5088333" lon="8.9135183"><ele>123.20000000000002</ele><time>2026-03-28T11:30:49.012Z</time></trkpt><trkpt lat="44.5087583" lon="8.9135733"><ele>125.8</ele><time>2026-03-28T11:30:51.012Z</time></trkpt><trkpt lat="44.508735" lon="8.91367"><ele>128.4</ele><time>2026-03-28T11:30:53.011Z</time></trkpt><trkpt lat="44.5087217" lon="8.913795"><ele>131.0</ele><time>2026-03-28T11:30:55.012Z</time></trkpt><trkpt lat="44.5087" lon="8.9139317"><ele>131.2</ele><time>2026-03-28T11:30:57.012Z</time></trkpt><trkpt lat="44.5086883" lon="8.9140567"><ele>131.39999999999998</ele><time>2026-03-28T11:30:59.012Z</time></trkpt><trkpt lat="44.5086433" lon="8.914205"><ele>131.6</ele><time>2026-03-28T11:31:01.012Z</time></trkpt><trkpt lat="44.5085817" lon="8.914355"><ele>131.79999999999998</ele><time>2026-03-28T11:31:03.012Z</time></trkpt><trkpt lat="44.5085267" lon="8.9144817"><ele>132.0</ele><time>2026-03-28T11:31:05.012Z</time></trkpt><trkpt lat="44.508455" lon="8.91453"><ele>132.0</ele><time>2026-03-28T11:31:07.011Z</time></trkpt><trkpt lat="44.508375" lon="8.914515"><ele>132.0</ele><time>2026-03-28T11:31:09.012Z</time></trkpt><trkpt lat="44.5083" lon="8.9144133"><ele>132.0</ele><time>2026-03-28T11:31:11.012Z</time></trkpt><trkpt lat="44.5082483" lon="8.914335"><ele>132.0</ele><time>2026-03-28T11:31:12.012Z</time></trkpt><trkpt lat="44.5082067" lon="8.914255"><ele>132.0</ele><time>2026-03-28T11:31:13.012Z</time></trkpt><trkpt lat="44.508155" lon="8.9141867"><ele>132.0</ele><time>2026-03-28T11:31:14.012Z</time></trkpt><trkpt lat="44.508105" lon="8.9141283"><ele>132.0</ele><time>2026-03-28T11:31:15.012Z</time></trkpt><trkpt lat="44.5080517" lon="8.91408"><ele>132.0</ele><time>2026-03-28T11:31:16.011Z</time></trkpt><trkpt lat="44.5079867" lon="8.914045"><ele>132.0</ele><time>2026-03-28T11:31:17.012Z</time></trkpt><trkpt lat="44.5079133" lon="8.9140167"><ele>132.0</ele><time>2026-03-28T11:31:18.012Z</time></trkpt><trkpt lat="44.5078233" lon="8.9139933"><ele>132.0</ele><time>2026-03-28T11:31:19.011Z</time></trkpt><trkpt lat="44.50775" lon="8.9139833"><ele>132.0</ele><time>2026-03-28T11:31:20.012Z</time></trkpt><trkpt lat="44.507675" lon="8.913985"><ele>132.0</ele><time>2026-03-28T11:31:21.012Z</time></trkpt><trkpt lat="44.5075917" lon="8.9139933"><ele>134.0</ele><time>2026-03-28T11:31:22.012Z</time></trkpt><trkpt lat="44.5075017" lon="8.91401"><ele>136.0</ele><time>2026-03-28T11:31:23.012Z</time></trkpt><trkpt lat="44.5074017" lon="8.9140267"><ele>138.0</ele><time>2026-03-28T11:31:24.012Z</time></trkpt><trkpt lat="44.5072933" lon="8.9140483"><ele>140.0</ele><time>2026-03-28T11:31:25.012Z</time></trkpt><trkpt lat="44.507195" lon="8.9140567"><ele>142.0</ele><time>2026-03-28T11:31:26.012Z</time></trkpt><trkpt lat="44.5071017" lon="8.9140267"><ele>146.6</ele><time>2026-03-28T11:31:27.012Z</time></trkpt><trkpt lat="44.5070267" lon="8.9139483"><ele>151.2</ele><time>2026-03-28T11:31:28.011Z</time></trkpt><trkpt lat="44.50695" lon="8.913865"><ele>155.8</ele><time>2026-03-28T11:31:29.012Z</time></trkpt><trkpt lat="44.5068833" lon="8.913785"><ele>160.4</ele><time>2026-03-28T11:31:30.012Z</time></trkpt><trkpt lat="44.5068067" lon="8.913715"><ele>165.0</ele><time>2026-03-28T11:31:31.012Z</time></trkpt><trkpt lat="44.5067283" lon="8.9136617"><ele>165.0</ele><time>2026-03-28T11:31:32.011Z</time></trkpt><trkpt lat="44.5066517" lon="8.91361"><ele>165.0</ele><time>2026-03-28T11:31:33.012Z</time></trkpt><trkpt lat="44.5065767" lon="8.9135533"><ele>165.0</ele><time>2026-03-28T11:31:34.012Z</time></trkpt><trkpt lat="44.5065283" lon="8.9134767"><ele>165.0</ele><time>2026-03-28T11:31:35.012Z</time></trkpt><trkpt lat="44.5064917" lon="8.9133833"><ele>165.0</ele><time>2026-03-28T11:31:36.012Z</time></trkpt><trkpt lat="44.5065067" lon="8.913275"><ele>165.0</ele><time>2026-03-28T11:31:37.012Z</time></trkpt><trkpt lat="44.5065433" lon="8.9131533"><ele>163.83333333333334</ele><time>2026-03-28T11:31:38.012Z</time></trkpt><trkpt lat="44.5065683" lon="8.9130333"><ele>162.66666666666666</ele><time>2026-03-28T11:31:39.012Z</time></trkpt><trkpt lat="44.5065867" lon="8.9129167"><ele>161.5</ele><time>2026-03-28T11:31:40.012Z</time></trkpt><trkpt lat="44.5065867" lon="8.9128"><ele>160.33333333333331</ele><time>2026-03-28T11:31:41.012Z</time></trkpt><trkpt lat="44.5065633" lon="8.9126783"><ele>159.16666666666666</ele><time>2026-03-28T11:31:42.012Z</time></trkpt><trkpt lat="44.50653" lon="8.9125617"><ele>158.0</ele><time>2026-03-28T11:31:43.012Z</time></trkpt><trkpt lat="44.5064883" lon="8.912445"><ele>157.0</ele><time>2026-03-28T11:31:44.012Z</time></trkpt><trkpt lat="44.50645" lon="8.9123117"><ele>156.0</ele><time>2026-03-28T11:31:45.012Z</time></trkpt><trkpt lat="44.5064067" lon="8.912185"><ele>155.0</ele><time>2026-03-28T11:31:46.012Z</time></trkpt><trkpt lat="44.5063717" lon="8.912075"><ele>154.0</ele><time>2026-03-28T11:31:47.012Z</time></trkpt><trkpt lat="44.50633" lon="8.9119717"><ele>153.0</ele><time>2026-03-28T11:31:48.012Z</time></trkpt><trkpt lat="44.5062717" lon="8.9119"><ele>158.8</ele><time>2026-03-28T11:31:49.011Z</time></trkpt><trkpt lat="44.5061983" lon="8.91184"><ele>164.60000000000002</ele><time>2026-03-28T11:31:50.012Z</time></trkpt><trkpt lat="44.5061083" lon="8.91182"><ele>170.39999999999998</ele><time>2026-03-28T11:31:51.012Z</time></trkpt><trkpt lat="44.5060067" lon="8.9118233"><ele>176.2</ele><time>2026-03-28T11:31:52.012Z</time></trkpt><trkpt lat="44.5059017" lon="8.9118483"><ele>182.0</ele><time>2026-03-28T11:31:53.012Z</time></trkpt><trkpt lat="44.50578" lon="8.9118817"><ele>182.0</ele><time>2026-03-28T11:31:54.012Z</time></trkpt><trkpt lat="44.5056717" lon="8.911925"><ele>182.0</ele><time>2026-03-28T11:31:55.011Z</time></trkpt><trkpt lat="44.505575" lon="8.91197"><ele>182.0</ele><time>2026-03-28T11:31:56.012Z</time></trkpt><trkpt lat="44.505485" lon="8.9120383"><ele>182.0</ele><time>2026-03-28T11:31:57.012Z</time></trkpt><trkpt lat="44.5054117" lon="8.9120817"><ele>182.0</ele><time>2026-03-28T11:31:58.012Z</time></trkpt><trkpt lat="44.505345" lon="8.9120833"><ele>183.33333333333331</ele><time>2026-03-28T11:31:59.011Z</time></trkpt><trkpt lat="44.5052633" lon="8.9120183"><ele>184.66666666666666</ele><time>2026-03-28T11:32:01.012Z</time></trkpt><trkpt lat="44.505285" lon="8.9118967"><ele>186.0</ele><time>2026-03-28T11:32:02.012Z</time></trkpt><trkpt lat="44.5052917" lon="8.91179"><ele>187.33333333333334</ele><time>2026-03-28T11:32:03.012Z</time></trkpt><trkpt lat="44.5052533" lon="8.9117017"><ele>188.66666666666669</ele><time>2026-03-28T11:32:04.011Z</time></trkpt><trkpt lat="44.5052267" lon="8.911585"><ele>190.0</ele><time>2026-03-28T11:32:05.012Z</time></trkpt><trkpt lat="44.505195" lon="8.9114767"><ele>190.0</ele><time>2026-03-28T11:32:06.012Z</time></trkpt><trkpt lat="44.50514" lon="8.9113667"><ele>190.0</ele><time>2026-03-28T11:32:07.012Z</time></trkpt><trkpt lat="44.505075" lon="8.91125"><ele>190.0</ele><time>2026-03-28T11:32:08.012Z</time></trkpt><trkpt lat="44.5050017" lon="8.9111417"><ele>190.0</ele><time>2026-03-28T11:32:09.012Z</time></trkpt><trkpt lat="44.5049283" lon="8.9110517"><ele>190.0</ele><time>2026-03-28T11:32:10.011Z</time></trkpt><trkpt lat="44.5048533" lon="8.9109883"><ele>190.0</ele><time>2026-03-28T11:32:11.012Z</time></trkpt><trkpt lat="44.5047767" lon="8.9109533"><ele>190.0</ele><time>2026-03-28T11:32:12.012Z</time></trkpt><trkpt lat="44.5046933" lon="8.9109533"><ele>190.0</ele><time>2026-03-28T11:32:13.012Z</time></trkpt><trkpt lat="44.504605" lon="8.910985"><ele>190.0</ele><time>2026-03-28T11:32:14.012Z</time></trkpt><trkpt lat="44.5045183" lon="8.9110283"><ele>190.0</ele><time>2026-03-28T11:32:15.012Z</time></trkpt><trkpt lat="44.5044133" lon="8.9110917"><ele>191.75</ele><time>2026-03-28T11:32:16.012Z</time></trkpt><trkpt lat="44.5043067" lon="8.9111783"><ele>193.5</ele><time>2026-03-28T11:32:17.011Z</time></trkpt><trkpt lat="44.5042067" lon="8.911275"><ele>195.25</ele><time>2026-03-28T11:32:18.012Z</time></trkpt><trkpt lat="44.5041083" lon="8.911355"><ele>197.0</ele><time>2026-03-28T11:32:19.012Z</time></trkpt><trkpt lat="44.5040233" lon="8.911435"><ele>197.0</ele><time>2026-03-28T11:32:20.012Z</time></trkpt><trkpt lat="44.50394" lon="8.911505"><ele>197.0</ele><time>2026-03-28T11:32:21.012Z</time></trkpt><trkpt lat="44.503855" lon="8.9115317"><ele>197.0</ele><time>2026-03-28T11:32:22.012Z</time></trkpt><trkpt lat="44.5037667" lon="8.9115283"><ele>197.0</ele><time>2026-03-28T11:32:23.012Z</time></trkpt><trkpt lat="44.503675" lon="8.9115167"><ele>197.0</ele><time>2026-03-28T11:32:24.012Z</time></trkpt><trkpt lat="44.50357" lon="8.9114783"><ele>197.0</ele><time>2026-03-28T11:32:25.012Z</time></trkpt><trkpt lat="44.5034667" lon="8.9114567"><ele>197.0</ele><time>2026-03-28T11:32:26.012Z</time></trkpt><trkpt lat="44.5033583" lon="8.91147"><ele>197.0</ele><time>2026-03-28T11:32:27.012Z</time></trkpt><trkpt lat="44.503255" lon="8.911515"><ele>197.0</ele><time>2026-03-28T11:32:28.012Z</time></trkpt><trkpt lat="44.5031583" lon="8.9115817"><ele>197.0</ele><time>2026-03-28T11:32:29.012Z</time></trkpt><trkpt lat="44.5030567" lon="8.9116517"><ele>197.0</ele><time>2026-03-28T11:32:30.012Z</time></trkpt><trkpt lat="44.50296" lon="8.9117033"><ele>197.0</ele><time>2026-03-28T11:32:31.012Z</time></trkpt><trkpt lat="44.5028633" lon="8.911735"><ele>197.0</ele><time>2026-03-28T11:32:32.012Z</time></trkpt><trkpt lat="44.5027567" lon="8.9117667"><ele>197.0</ele><time>2026-03-28T11:32:33.012Z</time></trkpt><trkpt lat="44.5026417" lon="8.9117883"><ele>197.0</ele><time>2026-03-28T11:32:34.011Z</time></trkpt><trkpt lat="44.5025417" lon="8.9118017"><ele>197.83333333333334</ele><time>2026-03-28T11:32:35.012Z</time></trkpt><trkpt lat="44.50244" lon="8.9118083"><ele>198.66666666666669</ele><time>2026-03-28T11:32:36.012Z</time></trkpt><trkpt lat="44.5023517" lon="8.911785"><ele>199.5</ele><time>2026-03-28T11:32:37.012Z</time></trkpt><trkpt lat="44.50228" lon="8.9117217"><ele>200.33333333333331</ele><time>2026-03-28T11:32:38.012Z</time></trkpt><trkpt lat="44.5022233" lon="8.911625"><ele>201.16666666666666</ele><time>2026-03-28T11:32:39.012Z</time></trkpt><trkpt lat="44.50218" lon="8.9115283"><ele>202.0</ele><time>2026-03-28T11:32:40.011Z</time></trkpt><trkpt lat="44.502115" lon="8.9114167"><ele>206.2</ele><time>2026-03-28T11:32:41.012Z</time></trkpt><trkpt lat="44.5020433" lon="8.9113083"><ele>210.39999999999998</ele><time>2026-03-28T11:32:42.012Z</time></trkpt><trkpt lat="44.501965" lon="8.9111983"><ele>214.60000000000002</ele><time>2026-03-28T11:32:43.011Z</time></trkpt><trkpt lat="44.50188" lon="8.9111233"><ele>218.8</ele><time>2026-03-28T11:32:44.011Z</time></trkpt><trkpt lat="44.5017883" lon="8.9110717"><ele>223.0</ele><time>2026-03-28T11:32:45.012Z</time></trkpt><trkpt lat="44.5016833" lon="8.9110533"><ele>223.0</ele><time>2026-03-28T11:32:46.012Z</time></trkpt><trkpt lat="44.5015717" lon="8.911075"><ele>223.0</ele><time>2026-03-28T11:32:47.012Z</time></trkpt><trkpt lat="44.5014583" lon="8.9111017"><ele>223.0</ele><time>2026-03-28T11:32:48.012Z</time></trkpt><trkpt lat="44.5013367" lon="8.9111117"><ele>223.0</ele><time>2026-03-28T11:32:49.012Z</time></trkpt><trkpt lat="44.501215" lon="8.9111183"><ele>223.60000000000002</ele><time>2026-03-28T11:32:50.011Z</time></trkpt><trkpt lat="44.5010883" lon="8.91112"><ele>224.20000000000002</ele><time>2026-03-28T11:32:51.012Z</time></trkpt><trkpt lat="44.50098" lon="8.9111333"><ele>224.8</ele><time>2026-03-28T11:32:52.012Z</time></trkpt><trkpt lat="44.5008767" lon="8.91116"><ele>225.4</ele><time>2026-03-28T11:32:53.012Z</time></trkpt><trkpt lat="44.5007833" lon="8.9112067"><ele>226.0</ele><time>2026-03-28T11:32:54.011Z</time></trkpt><trkpt lat="44.5006917" lon="8.9112333"><ele>226.0</ele><time>2026-03-28T11:32:55.011Z</time></trkpt><trkpt lat="44.50059" lon="8.9112433"><ele>226.00000000000003</ele><time>2026-03-28T11:32:56.012Z</time></trkpt><trkpt lat="44.5004967" lon="8.9112133"><ele>226.00000000000003</ele><time>2026-03-28T11:32:57.011Z</time></trkpt><trkpt lat="44.500405" lon="8.9111383"><ele>226.0</ele><time>2026-03-28T11:32:58.012Z</time></trkpt><trkpt lat="44.5003217" lon="8.9110383"><ele>226.0</ele><time>2026-03-28T11:32:59.011Z</time></trkpt><trkpt lat="44.5002733" lon="8.9109183"><ele>227.0</ele><time>2026-03-28T11:33:00.011Z</time></trkpt><trkpt lat="44.5002383" lon="8.9107733"><ele>228.00000000000003</ele><time>2026-03-28T11:33:01.012Z</time></trkpt><trkpt lat="44.5002267" lon="8.910615"><ele>229.00000000000003</ele><time>2026-03-28T11:33:02.012Z</time></trkpt><trkpt lat="44.50024" lon="8.9104583"><ele>230.0</ele><time>2026-03-28T11:33:03.012Z</time></trkpt><trkpt lat="44.5002433" lon="8.9103117"><ele>231.0</ele><time>2026-03-28T11:33:04.012Z</time></trkpt><trkpt lat="44.50021" lon="8.910195"><ele>231.0</ele><time>2026-03-28T11:33:05.012Z</time></trkpt><trkpt lat="44.50015" lon="8.9101183"><ele>231.00000000000003</ele><time>2026-03-28T11:33:06.012Z</time></trkpt><trkpt lat="44.5000733" lon="8.9100317"><ele>231.00000000000003</ele><time>2026-03-28T11:33:07.011Z</time></trkpt><trkpt lat="44.49998" lon="8.9099483"><ele>231.0</ele><time>2026-03-28T11:33:08.011Z</time></trkpt><trkpt lat="44.4998817" lon="8.909865"><ele>231.0</ele><time>2026-03-28T11:33:09.012Z</time></trkpt><trkpt lat="44.4997717" lon="8.909785"><ele>228.20000000000002</ele><time>2026-03-28T11:33:10.011Z</time></trkpt><trkpt lat="44.4996617" lon="8.9097167"><ele>225.40000000000003</ele><time>2026-03-28T11:33:11.012Z</time></trkpt><trkpt lat="44.4995617" lon="8.90967"><ele>222.6</ele><time>2026-03-28T11:33:12.012Z</time></trkpt><trkpt lat="44.4994583" lon="8.909655"><ele>219.8</ele><time>2026-03-28T11:33:13.012Z</time></trkpt><trkpt lat="44.4993567" lon="8.9096583"><ele>217.0</ele><time>2026-03-28T11:33:14.012Z</time></trkpt><trkpt lat="44.4992517" lon="8.9096683"><ele>216.8</ele><time>2026-03-28T11:33:15.012Z</time></trkpt><trkpt lat="44.499145" lon="8.909705"><ele>216.6</ele><time>2026-03-28T11:33:16.012Z</time></trkpt><trkpt lat="44.499065" lon="8.9097617"><ele>216.40000000000003</ele><time>2026-03-28T11:33:17.012Z</time></trkpt><trkpt lat="44.4990033" lon="8.90984"><ele>216.20000000000002</ele><time>2026-03-28T11:33:18.012Z</time></trkpt><trkpt lat="44.49895" lon="8.9099367"><ele>216.0</ele><time>2026-03-28T11:33:19.012Z</time></trkpt><trkpt lat="44.4989133" lon="8.9100533"><ele>216.5</ele><time>2026-03-28T11:33:20.012Z</time></trkpt><trkpt lat="44.498855" lon="8.9101617"><ele>217.0</ele><time>2026-03-28T11:33:21.011Z</time></trkpt><trkpt lat="44.4987817" lon="8.9102717"><ele>217.5</ele><time>2026-03-28T11:33:22.011Z</time></trkpt><trkpt lat="44.4986883" lon="8.9103817"><ele>218.0</ele><time>2026-03-28T11:33:23.011Z</time></trkpt><trkpt lat="44.4985883" lon="8.9104933"><ele>218.0</ele><time>2026-03-28T11:33:24.011Z</time></trkpt><trkpt lat="44.49849" lon="8.9105933"><ele>218.0</ele><time>2026-03-28T11:33:25.012Z</time></trkpt><trkpt lat="44.4983917" lon="8.910725"><ele>218.0</ele><time>2026-03-28T11:33:26.012Z</time></trkpt><trkpt lat="44.49831" lon="8.9108633"><ele>218.0</ele><time>2026-03-28T11:33:27.012Z</time></trkpt><trkpt lat="44.4982267" lon="8.911015"><ele>219.50000000000003</ele><time>2026-03-28T11:33:28.012Z</time></trkpt><trkpt lat="44.49817" lon="8.9111267"><ele>221.0</ele><time>2026-03-28T11:33:29.012Z</time></trkpt><trkpt lat="44.4981067" lon="8.9112267"><ele>222.5</ele><time>2026-03-28T11:33:30.012Z</time></trkpt><trkpt lat="44.4980367" lon="8.9113"><ele>224.0</ele><time>2026-03-28T11:33:31.012Z</time></trkpt><trkpt lat="44.497955" lon="8.9113383"><ele>225.50000000000003</ele><time>2026-03-28T11:33:32.012Z</time></trkpt><trkpt lat="44.497885" lon="8.9113683"><ele>227.0</ele><time>2026-03-28T11:33:33.011Z</time></trkpt><trkpt lat="44.4978267" lon="8.9114317"><ele>227.0</ele><time>2026-03-28T11:33:34.011Z</time></trkpt><trkpt lat="44.4977833" lon="8.911505"><ele>227.00000000000003</ele><time>2026-03-28T11:33:35.012Z</time></trkpt><trkpt lat="44.4977533" lon="8.9115917"><ele>227.0</ele><time>2026-03-28T11:33:36.012Z</time></trkpt><trkpt lat="44.4977333" lon="8.9116783"><ele>227.0</ele><time>2026-03-28T11:33:37.012Z</time></trkpt><trkpt lat="44.49771" lon="8.911775"><ele>227.00000000000003</ele><time>2026-03-28T11:33:38.012Z</time></trkpt><trkpt lat="44.49768" lon="8.9118767"><ele>227.0</ele><time>2026-03-28T11:33:39.012Z</time></trkpt><trkpt lat="44.4976567" lon="8.9120017"><ele>227.0</ele><time>2026-03-28T11:33:40.012Z</time></trkpt><trkpt lat="44.4976067" lon="8.912115"><ele>227.50000000000003</ele><time>2026-03-28T11:33:41.012Z</time></trkpt><trkpt lat="44.49755" lon="8.91221"><ele>228.0</ele><time>2026-03-28T11:33:42.012Z</time></trkpt><trkpt lat="44.4974983" lon="8.912305"><ele>228.5</ele><time>2026-03-28T11:33:43.012Z</time></trkpt><trkpt lat="44.49747" lon="8.912385"><ele>229.0</ele><time>2026-03-28T11:33:44.012Z</time></trkpt><trkpt lat="44.49745" lon="8.9125233"><ele>229.50000000000003</ele><time>2026-03-28T11:33:46.012Z</time></trkpt><trkpt lat="44.497495" lon="8.91262"><ele>230.0</ele><time>2026-03-28T11:33:49.012Z</time></trkpt><trkpt lat="44.4975767" lon="8.9126317"><ele>230.0</ele><time>2026-03-28T11:33:51.011Z</time></trkpt><trkpt lat="44.49769" lon="8.9126333"><ele>230.0</ele><time>2026-03-28T11:33:53.012Z</time></trkpt><trkpt lat="44.4978167" lon="8.9126383"><ele>230.0</ele><time>2026-03-28T11:33:55.012Z</time></trkpt><trkpt lat="44.49789" lon="8.9126417"><ele>230.0</ele><time>2026-03-28T11:33:56.012Z</time></trkpt><trkpt lat="44.4979667" lon="8.912655"><ele>230.0</ele><time>2026-03-28T11:33:57.012Z</time></trkpt><trkpt lat="44.4980483" lon="8.9126733"><ele>230.50000000000003</ele><time>2026-03-28T11:33:58.012Z</time></trkpt><trkpt lat="44.4981333" lon="8.9127033"><ele>231.0</ele><time>2026-03-28T11:33:59.012Z</time></trkpt><trkpt lat="44.498215" lon="8.912745"><ele>231.5</ele><time>2026-03-28T11:34:00.011Z</time></trkpt><trkpt lat="44.4982783" lon="8.91278"><ele>232.0</ele><time>2026-03-28T11:34:01.011Z</time></trkpt><trkpt lat="44.4983383" lon="8.91282"><ele>232.50000000000003</ele><time>2026-03-28T11:34:02.012Z</time></trkpt><trkpt lat="44.49844" lon="8.9129067"><ele>233.0</ele><time>2026-03-28T11:34:04.012Z</time></trkpt><trkpt lat="44.4985033" lon="8.9129667"><ele>233.00000000000003</ele><time>2026-03-28T11:34:06.012Z</time></trkpt><trkpt lat="44.4985717" lon="8.91304"><ele>233.0</ele><time>2026-03-28T11:34:08.012Z</time></trkpt><trkpt lat="44.4986283" lon="8.913095"><ele>233.0</ele><time>2026-03-28T11:34:11.012Z</time></trkpt><trkpt lat="44.49871" lon="8.9131417"><ele>233.0</ele><time>2026-03-28T11:34:14.012Z</time></trkpt><trkpt lat="44.4988317" lon="8.913185"><ele>233.00000000000003</ele><time>2026-03-28T11:34:16.012Z</time></trkpt><trkpt lat="44.4989067" lon="8.9132083"><ele>233.0</ele><time>2026-03-28T11:34:17.012Z</time></trkpt><trkpt lat="44.4989767" lon="8.9132333"><ele>232.83333333333334</ele><time>2026-03-28T11:34:18.012Z</time></trkpt><trkpt lat="44.4990583" lon="8.91326"><ele>232.66666666666669</ele><time>2026-03-28T11:34:19.012Z</time></trkpt><trkpt lat="44.4991183" lon="8.9133217"><ele>232.5</ele><time>2026-03-28T11:34:20.012Z</time></trkpt><trkpt lat="44.499175" lon="8.913395"><ele>232.33333333333331</ele><time>2026-03-28T11:34:21.012Z</time></trkpt><trkpt lat="44.49923" lon="8.9134883"><ele>232.16666666666666</ele><time>2026-03-28T11:34:22.012Z</time></trkpt><trkpt lat="44.4992917" lon="8.913605"><ele>232.0</ele><time>2026-03-28T11:34:23.012Z</time></trkpt><trkpt lat="44.4993383" lon="8.91374"><ele>232.0</ele><time>2026-03-28T11:34:24.012Z</time></trkpt><trkpt lat="44.49938" lon="8.913885"><ele>232.0</ele><time>2026-03-28T11:34:25.011Z</time></trkpt><trkpt lat="44.4994283" lon="8.91402"><ele>232.0</ele><time>2026-03-28T11:34:26.012Z</time></trkpt><trkpt lat="44.4994783" lon="8.91416"><ele>232.0</ele><time>2026-03-28T11:34:27.011Z</time></trkpt><trkpt lat="44.49954" lon="8.914305"><ele>232.75</ele><time>2026-03-28T11:34:28.011Z</time></trkpt><trkpt lat="44.499605" lon="8.9144517"><ele>233.5</ele><time>2026-03-28T11:34:29.012Z</time></trkpt><trkpt lat="44.4996667" lon="8.91461"><ele>234.25</ele><time>2026-03-28T11:34:30.012Z</time></trkpt><trkpt lat="44.4997283" lon="8.9147683"><ele>235.0</ele><time>2026-03-28T11:34:31.012Z</time></trkpt><trkpt lat="44.4997883" lon="8.91492"><ele>235.0</ele><time>2026-03-28T11:34:32.011Z</time></trkpt><trkpt lat="44.499845" lon="8.915065"><ele>235.0</ele><time>2026-03-28T11:34:33.012Z</time></trkpt><trkpt lat="44.499885" lon="8.9152067"><ele>235.0</ele><time>2026-03-28T11:34:34.011Z</time></trkpt><trkpt lat="44.49993" lon="8.91534"><ele>235.0</ele><time>2026-03-28T11:34:35.012Z</time></trkpt><trkpt lat="44.4999933" lon="8.915475"><ele>235.0</ele><time>2026-03-28T11:34:36.011Z</time></trkpt><trkpt lat="44.5000583" lon="8.915585"><ele>232.2</ele><time>2026-03-28T11:34:37.012Z</time></trkpt><trkpt lat="44.5001433" lon="8.91567"><ele>229.4</ele><time>2026-03-28T11:34:38.012Z</time></trkpt><trkpt lat="44.500235" lon="8.9157617"><ele>226.60000000000002</ele><time>2026-03-28T11:34:39.012Z</time></trkpt><trkpt lat="44.50032" lon="8.91584"><ele>223.8</ele><time>2026-03-28T11:34:40.012Z</time></trkpt><trkpt lat="44.50041" lon="8.9159167"><ele>221.0</ele><time>2026-03-28T11:34:41.011Z</time></trkpt><trkpt lat="44.5005017" lon="8.9159833"><ele>218.20000000000002</ele><time>2026-03-28T11:34:42.012Z</time></trkpt><trkpt lat="44.5005983" lon="8.9160433"><ele>215.40000000000003</ele><time>2026-03-28T11:34:43.012Z</time></trkpt><trkpt lat="44.5006867" lon="8.9160817"><ele>212.6</ele><time>2026-03-28T11:34:44.012Z</time></trkpt><trkpt lat="44.5007883" lon="8.9160883"><ele>209.8</ele><time>2026-03-28T11:34:45.012Z</time></trkpt><trkpt lat="44.5008983" lon="8.916065"><ele>207.0</ele><time>2026-03-28T11:34:46.011Z</time></trkpt><trkpt lat="44.5010067" lon="8.916035"><ele>207.0</ele><time>2026-03-28T11:34:47.012Z</time></trkpt><trkpt lat="44.501115" lon="8.916005"><ele>207.0</ele><time>2026-03-28T11:34:48.011Z</time></trkpt><trkpt lat="44.5012033" lon="8.91599"><ele>207.0</ele><time>2026-03-28T11:34:49.012Z</time></trkpt><trkpt lat="44.501295" lon="8.915985"><ele>207.0</ele><time>2026-03-28T11:34:50.012Z</time></trkpt><trkpt lat="44.5013667" lon="8.9160083"><ele>207.0</ele><time>2026-03-28T11:34:51.012Z</time></trkpt><trkpt lat="44.5014267" lon="8.9160533"><ele>207.0</ele><time>2026-03-28T11:34:52.011Z</time></trkpt><trkpt lat="44.50146" lon="8.9161517"><ele>207.39999999999998</ele><time>2026-03-28T11:34:53.011Z</time></trkpt><trkpt lat="44.50146" lon="8.9162717"><ele>207.79999999999998</ele><time>2026-03-28T11:34:54.012Z</time></trkpt><trkpt lat="44.50146" lon="8.9164033"><ele>208.2</ele><time>2026-03-28T11:34:55.012Z</time></trkpt><trkpt lat="44.50147" lon="8.9165317"><ele>208.6</ele><time>2026-03-28T11:34:56.012Z</time></trkpt><trkpt lat="44.5014933" lon="8.9166717"><ele>209.0</ele><time>2026-03-28T11:34:57.012Z</time></trkpt><trkpt lat="44.501535" lon="8.9168"><ele>209.0</ele><time>2026-03-28T11:34:58.012Z</time></trkpt><trkpt lat="44.501575" lon="8.9169233"><ele>209.0</ele><time>2026-03-28T11:34:59.012Z</time></trkpt><trkpt lat="44.50162" lon="8.9170467"><ele>209.0</ele><time>2026-03-28T11:35:00.012Z</time></trkpt><trkpt lat="44.501675" lon="8.917155"><ele>209.0</ele><time>2026-03-28T11:35:01.012Z</time></trkpt><trkpt lat="44.5017283" lon="8.917275"><ele>209.0</ele><time>2026-03-28T11:35:02.012Z</time></trkpt><trkpt lat="44.5017867" lon="8.917395"><ele>209.0</ele><time>2026-03-28T11:35:03.012Z</time></trkpt><trkpt lat="44.5018567" lon="8.9175083"><ele>209.0</ele><time>2026-03-28T11:35:04.012Z</time></trkpt><trkpt lat="44.5019333" lon="8.917625"><ele>209.0</ele><time>2026-03-28T11:35:05.012Z</time></trkpt><trkpt lat="44.50201" lon="8.9177467"><ele>209.0</ele><time>2026-03-28T11:35:06.011Z</time></trkpt><trkpt lat="44.5020983" lon="8.9178667"><ele>208.6</ele><time>2026-03-28T11:35:07.012Z</time></trkpt><trkpt lat="44.5021833" lon="8.9179767"><ele>208.2</ele><time>2026-03-28T11:35:08.012Z</time></trkpt><trkpt lat="44.5022617" lon="8.9180917"><ele>207.79999999999998</ele><time>2026-03-28T11:35:09.012Z</time></trkpt><trkpt lat="44.5023267" lon="8.91819"><ele>207.39999999999998</ele><time>2026-03-28T11:35:10.012Z</time></trkpt><trkpt lat="44.5023867" lon="8.9182733"><ele>207.0</ele><time>2026-03-28T11:35:11.012Z</time></trkpt><trkpt lat="44.5024367" lon="8.9184033"><ele>207.0</ele><time>2026-03-28T11:35:13.012Z</time></trkpt><trkpt lat="44.502395" lon="8.9185317"><ele>207.0</ele><time>2026-03-28T11:35:15.011Z</time></trkpt><trkpt lat="44.5023467" lon="8.91861"><ele>207.0</ele><time>2026-03-28T11:35:16.011Z</time></trkpt><trkpt lat="44.50229" lon="8.9187083"><ele>207.0</ele><time>2026-03-28T11:35:17.012Z</time></trkpt><trkpt lat="44.5022417" lon="8.918815"><ele>207.0</ele><time>2026-03-28T11:35:18.011Z</time></trkpt><trkpt lat="44.502205" lon="8.9189283"><ele>207.0</ele><time>2026-03-28T11:35:19.012Z</time></trkpt><trkpt lat="44.50219" lon="8.9190433"><ele>207.0</ele><time>2026-03-28T11:35:20.012Z</time></trkpt><trkpt lat="44.502185" lon="8.919155"><ele>207.0</ele><time>2026-03-28T11:35:21.012Z</time></trkpt><trkpt lat="44.5022" lon="8.919255"><ele>207.0</ele><time>2026-03-28T11:35:22.011Z</time></trkpt><trkpt lat="44.5022133" lon="8.9193583"><ele>207.0</ele><time>2026-03-28T11:35:23.012Z</time></trkpt><trkpt lat="44.50225" lon="8.9194717"><ele>207.0</ele><time>2026-03-28T11:35:24.012Z</time></trkpt><trkpt lat="44.5022883" lon="8.9195667"><ele>207.0</ele><time>2026-03-28T11:35:25.012Z</time></trkpt><trkpt lat="44.50233" lon="8.91965"><ele>205.0</ele><time>2026-03-28T11:35:26.012Z</time></trkpt><trkpt lat="44.5023817" lon="8.9197017"><ele>203.0</ele><time>2026-03-28T11:35:27.012Z</time></trkpt><trkpt lat="44.502495" lon="8.91972"><ele>201.0</ele><time>2026-03-28T11:35:29.012Z</time></trkpt><trkpt lat="44.5025583" lon="8.9197067"><ele>199.0</ele><time>2026-03-28T11:35:30.012Z</time></trkpt><trkpt lat="44.502655" lon="8.91972"><ele>197.0</ele><time>2026-03-28T11:35:31.012Z</time></trkpt><trkpt lat="44.5027483" lon="8.91977"><ele>195.0</ele><time>2026-03-28T11:35:32.012Z</time></trkpt><trkpt lat="44.502835" lon="8.9198383"><ele>194.25</ele><time>2026-03-28T11:35:33.012Z</time></trkpt><trkpt lat="44.5029283" lon="8.9199067"><ele>193.5</ele><time>2026-03-28T11:35:34.012Z</time></trkpt><trkpt lat="44.5030317" lon="8.91998"><ele>192.75</ele><time>2026-03-28T11:35:35.012Z</time></trkpt><trkpt lat="44.503135" lon="8.920055"><ele>192.0</ele><time>2026-03-28T11:35:36.012Z</time></trkpt><trkpt lat="44.5032417" lon="8.92012"><ele>186.75</ele><time>2026-03-28T11:35:37.011Z</time></trkpt><trkpt lat="44.5033533" lon="8.9202033"><ele>181.5</ele><time>2026-03-28T11:35:38.012Z</time></trkpt><trkpt lat="44.5034633" lon="8.9202833"><ele>176.25</ele><time>2026-03-28T11:35:39.012Z</time></trkpt><trkpt lat="44.50357" lon="8.9203833"><ele>171.0</ele><time>2026-03-28T11:35:40.012Z</time></trkpt><trkpt lat="44.503675" lon="8.92048"><ele>173.20000000000002</ele><time>2026-03-28T11:35:41.011Z</time></trkpt><trkpt lat="44.5037683" lon="8.9205883"><ele>175.4</ele><time>2026-03-28T11:35:42.012Z</time></trkpt><trkpt lat="44.503855" lon="8.9206767"><ele>177.6</ele><time>2026-03-28T11:35:43.012Z</time></trkpt><trkpt lat="44.5039283" lon="8.9207517"><ele>179.8</ele><time>2026-03-28T11:35:44.012Z</time></trkpt><trkpt lat="44.5039817" lon="8.9208217"><ele>182.0</ele><time>2026-03-28T11:35:45.012Z</time></trkpt><trkpt lat="44.504025" lon="8.9208917"><ele>180.39999999999998</ele><time>2026-03-28T11:35:46.012Z</time></trkpt><trkpt lat="44.504085" lon="8.92101"><ele>178.79999999999998</ele><time>2026-03-28T11:35:48.011Z</time></trkpt><trkpt lat="44.5041033" lon="8.9211167"><ele>177.2</ele><time>2026-03-28T11:35:50.011Z</time></trkpt><trkpt lat="44.5040317" lon="8.9212633"><ele>175.6</ele><time>2026-03-28T11:35:52.01Z</time></trkpt><trkpt lat="44.5039783" lon="8.921365"><ele>174.0</ele><time>2026-03-28T11:35:53.011Z</time></trkpt><trkpt lat="44.5039233" lon="8.9214833"><ele>174.0</ele><time>2026-03-28T11:35:54.011Z</time></trkpt><trkpt lat="44.5038833" lon="8.9216233"><ele>174.0</ele><time>2026-03-28T11:35:55.011Z</time></trkpt><trkpt lat="44.503855" lon="8.9217517"><ele>174.0</ele><time>2026-03-28T11:35:56.011Z</time></trkpt><trkpt lat="44.5038217" lon="8.9218783"><ele>174.0</ele><time>2026-03-28T11:35:57.011Z</time></trkpt><trkpt lat="44.5037767" lon="8.922"><ele>174.0</ele><time>2026-03-28T11:35:58.011Z</time></trkpt><trkpt lat="44.5037167" lon="8.92211"><ele>170.66666666666666</ele><time>2026-03-28T11:35:59.011Z</time></trkpt><trkpt lat="44.50366" lon="8.922215"><ele>167.33333333333334</ele><time>2026-03-28T11:36:00.011Z</time></trkpt><trkpt lat="44.5036317" lon="8.92232"><ele>164.0</ele><time>2026-03-28T11:36:01.011Z</time></trkpt><trkpt lat="44.503625" lon="8.922425"><ele>160.66666666666669</ele><time>2026-03-28T11:36:02.011Z</time></trkpt><trkpt lat="44.50364" lon="8.9225367"><ele>157.33333333333334</ele><time>2026-03-28T11:36:03.011Z</time></trkpt><trkpt lat="44.503655" lon="8.9226617"><ele>154.0</ele><time>2026-03-28T11:36:04.011Z</time></trkpt><trkpt lat="44.50366" lon="8.92279"><ele>154.0</ele><time>2026-03-28T11:36:05.011Z</time></trkpt><trkpt lat="44.5036483" lon="8.9228933"><ele>154.0</ele><time>2026-03-28T11:36:06.011Z</time></trkpt><trkpt lat="44.5036133" lon="8.922985"><ele>154.0</ele><time>2026-03-28T11:36:07.011Z</time></trkpt><trkpt lat="44.5035517" lon="8.9230533"><ele>154.0</ele><time>2026-03-28T11:36:08.01Z</time></trkpt><trkpt lat="44.50348" lon="8.9231383"><ele>154.0</ele><time>2026-03-28T11:36:09.011Z</time></trkpt><trkpt lat="44.503415" lon="8.92325"><ele>154.0</ele><time>2026-03-28T11:36:10.011Z</time></trkpt><trkpt lat="44.5033633" lon="8.923365"><ele>154.2</ele><time>2026-03-28T11:36:11.011Z</time></trkpt><trkpt lat="44.50331" lon="8.92349"><ele>154.4</ele><time>2026-03-28T11:36:12.011Z</time></trkpt><trkpt lat="44.503255" lon="8.9236117"><ele>154.6</ele><time>2026-03-28T11:36:13.011Z</time></trkpt><trkpt lat="44.5031933" lon="8.9237317"><ele>154.8</ele><time>2026-03-28T11:36:14.011Z</time></trkpt><trkpt lat="44.503145" lon="8.92384"><ele>155.0</ele><time>2026-03-28T11:36:15.011Z</time></trkpt><trkpt lat="44.50312" lon="8.9239483"><ele>155.0</ele><time>2026-03-28T11:36:16.011Z</time></trkpt><trkpt lat="44.5031133" lon="8.9240733"><ele>155.0</ele><time>2026-03-28T11:36:17.011Z</time></trkpt><trkpt lat="44.5031233" lon="8.9242133"><ele>155.0</ele><time>2026-03-28T11:36:18.011Z</time></trkpt><trkpt lat="44.5031317" lon="8.9243633"><ele>155.0</ele><time>2026-03-28T11:36:19.01Z</time></trkpt><trkpt lat="44.50313" lon="8.9244967"><ele>155.0</ele><time>2026-03-28T11:36:20.011Z</time></trkpt><trkpt lat="44.5031267" lon="8.9246167"><ele>152.8</ele><time>2026-03-28T11:36:21.01Z</time></trkpt><trkpt lat="44.5031433" lon="8.92474"><ele>150.6</ele><time>2026-03-28T11:36:22.011Z</time></trkpt><trkpt lat="44.5031733" lon="8.9248817"><ele>148.4</ele><time>2026-03-28T11:36:23.011Z</time></trkpt><trkpt lat="44.5032233" lon="8.92503"><ele>146.2</ele><time>2026-03-28T11:36:24.011Z</time></trkpt><trkpt lat="44.5032783" lon="8.9251967"><ele>144.0</ele><time>2026-03-28T11:36:25.01Z</time></trkpt><trkpt lat="44.5033417" lon="8.9253483"><ele>140.0</ele><time>2026-03-28T11:36:26.011Z</time></trkpt><trkpt lat="44.5034067" lon="8.9255"><ele>136.0</ele><time>2026-03-28T11:36:27.011Z</time></trkpt><trkpt lat="44.5034833" lon="8.9256417"><ele>132.0</ele><time>2026-03-28T11:36:28.011Z</time></trkpt><trkpt lat="44.503555" lon="8.9257767"><ele>128.0</ele><time>2026-03-28T11:36:29.011Z</time></trkpt><trkpt lat="44.5036117" lon="8.9258967"><ele>128.20000000000002</ele><time>2026-03-28T11:36:30.011Z</time></trkpt><trkpt lat="44.50367" lon="8.9260117"><ele>128.4</ele><time>2026-03-28T11:36:31.011Z</time></trkpt><trkpt lat="44.5037233" lon="8.9261033"><ele>128.60000000000002</ele><time>2026-03-28T11:36:32.011Z</time></trkpt><trkpt lat="44.5037733" lon="8.9261933"><ele>128.8</ele><time>2026-03-28T11:36:33.011Z</time></trkpt><trkpt lat="44.5038233" lon="8.9262667"><ele>129.0</ele><time>2026-03-28T11:36:34.011Z</time></trkpt><trkpt lat="44.5039317" lon="8.92631"><ele>129.0</ele><time>2026-03-28T11:36:36.011Z</time></trkpt><trkpt lat="44.50399" lon="8.9262567"><ele>129.0</ele><time>2026-03-28T11:36:37.01Z</time></trkpt><trkpt lat="44.5040533" lon="8.9261883"><ele>129.0</ele><time>2026-03-28T11:36:38.011Z</time></trkpt><trkpt lat="44.5041167" lon="8.9261533"><ele>129.0</ele><time>2026-03-28T11:36:39.011Z</time></trkpt><trkpt lat="44.504185" lon="8.9261317"><ele>129.0</ele><time>2026-03-28T11:36:40.01Z</time></trkpt><trkpt lat="44.5042583" lon="8.9261867"><ele>129.0</ele><time>2026-03-28T11:36:42.011Z</time></trkpt><trkpt lat="44.504225" lon="8.9263383"><ele>129.0</ele><time>2026-03-28T11:36:44.01Z</time></trkpt><trkpt lat="44.5041567" lon="8.9264433"><ele>129.0</ele><time>2026-03-28T11:36:45.011Z</time></trkpt><trkpt lat="44.5040617" lon="8.9265417"><ele>129.0</ele><time>2026-03-28T11:36:46.011Z</time></trkpt><trkpt lat="44.50396" lon="8.9266483"><ele>129.0</ele><time>2026-03-28T11:36:47.011Z</time></trkpt><trkpt lat="44.5038483" lon="8.926735"><ele>126.2</ele><time>2026-03-28T11:36:48.011Z</time></trkpt><trkpt lat="44.503745" lon="8.9268383"><ele>123.4</ele><time>2026-03-28T11:36:49.011Z</time></trkpt><trkpt lat="44.50367" lon="8.9269283"><ele>120.6</ele><time>2026-03-28T11:36:50.011Z</time></trkpt><trkpt lat="44.5035967" lon="8.92702"><ele>117.8</ele><time>2026-03-28T11:36:51.01Z</time></trkpt><trkpt lat="44.503525" lon="8.9271167"><ele>115.0</ele><time>2026-03-28T11:36:52.011Z</time></trkpt><trkpt lat="44.50346" lon="8.9272167"><ele>115.00000000000001</ele><time>2026-03-28T11:36:53.011Z</time></trkpt><trkpt lat="44.5034083" lon="8.9272933"><ele>115.0</ele><time>2026-03-28T11:36:54.011Z</time></trkpt><trkpt lat="44.5033633" lon="8.927365"><ele>115.0</ele><time>2026-03-28T11:36:56.011Z</time></trkpt><trkpt lat="44.5033833" lon="8.9274517"><ele>115.0</ele><time>2026-03-28T11:37:18.011Z</time></trkpt><trkpt lat="44.50346" lon="8.9276017"><ele>115.00000000000001</ele><time>2026-03-28T11:37:20.011Z</time></trkpt><trkpt lat="44.5035267" lon="8.927685"><ele>115.0</ele><time>2026-03-28T11:37:21.011Z</time></trkpt><trkpt lat="44.5036183" lon="8.92777"><ele>115.5</ele><time>2026-03-28T11:37:22.011Z</time></trkpt><trkpt lat="44.5037117" lon="8.9278617"><ele>116.0</ele><time>2026-03-28T11:37:23.011Z</time></trkpt><trkpt lat="44.503805" lon="8.92795"><ele>116.5</ele><time>2026-03-28T11:37:24.011Z</time></trkpt><trkpt lat="44.5039067" lon="8.9280433"><ele>117.0</ele><time>2026-03-28T11:37:25.011Z</time></trkpt><trkpt lat="44.50401" lon="8.9281333"><ele>117.0</ele><time>2026-03-28T11:37:26.011Z</time></trkpt><trkpt lat="44.5041167" lon="8.9282367"><ele>117.0</ele><time>2026-03-28T11:37:27.01Z</time></trkpt><trkpt lat="44.50421" lon="8.928365"><ele>117.0</ele><time>2026-03-28T11:37:28.011Z</time></trkpt><trkpt lat="44.504305" lon="8.9285017"><ele>117.0</ele><time>2026-03-28T11:37:29.011Z</time></trkpt><trkpt lat="44.50439" lon="8.9286417"><ele>117.5</ele><time>2026-03-28T11:37:30.011Z</time></trkpt><trkpt lat="44.50449" lon="8.92878"><ele>118.0</ele><time>2026-03-28T11:37:31.011Z</time></trkpt><trkpt lat="44.504585" lon="8.9289217"><ele>118.5</ele><time>2026-03-28T11:37:32.011Z</time></trkpt><trkpt lat="44.504685" lon="8.9290683"><ele>119.0</ele><time>2026-03-28T11:37:33.011Z</time></trkpt><trkpt lat="44.5047867" lon="8.9292117"><ele>119.5</ele><time>2026-03-28T11:37:34.011Z</time></trkpt><trkpt lat="44.5048817" lon="8.9293533"><ele>120.0</ele><time>2026-03-28T11:37:35.011Z</time></trkpt><trkpt lat="44.504985" lon="8.9295"><ele>120.5</ele><time>2026-03-28T11:37:36.011Z</time></trkpt><trkpt lat="44.5050833" lon="8.929655"><ele>121.0</ele><time>2026-03-28T11:37:37.01Z</time></trkpt><trkpt lat="44.5051917" lon="8.9298167"><ele>121.0</ele><time>2026-03-28T11:37:38.011Z</time></trkpt><trkpt lat="44.5052983" lon="8.9299867"><ele>121.0</ele><time>2026-03-28T11:37:39.011Z</time></trkpt><trkpt lat="44.5054017" lon="8.9301517"><ele>121.0</ele><time>2026-03-28T11:37:40.011Z</time></trkpt><trkpt lat="44.505505" lon="8.9303133"><ele>121.75</ele><time>2026-03-28T11:37:41.01Z</time></trkpt><trkpt lat="44.5056033" lon="8.9304717"><ele>122.5</ele><time>2026-03-28T11:37:42.011Z</time></trkpt><trkpt lat="44.5056967" lon="8.9306167"><ele>123.25</ele><time>2026-03-28T11:37:43.011Z</time></trkpt><trkpt lat="44.5057933" lon="8.9307617"><ele>124.0</ele><time>2026-03-28T11:37:44.011Z</time></trkpt><trkpt lat="44.5058867" lon="8.93091"><ele>124.0</ele><time>2026-03-28T11:37:45.011Z</time></trkpt><trkpt lat="44.5059783" lon="8.9310667"><ele>124.0</ele><time>2026-03-28T11:37:46.011Z</time></trkpt><trkpt lat="44.50606" lon="8.93121"><ele>124.0</ele><time>2026-03-28T11:37:47.01Z</time></trkpt><trkpt lat="44.5061483" lon="8.9313533"><ele>124.0</ele><time>2026-03-28T11:37:48.011Z</time></trkpt><trkpt lat="44.5062217" lon="8.9315"><ele>124.25</ele><time>2026-03-28T11:37:49.011Z</time></trkpt><trkpt lat="44.5063" lon="8.9316367"><ele>124.5</ele><time>2026-03-28T11:37:50.01Z</time></trkpt><trkpt lat="44.5063683" lon="8.9317817"><ele>124.75</ele><time>2026-03-28T11:37:51.011Z</time></trkpt><trkpt lat="44.5064383" lon="8.9319283"><ele>125.0</ele><time>2026-03-28T11:37:52.011Z</time></trkpt><trkpt lat="44.50652" lon="8.9320683"><ele>124.5</ele><time>2026-03-28T11:37:53.011Z</time></trkpt><trkpt lat="44.5065967" lon="8.93222"><ele>124.0</ele><time>2026-03-28T11:37:54.011Z</time></trkpt><trkpt lat="44.5066733" lon="8.932375"><ele>123.5</ele><time>2026-03-28T11:37:55.011Z</time></trkpt><trkpt lat="44.50675" lon="8.932525"><ele>123.0</ele><time>2026-03-28T11:37:56.011Z</time></trkpt><trkpt lat="44.5068317" lon="8.9326767"><ele>123.0</ele><time>2026-03-28T11:37:57.011Z</time></trkpt><trkpt lat="44.50691" lon="8.932825"><ele>123.0</ele><time>2026-03-28T11:37:58.011Z</time></trkpt><trkpt lat="44.506985" lon="8.9329817"><ele>123.0</ele><time>2026-03-28T11:37:59.011Z</time></trkpt><trkpt lat="44.5070617" lon="8.9331467"><ele>123.0</ele><time>2026-03-28T11:38:00.011Z</time></trkpt><trkpt lat="44.50714" lon="8.9333117"><ele>124.75</ele><time>2026-03-28T11:38:01.011Z</time></trkpt><trkpt lat="44.5072033" lon="8.9334917"><ele>126.5</ele><time>2026-03-28T11:38:02.011Z</time></trkpt><trkpt lat="44.50727" lon="8.93366"><ele>128.25</ele><time>2026-03-28T11:38:03.011Z</time></trkpt><trkpt lat="44.5073333" lon="8.9338417"><ele>130.0</ele><time>2026-03-28T11:38:04.011Z</time></trkpt><trkpt lat="44.507385" lon="8.9340383"><ele>130.5</ele><time>2026-03-28T11:38:05.01Z</time></trkpt><trkpt lat="44.5074267" lon="8.93423"><ele>131.0</ele><time>2026-03-28T11:38:06.011Z</time></trkpt><trkpt lat="44.5074783" lon="8.9344133"><ele>131.5</ele><time>2026-03-28T11:38:07.011Z</time></trkpt><trkpt lat="44.5075217" lon="8.9346033"><ele>132.0</ele><time>2026-03-28T11:38:08.011Z</time></trkpt><trkpt lat="44.5075633" lon="8.9347967"><ele>132.0</ele><time>2026-03-28T11:38:09.011Z</time></trkpt><trkpt lat="44.5076017" lon="8.9350017"><ele>132.0</ele><time>2026-03-28T11:38:10.011Z</time></trkpt><trkpt lat="44.5076267" lon="8.9351933"><ele>132.0</ele><time>2026-03-28T11:38:11.011Z</time></trkpt><trkpt lat="44.5076467" lon="8.9353833"><ele>132.0</ele><time>2026-03-28T11:38:12.011Z</time></trkpt><trkpt lat="44.507665" lon="8.9355633"><ele>132.25</ele><time>2026-03-28T11:38:13.011Z</time></trkpt><trkpt lat="44.50768" lon="8.9357317"><ele>132.5</ele><time>2026-03-28T11:38:14.01Z</time></trkpt><trkpt lat="44.50769" lon="8.9358867"><ele>132.75</ele><time>2026-03-28T11:38:15.011Z</time></trkpt><trkpt lat="44.50771" lon="8.93605"><ele>133.0</ele><time>2026-03-28T11:38:16.01Z</time></trkpt><trkpt lat="44.5077333" lon="8.936195"><ele>133.0</ele><time>2026-03-28T11:38:17.011Z</time></trkpt><trkpt lat="44.5077867" lon="8.9363467"><ele>133.0</ele><time>2026-03-28T11:38:18.011Z</time></trkpt><trkpt lat="44.50784" lon="8.936505"><ele>133.0</ele><time>2026-03-28T11:38:19.011Z</time></trkpt><trkpt lat="44.5079133" lon="8.9366483"><ele>133.0</ele><time>2026-03-28T11:38:20.011Z</time></trkpt><trkpt lat="44.5079717" lon="8.936785"><ele>133.20000000000002</ele><time>2026-03-28T11:38:21.01Z</time></trkpt><trkpt lat="44.508025" lon="8.9369167"><ele>133.4</ele><time>2026-03-28T11:38:22.01Z</time></trkpt><trkpt lat="44.508075" lon="8.9370583"><ele>133.60000000000002</ele><time>2026-03-28T11:38:23.011Z</time></trkpt><trkpt lat="44.50812" lon="8.9371733"><ele>133.8</ele><time>2026-03-28T11:38:24.011Z</time></trkpt><trkpt lat="44.5081817" lon="8.937265"><ele>134.0</ele><time>2026-03-28T11:38:25.011Z</time></trkpt><trkpt lat="44.508265" lon="8.93733"><ele>134.0</ele><time>2026-03-28T11:38:26.011Z</time></trkpt><trkpt lat="44.508365" lon="8.937375"><ele>134.0</ele><time>2026-03-28T11:38:27.011Z</time></trkpt><trkpt lat="44.5084717" lon="8.9374"><ele>134.0</ele><time>2026-03-28T11:38:28.011Z</time></trkpt><trkpt lat="44.50859" lon="8.9374083"><ele>134.0</ele><time>2026-03-28T11:38:29.011Z</time></trkpt><trkpt lat="44.5087033" lon="8.9374267"><ele>134.0</ele><time>2026-03-28T11:38:30.01Z</time></trkpt><trkpt lat="44.508815" lon="8.9374417"><ele>134.8</ele><time>2026-03-28T11:38:31.011Z</time></trkpt><trkpt lat="44.5089233" lon="8.9374633"><ele>135.60000000000002</ele><time>2026-03-28T11:38:32.011Z</time></trkpt><trkpt lat="44.50903" lon="8.937485"><ele>136.4</ele><time>2026-03-28T11:38:33.011Z</time></trkpt><trkpt lat="44.5091383" lon="8.9375267"><ele>137.20000000000002</ele><time>2026-03-28T11:38:34.01Z</time></trkpt><trkpt lat="44.5092433" lon="8.937575"><ele>138.0</ele><time>2026-03-28T11:38:35.011Z</time></trkpt><trkpt lat="44.50935" lon="8.93763"><ele>138.25</ele><time>2026-03-28T11:38:36.011Z</time></trkpt><trkpt lat="44.509465" lon="8.93768"><ele>138.5</ele><time>2026-03-28T11:38:37.011Z</time></trkpt><trkpt lat="44.5095733" lon="8.9377333"><ele>138.75</ele><time>2026-03-28T11:38:38.011Z</time></trkpt><trkpt lat="44.5096817" lon="8.9377867"><ele>139.0</ele><time>2026-03-28T11:38:39.011Z</time></trkpt><trkpt lat="44.5097883" lon="8.937845"><ele>139.25</ele><time>2026-03-28T11:38:40.011Z</time></trkpt><trkpt lat="44.50989" lon="8.9379133"><ele>139.5</ele><time>2026-03-28T11:38:41.011Z</time></trkpt><trkpt lat="44.5099867" lon="8.9380033"><ele>139.75</ele><time>2026-03-28T11:38:42.01Z</time></trkpt><trkpt lat="44.5100917" lon="8.938105"><ele>140.0</ele><time>2026-03-28T11:38:43.011Z</time></trkpt><trkpt lat="44.5102" lon="8.9382083"><ele>140.0</ele><time>2026-03-28T11:38:44.011Z</time></trkpt><trkpt lat="44.5103017" lon="8.9383183"><ele>140.0</ele><time>2026-03-28T11:38:45.01Z</time></trkpt><trkpt lat="44.5104033" lon="8.9384317"><ele>140.0</ele><time>2026-03-28T11:38:46.011Z</time></trkpt><trkpt lat="44.5105083" lon="8.9385383"><ele>140.0</ele><time>2026-03-28T11:38:47.011Z</time></trkpt><trkpt lat="44.5106067" lon="8.938645"><ele>140.75</ele><time>2026-03-28T11:38:48.011Z</time></trkpt><trkpt lat="44.5107017" lon="8.93873"><ele>141.5</ele><time>2026-03-28T11:38:49.011Z</time></trkpt><trkpt lat="44.5107933" lon="8.938815"><ele>142.25</ele><time>2026-03-28T11:38:50.011Z</time></trkpt><trkpt lat="44.51089" lon="8.9389033"><ele>143.0</ele><time>2026-03-28T11:38:51.01Z</time></trkpt><trkpt lat="44.5109817" lon="8.9390033"><ele>143.0</ele><time>2026-03-28T11:38:52.011Z</time></trkpt><trkpt lat="44.5110817" lon="8.93911"><ele>143.0</ele><time>2026-03-28T11:38:53.011Z</time></trkpt><trkpt lat="44.5111883" lon="8.9392117"><ele>143.0</ele><time>2026-03-28T11:38:54.011Z</time></trkpt><trkpt lat="44.51129" lon="8.9393167"><ele>143.0</ele><time>2026-03-28T11:38:55.011Z</time></trkpt><trkpt lat="44.5113817" lon="8.939405"><ele>144.20000000000002</ele><time>2026-03-28T11:38:56.011Z</time></trkpt><trkpt lat="44.51147" lon="8.9394917"><ele>145.4</ele><time>2026-03-28T11:38:57.011Z</time></trkpt><trkpt lat="44.5115683" lon="8.93958"><ele>146.60000000000002</ele><time>2026-03-28T11:38:58.011Z</time></trkpt><trkpt lat="44.5116517" lon="8.9396833"><ele>147.8</ele><time>2026-03-28T11:38:59.01Z</time></trkpt><trkpt lat="44.5117167" lon="8.9398"><ele>149.0</ele><time>2026-03-28T11:39:00.011Z</time></trkpt><trkpt lat="44.5117817" lon="8.93992"><ele>149.0</ele><time>2026-03-28T11:39:01.01Z</time></trkpt><trkpt lat="44.5118383" lon="8.94004"><ele>149.0</ele><time>2026-03-28T11:39:02.011Z</time></trkpt><trkpt lat="44.5118983" lon="8.9401533"><ele>149.0</ele><time>2026-03-28T11:39:03.011Z</time></trkpt><trkpt lat="44.5119567" lon="8.940255"><ele>149.0</ele><time>2026-03-28T11:39:04.011Z</time></trkpt><trkpt lat="44.5120133" lon="8.940345"><ele>149.0</ele><time>2026-03-28T11:39:05.01Z</time></trkpt><trkpt lat="44.5120533" lon="8.940415"><ele>149.0</ele><time>2026-03-28T11:39:06.01Z</time></trkpt><trkpt lat="44.5121267" lon="8.9405317"><ele>149.2</ele><time>2026-03-28T11:39:08.01Z</time></trkpt><trkpt lat="44.51221" lon="8.94067"><ele>149.4</ele><time>2026-03-28T11:39:10.011Z</time></trkpt><trkpt lat="44.5122617" lon="8.9407533"><ele>149.6</ele><time>2026-03-28T11:39:11.01Z</time></trkpt><trkpt lat="44.512315" lon="8.9408533"><ele>149.8</ele><time>2026-03-28T11:39:12.01Z</time></trkpt><trkpt lat="44.5123733" lon="8.9409633"><ele>150.0</ele><time>2026-03-28T11:39:13.011Z</time></trkpt><trkpt lat="44.512425" lon="8.94108"><ele>150.75</ele><time>2026-03-28T11:39:14.011Z</time></trkpt><trkpt lat="44.5124733" lon="8.9412183"><ele>151.5</ele><time>2026-03-28T11:39:15.011Z</time></trkpt><trkpt lat="44.5125217" lon="8.94137"><ele>152.25</ele><time>2026-03-28T11:39:16.011Z</time></trkpt><trkpt lat="44.5125567" lon="8.9415467"><ele>153.0</ele><time>2026-03-28T11:39:17.01Z</time></trkpt><trkpt lat="44.5126083" lon="8.9417133"><ele>152.75</ele><time>2026-03-28T11:39:18.011Z</time></trkpt><trkpt lat="44.5126467" lon="8.94188"><ele>152.5</ele><time>2026-03-28T11:39:19.011Z</time></trkpt><trkpt lat="44.5126683" lon="8.942055"><ele>152.25</ele><time>2026-03-28T11:39:20.011Z</time></trkpt><trkpt lat="44.512685" lon="8.9422317"><ele>152.0</ele><time>2026-03-28T11:39:21.011Z</time></trkpt><trkpt lat="44.51268" lon="8.9424133"><ele>153.0</ele><time>2026-03-28T11:39:22.011Z</time></trkpt><trkpt lat="44.5126667" lon="8.942605"><ele>154.0</ele><time>2026-03-28T11:39:23.011Z</time></trkpt><trkpt lat="44.5126633" lon="8.942795"><ele>155.0</ele><time>2026-03-28T11:39:24.011Z</time></trkpt><trkpt lat="44.5126483" lon="8.9429867"><ele>156.0</ele><time>2026-03-28T11:39:25.011Z</time></trkpt><trkpt lat="44.5126433" lon="8.94318"><ele>156.0</ele><time>2026-03-28T11:39:26.011Z</time></trkpt><trkpt lat="44.512635" lon="8.9433717"><ele>156.0</ele><time>2026-03-28T11:39:27.011Z</time></trkpt><trkpt lat="44.5126233" lon="8.94357"><ele>156.0</ele><time>2026-03-28T11:39:28.01Z</time></trkpt><trkpt lat="44.5126133" lon="8.9437817"><ele>156.0</ele><time>2026-03-28T11:39:29.01Z</time></trkpt><trkpt lat="44.5126033" lon="8.9439867"><ele>158.25</ele><time>2026-03-28T11:39:30.011Z</time></trkpt><trkpt lat="44.51259" lon="8.9441967"><ele>160.5</ele><time>2026-03-28T11:39:31.01Z</time></trkpt><trkpt lat="44.51258" lon="8.9444067"><ele>162.75</ele><time>2026-03-28T11:39:32.011Z</time></trkpt><trkpt lat="44.51257" lon="8.9446133"><ele>165.0</ele><time>2026-03-28T11:39:33.011Z</time></trkpt><trkpt lat="44.5125567" lon="8.9448283"><ele>168.33333333333334</ele><time>2026-03-28T11:39:34.011Z</time></trkpt><trkpt lat="44.5125483" lon="8.945045"><ele>171.66666666666669</ele><time>2026-03-28T11:39:35.011Z</time></trkpt><trkpt lat="44.5125367" lon="8.9452433"><ele>175.0</ele><time>2026-03-28T11:39:36.011Z</time></trkpt><trkpt lat="44.5125267" lon="8.94546"><ele>175.75</ele><time>2026-03-28T11:39:37.01Z</time></trkpt><trkpt lat="44.5125167" lon="8.9456783"><ele>176.5</ele><time>2026-03-28T11:39:38.01Z</time></trkpt><trkpt lat="44.5124883" lon="8.94588"><ele>177.25</ele><time>2026-03-28T11:39:39.011Z</time></trkpt><trkpt lat="44.5124733" lon="8.94607"><ele>178.0</ele><time>2026-03-28T11:39:40.011Z</time></trkpt><trkpt lat="44.5124567" lon="8.9462567"><ele>177.25</ele><time>2026-03-28T11:39:41.011Z</time></trkpt><trkpt lat="44.512435" lon="8.94643"><ele>176.5</ele><time>2026-03-28T11:39:42.011Z</time></trkpt><trkpt lat="44.5124317" lon="8.946595"><ele>175.75</ele><time>2026-03-28T11:39:43.01Z</time></trkpt><trkpt lat="44.5124567" lon="8.9467417"><ele>175.0</ele><time>2026-03-28T11:39:44.011Z</time></trkpt><trkpt lat="44.5124933" lon="8.946905"><ele>175.0</ele><time>2026-03-28T11:39:45.011Z</time></trkpt><trkpt lat="44.5125367" lon="8.94707"><ele>175.0</ele><time>2026-03-28T11:39:46.011Z</time></trkpt><trkpt lat="44.5125783" lon="8.9472317"><ele>175.0</ele><time>2026-03-28T11:39:47.011Z</time></trkpt><trkpt lat="44.5126033" lon="8.9474067"><ele>175.0</ele><time>2026-03-28T11:39:48.011Z</time></trkpt><trkpt lat="44.5126167" lon="8.947575"><ele>175.2</ele><time>2026-03-28T11:39:49.01Z</time></trkpt><trkpt lat="44.51264" lon="8.94773"><ele>175.4</ele><time>2026-03-28T11:39:50.011Z</time></trkpt><trkpt lat="44.5126767" lon="8.9478583"><ele>175.60000000000002</ele><time>2026-03-28T11:39:51.011Z</time></trkpt><trkpt lat="44.512725" lon="8.9479717"><ele>175.8</ele><time>2026-03-28T11:39:52.01Z</time></trkpt><trkpt lat="44.5127833" lon="8.9480817"><ele>176.0</ele><time>2026-03-28T11:39:53.011Z</time></trkpt><trkpt lat="44.5128433" lon="8.9482"><ele>176.25</ele><time>2026-03-28T11:39:54.011Z</time></trkpt><trkpt lat="44.5129083" lon="8.94832"><ele>176.5</ele><time>2026-03-28T11:39:55.011Z</time></trkpt><trkpt lat="44.51297" lon="8.948445"><ele>176.75</ele><time>2026-03-28T11:39:56.011Z</time></trkpt><trkpt lat="44.51304" lon="8.9485767"><ele>177.0</ele><time>2026-03-28T11:39:57.011Z</time></trkpt><trkpt lat="44.51311" lon="8.94871"><ele>177.0</ele><time>2026-03-28T11:39:58.011Z</time></trkpt><trkpt lat="44.513185" lon="8.9488517"><ele>177.0</ele><time>2026-03-28T11:39:59.011Z</time></trkpt><trkpt lat="44.513255" lon="8.9489967"><ele>177.0</ele><time>2026-03-28T11:40:00.011Z</time></trkpt><trkpt lat="44.513315" lon="8.9491567"><ele>177.0</ele><time>2026-03-28T11:40:01.011Z</time></trkpt><trkpt lat="44.5133767" lon="8.9493033"><ele>179.0</ele><time>2026-03-28T11:40:02.011Z</time></trkpt><trkpt lat="44.5134367" lon="8.949445"><ele>181.0</ele><time>2026-03-28T11:40:03.011Z</time></trkpt><trkpt lat="44.5135" lon="8.94958"><ele>183.0</ele><time>2026-03-28T11:40:04.011Z</time></trkpt><trkpt lat="44.513555" lon="8.9497033"><ele>185.0</ele><time>2026-03-28T11:40:05.011Z</time></trkpt><trkpt lat="44.51361" lon="8.9498133"><ele>187.0</ele><time>2026-03-28T11:40:06.011Z</time></trkpt><trkpt lat="44.51366" lon="8.94992"><ele>187.0</ele><time>2026-03-28T11:40:07.011Z</time></trkpt><trkpt lat="44.513705" lon="8.9500133"><ele>187.0</ele><time>2026-03-28T11:40:08.011Z</time></trkpt><trkpt lat="44.513755" lon="8.95011"><ele>187.0</ele><time>2026-03-28T11:40:09.011Z</time></trkpt><trkpt lat="44.5138117" lon="8.9502117"><ele>187.0</ele><time>2026-03-28T11:40:10.011Z</time></trkpt><trkpt lat="44.5138717" lon="8.9503133"><ele>187.0</ele><time>2026-03-28T11:40:11.011Z</time></trkpt><trkpt lat="44.5139283" lon="8.950425"><ele>187.0</ele><time>2026-03-28T11:40:12.011Z</time></trkpt><trkpt lat="44.513975" lon="8.9505417"><ele>186.83333333333334</ele><time>2026-03-28T11:40:13.011Z</time></trkpt><trkpt lat="44.5140133" lon="8.9506517"><ele>186.66666666666669</ele><time>2026-03-28T11:40:14.01Z</time></trkpt><trkpt lat="44.5140433" lon="8.9507583"><ele>186.5</ele><time>2026-03-28T11:40:15.011Z</time></trkpt><trkpt lat="44.5140517" lon="8.9508583"><ele>186.33333333333334</ele><time>2026-03-28T11:40:16.01Z</time></trkpt><trkpt lat="44.514035" lon="8.9509717"><ele>186.16666666666666</ele><time>2026-03-28T11:40:17.011Z</time></trkpt><trkpt lat="44.513985" lon="8.9510833"><ele>186.0</ele><time>2026-03-28T11:40:18.011Z</time></trkpt><trkpt lat="44.5139283" lon="8.9511917"><ele>186.83333333333334</ele><time>2026-03-28T11:40:19.011Z</time></trkpt><trkpt lat="44.5138667" lon="8.9512833"><ele>187.66666666666666</ele><time>2026-03-28T11:40:20.011Z</time></trkpt><trkpt lat="44.51381" lon="8.9513633"><ele>188.5</ele><time>2026-03-28T11:40:21.011Z</time></trkpt><trkpt lat="44.513745" lon="8.9513983"><ele>189.33333333333331</ele><time>2026-03-28T11:40:22.011Z</time></trkpt><trkpt lat="44.5136817" lon="8.9514083"><ele>190.16666666666666</ele><time>2026-03-28T11:40:23.011Z</time></trkpt><trkpt lat="44.5135817" lon="8.951295"><ele>191.0</ele><time>2026-03-28T11:40:25.011Z</time></trkpt><trkpt lat="44.513535" lon="8.9511583"><ele>192.75</ele><time>2026-03-28T11:40:26.01Z</time></trkpt><trkpt lat="44.513485" lon="8.9509833"><ele>194.5</ele><time>2026-03-28T11:40:27.011Z</time></trkpt><trkpt lat="44.5134217" lon="8.9507783"><ele>196.25</ele><time>2026-03-28T11:40:28.011Z</time></trkpt><trkpt lat="44.5133317" lon="8.9506117"><ele>198.0</ele><time>2026-03-28T11:40:29.011Z</time></trkpt><trkpt lat="44.5132383" lon="8.9504533"><ele>198.0</ele><time>2026-03-28T11:40:30.011Z</time></trkpt><trkpt lat="44.513145" lon="8.95029"><ele>198.0</ele><time>2026-03-28T11:40:31.011Z</time></trkpt><trkpt lat="44.5130483" lon="8.950135"><ele>198.0</ele><time>2026-03-28T11:40:32.011Z</time></trkpt><trkpt lat="44.5129633" lon="8.9499717"><ele>198.0</ele><time>2026-03-28T11:40:33.011Z</time></trkpt><trkpt lat="44.51287" lon="8.94981"><ele>198.25</ele><time>2026-03-28T11:40:34.011Z</time></trkpt><trkpt lat="44.5127817" lon="8.94965"><ele>198.5</ele><time>2026-03-28T11:40:35.011Z</time></trkpt><trkpt lat="44.5126883" lon="8.9494933"><ele>198.75</ele><time>2026-03-28T11:40:36.011Z</time></trkpt><trkpt lat="44.5125817" lon="8.9493483"><ele>199.0</ele><time>2026-03-28T11:40:37.011Z</time></trkpt><trkpt lat="44.5124717" lon="8.9492067"><ele>199.0</ele><time>2026-03-28T11:40:38.011Z</time></trkpt><trkpt lat="44.5123717" lon="8.9490667"><ele>199.0</ele><time>2026-03-28T11:40:39.011Z</time></trkpt><trkpt lat="44.5122733" lon="8.94893"><ele>199.0</ele><time>2026-03-28T11:40:40.011Z</time></trkpt><trkpt lat="44.5121733" lon="8.9488183"><ele>199.0</ele><time>2026-03-28T11:40:41.011Z</time></trkpt><trkpt lat="44.5120833" lon="8.9487017"><ele>205.75</ele><time>2026-03-28T11:40:42.011Z</time></trkpt><trkpt lat="44.5120017" lon="8.9485833"><ele>212.5</ele><time>2026-03-28T11:40:43.011Z</time></trkpt><trkpt lat="44.5119667" lon="8.94842"><ele>219.25</ele><time>2026-03-28T11:40:44.011Z</time></trkpt><trkpt lat="44.5119217" lon="8.9482267"><ele>226.0</ele><time>2026-03-28T11:40:45.011Z</time></trkpt><trkpt lat="44.5118633" lon="8.94804"><ele>226.0</ele><time>2026-03-28T11:40:46.011Z</time></trkpt><trkpt lat="44.5118017" lon="8.9478583"><ele>226.0</ele><time>2026-03-28T11:40:47.01Z</time></trkpt><trkpt lat="44.5117667" lon="8.9476717"><ele>226.0</ele><time>2026-03-28T11:40:48.011Z</time></trkpt><trkpt lat="44.5117217" lon="8.94751"><ele>226.0</ele><time>2026-03-28T11:40:49.011Z</time></trkpt><trkpt lat="44.511675" lon="8.94735"><ele>222.5</ele><time>2026-03-28T11:40:50.011Z</time></trkpt><trkpt lat="44.5116133" lon="8.947185"><ele>219.0</ele><time>2026-03-28T11:40:51.011Z</time></trkpt><trkpt lat="44.5115833" lon="8.94702"><ele>215.5</ele><time>2026-03-28T11:40:52.011Z</time></trkpt><trkpt lat="44.5115833" lon="8.9468383"><ele>212.0</ele><time>2026-03-28T11:40:53.011Z</time></trkpt><trkpt lat="44.5115767" lon="8.9466783"><ele>209.75</ele><time>2026-03-28T11:40:54.01Z</time></trkpt><trkpt lat="44.5115633" lon="8.9465183"><ele>207.5</ele><time>2026-03-28T11:40:55.011Z</time></trkpt><trkpt lat="44.51153" lon="8.9463483"><ele>205.25</ele><time>2026-03-28T11:40:56.01Z</time></trkpt><trkpt lat="44.5114817" lon="8.9461783"><ele>203.0</ele><time>2026-03-28T11:40:57.011Z</time></trkpt><trkpt lat="44.5114233" lon="8.9460133"><ele>202.5</ele><time>2026-03-28T11:40:58.011Z</time></trkpt><trkpt lat="44.51137" lon="8.9458367"><ele>202.0</ele><time>2026-03-28T11:40:59.01Z</time></trkpt><trkpt lat="44.5113117" lon="8.9456567"><ele>201.5</ele><time>2026-03-28T11:41:00.01Z</time></trkpt><trkpt lat="44.5112483" lon="8.9454717"><ele>201.0</ele><time>2026-03-28T11:41:01.011Z</time></trkpt><trkpt lat="44.5111883" lon="8.9452833"><ele>210.75</ele><time>2026-03-28T11:41:02.01Z</time></trkpt><trkpt lat="44.5111317" lon="8.945105"><ele>220.5</ele><time>2026-03-28T11:41:03.011Z</time></trkpt><trkpt lat="44.511105" lon="8.9449067"><ele>230.25</ele><time>2026-03-28T11:41:04.011Z</time></trkpt><trkpt lat="44.5110967" lon="8.944705"><ele>240.0</ele><time>2026-03-28T11:41:05.01Z</time></trkpt><trkpt lat="44.5110917" lon="8.9445133"><ele>240.0</ele><time>2026-03-28T11:41:06.011Z</time></trkpt><trkpt lat="44.5110983" lon="8.9443367"><ele>240.0</ele><time>2026-03-28T11:41:07.011Z</time></trkpt><trkpt lat="44.5111383" lon="8.9441567"><ele>240.0</ele><time>2026-03-28T11:41:08.01Z</time></trkpt><trkpt lat="44.5111217" lon="8.9439833"><ele>240.0</ele><time>2026-03-28T11:41:09.01Z</time></trkpt><trkpt lat="44.5110933" lon="8.9438167"><ele>238.0</ele><time>2026-03-28T11:41:10.011Z</time></trkpt><trkpt lat="44.5110433" lon="8.94366"><ele>236.0</ele><time>2026-03-28T11:41:11.011Z</time></trkpt><trkpt lat="44.5110017" lon="8.943485"><ele>234.0</ele><time>2026-03-28T11:41:12.011Z</time></trkpt><trkpt lat="44.5109667" lon="8.943295"><ele>232.0</ele><time>2026-03-28T11:41:13.011Z</time></trkpt><trkpt lat="44.510955" lon="8.94311"><ele>230.6</ele><time>2026-03-28T11:41:14.011Z</time></trkpt><trkpt lat="44.5109417" lon="8.9429433"><ele>229.2</ele><time>2026-03-28T11:41:15.01Z</time></trkpt><trkpt lat="44.5108983" lon="8.9428067"><ele>227.8</ele><time>2026-03-28T11:41:16.011Z</time></trkpt><trkpt lat="44.5108433" lon="8.942705"><ele>226.4</ele><time>2026-03-28T11:41:17.011Z</time></trkpt><trkpt lat="44.5107633" lon="8.9426233"><ele>225.0</ele><time>2026-03-28T11:41:18.01Z</time></trkpt><trkpt lat="44.5106767" lon="8.9425333"><ele>227.5</ele><time>2026-03-28T11:41:19.011Z</time></trkpt><trkpt lat="44.5105917" lon="8.9424333"><ele>230.0</ele><time>2026-03-28T11:41:20.011Z</time></trkpt><trkpt lat="44.5104983" lon="8.9423233"><ele>232.5</ele><time>2026-03-28T11:41:21.011Z</time></trkpt><trkpt lat="44.5104167" lon="8.9422133"><ele>235.0</ele><time>2026-03-28T11:41:22.011Z</time></trkpt><trkpt lat="44.5103383" lon="8.942105"><ele>235.0</ele><time>2026-03-28T11:41:23.011Z</time></trkpt><trkpt lat="44.5102433" lon="8.9420033"><ele>235.0</ele><time>2026-03-28T11:41:24.011Z</time></trkpt><trkpt lat="44.51014" lon="8.941945"><ele>235.0</ele><time>2026-03-28T11:41:25.011Z</time></trkpt><trkpt lat="44.5100283" lon="8.9419283"><ele>235.0</ele><time>2026-03-28T11:41:26.011Z</time></trkpt><trkpt lat="44.50991" lon="8.9419517"><ele>235.0</ele><time>2026-03-28T11:41:27.011Z</time></trkpt><trkpt lat="44.5097883" lon="8.9419883"><ele>235.0</ele><time>2026-03-28T11:41:28.01Z</time></trkpt><trkpt lat="44.5096717" lon="8.9420083"><ele>235.0</ele><time>2026-03-28T11:41:29.011Z</time></trkpt><trkpt lat="44.509545" lon="8.9419933"><ele>235.0</ele><time>2026-03-28T11:41:30.01Z</time></trkpt><trkpt lat="44.5094167" lon="8.9420067"><ele>231.8</ele><time>2026-03-28T11:41:31.011Z</time></trkpt><trkpt lat="44.5092983" lon="8.9420517"><ele>228.6</ele><time>2026-03-28T11:41:32.011Z</time></trkpt><trkpt lat="44.5092083" lon="8.9421233"><ele>225.39999999999998</ele><time>2026-03-28T11:41:33.011Z</time></trkpt><trkpt lat="44.5091467" lon="8.9422283"><ele>222.2</ele><time>2026-03-28T11:41:34.011Z</time></trkpt><trkpt lat="44.5090867" lon="8.9423433"><ele>219.0</ele><time>2026-03-28T11:41:35.011Z</time></trkpt><trkpt lat="44.50903" lon="8.94248"><ele>224.75</ele><time>2026-03-28T11:41:36.011Z</time></trkpt><trkpt lat="44.5089833" lon="8.942625"><ele>230.5</ele><time>2026-03-28T11:41:37.011Z</time></trkpt><trkpt lat="44.50894" lon="8.942785"><ele>236.25</ele><time>2026-03-28T11:41:38.01Z</time></trkpt><trkpt lat="44.508915" lon="8.9429467"><ele>242.0</ele><time>2026-03-28T11:41:39.011Z</time></trkpt><trkpt lat="44.5088817" lon="8.9431367"><ele>242.0</ele><time>2026-03-28T11:41:40.011Z</time></trkpt><trkpt lat="44.50884" lon="8.9433117"><ele>242.0</ele><time>2026-03-28T11:41:41.011Z</time></trkpt><trkpt lat="44.5087867" lon="8.943495"><ele>242.0</ele><time>2026-03-28T11:41:42.011Z</time></trkpt><trkpt lat="44.508735" lon="8.94368"><ele>242.0</ele><time>2026-03-28T11:41:43.01Z</time></trkpt><trkpt lat="44.5086767" lon="8.9438483"><ele>241.25</ele><time>2026-03-28T11:41:44.01Z</time></trkpt><trkpt lat="44.5086067" lon="8.9440117"><ele>240.5</ele><time>2026-03-28T11:41:45.01Z</time></trkpt><trkpt lat="44.50853" lon="8.94418"><ele>239.75</ele><time>2026-03-28T11:41:46.011Z</time></trkpt><trkpt lat="44.5084617" lon="8.9443467"><ele>239.0</ele><time>2026-03-28T11:41:47.011Z</time></trkpt><trkpt lat="44.5083967" lon="8.9445033"><ele>239.0</ele><time>2026-03-28T11:41:48.011Z</time></trkpt><trkpt lat="44.5083583" lon="8.944655"><ele>239.0</ele><time>2026-03-28T11:41:49.011Z</time></trkpt><trkpt lat="44.508345" lon="8.9448117"><ele>239.0</ele><time>2026-03-28T11:41:50.011Z</time></trkpt><trkpt lat="44.508325" lon="8.9449833"><ele>239.0</ele><time>2026-03-28T11:41:51.011Z</time></trkpt><trkpt lat="44.5082783" lon="8.9451433"><ele>242.5</ele><time>2026-03-28T11:41:52.01Z</time></trkpt><trkpt lat="44.5082217" lon="8.9453017"><ele>246.0</ele><time>2026-03-28T11:41:53.011Z</time></trkpt><trkpt lat="44.5081683" lon="8.94546"><ele>249.5</ele><time>2026-03-28T11:41:54.01Z</time></trkpt><trkpt lat="44.50811" lon="8.945645"><ele>253.0</ele><time>2026-03-28T11:41:55.011Z</time></trkpt><trkpt lat="44.508055" lon="8.945825"><ele>256.0</ele><time>2026-03-28T11:41:56.011Z</time></trkpt><trkpt lat="44.5079933" lon="8.9459883"><ele>259.0</ele><time>2026-03-28T11:41:57.011Z</time></trkpt><trkpt lat="44.5079317" lon="8.9461433"><ele>262.0</ele><time>2026-03-28T11:41:58.011Z</time></trkpt><trkpt lat="44.5078767" lon="8.9462883"><ele>265.0</ele><time>2026-03-28T11:41:59.011Z</time></trkpt><trkpt lat="44.5078417" lon="8.9464367"><ele>257.5</ele><time>2026-03-28T11:42:00.011Z</time></trkpt><trkpt lat="44.5078167" lon="8.9465933"><ele>250.0</ele><time>2026-03-28T11:42:01.01Z</time></trkpt><trkpt lat="44.507795" lon="8.9467583"><ele>242.5</ele><time>2026-03-28T11:42:02.011Z</time></trkpt><trkpt lat="44.507775" lon="8.9469233"><ele>235.0</ele><time>2026-03-28T11:42:03.011Z</time></trkpt><trkpt lat="44.50776" lon="8.9470833"><ele>235.0</ele><time>2026-03-28T11:42:04.01Z</time></trkpt><trkpt lat="44.5077433" lon="8.94726"><ele>235.0</ele><time>2026-03-28T11:42:05.011Z</time></trkpt><trkpt lat="44.5077183" lon="8.9474367"><ele>235.0</ele><time>2026-03-28T11:42:06.011Z</time></trkpt><trkpt lat="44.507695" lon="8.9476"><ele>235.0</ele><time>2026-03-28T11:42:07.011Z</time></trkpt><trkpt lat="44.50767" lon="8.94776"><ele>240.25</ele><time>2026-03-28T11:42:08.01Z</time></trkpt><trkpt lat="44.5076417" lon="8.9479233"><ele>245.5</ele><time>2026-03-28T11:42:09.011Z</time></trkpt><trkpt lat="44.5075983" lon="8.94809"><ele>250.75</ele><time>2026-03-28T11:42:10.011Z</time></trkpt><trkpt lat="44.5075317" lon="8.9482317"><ele>256.0</ele><time>2026-03-28T11:42:11.01Z</time></trkpt><trkpt lat="44.5074633" lon="8.94834"><ele>260.75</ele><time>2026-03-28T11:42:12.011Z</time></trkpt><trkpt lat="44.5074067" lon="8.9484683"><ele>265.5</ele><time>2026-03-28T11:42:13.011Z</time></trkpt><trkpt lat="44.5073517" lon="8.94862"><ele>270.25</ele><time>2026-03-28T11:42:14.011Z</time></trkpt><trkpt lat="44.5072933" lon="8.9487933"><ele>275.0</ele><time>2026-03-28T11:42:15.011Z</time></trkpt><trkpt lat="44.5072117" lon="8.948945"><ele>275.0</ele><time>2026-03-28T11:42:16.011Z</time></trkpt><trkpt lat="44.50711" lon="8.94907"><ele>275.0</ele><time>2026-03-28T11:42:17.011Z</time></trkpt><trkpt lat="44.5070017" lon="8.9491467"><ele>275.0</ele><time>2026-03-28T11:42:18.011Z</time></trkpt><trkpt lat="44.5068833" lon="8.9491733"><ele>275.0</ele><time>2026-03-28T11:42:19.011Z</time></trkpt><trkpt lat="44.506795" lon="8.949205"><ele>271.5</ele><time>2026-03-28T11:42:20.011Z</time></trkpt><trkpt lat="44.5067317" lon="8.9492717"><ele>268.0</ele><time>2026-03-28T11:42:21.011Z</time></trkpt><trkpt lat="44.5067033" lon="8.9493717"><ele>264.5</ele><time>2026-03-28T11:42:22.011Z</time></trkpt><trkpt lat="44.5067083" lon="8.9494817"><ele>261.0</ele><time>2026-03-28T11:42:23.011Z</time></trkpt><trkpt lat="44.5067433" lon="8.9496067"><ele>257.5</ele><time>2026-03-28T11:42:24.011Z</time></trkpt><trkpt lat="44.5068083" lon="8.9497183"><ele>254.0</ele><time>2026-03-28T11:42:25.011Z</time></trkpt><trkpt lat="44.506885" lon="8.9498417"><ele>254.0</ele><time>2026-03-28T11:42:26.011Z</time></trkpt><trkpt lat="44.50693" lon="8.949975"><ele>253.99999999999997</ele><time>2026-03-28T11:42:27.011Z</time></trkpt><trkpt lat="44.5069517" lon="8.950105"><ele>253.99999999999997</ele><time>2026-03-28T11:42:28.011Z</time></trkpt><trkpt lat="44.5069367" lon="8.9502367"><ele>254.0</ele><time>2026-03-28T11:42:29.01Z</time></trkpt><trkpt lat="44.5068983" lon="8.9503667"><ele>254.0</ele><time>2026-03-28T11:42:30.011Z</time></trkpt><trkpt lat="44.506835" lon="8.9504733"><ele>257.25</ele><time>2026-03-28T11:42:31.011Z</time></trkpt><trkpt lat="44.5067517" lon="8.95056"><ele>260.5</ele><time>2026-03-28T11:42:32.01Z</time></trkpt><trkpt lat="44.50665" lon="8.9506367"><ele>263.75</ele><time>2026-03-28T11:42:33.01Z</time></trkpt><trkpt lat="44.506535" lon="8.9506917"><ele>267.0</ele><time>2026-03-28T11:42:34.011Z</time></trkpt><trkpt lat="44.5064183" lon="8.95074"><ele>267.0</ele><time>2026-03-28T11:42:35.01Z</time></trkpt><trkpt lat="44.506305" lon="8.9507817"><ele>267.0</ele><time>2026-03-28T11:42:36.011Z</time></trkpt><trkpt lat="44.5062183" lon="8.9507917"><ele>267.0</ele><time>2026-03-28T11:42:37.011Z</time></trkpt><trkpt lat="44.5061183" lon="8.95085"><ele>267.0</ele><time>2026-03-28T11:42:38.011Z</time></trkpt><trkpt lat="44.5060317" lon="8.9509267"><ele>267.0</ele><time>2026-03-28T11:42:39.011Z</time></trkpt><trkpt lat="44.5059667" lon="8.9510067"><ele>265.5</ele><time>2026-03-28T11:42:40.011Z</time></trkpt><trkpt lat="44.50593" lon="8.9510933"><ele>264.0</ele><time>2026-03-28T11:42:41.011Z</time></trkpt><trkpt lat="44.5059267" lon="8.9511967"><ele>262.5</ele><time>2026-03-28T11:42:42.011Z</time></trkpt><trkpt lat="44.5059467" lon="8.95131"><ele>261.0</ele><time>2026-03-28T11:42:43.011Z</time></trkpt><trkpt lat="44.505975" lon="8.951435"><ele>259.5</ele><time>2026-03-28T11:42:44.01Z</time></trkpt><trkpt lat="44.506" lon="8.9515667"><ele>258.0</ele><time>2026-03-28T11:42:45.011Z</time></trkpt><trkpt lat="44.5060233" lon="8.9517067"><ele>258.0</ele><time>2026-03-28T11:42:46.01Z</time></trkpt><trkpt lat="44.5060483" lon="8.9518467"><ele>258.0</ele><time>2026-03-28T11:42:47.011Z</time></trkpt><trkpt lat="44.5060783" lon="8.952005"><ele>258.0</ele><time>2026-03-28T11:42:48.01Z</time></trkpt><trkpt lat="44.5061133" lon="8.9521517"><ele>258.0</ele><time>2026-03-28T11:42:49.011Z</time></trkpt><trkpt lat="44.5061483" lon="8.9522933"><ele>258.0</ele><time>2026-03-28T11:42:50.011Z</time></trkpt><trkpt lat="44.5061683" lon="8.9524267"><ele>261.8</ele><time>2026-03-28T11:42:51.011Z</time></trkpt><trkpt lat="44.5061583" lon="8.9525417"><ele>265.6</ele><time>2026-03-28T11:42:52.011Z</time></trkpt><trkpt lat="44.506115" lon="8.95267"><ele>269.4</ele><time>2026-03-28T11:42:53.011Z</time></trkpt><trkpt lat="44.5060533" lon="8.9527667"><ele>273.2</ele><time>2026-03-28T11:42:54.011Z</time></trkpt><trkpt lat="44.50601" lon="8.9528833"><ele>277.0</ele><time>2026-03-28T11:42:55.01Z</time></trkpt><trkpt lat="44.505985" lon="8.9530317"><ele>277.0</ele><time>2026-03-28T11:42:56.011Z</time></trkpt><trkpt lat="44.5059733" lon="8.953185"><ele>277.0</ele><time>2026-03-28T11:42:57.011Z</time></trkpt><trkpt lat="44.5059617" lon="8.95335"><ele>277.0</ele><time>2026-03-28T11:42:58.011Z</time></trkpt><trkpt lat="44.5059617" lon="8.9535"><ele>277.0</ele><time>2026-03-28T11:42:59.011Z</time></trkpt><trkpt lat="44.5059717" lon="8.95366"><ele>281.8</ele><time>2026-03-28T11:43:00.01Z</time></trkpt><trkpt lat="44.50599" lon="8.9538033"><ele>286.6</ele><time>2026-03-28T11:43:01.011Z</time></trkpt><trkpt lat="44.5060033" lon="8.9539317"><ele>291.40000000000003</ele><time>2026-03-28T11:43:02.011Z</time></trkpt><trkpt lat="44.5060033" lon="8.9540583"><ele>296.2</ele><time>2026-03-28T11:43:03.011Z</time></trkpt><trkpt lat="44.505985" lon="8.9541733"><ele>301.0</ele><time>2026-03-28T11:43:04.01Z</time></trkpt><trkpt lat="44.5059417" lon="8.9542733"><ele>309.0</ele><time>2026-03-28T11:43:05.011Z</time></trkpt><trkpt lat="44.5058767" lon="8.95435"><ele>317.0</ele><time>2026-03-28T11:43:06.01Z</time></trkpt><trkpt lat="44.5057833" lon="8.9543983"><ele>325.0</ele><time>2026-03-28T11:43:07.011Z</time></trkpt><trkpt lat="44.5056867" lon="8.9544517"><ele>333.0</ele><time>2026-03-28T11:43:08.011Z</time></trkpt><trkpt lat="44.5055767" lon="8.9544817"><ele>341.0</ele><time>2026-03-28T11:43:09.011Z</time></trkpt><trkpt lat="44.505455" lon="8.9544617"><ele>340.4</ele><time>2026-03-28T11:43:10.011Z</time></trkpt><trkpt lat="44.50534" lon="8.9544017"><ele>339.8</ele><time>2026-03-28T11:43:11.011Z</time></trkpt><trkpt lat="44.505235" lon="8.9543533"><ele>339.2</ele><time>2026-03-28T11:43:12.011Z</time></trkpt><trkpt lat="44.50513" lon="8.9543267"><ele>338.59999999999997</ele><time>2026-03-28T11:43:13.01Z</time></trkpt><trkpt lat="44.5050267" lon="8.9543133"><ele>338.0</ele><time>2026-03-28T11:43:14.01Z</time></trkpt><trkpt lat="44.5049267" lon="8.9543217"><ele>338.0</ele><time>2026-03-28T11:43:15.011Z</time></trkpt><trkpt lat="44.5048333" lon="8.9543317"><ele>338.0</ele><time>2026-03-28T11:43:16.011Z</time></trkpt><trkpt lat="44.5047233" lon="8.9543567"><ele>338.0</ele><time>2026-03-28T11:43:17.011Z</time></trkpt><trkpt lat="44.5046033" lon="8.9543783"><ele>338.0</ele><time>2026-03-28T11:43:18.011Z</time></trkpt><trkpt lat="44.5044767" lon="8.9543833"><ele>331.79999999999995</ele><time>2026-03-28T11:43:19.011Z</time></trkpt><trkpt lat="44.5043567" lon="8.9543933"><ele>325.59999999999997</ele><time>2026-03-28T11:43:20.011Z</time></trkpt><trkpt lat="44.50425" lon="8.9544067"><ele>319.4</ele><time>2026-03-28T11:43:21.01Z</time></trkpt><trkpt lat="44.50416" lon="8.9544117"><ele>313.2</ele><time>2026-03-28T11:43:22.011Z</time></trkpt><trkpt lat="44.5040883" lon="8.9544567"><ele>307.0</ele><time>2026-03-28T11:43:23.011Z</time></trkpt><trkpt lat="44.5040283" lon="8.9545067"><ele>307.0</ele><time>2026-03-28T11:43:24.011Z</time></trkpt><trkpt lat="44.5040033" lon="8.9545983"><ele>307.0</ele><time>2026-03-28T11:43:25.01Z</time></trkpt><trkpt lat="44.504" lon="8.9547067"><ele>307.0</ele><time>2026-03-28T11:43:26.011Z</time></trkpt><trkpt lat="44.5040233" lon="8.9548233"><ele>307.0</ele><time>2026-03-28T11:43:27.011Z</time></trkpt><trkpt lat="44.5040633" lon="8.954935"><ele>307.0</ele><time>2026-03-28T11:43:28.011Z</time></trkpt><trkpt lat="44.5041167" lon="8.9550567"><ele>307.0</ele><time>2026-03-28T11:43:29.011Z</time></trkpt><trkpt lat="44.5041717" lon="8.95518"><ele>310.0</ele><time>2026-03-28T11:43:30.011Z</time></trkpt><trkpt lat="44.504195" lon="8.9553317"><ele>313.0</ele><time>2026-03-28T11:43:31.011Z</time></trkpt><trkpt lat="44.5041833" lon="8.955495"><ele>316.0</ele><time>2026-03-28T11:43:32.011Z</time></trkpt><trkpt lat="44.5041583" lon="8.9556517"><ele>319.0</ele><time>2026-03-28T11:43:33.011Z</time></trkpt><trkpt lat="44.5041217" lon="8.955805"><ele>320.25</ele><time>2026-03-28T11:43:34.011Z</time></trkpt><trkpt lat="44.5040883" lon="8.9559683"><ele>321.5</ele><time>2026-03-28T11:43:35.01Z</time></trkpt><trkpt lat="44.5040533" lon="8.9561333"><ele>322.75</ele><time>2026-03-28T11:43:36.011Z</time></trkpt><trkpt lat="44.504015" lon="8.9562833"><ele>324.0</ele><time>2026-03-28T11:43:37.011Z</time></trkpt><trkpt lat="44.503985" lon="8.956415"><ele>324.0</ele><time>2026-03-28T11:43:38.011Z</time></trkpt><trkpt lat="44.5039783" lon="8.9565533"><ele>324.0</ele><time>2026-03-28T11:43:39.011Z</time></trkpt><trkpt lat="44.5039883" lon="8.9566983"><ele>324.0</ele><time>2026-03-28T11:43:40.011Z</time></trkpt><trkpt lat="44.5040167" lon="8.9568417"><ele>324.0</ele><time>2026-03-28T11:43:41.011Z</time></trkpt><trkpt lat="44.5040617" lon="8.9569983"><ele>324.0</ele><time>2026-03-28T11:43:42.01Z</time></trkpt><trkpt lat="44.5041083" lon="8.9571433"><ele>324.0</ele><time>2026-03-28T11:43:43.011Z</time></trkpt><trkpt lat="44.50415" lon="8.9572833"><ele>324.0</ele><time>2026-03-28T11:43:44.011Z</time></trkpt><trkpt lat="44.50419" lon="8.9574017"><ele>324.0</ele><time>2026-03-28T11:43:45.011Z</time></trkpt><trkpt lat="44.5041933" lon="8.9575383"><ele>324.0</ele><time>2026-03-28T11:43:46.009Z</time></trkpt><trkpt lat="44.5041933" lon="8.9576333"><ele>324.0</ele><time>2026-03-28T11:43:47.009Z</time></trkpt><trkpt lat="44.5041517" lon="8.9577317"><ele>324.0</ele><time>2026-03-28T11:43:48.01Z</time></trkpt><trkpt lat="44.504115" lon="8.9578183"><ele>323.6666666666667</ele><time>2026-03-28T11:43:49.009Z</time></trkpt><trkpt lat="44.504075" lon="8.9579733"><ele>323.3333333333333</ele><time>2026-03-28T11:43:51.01Z</time></trkpt><trkpt lat="44.5040933" lon="8.9580767"><ele>323.0</ele><time>2026-03-28T11:43:52.01Z</time></trkpt><trkpt lat="44.5041267" lon="8.9581733"><ele>322.66666666666663</ele><time>2026-03-28T11:43:53.009Z</time></trkpt><trkpt lat="44.5041733" lon="8.9582717"><ele>322.3333333333333</ele><time>2026-03-28T11:43:54.01Z</time></trkpt><trkpt lat="44.5042283" lon="8.958375"><ele>322.0</ele><time>2026-03-28T11:43:55.01Z</time></trkpt><trkpt lat="44.504285" lon="8.9584833"><ele>325.66666666666663</ele><time>2026-03-28T11:43:56.01Z</time></trkpt><trkpt lat="44.50434" lon="8.9585967"><ele>329.3333333333333</ele><time>2026-03-28T11:43:57.01Z</time></trkpt><trkpt lat="44.504375" lon="8.958715"><ele>333.0</ele><time>2026-03-28T11:43:58.01Z</time></trkpt><trkpt lat="44.5043933" lon="8.9588167"><ele>336.6666666666667</ele><time>2026-03-28T11:43:59.01Z</time></trkpt><trkpt lat="44.5043867" lon="8.9589167"><ele>340.33333333333337</ele><time>2026-03-28T11:44:00.01Z</time></trkpt><trkpt lat="44.50436" lon="8.959015"><ele>344.0</ele><time>2026-03-28T11:44:01.01Z</time></trkpt><trkpt lat="44.50431" lon="8.9590867"><ele>344.0</ele><time>2026-03-28T11:44:02.01Z</time></trkpt><trkpt lat="44.504235" lon="8.9591317"><ele>344.0</ele><time>2026-03-28T11:44:03.01Z</time></trkpt><trkpt lat="44.5041167" lon="8.9591417"><ele>344.0</ele><time>2026-03-28T11:44:04.01Z</time></trkpt><trkpt lat="44.503985" lon="8.9591333"><ele>344.0</ele><time>2026-03-28T11:44:05.01Z</time></trkpt><trkpt lat="44.50386" lon="8.959155"><ele>344.4</ele><time>2026-03-28T11:44:06.01Z</time></trkpt><trkpt lat="44.503745" lon="8.95919"><ele>344.79999999999995</ele><time>2026-03-28T11:44:07.01Z</time></trkpt><trkpt lat="44.50364" lon="8.95917"><ele>345.20000000000005</ele><time>2026-03-28T11:44:08.01Z</time></trkpt><trkpt lat="44.5035317" lon="8.9591733"><ele>345.6</ele><time>2026-03-28T11:44:09.01Z</time></trkpt><trkpt lat="44.5034317" lon="8.9591883"><ele>346.0</ele><time>2026-03-28T11:44:10.01Z</time></trkpt><trkpt lat="44.5033383" lon="8.9592417"><ele>346.0</ele><time>2026-03-28T11:44:11.01Z</time></trkpt><trkpt lat="44.503265" lon="8.9593117"><ele>346.0</ele><time>2026-03-28T11:44:12.01Z</time></trkpt><trkpt lat="44.5032083" lon="8.959395"><ele>346.0</ele><time>2026-03-28T11:44:13.01Z</time></trkpt><trkpt lat="44.5031617" lon="8.9595017"><ele>346.0</ele><time>2026-03-28T11:44:14.01Z</time></trkpt><trkpt lat="44.503145" lon="8.95964"><ele>346.0</ele><time>2026-03-28T11:44:15.01Z</time></trkpt><trkpt lat="44.503155" lon="8.9598017"><ele>346.0</ele><time>2026-03-28T11:44:16.01Z</time></trkpt><trkpt lat="44.5031517" lon="8.95997"><ele>346.0</ele><time>2026-03-28T11:44:17.01Z</time></trkpt><trkpt lat="44.5031533" lon="8.9601383"><ele>346.0</ele><time>2026-03-28T11:44:18.01Z</time></trkpt><trkpt lat="44.5031417" lon="8.960305"><ele>346.0</ele><time>2026-03-28T11:44:19.009Z</time></trkpt><trkpt lat="44.50311" lon="8.96046"><ele>347.4</ele><time>2026-03-28T11:44:20.01Z</time></trkpt><trkpt lat="44.5030733" lon="8.9606217"><ele>348.8</ele><time>2026-03-28T11:44:21.01Z</time></trkpt><trkpt lat="44.5030167" lon="8.9607383"><ele>350.2</ele><time>2026-03-28T11:44:22.01Z</time></trkpt><trkpt lat="44.5029467" lon="8.9608217"><ele>351.59999999999997</ele><time>2026-03-28T11:44:23.01Z</time></trkpt><trkpt lat="44.5028583" lon="8.9608533"><ele>353.0</ele><time>2026-03-28T11:44:24.01Z</time></trkpt><trkpt lat="44.5027633" lon="8.9608783"><ele>353.0</ele><time>2026-03-28T11:44:25.01Z</time></trkpt><trkpt lat="44.5026833" lon="8.960945"><ele>353.0</ele><time>2026-03-28T11:44:26.01Z</time></trkpt><trkpt lat="44.5026367" lon="8.961065"><ele>353.0</ele><time>2026-03-28T11:44:27.01Z</time></trkpt><trkpt lat="44.5026133" lon="8.9611917"><ele>353.0</ele><time>2026-03-28T11:44:28.01Z</time></trkpt><trkpt lat="44.5026017" lon="8.9613267"><ele>353.0</ele><time>2026-03-28T11:44:29.01Z</time></trkpt><trkpt lat="44.5025817" lon="8.9614667"><ele>353.0</ele><time>2026-03-28T11:44:30.009Z</time></trkpt><trkpt lat="44.50255" lon="8.9616083"><ele>353.0</ele><time>2026-03-28T11:44:31.01Z</time></trkpt><trkpt lat="44.5025" lon="8.9617333"><ele>353.0</ele><time>2026-03-28T11:44:32.01Z</time></trkpt><trkpt lat="44.502425" lon="8.961855"><ele>353.0</ele><time>2026-03-28T11:44:33.01Z</time></trkpt><trkpt lat="44.502335" lon="8.961945"><ele>353.0</ele><time>2026-03-28T11:44:34.01Z</time></trkpt><trkpt lat="44.502225" lon="8.9619817"><ele>352.2</ele><time>2026-03-28T11:44:35.01Z</time></trkpt><trkpt lat="44.5021117" lon="8.962005"><ele>351.4</ele><time>2026-03-28T11:44:36.01Z</time></trkpt><trkpt lat="44.5020133" lon="8.9620417"><ele>350.59999999999997</ele><time>2026-03-28T11:44:37.01Z</time></trkpt><trkpt lat="44.501935" lon="8.9621133"><ele>349.79999999999995</ele><time>2026-03-28T11:44:38.009Z</time></trkpt><trkpt lat="44.5018717" lon="8.96224"><ele>349.0</ele><time>2026-03-28T11:44:39.01Z</time></trkpt><trkpt lat="44.5018183" lon="8.96238"><ele>350.0</ele><time>2026-03-28T11:44:40.01Z</time></trkpt><trkpt lat="44.5017633" lon="8.962535"><ele>351.0</ele><time>2026-03-28T11:44:41.01Z</time></trkpt><trkpt lat="44.5017017" lon="8.962685"><ele>352.0</ele><time>2026-03-28T11:44:42.01Z</time></trkpt><trkpt lat="44.50164" lon="8.962815"><ele>353.0</ele><time>2026-03-28T11:44:43.01Z</time></trkpt><trkpt lat="44.5015917" lon="8.9629267"><ele>353.0</ele><time>2026-03-28T11:44:44.01Z</time></trkpt><trkpt lat="44.5015683" lon="8.9630333"><ele>353.0</ele><time>2026-03-28T11:44:45.01Z</time></trkpt><trkpt lat="44.501595" lon="8.9631633"><ele>353.0</ele><time>2026-03-28T11:44:46.01Z</time></trkpt><trkpt lat="44.50166" lon="8.9633317"><ele>353.0</ele><time>2026-03-28T11:44:48.01Z</time></trkpt><trkpt lat="44.50173" lon="8.96343"><ele>353.0</ele><time>2026-03-28T11:44:49.01Z</time></trkpt><trkpt lat="44.501805" lon="8.963525"><ele>355.4</ele><time>2026-03-28T11:44:50.01Z</time></trkpt><trkpt lat="44.5019017" lon="8.9636"><ele>357.79999999999995</ele><time>2026-03-28T11:44:51.01Z</time></trkpt><trkpt lat="44.501995" lon="8.9636683"><ele>360.2</ele><time>2026-03-28T11:44:52.01Z</time></trkpt><trkpt lat="44.5020883" lon="8.9637267"><ele>362.6</ele><time>2026-03-28T11:44:53.01Z</time></trkpt><trkpt lat="44.5022" lon="8.9637633"><ele>365.0</ele><time>2026-03-28T11:44:54.01Z</time></trkpt><trkpt lat="44.502315" lon="8.9638033"><ele>365.0</ele><time>2026-03-28T11:44:55.01Z</time></trkpt><trkpt lat="44.5024217" lon="8.9638367"><ele>365.0</ele><time>2026-03-28T11:44:56.009Z</time></trkpt><trkpt lat="44.5025317" lon="8.96386"><ele>365.0</ele><time>2026-03-28T11:44:57.01Z</time></trkpt><trkpt lat="44.5026383" lon="8.963855"><ele>365.0</ele><time>2026-03-28T11:44:58.009Z</time></trkpt><trkpt lat="44.5027383" lon="8.9638483"><ele>365.0</ele><time>2026-03-28T11:44:59.009Z</time></trkpt><trkpt lat="44.5028383" lon="8.9638317"><ele>374.4</ele><time>2026-03-28T11:45:00.009Z</time></trkpt><trkpt lat="44.5029283" lon="8.9638133"><ele>383.8</ele><time>2026-03-28T11:45:01.01Z</time></trkpt><trkpt lat="44.50301" lon="8.9638283"><ele>393.20000000000005</ele><time>2026-03-28T11:45:02.01Z</time></trkpt><trkpt lat="44.50308" lon="8.9638517"><ele>402.6</ele><time>2026-03-28T11:45:03.01Z</time></trkpt><trkpt lat="44.5031233" lon="8.964015"><ele>412.0</ele><time>2026-03-28T11:45:05.01Z</time></trkpt><trkpt lat="44.5030917" lon="8.9641283"><ele>411.75</ele><time>2026-03-28T11:45:06.01Z</time></trkpt><trkpt lat="44.5030233" lon="8.96427"><ele>411.5</ele><time>2026-03-28T11:45:07.01Z</time></trkpt><trkpt lat="44.502935" lon="8.9644383"><ele>411.25</ele><time>2026-03-28T11:45:08.009Z</time></trkpt><trkpt lat="44.5028667" lon="8.964605"><ele>411.0</ele><time>2026-03-28T11:45:09.01Z</time></trkpt><trkpt lat="44.5028133" lon="8.9647583"><ele>396.25</ele><time>2026-03-28T11:45:10.01Z</time></trkpt><trkpt lat="44.50278" lon="8.9649333"><ele>381.5</ele><time>2026-03-28T11:45:11.009Z</time></trkpt><trkpt lat="44.5027633" lon="8.9651017"><ele>366.75</ele><time>2026-03-28T11:45:12.01Z</time></trkpt><trkpt lat="44.5027767" lon="8.9652433"><ele>352.0</ele><time>2026-03-28T11:45:13.01Z</time></trkpt><trkpt lat="44.502825" lon="8.9653633"><ele>351.0</ele><time>2026-03-28T11:45:14.009Z</time></trkpt><trkpt lat="44.5028883" lon="8.96548"><ele>350.0</ele><time>2026-03-28T11:45:15.01Z</time></trkpt><trkpt lat="44.5029467" lon="8.9656017"><ele>349.0</ele><time>2026-03-28T11:45:16.01Z</time></trkpt><trkpt lat="44.5029883" lon="8.965755"><ele>348.0</ele><time>2026-03-28T11:45:17.01Z</time></trkpt><trkpt lat="44.50301" lon="8.9659167"><ele>347.0</ele><time>2026-03-28T11:45:18.01Z</time></trkpt><trkpt lat="44.5030117" lon="8.966075"><ele>356.5</ele><time>2026-03-28T11:45:19.01Z</time></trkpt><trkpt lat="44.5030167" lon="8.96624"><ele>366.0</ele><time>2026-03-28T11:45:20.01Z</time></trkpt><trkpt lat="44.5030383" lon="8.9664017"><ele>375.5</ele><time>2026-03-28T11:45:21.009Z</time></trkpt><trkpt lat="44.5030767" lon="8.9665583"><ele>385.0</ele><time>2026-03-28T11:45:22.01Z</time></trkpt><trkpt lat="44.5031283" lon="8.966705"><ele>385.0</ele><time>2026-03-28T11:45:23.01Z</time></trkpt><trkpt lat="44.5031883" lon="8.9668483"><ele>385.0</ele><time>2026-03-28T11:45:24.01Z</time></trkpt><trkpt lat="44.5032317" lon="8.967005"><ele>385.0</ele><time>2026-03-28T11:45:25.009Z</time></trkpt><trkpt lat="44.50325" lon="8.9671583"><ele>385.0</ele><time>2026-03-28T11:45:26.009Z</time></trkpt><trkpt lat="44.5032717" lon="8.9672983"><ele>385.0</ele><time>2026-03-28T11:45:27.01Z</time></trkpt><trkpt lat="44.5033217" lon="8.9674217"><ele>385.0</ele><time>2026-03-28T11:45:28.01Z</time></trkpt><trkpt lat="44.5033867" lon="8.9675367"><ele>385.0</ele><time>2026-03-28T11:45:29.01Z</time></trkpt><trkpt lat="44.5034683" lon="8.9676333"><ele>385.0</ele><time>2026-03-28T11:45:30.01Z</time></trkpt><trkpt lat="44.5035567" lon="8.9677333"><ele>385.0</ele><time>2026-03-28T11:45:31.01Z</time></trkpt><trkpt lat="44.503645" lon="8.9678367"><ele>384.00000000000006</ele><time>2026-03-28T11:45:32.009Z</time></trkpt><trkpt lat="44.503725" lon="8.9679383"><ele>383.0</ele><time>2026-03-28T11:45:33.01Z</time></trkpt><trkpt lat="44.5037967" lon="8.9680217"><ele>382.0</ele><time>2026-03-28T11:45:34.01Z</time></trkpt><trkpt lat="44.5038683" lon="8.9680883"><ele>381.0</ele><time>2026-03-28T11:45:35.01Z</time></trkpt><trkpt lat="44.50394" lon="8.968105"><ele>380.0</ele><time>2026-03-28T11:45:36.01Z</time></trkpt><trkpt lat="44.5040183" lon="8.96809"><ele>379.0</ele><time>2026-03-28T11:45:37.01Z</time></trkpt><trkpt lat="44.50411" lon="8.9680467"><ele>379.0</ele><time>2026-03-28T11:45:38.01Z</time></trkpt><trkpt lat="44.50421" lon="8.96801"><ele>379.0</ele><time>2026-03-28T11:45:39.01Z</time></trkpt><trkpt lat="44.5043217" lon="8.9679633"><ele>379.0</ele><time>2026-03-28T11:45:40.01Z</time></trkpt><trkpt lat="44.504435" lon="8.96791"><ele>379.0</ele><time>2026-03-28T11:45:41.01Z</time></trkpt><trkpt lat="44.504545" lon="8.967865"><ele>379.75</ele><time>2026-03-28T11:45:42.01Z</time></trkpt><trkpt lat="44.5046583" lon="8.9678367"><ele>380.5</ele><time>2026-03-28T11:45:43.01Z</time></trkpt><trkpt lat="44.5047817" lon="8.967835"><ele>381.25</ele><time>2026-03-28T11:45:44.01Z</time></trkpt><trkpt lat="44.5048983" lon="8.9678417"><ele>382.0</ele><time>2026-03-28T11:45:45.01Z</time></trkpt><trkpt lat="44.5050083" lon="8.9678233"><ele>382.0</ele><time>2026-03-28T11:45:46.01Z</time></trkpt><trkpt lat="44.5051033" lon="8.967815"><ele>382.0</ele><time>2026-03-28T11:45:47.009Z</time></trkpt><trkpt lat="44.5052117" lon="8.9678217"><ele>382.0</ele><time>2026-03-28T11:45:48.01Z</time></trkpt><trkpt lat="44.5053417" lon="8.967825"><ele>382.0</ele><time>2026-03-28T11:45:49.01Z</time></trkpt><trkpt lat="44.5054617" lon="8.9678483"><ele>383.40000000000003</ele><time>2026-03-28T11:45:50.01Z</time></trkpt><trkpt lat="44.505575" lon="8.9678667"><ele>384.8</ele><time>2026-03-28T11:45:51.01Z</time></trkpt><trkpt lat="44.5056867" lon="8.9678483"><ele>386.2</ele><time>2026-03-28T11:45:52.01Z</time></trkpt><trkpt lat="44.505795" lon="8.9678283"><ele>387.6</ele><time>2026-03-28T11:45:53.01Z</time></trkpt><trkpt lat="44.5059033" lon="8.9678033"><ele>389.0</ele><time>2026-03-28T11:45:54.01Z</time></trkpt><trkpt lat="44.5060033" lon="8.96776"><ele>389.0</ele><time>2026-03-28T11:45:55.01Z</time></trkpt><trkpt lat="44.5060933" lon="8.967705"><ele>389.0</ele><time>2026-03-28T11:45:56.01Z</time></trkpt><trkpt lat="44.50618" lon="8.9676433"><ele>389.0</ele><time>2026-03-28T11:45:57.01Z</time></trkpt><trkpt lat="44.5062667" lon="8.9676033"><ele>389.0</ele><time>2026-03-28T11:45:58.01Z</time></trkpt><trkpt lat="44.50636" lon="8.9676"><ele>389.0</ele><time>2026-03-28T11:45:59.01Z</time></trkpt><trkpt lat="44.5064567" lon="8.9676117"><ele>391.99999999999994</ele><time>2026-03-28T11:46:00.01Z</time></trkpt><trkpt lat="44.5065383" lon="8.967635"><ele>395.0</ele><time>2026-03-28T11:46:01.01Z</time></trkpt><trkpt lat="44.506615" lon="8.9676733"><ele>398.0</ele><time>2026-03-28T11:46:02.01Z</time></trkpt><trkpt lat="44.5066833" lon="8.967715"><ele>401.0</ele><time>2026-03-28T11:46:03.01Z</time></trkpt><trkpt lat="44.50674" lon="8.9677883"><ele>403.99999999999994</ele><time>2026-03-28T11:46:04.01Z</time></trkpt><trkpt lat="44.5067933" lon="8.9678783"><ele>407.0</ele><time>2026-03-28T11:46:05.01Z</time></trkpt><trkpt lat="44.506845" lon="8.9679833"><ele>407.0</ele><time>2026-03-28T11:46:06.01Z</time></trkpt><trkpt lat="44.5068883" lon="8.9681117"><ele>407.0</ele><time>2026-03-28T11:46:07.01Z</time></trkpt><trkpt lat="44.506925" lon="8.968255"><ele>407.0</ele><time>2026-03-28T11:46:08.01Z</time></trkpt><trkpt lat="44.5069617" lon="8.9684067"><ele>407.0</ele><time>2026-03-28T11:46:09.01Z</time></trkpt><trkpt lat="44.506995" lon="8.96854"><ele>407.0</ele><time>2026-03-28T11:46:10.01Z</time></trkpt><trkpt lat="44.5070017" lon="8.9686667"><ele>406.66666666666663</ele><time>2026-03-28T11:46:11.009Z</time></trkpt><trkpt lat="44.506995" lon="8.9687967"><ele>406.3333333333333</ele><time>2026-03-28T11:46:12.01Z</time></trkpt><trkpt lat="44.5069633" lon="8.96891"><ele>406.0</ele><time>2026-03-28T11:46:13.01Z</time></trkpt><trkpt lat="44.5069233" lon="8.96901"><ele>405.66666666666663</ele><time>2026-03-28T11:46:14.01Z</time></trkpt><trkpt lat="44.5069167" lon="8.969115"><ele>405.3333333333333</ele><time>2026-03-28T11:46:15.01Z</time></trkpt><trkpt lat="44.5069417" lon="8.96921"><ele>405.0</ele><time>2026-03-28T11:46:16.01Z</time></trkpt><trkpt lat="44.5069833" lon="8.9693117"><ele>405.0</ele><time>2026-03-28T11:46:17.01Z</time></trkpt><trkpt lat="44.5070367" lon="8.96942"><ele>405.0</ele><time>2026-03-28T11:46:18.009Z</time></trkpt><trkpt lat="44.5070683" lon="8.9695483"><ele>405.0</ele><time>2026-03-28T11:46:19.01Z</time></trkpt><trkpt lat="44.5070667" lon="8.9696917"><ele>405.0</ele><time>2026-03-28T11:46:20.01Z</time></trkpt><trkpt lat="44.507035" lon="8.96984"><ele>405.0</ele><time>2026-03-28T11:46:21.01Z</time></trkpt><trkpt lat="44.506985" lon="8.9699883"><ele>409.0</ele><time>2026-03-28T11:46:22.01Z</time></trkpt><trkpt lat="44.506915" lon="8.970125"><ele>413.0</ele><time>2026-03-28T11:46:23.01Z</time></trkpt><trkpt lat="44.506835" lon="8.9702517"><ele>417.0</ele><time>2026-03-28T11:46:24.01Z</time></trkpt><trkpt lat="44.5067383" lon="8.970395"><ele>421.0</ele><time>2026-03-28T11:46:25.009Z</time></trkpt><trkpt lat="44.506655" lon="8.97053"><ele>421.0</ele><time>2026-03-28T11:46:26.01Z</time></trkpt><trkpt lat="44.5065883" lon="8.9706617"><ele>421.0</ele><time>2026-03-28T11:46:27.01Z</time></trkpt><trkpt lat="44.506565" lon="8.9707967"><ele>421.0</ele><time>2026-03-28T11:46:28.01Z</time></trkpt><trkpt lat="44.5065717" lon="8.9709533"><ele>421.0</ele><time>2026-03-28T11:46:29.01Z</time></trkpt><trkpt lat="44.5065833" lon="8.9711"><ele>421.0</ele><time>2026-03-28T11:46:30.01Z</time></trkpt><trkpt lat="44.5065917" lon="8.9712517"><ele>423.4</ele><time>2026-03-28T11:46:31.01Z</time></trkpt><trkpt lat="44.5065883" lon="8.9713967"><ele>425.8</ele><time>2026-03-28T11:46:32.01Z</time></trkpt><trkpt lat="44.5065533" lon="8.971545"><ele>428.19999999999993</ele><time>2026-03-28T11:46:33.01Z</time></trkpt><trkpt lat="44.5064967" lon="8.9716683"><ele>430.59999999999997</ele><time>2026-03-28T11:46:34.009Z</time></trkpt><trkpt lat="44.5064033" lon="8.9717517"><ele>433.0</ele><time>2026-03-28T11:46:35.01Z</time></trkpt><trkpt lat="44.506295" lon="8.9718217"><ele>428.79999999999995</ele><time>2026-03-28T11:46:36.01Z</time></trkpt><trkpt lat="44.5062067" lon="8.971895"><ele>424.59999999999997</ele><time>2026-03-28T11:46:37.01Z</time></trkpt><trkpt lat="44.50615" lon="8.9719983"><ele>420.4</ele><time>2026-03-28T11:46:38.01Z</time></trkpt><trkpt lat="44.5061033" lon="8.9721283"><ele>416.20000000000005</ele><time>2026-03-28T11:46:39.01Z</time></trkpt><trkpt lat="44.506075" lon="8.972265"><ele>412.0</ele><time>2026-03-28T11:46:40.01Z</time></trkpt><trkpt lat="44.506055" lon="8.9724133"><ele>413.0</ele><time>2026-03-28T11:46:41.01Z</time></trkpt><trkpt lat="44.50604" lon="8.9725633"><ele>414.0</ele><time>2026-03-28T11:46:42.01Z</time></trkpt><trkpt lat="44.5060267" lon="8.972715"><ele>415.0</ele><time>2026-03-28T11:46:43.01Z</time></trkpt><trkpt lat="44.5060183" lon="8.972865"><ele>416.0</ele><time>2026-03-28T11:46:44.01Z</time></trkpt><trkpt lat="44.5060117" lon="8.9729883"><ele>417.0</ele><time>2026-03-28T11:46:45.01Z</time></trkpt><trkpt lat="44.5060183" lon="8.973105"><ele>417.0</ele><time>2026-03-28T11:46:46.01Z</time></trkpt><trkpt lat="44.506035" lon="8.9732233"><ele>417.0</ele><time>2026-03-28T11:46:47.01Z</time></trkpt><trkpt lat="44.5060667" lon="8.9733483"><ele>417.0</ele><time>2026-03-28T11:46:48.01Z</time></trkpt><trkpt lat="44.5061083" lon="8.9734783"><ele>417.0</ele><time>2026-03-28T11:46:49.01Z</time></trkpt><trkpt lat="44.5061617" lon="8.97359"><ele>417.0</ele><time>2026-03-28T11:46:50.01Z</time></trkpt><trkpt lat="44.5062383" lon="8.97368"><ele>419.20000000000005</ele><time>2026-03-28T11:46:51.01Z</time></trkpt><trkpt lat="44.5063267" lon="8.973735"><ele>421.4</ele><time>2026-03-28T11:46:52.01Z</time></trkpt><trkpt lat="44.5064167" lon="8.9737683"><ele>423.59999999999997</ele><time>2026-03-28T11:46:53.01Z</time></trkpt><trkpt lat="44.506525" lon="8.9737833"><ele>425.79999999999995</ele><time>2026-03-28T11:46:54.01Z</time></trkpt><trkpt lat="44.5066433" lon="8.9737667"><ele>428.0</ele><time>2026-03-28T11:46:55.01Z</time></trkpt><trkpt lat="44.5067583" lon="8.9737383"><ele>428.0</ele><time>2026-03-28T11:46:56.01Z</time></trkpt><trkpt lat="44.5068667" lon="8.9737367"><ele>427.99999999999994</ele><time>2026-03-28T11:46:57.009Z</time></trkpt><trkpt lat="44.50696" lon="8.9737617"><ele>427.99999999999994</ele><time>2026-03-28T11:46:58.01Z</time></trkpt><trkpt lat="44.5070283" lon="8.973835"><ele>428.0</ele><time>2026-03-28T11:46:59.01Z</time></trkpt><trkpt lat="44.5070733" lon="8.97395"><ele>428.0</ele><time>2026-03-28T11:47:00.01Z</time></trkpt><trkpt lat="44.5071017" lon="8.9740783"><ele>426.49999999999994</ele><time>2026-03-28T11:47:01.01Z</time></trkpt><trkpt lat="44.5071333" lon="8.974185"><ele>425.0</ele><time>2026-03-28T11:47:02.01Z</time></trkpt><trkpt lat="44.50719" lon="8.9742517"><ele>423.5</ele><time>2026-03-28T11:47:03.01Z</time></trkpt><trkpt lat="44.5072667" lon="8.974285"><ele>422.0</ele><time>2026-03-28T11:47:04.01Z</time></trkpt><trkpt lat="44.50736" lon="8.97431"><ele>420.49999999999994</ele><time>2026-03-28T11:47:05.009Z</time></trkpt><trkpt lat="44.507465" lon="8.9743183"><ele>419.0</ele><time>2026-03-28T11:47:06.01Z</time></trkpt><trkpt lat="44.507575" lon="8.9743067"><ele>419.0</ele><time>2026-03-28T11:47:07.01Z</time></trkpt><trkpt lat="44.50768" lon="8.9742433"><ele>419.0</ele><time>2026-03-28T11:47:08.01Z</time></trkpt><trkpt lat="44.5077733" lon="8.97417"><ele>419.0</ele><time>2026-03-28T11:47:09.01Z</time></trkpt><trkpt lat="44.5078567" lon="8.974075"><ele>419.0</ele><time>2026-03-28T11:47:10.01Z</time></trkpt><trkpt lat="44.5079233" lon="8.97397"><ele>419.0</ele><time>2026-03-28T11:47:11.01Z</time></trkpt><trkpt lat="44.507975" lon="8.973845"><ele>420.4</ele><time>2026-03-28T11:47:12.009Z</time></trkpt><trkpt lat="44.5080183" lon="8.97372"><ele>421.79999999999995</ele><time>2026-03-28T11:47:13.01Z</time></trkpt><trkpt lat="44.5080517" lon="8.973575"><ele>423.20000000000005</ele><time>2026-03-28T11:47:14.009Z</time></trkpt><trkpt lat="44.50808" lon="8.9734233"><ele>424.6</ele><time>2026-03-28T11:47:15.01Z</time></trkpt><trkpt lat="44.5081133" lon="8.9732717"><ele>426.0</ele><time>2026-03-28T11:47:16.01Z</time></trkpt><trkpt lat="44.50815" lon="8.973135"><ele>430.20000000000005</ele><time>2026-03-28T11:47:17.01Z</time></trkpt><trkpt lat="44.5082033" lon="8.9730217"><ele>434.40000000000003</ele><time>2026-03-28T11:47:18.01Z</time></trkpt><trkpt lat="44.5082683" lon="8.9729533"><ele>438.6</ele><time>2026-03-28T11:47:19.01Z</time></trkpt><trkpt lat="44.5083667" lon="8.9729283"><ele>442.8</ele><time>2026-03-28T11:47:20.01Z</time></trkpt><trkpt lat="44.5084633" lon="8.9729617"><ele>447.0</ele><time>2026-03-28T11:47:21.01Z</time></trkpt><trkpt lat="44.5085417" lon="8.9730517"><ele>447.0</ele><time>2026-03-28T11:47:22.01Z</time></trkpt><trkpt lat="44.5086383" lon="8.9731117"><ele>447.00000000000006</ele><time>2026-03-28T11:47:23.01Z</time></trkpt><trkpt lat="44.5087417" lon="8.9731383"><ele>447.00000000000006</ele><time>2026-03-28T11:47:24.01Z</time></trkpt><trkpt lat="44.508845" lon="8.973135"><ele>447.0</ele><time>2026-03-28T11:47:25.01Z</time></trkpt><trkpt lat="44.5089633" lon="8.9731067"><ele>447.0</ele><time>2026-03-28T11:47:26.009Z</time></trkpt><trkpt lat="44.509075" lon="8.9730783"><ele>447.8</ele><time>2026-03-28T11:47:27.01Z</time></trkpt><trkpt lat="44.509175" lon="8.9730517"><ele>448.6</ele><time>2026-03-28T11:47:28.01Z</time></trkpt><trkpt lat="44.5092783" lon="8.9730617"><ele>449.40000000000003</ele><time>2026-03-28T11:47:29.01Z</time></trkpt><trkpt lat="44.5093783" lon="8.9731"><ele>450.20000000000005</ele><time>2026-03-28T11:47:30.01Z</time></trkpt><trkpt lat="44.509475" lon="8.9731717"><ele>451.0</ele><time>2026-03-28T11:47:31.01Z</time></trkpt><trkpt lat="44.509565" lon="8.9732717"><ele>449.0</ele><time>2026-03-28T11:47:32.01Z</time></trkpt><trkpt lat="44.5096417" lon="8.973385"><ele>447.0</ele><time>2026-03-28T11:47:33.009Z</time></trkpt><trkpt lat="44.50971" lon="8.9735033"><ele>445.0</ele><time>2026-03-28T11:47:34.01Z</time></trkpt><trkpt lat="44.50977" lon="8.9736083"><ele>443.0</ele><time>2026-03-28T11:47:35.01Z</time></trkpt><trkpt lat="44.50984" lon="8.9737"><ele>441.0</ele><time>2026-03-28T11:47:36.01Z</time></trkpt><trkpt lat="44.5099217" lon="8.9737517"><ele>441.0</ele><time>2026-03-28T11:47:37.01Z</time></trkpt><trkpt lat="44.5100033" lon="8.9737583"><ele>441.0</ele><time>2026-03-28T11:47:38.01Z</time></trkpt><trkpt lat="44.5100967" lon="8.97372"><ele>441.0</ele><time>2026-03-28T11:47:39.01Z</time></trkpt><trkpt lat="44.5101917" lon="8.97367"><ele>441.0</ele><time>2026-03-28T11:47:40.01Z</time></trkpt><trkpt lat="44.510285" lon="8.97361"><ele>441.0</ele><time>2026-03-28T11:47:41.01Z</time></trkpt><trkpt lat="44.5103717" lon="8.97353"><ele>440.0</ele><time>2026-03-28T11:47:42.009Z</time></trkpt><trkpt lat="44.51046" lon="8.97343"><ele>439.0</ele><time>2026-03-28T11:47:43.01Z</time></trkpt><trkpt lat="44.5105633" lon="8.9733317"><ele>438.0</ele><time>2026-03-28T11:47:44.01Z</time></trkpt><trkpt lat="44.5106683" lon="8.9732633"><ele>437.0</ele><time>2026-03-28T11:47:45.01Z</time></trkpt><trkpt lat="44.51078" lon="8.9731983"><ele>444.25</ele><time>2026-03-28T11:47:46.01Z</time></trkpt><trkpt lat="44.510895" lon="8.9731417"><ele>451.5</ele><time>2026-03-28T11:47:47.01Z</time></trkpt><trkpt lat="44.5109967" lon="8.9731367"><ele>458.75</ele><time>2026-03-28T11:47:48.01Z</time></trkpt><trkpt lat="44.5111117" lon="8.9731533"><ele>466.0</ele><time>2026-03-28T11:47:49.01Z</time></trkpt><trkpt lat="44.5112217" lon="8.9732083"><ele>464.6</ele><time>2026-03-28T11:47:50.01Z</time></trkpt><trkpt lat="44.5113133" lon="8.973285"><ele>463.20000000000005</ele><time>2026-03-28T11:47:51.01Z</time></trkpt><trkpt lat="44.5114067" lon="8.97337"><ele>461.79999999999995</ele><time>2026-03-28T11:47:52.01Z</time></trkpt><trkpt lat="44.5115017" lon="8.9734467"><ele>460.4</ele><time>2026-03-28T11:47:53.01Z</time></trkpt><trkpt lat="44.511595" lon="8.9735483"><ele>459.0</ele><time>2026-03-28T11:47:54.01Z</time></trkpt><trkpt lat="44.5116767" lon="8.9736683"><ele>459.0</ele><time>2026-03-28T11:47:55.01Z</time></trkpt><trkpt lat="44.511735" lon="8.97381"><ele>459.0</ele><time>2026-03-28T11:47:56.01Z</time></trkpt><trkpt lat="44.5117933" lon="8.9739233"><ele>459.0</ele><time>2026-03-28T11:47:57.01Z</time></trkpt><trkpt lat="44.5118717" lon="8.9740167"><ele>459.0</ele><time>2026-03-28T11:47:58.01Z</time></trkpt><trkpt lat="44.511965" lon="8.9740767"><ele>459.0</ele><time>2026-03-28T11:47:59.01Z</time></trkpt><trkpt lat="44.512075" lon="8.9741067"><ele>458.0</ele><time>2026-03-28T11:48:00.01Z</time></trkpt><trkpt lat="44.51219" lon="8.9741183"><ele>457.0</ele><time>2026-03-28T11:48:01.01Z</time></trkpt><trkpt lat="44.5123033" lon="8.9741383"><ele>456.0</ele><time>2026-03-28T11:48:02.01Z</time></trkpt><trkpt lat="44.512425" lon="8.9741617"><ele>455.0</ele><time>2026-03-28T11:48:03.009Z</time></trkpt><trkpt lat="44.512535" lon="8.9742317"><ele>455.0</ele><time>2026-03-28T11:48:04.01Z</time></trkpt><trkpt lat="44.5126417" lon="8.9743033"><ele>455.0</ele><time>2026-03-28T11:48:05.01Z</time></trkpt><trkpt lat="44.512745" lon="8.9743633"><ele>455.0</ele><time>2026-03-28T11:48:06.009Z</time></trkpt><trkpt lat="44.5128467" lon="8.9744117"><ele>455.0</ele><time>2026-03-28T11:48:07.01Z</time></trkpt><trkpt lat="44.512945" lon="8.9744133"><ele>455.0</ele><time>2026-03-28T11:48:08.01Z</time></trkpt><trkpt lat="44.5130317" lon="8.9743967"><ele>456.8333333333333</ele><time>2026-03-28T11:48:09.009Z</time></trkpt><trkpt lat="44.51311" lon="8.97437"><ele>458.66666666666663</ele><time>2026-03-28T11:48:10.01Z</time></trkpt><trkpt lat="44.5131833" lon="8.9743467"><ele>460.5</ele><time>2026-03-28T11:48:11.01Z</time></trkpt><trkpt lat="44.5132767" lon="8.9743333"><ele>462.33333333333337</ele><time>2026-03-28T11:48:12.009Z</time></trkpt><trkpt lat="44.5133717" lon="8.9743517"><ele>464.1666666666667</ele><time>2026-03-28T11:48:13.009Z</time></trkpt><trkpt lat="44.5134567" lon="8.9744233"><ele>466.0</ele><time>2026-03-28T11:48:14.01Z</time></trkpt><trkpt lat="44.51353" lon="8.9745317"><ele>466.0</ele><time>2026-03-28T11:48:15.01Z</time></trkpt><trkpt lat="44.513585" lon="8.9746583"><ele>466.0</ele><time>2026-03-28T11:48:16.009Z</time></trkpt><trkpt lat="44.513635" lon="8.974785"><ele>466.0</ele><time>2026-03-28T11:48:17.01Z</time></trkpt><trkpt lat="44.5136967" lon="8.9749"><ele>466.0</ele><time>2026-03-28T11:48:18.01Z</time></trkpt><trkpt lat="44.5137833" lon="8.974995"><ele>466.0</ele><time>2026-03-28T11:48:19.009Z</time></trkpt><trkpt lat="44.513895" lon="8.9750717"><ele>465.25</ele><time>2026-03-28T11:48:20.01Z</time></trkpt><trkpt lat="44.5140167" lon="8.9751483"><ele>464.5</ele><time>2026-03-28T11:48:21.01Z</time></trkpt><trkpt lat="44.5141533" lon="8.975225"><ele>463.75</ele><time>2026-03-28T11:48:22.01Z</time></trkpt><trkpt lat="44.5142917" lon="8.9753217"><ele>463.0</ele><time>2026-03-28T11:48:23.01Z</time></trkpt><trkpt lat="44.51442" lon="8.9754267"><ele>463.0</ele><time>2026-03-28T11:48:24.01Z</time></trkpt><trkpt lat="44.5145533" lon="8.9755333"><ele>463.0</ele><time>2026-03-28T11:48:25.01Z</time></trkpt><trkpt lat="44.5146883" lon="8.97564"><ele>463.0</ele><time>2026-03-28T11:48:26.009Z</time></trkpt><trkpt lat="44.5148233" lon="8.9757533"><ele>464.0</ele><time>2026-03-28T11:48:27.01Z</time></trkpt><trkpt lat="44.5149467" lon="8.9758783"><ele>465.0</ele><time>2026-03-28T11:48:28.01Z</time></trkpt><trkpt lat="44.5150717" lon="8.9759917"><ele>466.0</ele><time>2026-03-28T11:48:29.009Z</time></trkpt><trkpt lat="44.5152" lon="8.9760983"><ele>466.0</ele><time>2026-03-28T11:48:30.01Z</time></trkpt><trkpt lat="44.5153217" lon="8.976215"><ele>466.0</ele><time>2026-03-28T11:48:31.01Z</time></trkpt><trkpt lat="44.515445" lon="8.97631"><ele>466.0</ele><time>2026-03-28T11:48:32.01Z</time></trkpt><trkpt lat="44.5155583" lon="8.9764133"><ele>466.0</ele><time>2026-03-28T11:48:33.01Z</time></trkpt><trkpt lat="44.5156667" lon="8.976515"><ele>466.5</ele><time>2026-03-28T11:48:34.01Z</time></trkpt><trkpt lat="44.5157767" lon="8.9766283"><ele>467.0</ele><time>2026-03-28T11:48:35.01Z</time></trkpt><trkpt lat="44.5158783" lon="8.9767433"><ele>467.5</ele><time>2026-03-28T11:48:36.01Z</time></trkpt><trkpt lat="44.51596" lon="8.9768633"><ele>468.0</ele><time>2026-03-28T11:48:37.01Z</time></trkpt><trkpt lat="44.51604" lon="8.97697"><ele>468.0</ele><time>2026-03-28T11:48:38.01Z</time></trkpt><trkpt lat="44.5161217" lon="8.9770933"><ele>468.0</ele><time>2026-03-28T11:48:39.01Z</time></trkpt><trkpt lat="44.516215" lon="8.9772017"><ele>468.0</ele><time>2026-03-28T11:48:40.01Z</time></trkpt><trkpt lat="44.5162983" lon="8.9773083"><ele>468.0</ele><time>2026-03-28T11:48:41.01Z</time></trkpt><trkpt lat="44.5163633" lon="8.9774233"><ele>469.59999999999997</ele><time>2026-03-28T11:48:42.01Z</time></trkpt><trkpt lat="44.5164267" lon="8.977535"><ele>471.19999999999993</ele><time>2026-03-28T11:48:43.01Z</time></trkpt><trkpt lat="44.5164683" lon="8.9776683"><ele>472.8</ele><time>2026-03-28T11:48:44.01Z</time></trkpt><trkpt lat="44.5164917" lon="8.9778017"><ele>474.4</ele><time>2026-03-28T11:48:45.01Z</time></trkpt><trkpt lat="44.5165217" lon="8.97794"><ele>476.0</ele><time>2026-03-28T11:48:46.01Z</time></trkpt><trkpt lat="44.516555" lon="8.9780917"><ele>476.0</ele><time>2026-03-28T11:48:47.009Z</time></trkpt><trkpt lat="44.51659" lon="8.978225"><ele>476.0</ele><time>2026-03-28T11:48:48.009Z</time></trkpt><trkpt lat="44.516635" lon="8.9783483"><ele>476.0</ele><time>2026-03-28T11:48:49.009Z</time></trkpt><trkpt lat="44.5166817" lon="8.97846"><ele>476.0</ele><time>2026-03-28T11:48:50.01Z</time></trkpt><trkpt lat="44.5167333" lon="8.978585"><ele>476.0</ele><time>2026-03-28T11:48:51.01Z</time></trkpt><trkpt lat="44.516775" lon="8.9787017"><ele>474.66666666666663</ele><time>2026-03-28T11:48:52.01Z</time></trkpt><trkpt lat="44.5168167" lon="8.9788117"><ele>473.3333333333333</ele><time>2026-03-28T11:48:53.009Z</time></trkpt><trkpt lat="44.51683" lon="8.978935"><ele>472.0</ele><time>2026-03-28T11:48:54.009Z</time></trkpt><trkpt lat="44.5168217" lon="8.9790683"><ele>470.66666666666663</ele><time>2026-03-28T11:48:55.01Z</time></trkpt><trkpt lat="44.5168083" lon="8.97919"><ele>469.3333333333333</ele><time>2026-03-28T11:48:56.01Z</time></trkpt><trkpt lat="44.516815" lon="8.9793133"><ele>468.0</ele><time>2026-03-28T11:48:57.009Z</time></trkpt><trkpt lat="44.5168367" lon="8.9794267"><ele>467.5</ele><time>2026-03-28T11:48:58.01Z</time></trkpt><trkpt lat="44.5168733" lon="8.979535"><ele>467.0</ele><time>2026-03-28T11:48:59.01Z</time></trkpt><trkpt lat="44.516925" lon="8.979625"><ele>466.5</ele><time>2026-03-28T11:49:00.01Z</time></trkpt><trkpt lat="44.51697" lon="8.9797017"><ele>466.0</ele><time>2026-03-28T11:49:01.01Z</time></trkpt><trkpt lat="44.5170067" lon="8.9797783"><ele>465.5</ele><time>2026-03-28T11:49:02.01Z</time></trkpt><trkpt lat="44.5170383" lon="8.979945"><ele>465.0</ele><time>2026-03-28T11:49:04.01Z</time></trkpt><trkpt lat="44.517005" lon="8.9800367"><ele>463.8</ele><time>2026-03-28T11:49:05.01Z</time></trkpt><trkpt lat="44.5169567" lon="8.980145"><ele>462.6</ele><time>2026-03-28T11:49:06.01Z</time></trkpt><trkpt lat="44.5169017" lon="8.9802533"><ele>461.4</ele><time>2026-03-28T11:49:07.01Z</time></trkpt><trkpt lat="44.5168617" lon="8.9803767"><ele>460.2</ele><time>2026-03-28T11:49:08.01Z</time></trkpt><trkpt lat="44.5168383" lon="8.9805117"><ele>459.0</ele><time>2026-03-28T11:49:09.01Z</time></trkpt><trkpt lat="44.5168317" lon="8.9806483"><ele>459.0</ele><time>2026-03-28T11:49:10.01Z</time></trkpt><trkpt lat="44.51684" lon="8.9807867"><ele>459.0</ele><time>2026-03-28T11:49:11.009Z</time></trkpt><trkpt lat="44.5168633" lon="8.98094"><ele>459.0</ele><time>2026-03-28T11:49:12.01Z</time></trkpt><trkpt lat="44.5168883" lon="8.9810883"><ele>459.0</ele><time>2026-03-28T11:49:13.01Z</time></trkpt><trkpt lat="44.5169217" lon="8.981245"><ele>459.0</ele><time>2026-03-28T11:49:14.01Z</time></trkpt><trkpt lat="44.5169817" lon="8.9814017"><ele>460.75</ele><time>2026-03-28T11:49:15.01Z</time></trkpt><trkpt lat="44.51705" lon="8.9815517"><ele>462.5</ele><time>2026-03-28T11:49:16.01Z</time></trkpt><trkpt lat="44.5171183" lon="8.9817067"><ele>464.25</ele><time>2026-03-28T11:49:17.01Z</time></trkpt><trkpt lat="44.5171833" lon="8.98185"><ele>466.0</ele><time>2026-03-28T11:49:18.01Z</time></trkpt><trkpt lat="44.5172533" lon="8.9819767"><ele>466.0</ele><time>2026-03-28T11:49:19.01Z</time></trkpt><trkpt lat="44.5173183" lon="8.9821083"><ele>466.0</ele><time>2026-03-28T11:49:20.01Z</time></trkpt><trkpt lat="44.5173833" lon="8.98224"><ele>466.0</ele><time>2026-03-28T11:49:21.01Z</time></trkpt><trkpt lat="44.5174333" lon="8.9823617"><ele>466.0</ele><time>2026-03-28T11:49:22.01Z</time></trkpt><trkpt lat="44.5174667" lon="8.9824783"><ele>466.0</ele><time>2026-03-28T11:49:23.01Z</time></trkpt><trkpt lat="44.517505" lon="8.9825967"><ele>468.00000000000006</ele><time>2026-03-28T11:49:24.01Z</time></trkpt><trkpt lat="44.5175517" lon="8.98269"><ele>470.0</ele><time>2026-03-28T11:49:25.01Z</time></trkpt><trkpt lat="44.5176183" lon="8.982755"><ele>472.0</ele><time>2026-03-28T11:49:26.01Z</time></trkpt><trkpt lat="44.5176967" lon="8.9827933"><ele>474.0</ele><time>2026-03-28T11:49:27.01Z</time></trkpt><trkpt lat="44.5177733" lon="8.9828167"><ele>476.00000000000006</ele><time>2026-03-28T11:49:28.01Z</time></trkpt><trkpt lat="44.5178567" lon="8.9828383"><ele>478.0</ele><time>2026-03-28T11:49:29.01Z</time></trkpt><trkpt lat="44.5179383" lon="8.9828867"><ele>478.00000000000006</ele><time>2026-03-28T11:49:30.01Z</time></trkpt><trkpt lat="44.5179933" lon="8.98297"><ele>478.0</ele><time>2026-03-28T11:49:31.009Z</time></trkpt><trkpt lat="44.5180067" lon="8.9830767"><ele>478.0</ele><time>2026-03-28T11:49:32.009Z</time></trkpt><trkpt lat="44.5179967" lon="8.9831883"><ele>478.0</ele><time>2026-03-28T11:49:33.01Z</time></trkpt><trkpt lat="44.51797" lon="8.9833167"><ele>478.00000000000006</ele><time>2026-03-28T11:49:34.01Z</time></trkpt><trkpt lat="44.5179683" lon="8.9834417"><ele>478.0</ele><time>2026-03-28T11:49:35.009Z</time></trkpt><trkpt lat="44.51799" lon="8.9835583"><ele>474.0</ele><time>2026-03-28T11:49:36.01Z</time></trkpt><trkpt lat="44.5180233" lon="8.9836683"><ele>469.99999999999994</ele><time>2026-03-28T11:49:37.009Z</time></trkpt><trkpt lat="44.5180867" lon="8.9837567"><ele>465.99999999999994</ele><time>2026-03-28T11:49:38.01Z</time></trkpt><trkpt lat="44.5181717" lon="8.9838383"><ele>462.0</ele><time>2026-03-28T11:49:39.01Z</time></trkpt><trkpt lat="44.5182633" lon="8.9839017"><ele>458.0</ele><time>2026-03-28T11:49:40.01Z</time></trkpt><trkpt lat="44.5183517" lon="8.9839583"><ele>457.99999999999994</ele><time>2026-03-28T11:49:41.01Z</time></trkpt><trkpt lat="44.51844" lon="8.984005"><ele>458.0</ele><time>2026-03-28T11:49:42.01Z</time></trkpt><trkpt lat="44.518515" lon="8.98402"><ele>458.0</ele><time>2026-03-28T11:49:43.01Z</time></trkpt><trkpt lat="44.5185883" lon="8.9840217"><ele>458.0</ele><time>2026-03-28T11:49:44.01Z</time></trkpt><trkpt lat="44.5186567" lon="8.9839983"><ele>457.99999999999994</ele><time>2026-03-28T11:49:45.01Z</time></trkpt><trkpt lat="44.518725" lon="8.98398"><ele>458.0</ele><time>2026-03-28T11:49:46.01Z</time></trkpt><trkpt lat="44.5187967" lon="8.9839733"><ele>459.4</ele><time>2026-03-28T11:49:47.009Z</time></trkpt><trkpt lat="44.518885" lon="8.983995"><ele>460.79999999999995</ele><time>2026-03-28T11:49:48.01Z</time></trkpt><trkpt lat="44.5189567" lon="8.984055"><ele>462.2</ele><time>2026-03-28T11:49:49.01Z</time></trkpt><trkpt lat="44.5190217" lon="8.98414"><ele>463.6</ele><time>2026-03-28T11:49:50.009Z</time></trkpt><trkpt lat="44.5190683" lon="8.984255"><ele>465.0</ele><time>2026-03-28T11:49:51.01Z</time></trkpt><trkpt lat="44.5191" lon="8.9843933"><ele>465.0</ele><time>2026-03-28T11:49:52.01Z</time></trkpt><trkpt lat="44.5191217" lon="8.984545"><ele>465.0</ele><time>2026-03-28T11:49:53.009Z</time></trkpt><trkpt lat="44.5191383" lon="8.9846983"><ele>465.0</ele><time>2026-03-28T11:49:54.01Z</time></trkpt><trkpt lat="44.5191567" lon="8.9848417"><ele>465.0</ele><time>2026-03-28T11:49:55.009Z</time></trkpt><trkpt lat="44.519185" lon="8.9849617"><ele>465.0</ele><time>2026-03-28T11:49:56.009Z</time></trkpt><trkpt lat="44.519235" lon="8.985075"><ele>462.4</ele><time>2026-03-28T11:49:57.01Z</time></trkpt><trkpt lat="44.5192867" lon="8.9851767"><ele>459.8</ele><time>2026-03-28T11:49:58.01Z</time></trkpt><trkpt lat="44.5193567" lon="8.98526"><ele>457.20000000000005</ele><time>2026-03-28T11:49:59.01Z</time></trkpt><trkpt lat="44.519425" lon="8.985325"><ele>454.6</ele><time>2026-03-28T11:50:00.01Z</time></trkpt><trkpt lat="44.5194933" lon="8.9854183"><ele>452.0</ele><time>2026-03-28T11:50:01.01Z</time></trkpt><trkpt lat="44.5195533" lon="8.9855183"><ele>456.8</ele><time>2026-03-28T11:50:02.009Z</time></trkpt><trkpt lat="44.5195917" lon="8.9856267"><ele>461.6</ele><time>2026-03-28T11:50:03.01Z</time></trkpt><trkpt lat="44.519615" lon="8.985755"><ele>466.40000000000003</ele><time>2026-03-28T11:50:04.009Z</time></trkpt><trkpt lat="44.5196233" lon="8.98589"><ele>471.20000000000005</ele><time>2026-03-28T11:50:05.009Z</time></trkpt><trkpt lat="44.51962" lon="8.986025"><ele>476.0</ele><time>2026-03-28T11:50:06.01Z</time></trkpt><trkpt lat="44.5196167" lon="8.9861617"><ele>475.99999999999994</ele><time>2026-03-28T11:50:07.01Z</time></trkpt><trkpt lat="44.5196167" lon="8.98629"><ele>476.0</ele><time>2026-03-28T11:50:08.01Z</time></trkpt><trkpt lat="44.5196267" lon="8.9864117"><ele>476.0</ele><time>2026-03-28T11:50:09.01Z</time></trkpt><trkpt lat="44.519635" lon="8.9865333"><ele>476.0</ele><time>2026-03-28T11:50:10.01Z</time></trkpt><trkpt lat="44.5196317" lon="8.9866467"><ele>475.99999999999994</ele><time>2026-03-28T11:50:11.01Z</time></trkpt><trkpt lat="44.5196267" lon="8.98676"><ele>476.0</ele><time>2026-03-28T11:50:12.01Z</time></trkpt><trkpt lat="44.5196167" lon="8.9868683"><ele>475.3333333333333</ele><time>2026-03-28T11:50:13.009Z</time></trkpt><trkpt lat="44.5196067" lon="8.9869817"><ele>474.66666666666663</ele><time>2026-03-28T11:50:14.01Z</time></trkpt><trkpt lat="44.519605" lon="8.9871"><ele>474.0</ele><time>2026-03-28T11:50:15.01Z</time></trkpt><trkpt lat="44.51962" lon="8.9872233"><ele>473.33333333333337</ele><time>2026-03-28T11:50:16.01Z</time></trkpt><trkpt lat="44.5196333" lon="8.98735"><ele>472.6666666666667</ele><time>2026-03-28T11:50:17.01Z</time></trkpt><trkpt lat="44.519655" lon="8.9874783"><ele>472.0</ele><time>2026-03-28T11:50:18.01Z</time></trkpt><trkpt lat="44.5196767" lon="8.9875967"><ele>471.83333333333337</ele><time>2026-03-28T11:50:19.009Z</time></trkpt><trkpt lat="44.5197017" lon="8.9876867"><ele>471.6666666666667</ele><time>2026-03-28T11:50:20.01Z</time></trkpt><trkpt lat="44.5197467" lon="8.9877983"><ele>471.5</ele><time>2026-03-28T11:50:22.01Z</time></trkpt><trkpt lat="44.519825" lon="8.9878433"><ele>471.33333333333337</ele><time>2026-03-28T11:50:25.01Z</time></trkpt><trkpt lat="44.5198917" lon="8.98787"><ele>471.1666666666667</ele><time>2026-03-28T11:50:27.01Z</time></trkpt><trkpt lat="44.52001" lon="8.98784"><ele>471.0</ele><time>2026-03-28T11:50:29.01Z</time></trkpt><trkpt lat="44.5200967" lon="8.987815"><ele>471.0</ele><time>2026-03-28T11:50:30.009Z</time></trkpt><trkpt lat="44.5201967" lon="8.987795"><ele>471.0</ele><time>2026-03-28T11:50:31.01Z</time></trkpt><trkpt lat="44.520305" lon="8.9877617"><ele>471.0</ele><time>2026-03-28T11:50:32.01Z</time></trkpt><trkpt lat="44.52042" lon="8.9877283"><ele>471.0</ele><time>2026-03-28T11:50:33.01Z</time></trkpt><trkpt lat="44.5205367" lon="8.9877067"><ele>471.0</ele><time>2026-03-28T11:50:34.01Z</time></trkpt><trkpt lat="44.52066" lon="8.9876883"><ele>469.25</ele><time>2026-03-28T11:50:35.01Z</time></trkpt><trkpt lat="44.5207883" lon="8.9876833"><ele>467.5</ele><time>2026-03-28T11:50:36.009Z</time></trkpt><trkpt lat="44.520935" lon="8.9876533"><ele>465.75</ele><time>2026-03-28T11:50:37.01Z</time></trkpt><trkpt lat="44.521075" lon="8.9876367"><ele>464.0</ele><time>2026-03-28T11:50:38.01Z</time></trkpt><trkpt lat="44.52122" lon="8.9876233"><ele>462.75</ele><time>2026-03-28T11:50:39.01Z</time></trkpt><trkpt lat="44.52136" lon="8.9876067"><ele>461.5</ele><time>2026-03-28T11:50:40.01Z</time></trkpt><trkpt lat="44.52148" lon="8.9876117"><ele>460.25</ele><time>2026-03-28T11:50:41.01Z</time></trkpt><trkpt lat="44.5216033" lon="8.987635"><ele>459.0</ele><time>2026-03-28T11:50:42.01Z</time></trkpt><trkpt lat="44.5217433" lon="8.98766"><ele>459.0</ele><time>2026-03-28T11:50:43.009Z</time></trkpt><trkpt lat="44.521885" lon="8.98772"><ele>459.0</ele><time>2026-03-28T11:50:44.01Z</time></trkpt><trkpt lat="44.5220267" lon="8.9877833"><ele>459.0</ele><time>2026-03-28T11:50:45.01Z</time></trkpt><trkpt lat="44.5221567" lon="8.987855"><ele>459.0</ele><time>2026-03-28T11:50:46.01Z</time></trkpt><trkpt lat="44.5222733" lon="8.987915"><ele>458.6</ele><time>2026-03-28T11:50:47.01Z</time></trkpt><trkpt lat="44.5223817" lon="8.9879733"><ele>458.2</ele><time>2026-03-28T11:50:48.01Z</time></trkpt><trkpt lat="44.522475" lon="8.988025"><ele>457.80000000000007</ele><time>2026-03-28T11:50:49.009Z</time></trkpt><trkpt lat="44.52257" lon="8.9880717"><ele>457.40000000000003</ele><time>2026-03-28T11:50:50.01Z</time></trkpt><trkpt lat="44.52263" lon="8.9881233"><ele>457.0</ele><time>2026-03-28T11:50:51.01Z</time></trkpt><trkpt lat="44.5226767" lon="8.9881833"><ele>457.0</ele><time>2026-03-28T11:50:52.01Z</time></trkpt><trkpt lat="44.5227533" lon="8.9883167"><ele>457.00000000000006</ele><time>2026-03-28T11:50:54.01Z</time></trkpt><trkpt lat="44.5228317" lon="8.98841"><ele>457.00000000000006</ele><time>2026-03-28T11:50:56.01Z</time></trkpt><trkpt lat="44.5229133" lon="8.9884367"><ele>457.0</ele><time>2026-03-28T11:50:58.009Z</time></trkpt><trkpt lat="44.5230333" lon="8.988465"><ele>457.0</ele><time>2026-03-28T11:58:31.01Z</time></trkpt><trkpt lat="44.523095" lon="8.9883983"><ele>455.8</ele><time>2026-03-28T11:58:34.009Z</time></trkpt><trkpt lat="44.5231867" lon="8.988405"><ele>454.6</ele><time>2026-03-28T11:58:37.009Z</time></trkpt><trkpt lat="44.5233067" lon="8.988465"><ele>453.40000000000003</ele><time>2026-03-28T11:58:39.01Z</time></trkpt><trkpt lat="44.5233817" lon="8.988505"><ele>452.20000000000005</ele><time>2026-03-28T11:58:40.01Z</time></trkpt><trkpt lat="44.5234783" lon="8.988545"><ele>451.0</ele><time>2026-03-28T11:58:41.01Z</time></trkpt><trkpt lat="44.523585" lon="8.9885817"><ele>451.0</ele><time>2026-03-28T11:58:42.01Z</time></trkpt><trkpt lat="44.5236867" lon="8.988625"><ele>451.0</ele><time>2026-03-28T11:58:43.01Z</time></trkpt><trkpt lat="44.52378" lon="8.9886583"><ele>451.0</ele><time>2026-03-28T11:58:44.01Z</time></trkpt><trkpt lat="44.5238667" lon="8.9887"><ele>451.0</ele><time>2026-03-28T11:58:45.01Z</time></trkpt><trkpt lat="44.5239517" lon="8.9887483"><ele>451.0</ele><time>2026-03-28T11:58:46.009Z</time></trkpt><trkpt lat="44.5240433" lon="8.9888167"><ele>451.0</ele><time>2026-03-28T11:58:47.01Z</time></trkpt><trkpt lat="44.5241333" lon="8.9888983"><ele>451.0</ele><time>2026-03-28T11:58:48.01Z</time></trkpt><trkpt lat="44.5242217" lon="8.9889917"><ele>451.0</ele><time>2026-03-28T11:58:49.01Z</time></trkpt><trkpt lat="44.5243067" lon="8.9890917"><ele>451.0</ele><time>2026-03-28T11:58:50.01Z</time></trkpt><trkpt lat="44.5244017" lon="8.9891883"><ele>451.0</ele><time>2026-03-28T11:58:51.009Z</time></trkpt><trkpt lat="44.5245083" lon="8.989275"><ele>448.75</ele><time>2026-03-28T11:58:52.01Z</time></trkpt><trkpt lat="44.5246183" lon="8.9893517"><ele>446.5</ele><time>2026-03-28T11:58:53.009Z</time></trkpt><trkpt lat="44.5247267" lon="8.9894367"><ele>444.25</ele><time>2026-03-28T11:58:54.01Z</time></trkpt><trkpt lat="44.524835" lon="8.98952"><ele>442.0</ele><time>2026-03-28T11:58:55.01Z</time></trkpt><trkpt lat="44.5249467" lon="8.9896117"><ele>442.0</ele><time>2026-03-28T11:58:56.01Z</time></trkpt><trkpt lat="44.5250633" lon="8.9896983"><ele>442.0</ele><time>2026-03-28T11:58:57.01Z</time></trkpt><trkpt lat="44.5251783" lon="8.9897933"><ele>442.0</ele><time>2026-03-28T11:58:58.009Z</time></trkpt><trkpt lat="44.525295" lon="8.9898817"><ele>442.0</ele><time>2026-03-28T11:58:59.01Z</time></trkpt><trkpt lat="44.525415" lon="8.9899783"><ele>439.25</ele><time>2026-03-28T11:59:00.01Z</time></trkpt><trkpt lat="44.5255383" lon="8.9900717"><ele>436.5</ele><time>2026-03-28T11:59:01.01Z</time></trkpt><trkpt lat="44.5256667" lon="8.9901567"><ele>433.75</ele><time>2026-03-28T11:59:02.01Z</time></trkpt><trkpt lat="44.5258067" lon="8.9902433"><ele>431.0</ele><time>2026-03-28T11:59:03.009Z</time></trkpt><trkpt lat="44.5259383" lon="8.990315"><ele>431.0</ele><time>2026-03-28T11:59:04.01Z</time></trkpt><trkpt lat="44.52608" lon="8.9903833"><ele>431.0</ele><time>2026-03-28T11:59:05.01Z</time></trkpt><trkpt lat="44.526225" lon="8.990465"><ele>431.0</ele><time>2026-03-28T11:59:06.01Z</time></trkpt><trkpt lat="44.526365" lon="8.990555"><ele>431.0</ele><time>2026-03-28T11:59:07.01Z</time></trkpt><trkpt lat="44.5265117" lon="8.9906467"><ele>431.0</ele><time>2026-03-28T11:59:08.01Z</time></trkpt><trkpt lat="44.5266583" lon="8.9907367"><ele>431.0</ele><time>2026-03-28T11:59:09.01Z</time></trkpt><trkpt lat="44.526795" lon="8.99083"><ele>430.66666666666663</ele><time>2026-03-28T11:59:10.01Z</time></trkpt><trkpt lat="44.5269367" lon="8.9909217"><ele>430.33333333333337</ele><time>2026-03-28T11:59:11.01Z</time></trkpt><trkpt lat="44.5270733" lon="8.9910117"><ele>430.0</ele><time>2026-03-28T11:59:12.01Z</time></trkpt><trkpt lat="44.527225" lon="8.9910933"><ele>429.0</ele><time>2026-03-28T11:59:13.01Z</time></trkpt><trkpt lat="44.527365" lon="8.9911917"><ele>428.0</ele><time>2026-03-28T11:59:14.01Z</time></trkpt><trkpt lat="44.5275033" lon="8.9912967"><ele>427.0</ele><time>2026-03-28T11:59:15.01Z</time></trkpt><trkpt lat="44.527645" lon="8.991405"><ele>427.0</ele><time>2026-03-28T11:59:16.01Z</time></trkpt><trkpt lat="44.5277717" lon="8.99151"><ele>427.0</ele><time>2026-03-28T11:59:17.01Z</time></trkpt><trkpt lat="44.5278883" lon="8.991625"><ele>427.0</ele><time>2026-03-28T11:59:18.01Z</time></trkpt><trkpt lat="44.5280117" lon="8.9917483"><ele>427.0</ele><time>2026-03-28T11:59:19.01Z</time></trkpt><trkpt lat="44.528135" lon="8.9918717"><ele>423.0</ele><time>2026-03-28T11:59:20.01Z</time></trkpt><trkpt lat="44.528265" lon="8.9919867"><ele>419.0</ele><time>2026-03-28T11:59:21.01Z</time></trkpt><trkpt lat="44.5283967" lon="8.992095"><ele>415.0</ele><time>2026-03-28T11:59:22.009Z</time></trkpt><trkpt lat="44.5285217" lon="8.9922067"><ele>415.0</ele><time>2026-03-28T11:59:23.009Z</time></trkpt><trkpt lat="44.5286433" lon="8.9923117"><ele>415.0</ele><time>2026-03-28T11:59:24.01Z</time></trkpt><trkpt lat="44.5287467" lon="8.9923983"><ele>415.0</ele><time>2026-03-28T11:59:25.01Z</time></trkpt><trkpt lat="44.5288567" lon="8.9924633"><ele>415.0</ele><time>2026-03-28T11:59:26.01Z</time></trkpt><trkpt lat="44.5289817" lon="8.9924933"><ele>412.75</ele><time>2026-03-28T11:59:27.01Z</time></trkpt><trkpt lat="44.52912" lon="8.992515"><ele>410.5</ele><time>2026-03-28T11:59:28.009Z</time></trkpt><trkpt lat="44.529245" lon="8.9925367"><ele>408.25</ele><time>2026-03-28T11:59:29.01Z</time></trkpt><trkpt lat="44.5293733" lon="8.9925617"><ele>406.0</ele><time>2026-03-28T11:59:30.01Z</time></trkpt><trkpt lat="44.529505" lon="8.9925633"><ele>404.75</ele><time>2026-03-28T11:59:31.01Z</time></trkpt><trkpt lat="44.5296283" lon="8.9925717"><ele>403.5</ele><time>2026-03-28T11:59:32.01Z</time></trkpt><trkpt lat="44.5297517" lon="8.9925817"><ele>402.25</ele><time>2026-03-28T11:59:33.009Z</time></trkpt><trkpt lat="44.5298733" lon="8.9925967"><ele>401.0</ele><time>2026-03-28T11:59:34.01Z</time></trkpt><trkpt lat="44.5299917" lon="8.9926083"><ele>401.0</ele><time>2026-03-28T11:59:35.01Z</time></trkpt><trkpt lat="44.53011" lon="8.9926333"><ele>401.0</ele><time>2026-03-28T11:59:36.01Z</time></trkpt><trkpt lat="44.5302367" lon="8.99264"><ele>401.0</ele><time>2026-03-28T11:59:37.01Z</time></trkpt><trkpt lat="44.53036" lon="8.9926867"><ele>401.0</ele><time>2026-03-28T11:59:38.009Z</time></trkpt><trkpt lat="44.5304683" lon="8.9927433"><ele>399.25</ele><time>2026-03-28T11:59:39.01Z</time></trkpt><trkpt lat="44.5305883" lon="8.9928067"><ele>397.5</ele><time>2026-03-28T11:59:40.01Z</time></trkpt><trkpt lat="44.53071" lon="8.992865"><ele>395.75</ele><time>2026-03-28T11:59:41.009Z</time></trkpt><trkpt lat="44.5308317" lon="8.99293"><ele>394.0</ele><time>2026-03-28T11:59:42.01Z</time></trkpt><trkpt lat="44.53096" lon="8.9929883"><ele>394.0</ele><time>2026-03-28T11:59:43.01Z</time></trkpt><trkpt lat="44.5310883" lon="8.9930433"><ele>394.0</ele><time>2026-03-28T11:59:44.01Z</time></trkpt><trkpt lat="44.53123" lon="8.9931"><ele>394.0</ele><time>2026-03-28T11:59:45.01Z</time></trkpt><trkpt lat="44.53136" lon="8.993155"><ele>394.0</ele><time>2026-03-28T11:59:46.01Z</time></trkpt><trkpt lat="44.53148" lon="8.9932083"><ele>394.4</ele><time>2026-03-28T11:59:47.009Z</time></trkpt><trkpt lat="44.531585" lon="8.99326"><ele>394.79999999999995</ele><time>2026-03-28T11:59:48.01Z</time></trkpt><trkpt lat="44.5316917" lon="8.99331"><ele>395.20000000000005</ele><time>2026-03-28T11:59:49.01Z</time></trkpt><trkpt lat="44.531785" lon="8.9933567"><ele>395.6</ele><time>2026-03-28T11:59:50.01Z</time></trkpt><trkpt lat="44.5318667" lon="8.9933933"><ele>396.0</ele><time>2026-03-28T11:59:51.01Z</time></trkpt><trkpt lat="44.5319217" lon="8.9934367"><ele>396.4</ele><time>2026-03-28T11:59:52.01Z</time></trkpt><trkpt lat="44.5319817" lon="8.9935433"><ele>396.8</ele><time>2026-03-28T11:59:54.01Z</time></trkpt><trkpt lat="44.531985" lon="8.99374"><ele>397.2</ele><time>2026-03-28T11:59:56.01Z</time></trkpt><trkpt lat="44.53198" lon="8.993855"><ele>397.59999999999997</ele><time>2026-03-28T11:59:57.01Z</time></trkpt><trkpt lat="44.53197" lon="8.993995"><ele>398.0</ele><time>2026-03-28T11:59:58.01Z</time></trkpt><trkpt lat="44.5319567" lon="8.99415"><ele>398.25</ele><time>2026-03-28T11:59:59.01Z</time></trkpt><trkpt lat="44.5319417" lon="8.9943083"><ele>398.5</ele><time>2026-03-28T12:00:00.01Z</time></trkpt><trkpt lat="44.5319283" lon="8.9944833"><ele>398.75</ele><time>2026-03-28T12:00:01.01Z</time></trkpt><trkpt lat="44.5319133" lon="8.9946817"><ele>399.0</ele><time>2026-03-28T12:00:02.01Z</time></trkpt><trkpt lat="44.5319033" lon="8.9948717"><ele>398.75</ele><time>2026-03-28T12:00:03.009Z</time></trkpt><trkpt lat="44.5319" lon="8.995065"><ele>398.5</ele><time>2026-03-28T12:00:04.01Z</time></trkpt><trkpt lat="44.531895" lon="8.99526"><ele>398.25</ele><time>2026-03-28T12:00:05.01Z</time></trkpt><trkpt lat="44.5318783" lon="8.9954517"><ele>398.0</ele><time>2026-03-28T12:00:06.01Z</time></trkpt><trkpt lat="44.5318733" lon="8.9956483"><ele>397.75</ele><time>2026-03-28T12:00:07.01Z</time></trkpt><trkpt lat="44.5318617" lon="8.9958417"><ele>397.5</ele><time>2026-03-28T12:00:08.01Z</time></trkpt><trkpt lat="44.5318617" lon="8.99605"><ele>397.25</ele><time>2026-03-28T12:00:09.01Z</time></trkpt><trkpt lat="44.5318483" lon="8.996265"><ele>397.0</ele><time>2026-03-28T12:00:10.01Z</time></trkpt><trkpt lat="44.5318383" lon="8.99648"><ele>397.0</ele><time>2026-03-28T12:00:11.01Z</time></trkpt><trkpt lat="44.53183" lon="8.9966967"><ele>397.0</ele><time>2026-03-28T12:00:12.01Z</time></trkpt><trkpt lat="44.5318167" lon="8.9969333"><ele>397.0</ele><time>2026-03-28T12:00:13.01Z</time></trkpt><trkpt lat="44.5318083" lon="8.9971733"><ele>397.0</ele><time>2026-03-28T12:00:14.01Z</time></trkpt><trkpt lat="44.5318" lon="8.9974167"><ele>397.0</ele><time>2026-03-28T12:00:15.01Z</time></trkpt><trkpt lat="44.5317917" lon="8.9976617"><ele>397.0</ele><time>2026-03-28T12:00:16.01Z</time></trkpt><trkpt lat="44.5317833" lon="8.9979017"><ele>397.33333333333337</ele><time>2026-03-28T12:00:17.009Z</time></trkpt><trkpt lat="44.5317767" lon="8.9981483"><ele>397.66666666666663</ele><time>2026-03-28T12:00:18.009Z</time></trkpt><trkpt lat="44.5317633" lon="8.998395"><ele>398.0</ele><time>2026-03-28T12:00:19.01Z</time></trkpt><trkpt lat="44.53175" lon="8.99864"><ele>398.0</ele><time>2026-03-28T12:00:20.01Z</time></trkpt><trkpt lat="44.53174" lon="8.9988883"><ele>398.0</ele><time>2026-03-28T12:00:21.009Z</time></trkpt><trkpt lat="44.5317333" lon="8.9991317"><ele>398.0</ele><time>2026-03-28T12:00:22.01Z</time></trkpt><trkpt lat="44.5317217" lon="8.9993817"><ele>397.66666666666663</ele><time>2026-03-28T12:00:23.01Z</time></trkpt><trkpt lat="44.5317083" lon="8.9996383"><ele>397.33333333333337</ele><time>2026-03-28T12:00:24.01Z</time></trkpt><trkpt lat="44.531695" lon="8.99989"><ele>397.0</ele><time>2026-03-28T12:00:25.01Z</time></trkpt><trkpt lat="44.5316867" lon="9.00014"><ele>397.0</ele><time>2026-03-28T12:00:26.01Z</time></trkpt><trkpt lat="44.5316733" lon="9.0003917"><ele>397.0</ele><time>2026-03-28T12:00:27.01Z</time></trkpt><trkpt lat="44.53166" lon="9.000645"><ele>397.0</ele><time>2026-03-28T12:00:28.01Z</time></trkpt><trkpt lat="44.531655" lon="9.000895"><ele>397.6666666666667</ele><time>2026-03-28T12:00:29.01Z</time></trkpt><trkpt lat="44.5316467" lon="9.00114"><ele>398.33333333333337</ele><time>2026-03-28T12:00:30.01Z</time></trkpt><trkpt lat="44.5316383" lon="9.0013833"><ele>399.0</ele><time>2026-03-28T12:00:31.01Z</time></trkpt><trkpt lat="44.531635" lon="9.0016383"><ele>399.33333333333337</ele><time>2026-03-28T12:00:32.01Z</time></trkpt><trkpt lat="44.5316183" lon="9.001895"><ele>399.6666666666667</ele><time>2026-03-28T12:00:33.01Z</time></trkpt><trkpt lat="44.53161" lon="9.002155"><ele>400.0</ele><time>2026-03-28T12:00:34.01Z</time></trkpt><trkpt lat="44.5316083" lon="9.0024033"><ele>400.33333333333337</ele><time>2026-03-28T12:00:35.01Z</time></trkpt><trkpt lat="44.5316033" lon="9.002665"><ele>400.66666666666663</ele><time>2026-03-28T12:00:36.01Z</time></trkpt><trkpt lat="44.5315867" lon="9.0029217"><ele>401.0</ele><time>2026-03-28T12:00:37.01Z</time></trkpt><trkpt lat="44.5315733" lon="9.0031717"><ele>401.0</ele><time>2026-03-28T12:00:38.009Z</time></trkpt><trkpt lat="44.5315683" lon="9.00343"><ele>401.0</ele><time>2026-03-28T12:00:39.01Z</time></trkpt><trkpt lat="44.5315583" lon="9.003685"><ele>401.0</ele><time>2026-03-28T12:00:40.009Z</time></trkpt><trkpt lat="44.5315433" lon="9.00393"><ele>401.66666666666663</ele><time>2026-03-28T12:00:41.009Z</time></trkpt><trkpt lat="44.5315383" lon="9.004175"><ele>402.33333333333337</ele><time>2026-03-28T12:00:42.01Z</time></trkpt><trkpt lat="44.5315267" lon="9.0044233"><ele>403.0</ele><time>2026-03-28T12:00:43.01Z</time></trkpt><trkpt lat="44.531515" lon="9.0046683"><ele>403.0</ele><time>2026-03-28T12:00:44.01Z</time></trkpt><trkpt lat="44.5314983" lon="9.0049117"><ele>403.0</ele><time>2026-03-28T12:00:45.01Z</time></trkpt><trkpt lat="44.53149" lon="9.0051533"><ele>403.0</ele><time>2026-03-28T12:00:46.01Z</time></trkpt><trkpt lat="44.5314833" lon="9.0053917"><ele>403.6666666666667</ele><time>2026-03-28T12:00:47.01Z</time></trkpt><trkpt lat="44.5314867" lon="9.0056267"><ele>404.33333333333337</ele><time>2026-03-28T12:00:48.01Z</time></trkpt><trkpt lat="44.5314833" lon="9.0058583"><ele>405.0</ele><time>2026-03-28T12:00:49.01Z</time></trkpt><trkpt lat="44.5314767" lon="9.0060917"><ele>405.33333333333337</ele><time>2026-03-28T12:00:50.01Z</time></trkpt><trkpt lat="44.531495" lon="9.0063183"><ele>405.6666666666667</ele><time>2026-03-28T12:00:51.01Z</time></trkpt><trkpt lat="44.531535" lon="9.0065383"><ele>406.0</ele><time>2026-03-28T12:00:52.01Z</time></trkpt><trkpt lat="44.53159" lon="9.006765"><ele>406.0</ele><time>2026-03-28T12:00:53.01Z</time></trkpt><trkpt lat="44.53165" lon="9.006985"><ele>406.0</ele><time>2026-03-28T12:00:54.01Z</time></trkpt><trkpt lat="44.5317233" lon="9.0071967"><ele>406.0</ele><time>2026-03-28T12:00:55.01Z</time></trkpt><trkpt lat="44.5317917" lon="9.0074033"><ele>407.33333333333337</ele><time>2026-03-28T12:00:56.01Z</time></trkpt><trkpt lat="44.5318683" lon="9.0076233"><ele>408.66666666666663</ele><time>2026-03-28T12:00:57.01Z</time></trkpt><trkpt lat="44.531945" lon="9.0078383"><ele>410.0</ele><time>2026-03-28T12:00:58.01Z</time></trkpt><trkpt lat="44.532025" lon="9.0080483"><ele>416.0</ele><time>2026-03-28T12:00:59.009Z</time></trkpt><trkpt lat="44.5321017" lon="9.0082717"><ele>422.0</ele><time>2026-03-28T12:01:00.01Z</time></trkpt><trkpt lat="44.5321833" lon="9.008495"><ele>428.0</ele><time>2026-03-28T12:01:01.01Z</time></trkpt><trkpt lat="44.53226" lon="9.0087133"><ele>428.0</ele><time>2026-03-28T12:01:02.01Z</time></trkpt><trkpt lat="44.5323283" lon="9.0089167"><ele>428.0</ele><time>2026-03-28T12:01:03.01Z</time></trkpt><trkpt lat="44.5323983" lon="9.0091183"><ele>428.0</ele><time>2026-03-28T12:01:04.01Z</time></trkpt><trkpt lat="44.5324583" lon="9.0093117"><ele>427.75</ele><time>2026-03-28T12:01:05.009Z</time></trkpt><trkpt lat="44.5325133" lon="9.00949"><ele>427.5</ele><time>2026-03-28T12:01:06.01Z</time></trkpt><trkpt lat="44.5325617" lon="9.0096633"><ele>427.25</ele><time>2026-03-28T12:01:07.01Z</time></trkpt><trkpt lat="44.5326133" lon="9.0098283"><ele>427.0</ele><time>2026-03-28T12:01:08.01Z</time></trkpt><trkpt lat="44.5326567" lon="9.0099983"><ele>426.5</ele><time>2026-03-28T12:01:09.01Z</time></trkpt><trkpt lat="44.532685" lon="9.0101817"><ele>426.0</ele><time>2026-03-28T12:01:10.01Z</time></trkpt><trkpt lat="44.5326733" lon="9.01036"><ele>425.5</ele><time>2026-03-28T12:01:11.008Z</time></trkpt><trkpt lat="44.5326583" lon="9.010535"><ele>425.0</ele><time>2026-03-28T12:01:12.009Z</time></trkpt><trkpt lat="44.5326383" lon="9.010725"><ele>424.25</ele><time>2026-03-28T12:01:13.009Z</time></trkpt><trkpt lat="44.5326" lon="9.0109267"><ele>423.5</ele><time>2026-03-28T12:01:14.009Z</time></trkpt><trkpt lat="44.5325733" lon="9.0111217"><ele>422.75</ele><time>2026-03-28T12:01:15.009Z</time></trkpt><trkpt lat="44.53254" lon="9.0113183"><ele>422.0</ele><time>2026-03-28T12:01:16.008Z</time></trkpt><trkpt lat="44.532515" lon="9.011505"><ele>421.25</ele><time>2026-03-28T12:01:17.009Z</time></trkpt><trkpt lat="44.5325067" lon="9.01169"><ele>420.5</ele><time>2026-03-28T12:01:18.009Z</time></trkpt><trkpt lat="44.532525" lon="9.0118717"><ele>419.75</ele><time>2026-03-28T12:01:19.009Z</time></trkpt><trkpt lat="44.5325783" lon="9.0120467"><ele>419.0</ele><time>2026-03-28T12:01:20.009Z</time></trkpt><trkpt lat="44.5326333" lon="9.0122183"><ele>419.0</ele><time>2026-03-28T12:01:21.009Z</time></trkpt><trkpt lat="44.5326767" lon="9.012375"><ele>419.0</ele><time>2026-03-28T12:01:22.009Z</time></trkpt><trkpt lat="44.53271" lon="9.0125317"><ele>419.0</ele><time>2026-03-28T12:01:23.009Z</time></trkpt><trkpt lat="44.53273" lon="9.012665"><ele>419.0</ele><time>2026-03-28T12:01:24.009Z</time></trkpt><trkpt lat="44.5327233" lon="9.0127817"><ele>419.0</ele><time>2026-03-28T12:01:25.009Z</time></trkpt><trkpt lat="44.53268" lon="9.0128917"><ele>418.79999999999995</ele><time>2026-03-28T12:01:26.009Z</time></trkpt><trkpt lat="44.53261" lon="9.0129783"><ele>418.59999999999997</ele><time>2026-03-28T12:01:27.009Z</time></trkpt><trkpt lat="44.5325317" lon="9.01306"><ele>418.4</ele><time>2026-03-28T12:01:28.009Z</time></trkpt><trkpt lat="44.5324367" lon="9.0131417"><ele>418.2</ele><time>2026-03-28T12:01:29.009Z</time></trkpt><trkpt lat="44.53234" lon="9.0132317"><ele>418.0</ele><time>2026-03-28T12:01:30.009Z</time></trkpt><trkpt lat="44.532235" lon="9.0133267"><ele>418.75</ele><time>2026-03-28T12:01:31.009Z</time></trkpt><trkpt lat="44.5321217" lon="9.013385"><ele>419.5</ele><time>2026-03-28T12:01:32.009Z</time></trkpt><trkpt lat="44.5320083" lon="9.0134117"><ele>420.25</ele><time>2026-03-28T12:01:33.008Z</time></trkpt><trkpt lat="44.53189" lon="9.0133967"><ele>421.0</ele><time>2026-03-28T12:01:34.009Z</time></trkpt><trkpt lat="44.5317667" lon="9.0133533"><ele>419.0</ele><time>2026-03-28T12:01:35.008Z</time></trkpt><trkpt lat="44.53164" lon="9.0133133"><ele>417.0</ele><time>2026-03-28T12:01:36.009Z</time></trkpt><trkpt lat="44.5315133" lon="9.0132683"><ele>415.0</ele><time>2026-03-28T12:01:37.009Z</time></trkpt><trkpt lat="44.5313783" lon="9.0132383"><ele>413.0</ele><time>2026-03-28T12:01:38.009Z</time></trkpt><trkpt lat="44.5312333" lon="9.0132167"><ele>413.0</ele><time>2026-03-28T12:01:39.009Z</time></trkpt><trkpt lat="44.5310867" lon="9.0131983"><ele>413.0</ele><time>2026-03-28T12:01:40.008Z</time></trkpt><trkpt lat="44.53094" lon="9.013175"><ele>413.0</ele><time>2026-03-28T12:01:41.009Z</time></trkpt><trkpt lat="44.530795" lon="9.01316"><ele>413.0</ele><time>2026-03-28T12:01:42.009Z</time></trkpt><trkpt lat="44.5306567" lon="9.01314"><ele>413.0</ele><time>2026-03-28T12:01:43.009Z</time></trkpt><trkpt lat="44.5305283" lon="9.0130917"><ele>413.0</ele><time>2026-03-28T12:01:44.009Z</time></trkpt><trkpt lat="44.5304033" lon="9.013035"><ele>413.0</ele><time>2026-03-28T12:01:45.009Z</time></trkpt><trkpt lat="44.5302833" lon="9.0129483"><ele>413.0</ele><time>2026-03-28T12:01:46.009Z</time></trkpt><trkpt lat="44.5301667" lon="9.0128583"><ele>413.5</ele><time>2026-03-28T12:01:47.009Z</time></trkpt><trkpt lat="44.530045" lon="9.0127767"><ele>414.0</ele><time>2026-03-28T12:01:48.009Z</time></trkpt><trkpt lat="44.529905" lon="9.0127"><ele>414.5</ele><time>2026-03-28T12:01:49.009Z</time></trkpt><trkpt lat="44.52977" lon="9.0126417"><ele>415.0</ele><time>2026-03-28T12:01:50.009Z</time></trkpt><trkpt lat="44.5296283" lon="9.0126033"><ele>416.0</ele><time>2026-03-28T12:01:51.008Z</time></trkpt><trkpt lat="44.5294883" lon="9.0125783"><ele>417.0</ele><time>2026-03-28T12:01:52.009Z</time></trkpt><trkpt lat="44.5293467" lon="9.0125633"><ele>418.0</ele><time>2026-03-28T12:01:53.009Z</time></trkpt><trkpt lat="44.5292" lon="9.01254"><ele>419.0</ele><time>2026-03-28T12:01:54.008Z</time></trkpt><trkpt lat="44.5290517" lon="9.0125033"><ele>417.5</ele><time>2026-03-28T12:01:55.009Z</time></trkpt><trkpt lat="44.52891" lon="9.0124433"><ele>416.0</ele><time>2026-03-28T12:01:56.009Z</time></trkpt><trkpt lat="44.52877" lon="9.0123833"><ele>414.5</ele><time>2026-03-28T12:01:57.009Z</time></trkpt><trkpt lat="44.5286283" lon="9.0123383"><ele>413.0</ele><time>2026-03-28T12:01:58.009Z</time></trkpt><trkpt lat="44.528495" lon="9.0123217"><ele>413.0</ele><time>2026-03-28T12:01:59.009Z</time></trkpt><trkpt lat="44.5283667" lon="9.0123283"><ele>413.0</ele><time>2026-03-28T12:02:00.008Z</time></trkpt><trkpt lat="44.5282467" lon="9.0123717"><ele>413.0</ele><time>2026-03-28T12:02:01.009Z</time></trkpt><trkpt lat="44.5281267" lon="9.0124517"><ele>413.0</ele><time>2026-03-28T12:02:02.009Z</time></trkpt><trkpt lat="44.5279983" lon="9.0125483"><ele>413.0</ele><time>2026-03-28T12:02:03.009Z</time></trkpt><trkpt lat="44.527865" lon="9.0126633"><ele>413.0</ele><time>2026-03-28T12:02:04.009Z</time></trkpt><trkpt lat="44.5277283" lon="9.012775"><ele>413.0</ele><time>2026-03-28T12:02:05.009Z</time></trkpt><trkpt lat="44.5275933" lon="9.01289"><ele>413.0</ele><time>2026-03-28T12:02:06.009Z</time></trkpt><trkpt lat="44.5274633" lon="9.012995"><ele>413.0</ele><time>2026-03-28T12:02:07.009Z</time></trkpt><trkpt lat="44.5273467" lon="9.013115"><ele>413.0</ele><time>2026-03-28T12:02:08.009Z</time></trkpt><trkpt lat="44.527225" lon="9.0132517"><ele>412.25</ele><time>2026-03-28T12:02:09.009Z</time></trkpt><trkpt lat="44.527115" lon="9.0133817"><ele>411.5</ele><time>2026-03-28T12:02:10.009Z</time></trkpt><trkpt lat="44.52701" lon="9.0134867"><ele>410.75</ele><time>2026-03-28T12:02:11.009Z</time></trkpt><trkpt lat="44.5269083" lon="9.0135233"><ele>410.0</ele><time>2026-03-28T12:02:12.009Z</time></trkpt><trkpt lat="44.5268183" lon="9.0135067"><ele>410.0</ele><time>2026-03-28T12:02:13.009Z</time></trkpt><trkpt lat="44.526735" lon="9.0134383"><ele>410.0</ele><time>2026-03-28T12:02:14.009Z</time></trkpt><trkpt lat="44.5266467" lon="9.01334"><ele>410.0</ele><time>2026-03-28T12:02:15.009Z</time></trkpt><trkpt lat="44.5265533" lon="9.0132333"><ele>410.0</ele><time>2026-03-28T12:02:16.009Z</time></trkpt><trkpt lat="44.5264517" lon="9.0131233"><ele>410.0</ele><time>2026-03-28T12:02:17.009Z</time></trkpt><trkpt lat="44.52633" lon="9.0130417"><ele>410.0</ele><time>2026-03-28T12:02:18.009Z</time></trkpt><trkpt lat="44.52621" lon="9.0129683"><ele>410.0</ele><time>2026-03-28T12:02:19.008Z</time></trkpt><trkpt lat="44.526095" lon="9.0129267"><ele>410.0</ele><time>2026-03-28T12:02:20.009Z</time></trkpt><trkpt lat="44.5259833" lon="9.01292"><ele>411.5</ele><time>2026-03-28T12:02:21.009Z</time></trkpt><trkpt lat="44.5258733" lon="9.0129533"><ele>413.0</ele><time>2026-03-28T12:02:22.009Z</time></trkpt><trkpt lat="44.52577" lon="9.0130467"><ele>414.5</ele><time>2026-03-28T12:02:23.009Z</time></trkpt><trkpt lat="44.5256667" lon="9.0131833"><ele>416.0</ele><time>2026-03-28T12:02:24.009Z</time></trkpt><trkpt lat="44.5255633" lon="9.0133333"><ele>416.0</ele><time>2026-03-28T12:02:25.009Z</time></trkpt><trkpt lat="44.5254683" lon="9.0134767"><ele>416.0</ele><time>2026-03-28T12:02:26.009Z</time></trkpt><trkpt lat="44.5253583" lon="9.01362"><ele>416.0</ele><time>2026-03-28T12:02:27.008Z</time></trkpt><trkpt lat="44.5252467" lon="9.013765"><ele>416.0</ele><time>2026-03-28T12:02:28.009Z</time></trkpt><trkpt lat="44.5251333" lon="9.0139167"><ele>416.3333333333333</ele><time>2026-03-28T12:02:29.008Z</time></trkpt><trkpt lat="44.5250183" lon="9.01407"><ele>416.66666666666663</ele><time>2026-03-28T12:02:30.008Z</time></trkpt><trkpt lat="44.5248967" lon="9.0142267"><ele>417.0</ele><time>2026-03-28T12:02:31.009Z</time></trkpt><trkpt lat="44.5247767" lon="9.0143833"><ele>417.0</ele><time>2026-03-28T12:02:32.009Z</time></trkpt><trkpt lat="44.5246533" lon="9.0145483"><ele>417.0</ele><time>2026-03-28T12:02:33.008Z</time></trkpt><trkpt lat="44.52453" lon="9.0146967"><ele>417.0</ele><time>2026-03-28T12:02:34.009Z</time></trkpt><trkpt lat="44.524395" lon="9.01485"><ele>418.0</ele><time>2026-03-28T12:02:35.009Z</time></trkpt><trkpt lat="44.524245" lon="9.0150033"><ele>419.0</ele><time>2026-03-28T12:02:36.009Z</time></trkpt><trkpt lat="44.5240867" lon="9.0151317"><ele>420.0</ele><time>2026-03-28T12:02:37.009Z</time></trkpt><trkpt lat="44.523915" lon="9.0152533"><ele>420.0</ele><time>2026-03-28T12:02:38.008Z</time></trkpt><trkpt lat="44.523745" lon="9.0153617"><ele>420.0</ele><time>2026-03-28T12:02:39.009Z</time></trkpt><trkpt lat="44.5235733" lon="9.015465"><ele>420.0</ele><time>2026-03-28T12:02:40.008Z</time></trkpt><trkpt lat="44.5234067" lon="9.01556"><ele>423.66666666666663</ele><time>2026-03-28T12:02:41.009Z</time></trkpt><trkpt lat="44.5232483" lon="9.015645"><ele>427.3333333333333</ele><time>2026-03-28T12:02:42.009Z</time></trkpt><trkpt lat="44.5230967" lon="9.0157183"><ele>431.0</ele><time>2026-03-28T12:02:43.009Z</time></trkpt><trkpt lat="44.5229533" lon="9.0158033"><ele>429.0</ele><time>2026-03-28T12:02:44.008Z</time></trkpt><trkpt lat="44.5228117" lon="9.0159217"><ele>427.0</ele><time>2026-03-28T12:02:45.009Z</time></trkpt><trkpt lat="44.52268" lon="9.0160583"><ele>425.0</ele><time>2026-03-28T12:02:46.008Z</time></trkpt><trkpt lat="44.522545" lon="9.0162283"><ele>425.0</ele><time>2026-03-28T12:02:47.009Z</time></trkpt><trkpt lat="44.5224183" lon="9.0164017"><ele>425.0</ele><time>2026-03-28T12:02:48.009Z</time></trkpt><trkpt lat="44.5222917" lon="9.0165717"><ele>425.0</ele><time>2026-03-28T12:02:49.009Z</time></trkpt><trkpt lat="44.5221617" lon="9.0167333"><ele>427.0</ele><time>2026-03-28T12:02:50.009Z</time></trkpt><trkpt lat="44.5220233" lon="9.01689"><ele>429.0</ele><time>2026-03-28T12:02:51.009Z</time></trkpt><trkpt lat="44.5218883" lon="9.017055"><ele>431.0</ele><time>2026-03-28T12:02:52.009Z</time></trkpt><trkpt lat="44.521775" lon="9.0172267"><ele>431.0</ele><time>2026-03-28T12:02:53.009Z</time></trkpt><trkpt lat="44.5216633" lon="9.0174083"><ele>431.0</ele><time>2026-03-28T12:02:54.009Z</time></trkpt><trkpt lat="44.52154" lon="9.0176067"><ele>431.0</ele><time>2026-03-28T12:02:55.009Z</time></trkpt><trkpt lat="44.5214233" lon="9.0177933"><ele>428.3333333333333</ele><time>2026-03-28T12:02:56.009Z</time></trkpt><trkpt lat="44.5213033" lon="9.0179533"><ele>425.66666666666663</ele><time>2026-03-28T12:02:57.009Z</time></trkpt><trkpt lat="44.5211633" lon="9.0181133"><ele>423.0</ele><time>2026-03-28T12:02:58.009Z</time></trkpt><trkpt lat="44.521005" lon="9.0182383"><ele>424.66666666666663</ele><time>2026-03-28T12:02:59.008Z</time></trkpt><trkpt lat="44.5208483" lon="9.0183317"><ele>426.3333333333333</ele><time>2026-03-28T12:03:00.008Z</time></trkpt><trkpt lat="44.5206867" lon="9.0184367"><ele>428.0</ele><time>2026-03-28T12:03:01.009Z</time></trkpt><trkpt lat="44.5205333" lon="9.0185617"><ele>435.3333333333333</ele><time>2026-03-28T12:03:02.009Z</time></trkpt><trkpt lat="44.52038" lon="9.0186817"><ele>442.66666666666663</ele><time>2026-03-28T12:03:03.009Z</time></trkpt><trkpt lat="44.5202483" lon="9.0188133"><ele>450.0</ele><time>2026-03-28T12:03:04.009Z</time></trkpt><trkpt lat="44.5201267" lon="9.018975"><ele>450.0</ele><time>2026-03-28T12:03:05.009Z</time></trkpt><trkpt lat="44.52" lon="9.01915"><ele>450.0</ele><time>2026-03-28T12:03:06.009Z</time></trkpt><trkpt lat="44.5198883" lon="9.0193333"><ele>450.0</ele><time>2026-03-28T12:03:07.009Z</time></trkpt><trkpt lat="44.51977" lon="9.019495"><ele>451.0</ele><time>2026-03-28T12:03:08.009Z</time></trkpt><trkpt lat="44.5196517" lon="9.0196633"><ele>452.0</ele><time>2026-03-28T12:03:09.009Z</time></trkpt><trkpt lat="44.519535" lon="9.01982"><ele>453.0</ele><time>2026-03-28T12:03:10.008Z</time></trkpt><trkpt lat="44.5194" lon="9.0199833"><ele>446.0</ele><time>2026-03-28T12:03:11.009Z</time></trkpt><trkpt lat="44.51926" lon="9.0201333"><ele>439.0</ele><time>2026-03-28T12:03:12.009Z</time></trkpt><trkpt lat="44.519125" lon="9.0202767"><ele>432.0</ele><time>2026-03-28T12:03:13.009Z</time></trkpt><trkpt lat="44.5189817" lon="9.020415"><ele>432.0</ele><time>2026-03-28T12:03:14.009Z</time></trkpt><trkpt lat="44.5188467" lon="9.0205283"><ele>432.0</ele><time>2026-03-28T12:03:15.009Z</time></trkpt><trkpt lat="44.518705" lon="9.02064"><ele>432.0</ele><time>2026-03-28T12:03:16.008Z</time></trkpt><trkpt lat="44.51856" lon="9.0207367"><ele>433.0</ele><time>2026-03-28T12:03:17.008Z</time></trkpt><trkpt lat="44.5184117" lon="9.0208533"><ele>434.0</ele><time>2026-03-28T12:03:18.009Z</time></trkpt><trkpt lat="44.518265" lon="9.02094"><ele>435.0</ele><time>2026-03-28T12:03:19.009Z</time></trkpt><trkpt lat="44.5181317" lon="9.0210133"><ele>435.0</ele><time>2026-03-28T12:03:20.009Z</time></trkpt><trkpt lat="44.51802" lon="9.0210883"><ele>435.0</ele><time>2026-03-28T12:03:21.009Z</time></trkpt><trkpt lat="44.517905" lon="9.0211817"><ele>435.0</ele><time>2026-03-28T12:03:22.009Z</time></trkpt><trkpt lat="44.5178067" lon="9.021275"><ele>435.0</ele><time>2026-03-28T12:03:23.009Z</time></trkpt><trkpt lat="44.5177083" lon="9.021385"><ele>434.25</ele><time>2026-03-28T12:03:24.009Z</time></trkpt><trkpt lat="44.5176133" lon="9.0215033"><ele>433.5</ele><time>2026-03-28T12:03:25.009Z</time></trkpt><trkpt lat="44.5175133" lon="9.0216233"><ele>432.75</ele><time>2026-03-28T12:03:26.008Z</time></trkpt><trkpt lat="44.51741" lon="9.0217383"><ele>432.0</ele><time>2026-03-28T12:03:27.009Z</time></trkpt><trkpt lat="44.5173117" lon="9.0218683"><ele>432.0</ele><time>2026-03-28T12:03:28.009Z</time></trkpt><trkpt lat="44.5172167" lon="9.0219767"><ele>432.0</ele><time>2026-03-28T12:03:29.009Z</time></trkpt><trkpt lat="44.5171333" lon="9.02209"><ele>432.0</ele><time>2026-03-28T12:03:30.009Z</time></trkpt><trkpt lat="44.517045" lon="9.0222017"><ele>432.0</ele><time>2026-03-28T12:03:31.009Z</time></trkpt><trkpt lat="44.51697" lon="9.0223183"><ele>432.20000000000005</ele><time>2026-03-28T12:03:32.009Z</time></trkpt><trkpt lat="44.5168983" lon="9.0224317"><ele>432.40000000000003</ele><time>2026-03-28T12:03:33.009Z</time></trkpt><trkpt lat="44.5168333" lon="9.0225517"><ele>432.59999999999997</ele><time>2026-03-28T12:03:34.009Z</time></trkpt><trkpt lat="44.516765" lon="9.02269"><ele>432.79999999999995</ele><time>2026-03-28T12:03:35.008Z</time></trkpt><trkpt lat="44.5167117" lon="9.0228283"><ele>433.0</ele><time>2026-03-28T12:03:36.009Z</time></trkpt><trkpt lat="44.516675" lon="9.02298"><ele>433.00000000000006</ele><time>2026-03-28T12:03:37.009Z</time></trkpt><trkpt lat="44.5166433" lon="9.0231167"><ele>433.0</ele><time>2026-03-28T12:03:38.008Z</time></trkpt><trkpt lat="44.5166167" lon="9.02324"><ele>433.0</ele><time>2026-03-28T12:03:39.008Z</time></trkpt><trkpt lat="44.5165983" lon="9.0233483"><ele>433.0</ele><time>2026-03-28T12:03:40.009Z</time></trkpt><trkpt lat="44.51659" lon="9.023465"><ele>433.00000000000006</ele><time>2026-03-28T12:03:41.009Z</time></trkpt><trkpt lat="44.5165667" lon="9.0235783"><ele>433.0</ele><time>2026-03-28T12:03:42.009Z</time></trkpt><trkpt lat="44.5165333" lon="9.023695"><ele>433.00000000000006</ele><time>2026-03-28T12:03:43.009Z</time></trkpt><trkpt lat="44.5164883" lon="9.0238067"><ele>433.0</ele><time>2026-03-28T12:03:44.009Z</time></trkpt><trkpt lat="44.51644" lon="9.023905"><ele>433.0</ele><time>2026-03-28T12:03:45.008Z</time></trkpt><trkpt lat="44.5163917" lon="9.0239867"><ele>433.0</ele><time>2026-03-28T12:03:46.009Z</time></trkpt><trkpt lat="44.5163417" lon="9.024055"><ele>433.00000000000006</ele><time>2026-03-28T12:03:47.008Z</time></trkpt><trkpt lat="44.51628" lon="9.0241067"><ele>433.0</ele><time>2026-03-28T12:03:48.009Z</time></trkpt><trkpt lat="44.5162067" lon="9.0241583"><ele>433.0</ele><time>2026-03-28T12:03:49.009Z</time></trkpt><trkpt lat="44.516125" lon="9.0242117"><ele>432.99999999999994</ele><time>2026-03-28T12:03:50.009Z</time></trkpt><trkpt lat="44.5160383" lon="9.024275"><ele>432.99999999999994</ele><time>2026-03-28T12:03:51.008Z</time></trkpt><trkpt lat="44.5159517" lon="9.0243633"><ele>433.0</ele><time>2026-03-28T12:03:52.009Z</time></trkpt><trkpt lat="44.5158567" lon="9.0244417"><ele>433.0</ele><time>2026-03-28T12:03:53.009Z</time></trkpt><trkpt lat="44.5157617" lon="9.024505"><ele>433.0</ele><time>2026-03-28T12:03:54.009Z</time></trkpt><trkpt lat="44.515685" lon="9.0245933"><ele>432.99999999999994</ele><time>2026-03-28T12:03:55.009Z</time></trkpt><trkpt lat="44.515615" lon="9.024695"><ele>432.99999999999994</ele><time>2026-03-28T12:03:56.009Z</time></trkpt><trkpt lat="44.515555" lon="9.0248083"><ele>433.0</ele><time>2026-03-28T12:03:57.009Z</time></trkpt><trkpt lat="44.515515" lon="9.0249333"><ele>433.0</ele><time>2026-03-28T12:03:58.009Z</time></trkpt><trkpt lat="44.515505" lon="9.025075"><ele>432.0</ele><time>2026-03-28T12:03:59.009Z</time></trkpt><trkpt lat="44.51551" lon="9.025215"><ele>430.99999999999994</ele><time>2026-03-28T12:04:00.009Z</time></trkpt><trkpt lat="44.5155117" lon="9.025355"><ele>429.99999999999994</ele><time>2026-03-28T12:04:01.009Z</time></trkpt><trkpt lat="44.5155233" lon="9.0255083"><ele>429.0</ele><time>2026-03-28T12:04:02.009Z</time></trkpt><trkpt lat="44.5155317" lon="9.0256767"><ele>428.0</ele><time>2026-03-28T12:04:03.009Z</time></trkpt><trkpt lat="44.5155367" lon="9.0258417"><ele>428.0</ele><time>2026-03-28T12:04:04.009Z</time></trkpt><trkpt lat="44.515525" lon="9.0260183"><ele>428.0</ele><time>2026-03-28T12:04:05.009Z</time></trkpt><trkpt lat="44.5155067" lon="9.0261933"><ele>428.0</ele><time>2026-03-28T12:04:06.009Z</time></trkpt><trkpt lat="44.515475" lon="9.026385"><ele>428.0</ele><time>2026-03-28T12:04:07.008Z</time></trkpt><trkpt lat="44.5154433" lon="9.02658"><ele>429.0</ele><time>2026-03-28T12:04:08.008Z</time></trkpt><trkpt lat="44.5154133" lon="9.026785"><ele>430.0</ele><time>2026-03-28T12:04:09.008Z</time></trkpt><trkpt lat="44.5153833" lon="9.0269967"><ele>431.0</ele><time>2026-03-28T12:04:10.009Z</time></trkpt><trkpt lat="44.51535" lon="9.027215"><ele>431.0</ele><time>2026-03-28T12:04:11.009Z</time></trkpt><trkpt lat="44.5153117" lon="9.0274383"><ele>431.0</ele><time>2026-03-28T12:04:12.008Z</time></trkpt><trkpt lat="44.5152667" lon="9.0276617"><ele>431.0</ele><time>2026-03-28T12:04:13.009Z</time></trkpt><trkpt lat="44.5152217" lon="9.027885"><ele>431.66666666666663</ele><time>2026-03-28T12:04:14.008Z</time></trkpt><trkpt lat="44.5151867" lon="9.02811"><ele>432.33333333333337</ele><time>2026-03-28T12:04:15.009Z</time></trkpt><trkpt lat="44.515145" lon="9.0283367"><ele>433.0</ele><time>2026-03-28T12:04:16.009Z</time></trkpt><trkpt lat="44.5151067" lon="9.0285767"><ele>433.0</ele><time>2026-03-28T12:04:17.009Z</time></trkpt><trkpt lat="44.515065" lon="9.0288067"><ele>433.0</ele><time>2026-03-28T12:04:18.009Z</time></trkpt><trkpt lat="44.5150233" lon="9.0290367"><ele>433.0</ele><time>2026-03-28T12:04:19.008Z</time></trkpt><trkpt lat="44.5149833" lon="9.02927"><ele>433.0</ele><time>2026-03-28T12:04:20.009Z</time></trkpt><trkpt lat="44.51495" lon="9.0294967"><ele>433.0</ele><time>2026-03-28T12:04:21.009Z</time></trkpt><trkpt lat="44.5149067" lon="9.02972"><ele>433.0</ele><time>2026-03-28T12:04:22.009Z</time></trkpt><trkpt lat="44.5148467" lon="9.0299567"><ele>433.6666666666667</ele><time>2026-03-28T12:04:23.009Z</time></trkpt><trkpt lat="44.5147867" lon="9.030185"><ele>434.33333333333337</ele><time>2026-03-28T12:04:24.009Z</time></trkpt><trkpt lat="44.514725" lon="9.030405"><ele>435.0</ele><time>2026-03-28T12:04:25.009Z</time></trkpt><trkpt lat="44.51466" lon="9.0306117"><ele>435.66666666666663</ele><time>2026-03-28T12:04:26.008Z</time></trkpt><trkpt lat="44.5145883" lon="9.0308267"><ele>436.3333333333333</ele><time>2026-03-28T12:04:27.009Z</time></trkpt><trkpt lat="44.51451" lon="9.0310183"><ele>437.0</ele><time>2026-03-28T12:04:28.009Z</time></trkpt><trkpt lat="44.51442" lon="9.0311883"><ele>444.66666666666663</ele><time>2026-03-28T12:04:29.009Z</time></trkpt><trkpt lat="44.51432" lon="9.0313683"><ele>452.33333333333337</ele><time>2026-03-28T12:04:30.009Z</time></trkpt><trkpt lat="44.514185" lon="9.0315"><ele>460.0</ele><time>2026-03-28T12:04:31.009Z</time></trkpt><trkpt lat="44.5140667" lon="9.0316367"><ele>455.6666666666667</ele><time>2026-03-28T12:04:32.009Z</time></trkpt><trkpt lat="44.5139517" lon="9.0317783"><ele>451.33333333333337</ele><time>2026-03-28T12:04:33.009Z</time></trkpt><trkpt lat="44.5138383" lon="9.031905"><ele>447.0</ele><time>2026-03-28T12:04:34.009Z</time></trkpt><trkpt lat="44.5137283" lon="9.0320667"><ele>451.33333333333337</ele><time>2026-03-28T12:04:35.009Z</time></trkpt><trkpt lat="44.513605" lon="9.0322317"><ele>455.6666666666667</ele><time>2026-03-28T12:04:36.009Z</time></trkpt><trkpt lat="44.513485" lon="9.0324083"><ele>460.0</ele><time>2026-03-28T12:04:37.008Z</time></trkpt><trkpt lat="44.513365" lon="9.0325883"><ele>460.0</ele><time>2026-03-28T12:04:38.009Z</time></trkpt><trkpt lat="44.5132417" lon="9.03276"><ele>460.0</ele><time>2026-03-28T12:04:39.009Z</time></trkpt><trkpt lat="44.5131367" lon="9.03292"><ele>460.0</ele><time>2026-03-28T12:04:40.008Z</time></trkpt><trkpt lat="44.5130383" lon="9.0330717"><ele>460.0</ele><time>2026-03-28T12:04:41.009Z</time></trkpt><trkpt lat="44.5129683" lon="9.03324"><ele>460.0</ele><time>2026-03-28T12:04:42.009Z</time></trkpt><trkpt lat="44.512915" lon="9.03341"><ele>460.0</ele><time>2026-03-28T12:04:43.009Z</time></trkpt><trkpt lat="44.5128917" lon="9.0335783"><ele>460.0</ele><time>2026-03-28T12:04:44.009Z</time></trkpt><trkpt lat="44.5128967" lon="9.0337667"><ele>456.25</ele><time>2026-03-28T12:04:45.008Z</time></trkpt><trkpt lat="44.5129383" lon="9.0339533"><ele>452.5</ele><time>2026-03-28T12:04:46.009Z</time></trkpt><trkpt lat="44.513015" lon="9.034125"><ele>448.75</ele><time>2026-03-28T12:04:47.008Z</time></trkpt><trkpt lat="44.51311" lon="9.0342583"><ele>445.0</ele><time>2026-03-28T12:04:48.009Z</time></trkpt><trkpt lat="44.51323" lon="9.0343767"><ele>444.75</ele><time>2026-03-28T12:04:49.008Z</time></trkpt><trkpt lat="44.513315" lon="9.0345083"><ele>444.5</ele><time>2026-03-28T12:04:50.009Z</time></trkpt><trkpt lat="44.5133967" lon="9.0346617"><ele>444.25</ele><time>2026-03-28T12:04:51.009Z</time></trkpt><trkpt lat="44.5134517" lon="9.0348383"><ele>444.0</ele><time>2026-03-28T12:04:52.009Z</time></trkpt><trkpt lat="44.51351" lon="9.03503"><ele>447.66666666666663</ele><time>2026-03-28T12:04:53.008Z</time></trkpt><trkpt lat="44.513575" lon="9.0352317"><ele>451.3333333333333</ele><time>2026-03-28T12:04:54.009Z</time></trkpt><trkpt lat="44.51363" lon="9.0354317"><ele>455.0</ele><time>2026-03-28T12:04:55.009Z</time></trkpt><trkpt lat="44.5136817" lon="9.0356333"><ele>460.0</ele><time>2026-03-28T12:04:56.008Z</time></trkpt><trkpt lat="44.5137283" lon="9.0358467"><ele>465.0</ele><time>2026-03-28T12:04:57.009Z</time></trkpt><trkpt lat="44.5137533" lon="9.0360517"><ele>470.0</ele><time>2026-03-28T12:04:58.009Z</time></trkpt><trkpt lat="44.5137567" lon="9.0362583"><ele>463.75</ele><time>2026-03-28T12:04:59.009Z</time></trkpt><trkpt lat="44.513775" lon="9.0364567"><ele>457.5</ele><time>2026-03-28T12:05:00.008Z</time></trkpt><trkpt lat="44.5138083" lon="9.0366333"><ele>451.25</ele><time>2026-03-28T12:05:01.009Z</time></trkpt><trkpt lat="44.51386" lon="9.0368"><ele>445.0</ele><time>2026-03-28T12:05:02.009Z</time></trkpt><trkpt lat="44.513925" lon="9.03695"><ele>445.0</ele><time>2026-03-28T12:05:03.009Z</time></trkpt><trkpt lat="44.5140017" lon="9.0370967"><ele>445.0</ele><time>2026-03-28T12:05:04.008Z</time></trkpt><trkpt lat="44.5140733" lon="9.0372567"><ele>445.0</ele><time>2026-03-28T12:05:05.009Z</time></trkpt><trkpt lat="44.5141183" lon="9.0374267"><ele>445.0</ele><time>2026-03-28T12:05:06.009Z</time></trkpt><trkpt lat="44.5141117" lon="9.037615"><ele>446.25</ele><time>2026-03-28T12:05:07.009Z</time></trkpt><trkpt lat="44.5140967" lon="9.0377733"><ele>447.5</ele><time>2026-03-28T12:05:08.009Z</time></trkpt><trkpt lat="44.5140567" lon="9.0379333"><ele>448.75</ele><time>2026-03-28T12:05:09.009Z</time></trkpt><trkpt lat="44.5139967" lon="9.038085"><ele>450.0</ele><time>2026-03-28T12:05:10.009Z</time></trkpt><trkpt lat="44.513915" lon="9.038225"><ele>447.5</ele><time>2026-03-28T12:05:11.009Z</time></trkpt><trkpt lat="44.5137867" lon="9.0383367"><ele>445.0</ele><time>2026-03-28T12:05:12.009Z</time></trkpt><trkpt lat="44.51369" lon="9.0383833"><ele>442.5</ele><time>2026-03-28T12:05:13.009Z</time></trkpt><trkpt lat="44.51359" lon="9.0384167"><ele>440.0</ele><time>2026-03-28T12:05:14.009Z</time></trkpt><trkpt lat="44.5134917" lon="9.0384017"><ele>444.8</ele><time>2026-03-28T12:05:15.008Z</time></trkpt><trkpt lat="44.513385" lon="9.03837"><ele>449.6</ele><time>2026-03-28T12:05:16.009Z</time></trkpt><trkpt lat="44.5132883" lon="9.0382983"><ele>454.4</ele><time>2026-03-28T12:05:17.009Z</time></trkpt><trkpt lat="44.513185" lon="9.0382233"><ele>459.2</ele><time>2026-03-28T12:05:18.009Z</time></trkpt><trkpt lat="44.5130817" lon="9.038155"><ele>464.0</ele><time>2026-03-28T12:05:19.009Z</time></trkpt><trkpt lat="44.5129767" lon="9.038115"><ele>465.79999999999995</ele><time>2026-03-28T12:05:20.009Z</time></trkpt><trkpt lat="44.51288" lon="9.0381017"><ele>467.59999999999997</ele><time>2026-03-28T12:05:21.009Z</time></trkpt><trkpt lat="44.5128" lon="9.0381217"><ele>469.4</ele><time>2026-03-28T12:05:22.009Z</time></trkpt><trkpt lat="44.5127283" lon="9.03819"><ele>471.2</ele><time>2026-03-28T12:05:23.008Z</time></trkpt><trkpt lat="44.512675" lon="9.038295"><ele>473.0</ele><time>2026-03-28T12:05:24.008Z</time></trkpt><trkpt lat="44.5126467" lon="9.0384483"><ele>473.0</ele><time>2026-03-28T12:05:25.009Z</time></trkpt><trkpt lat="44.5126517" lon="9.038625"><ele>473.0</ele><time>2026-03-28T12:05:26.009Z</time></trkpt><trkpt lat="44.5126867" lon="9.0387983"><ele>473.0</ele><time>2026-03-28T12:05:27.009Z</time></trkpt><trkpt lat="44.512735" lon="9.038965"><ele>473.0</ele><time>2026-03-28T12:05:28.009Z</time></trkpt><trkpt lat="44.5128" lon="9.0391167"><ele>472.25</ele><time>2026-03-28T12:05:29.009Z</time></trkpt><trkpt lat="44.5128817" lon="9.0392517"><ele>471.5</ele><time>2026-03-28T12:05:30.008Z</time></trkpt><trkpt lat="44.5129767" lon="9.0393933"><ele>470.75</ele><time>2026-03-28T12:05:31.009Z</time></trkpt><trkpt lat="44.5130683" lon="9.03953"><ele>470.0</ele><time>2026-03-28T12:05:32.009Z</time></trkpt><trkpt lat="44.5131467" lon="9.0397"><ele>464.66666666666663</ele><time>2026-03-28T12:05:33.009Z</time></trkpt><trkpt lat="44.5132033" lon="9.0399017"><ele>459.33333333333337</ele><time>2026-03-28T12:05:34.009Z</time></trkpt><trkpt lat="44.5132717" lon="9.0401167"><ele>454.0</ele><time>2026-03-28T12:05:35.008Z</time></trkpt><trkpt lat="44.513335" lon="9.0403233"><ele>454.0</ele><time>2026-03-28T12:05:36.009Z</time></trkpt><trkpt lat="44.5133867" lon="9.04053"><ele>454.0</ele><time>2026-03-28T12:05:37.009Z</time></trkpt><trkpt lat="44.5134333" lon="9.0407217"><ele>454.0</ele><time>2026-03-28T12:05:38.009Z</time></trkpt><trkpt lat="44.51346" lon="9.0409"><ele>454.0</ele><time>2026-03-28T12:05:39.009Z</time></trkpt><trkpt lat="44.5134467" lon="9.04107"><ele>454.0</ele><time>2026-03-28T12:05:40.009Z</time></trkpt><trkpt lat="44.5134083" lon="9.0412433"><ele>454.0</ele><time>2026-03-28T12:05:41.009Z</time></trkpt><trkpt lat="44.5133633" lon="9.0414217"><ele>454.0</ele><time>2026-03-28T12:05:42.009Z</time></trkpt><trkpt lat="44.5133317" lon="9.041605"><ele>454.0</ele><time>2026-03-28T12:05:43.008Z</time></trkpt><trkpt lat="44.5133383" lon="9.0417917"><ele>454.0</ele><time>2026-03-28T12:05:44.009Z</time></trkpt><trkpt lat="44.51338" lon="9.0419833"><ele>454.0</ele><time>2026-03-28T12:05:45.009Z</time></trkpt><trkpt lat="44.51345" lon="9.042165"><ele>454.0</ele><time>2026-03-28T12:05:46.009Z</time></trkpt><trkpt lat="44.5135217" lon="9.0423567"><ele>454.0</ele><time>2026-03-28T12:05:47.009Z</time></trkpt><trkpt lat="44.5135933" lon="9.0425283"><ele>454.25</ele><time>2026-03-28T12:05:48.009Z</time></trkpt><trkpt lat="44.5136617" lon="9.0427"><ele>454.5</ele><time>2026-03-28T12:05:49.009Z</time></trkpt><trkpt lat="44.513735" lon="9.042875"><ele>454.75</ele><time>2026-03-28T12:05:50.009Z</time></trkpt><trkpt lat="44.5137917" lon="9.043065"><ele>455.0</ele><time>2026-03-28T12:05:51.009Z</time></trkpt><trkpt lat="44.5138433" lon="9.043245"><ele>451.0</ele><time>2026-03-28T12:05:52.009Z</time></trkpt><trkpt lat="44.5138833" lon="9.04342"><ele>447.0</ele><time>2026-03-28T12:05:53.009Z</time></trkpt><trkpt lat="44.513895" lon="9.043605"><ele>443.0</ele><time>2026-03-28T12:05:54.009Z</time></trkpt><trkpt lat="44.5138983" lon="9.0437717"><ele>439.0</ele><time>2026-03-28T12:05:55.008Z</time></trkpt><trkpt lat="44.5139283" lon="9.0439283"><ele>439.0</ele><time>2026-03-28T12:05:56.009Z</time></trkpt><trkpt lat="44.5139667" lon="9.0441033"><ele>439.0</ele><time>2026-03-28T12:05:57.009Z</time></trkpt><trkpt lat="44.514005" lon="9.04427"><ele>439.0</ele><time>2026-03-28T12:05:58.009Z</time></trkpt><trkpt lat="44.5140483" lon="9.04442"><ele>439.0</ele><time>2026-03-28T12:05:59.009Z</time></trkpt><trkpt lat="44.5140867" lon="9.0445667"><ele>439.6</ele><time>2026-03-28T12:06:00.009Z</time></trkpt><trkpt lat="44.5141283" lon="9.0446967"><ele>440.2</ele><time>2026-03-28T12:06:01.009Z</time></trkpt><trkpt lat="44.5141633" lon="9.044835"><ele>440.80000000000007</ele><time>2026-03-28T12:06:02.009Z</time></trkpt><trkpt lat="44.51419" lon="9.044975"><ele>441.40000000000003</ele><time>2026-03-28T12:06:03.009Z</time></trkpt><trkpt lat="44.5142183" lon="9.04512"><ele>442.0</ele><time>2026-03-28T12:06:04.009Z</time></trkpt><trkpt lat="44.5142417" lon="9.0452733"><ele>442.25</ele><time>2026-03-28T12:06:05.008Z</time></trkpt><trkpt lat="44.5142633" lon="9.0454533"><ele>442.5</ele><time>2026-03-28T12:06:06.009Z</time></trkpt><trkpt lat="44.5142867" lon="9.0456217"><ele>442.75</ele><time>2026-03-28T12:06:07.009Z</time></trkpt><trkpt lat="44.5143133" lon="9.04579"><ele>443.0</ele><time>2026-03-28T12:06:08.009Z</time></trkpt><trkpt lat="44.514345" lon="9.04595"><ele>443.2</ele><time>2026-03-28T12:06:09.009Z</time></trkpt><trkpt lat="44.5143767" lon="9.046115"><ele>443.4</ele><time>2026-03-28T12:06:10.008Z</time></trkpt><trkpt lat="44.5143933" lon="9.04626"><ele>443.59999999999997</ele><time>2026-03-28T12:06:11.009Z</time></trkpt><trkpt lat="44.5144133" lon="9.0463717"><ele>443.79999999999995</ele><time>2026-03-28T12:06:12.008Z</time></trkpt><trkpt lat="44.5144417" lon="9.0465117"><ele>444.0</ele><time>2026-03-28T12:06:14.008Z</time></trkpt><trkpt lat="44.514465" lon="9.0466217"><ele>444.4</ele><time>2026-03-28T12:06:16.008Z</time></trkpt><trkpt lat="44.5145033" lon="9.0467783"><ele>444.79999999999995</ele><time>2026-03-28T12:06:18.008Z</time></trkpt><trkpt lat="44.514535" lon="9.0468867"><ele>445.20000000000005</ele><time>2026-03-28T12:06:19.009Z</time></trkpt><trkpt lat="44.5145733" lon="9.0470067"><ele>445.6</ele><time>2026-03-28T12:06:20.008Z</time></trkpt><trkpt lat="44.514605" lon="9.0471483"><ele>446.0</ele><time>2026-03-28T12:06:21.008Z</time></trkpt><trkpt lat="44.51466" lon="9.047275"><ele>445.3333333333333</ele><time>2026-03-28T12:06:22.009Z</time></trkpt><trkpt lat="44.514705" lon="9.0474033"><ele>444.66666666666663</ele><time>2026-03-28T12:06:23.009Z</time></trkpt><trkpt lat="44.5147317" lon="9.0475317"><ele>444.0</ele><time>2026-03-28T12:06:24.008Z</time></trkpt><trkpt lat="44.51476" lon="9.047645"><ele>443.33333333333337</ele><time>2026-03-28T12:06:25.009Z</time></trkpt><trkpt lat="44.5147933" lon="9.047755"><ele>442.6666666666667</ele><time>2026-03-28T12:06:26.009Z</time></trkpt><trkpt lat="44.5148433" lon="9.0478433"><ele>442.0</ele><time>2026-03-28T12:06:27.009Z</time></trkpt><trkpt lat="44.5149417" lon="9.04793"><ele>442.0</ele><time>2026-03-28T12:06:29.009Z</time></trkpt><trkpt lat="44.51506" lon="9.0479567"><ele>442.00000000000006</ele><time>2026-03-28T12:06:31.008Z</time></trkpt><trkpt lat="44.5151433" lon="9.047965"><ele>442.00000000000006</ele><time>2026-03-28T12:06:32.009Z</time></trkpt><trkpt lat="44.51524" lon="9.0479433"><ele>442.0</ele><time>2026-03-28T12:06:33.009Z</time></trkpt><trkpt lat="44.5153533" lon="9.0479"><ele>442.0</ele><time>2026-03-28T12:06:34.009Z</time></trkpt><trkpt lat="44.515475" lon="9.047845"><ele>441.5</ele><time>2026-03-28T12:06:35.009Z</time></trkpt><trkpt lat="44.5156" lon="9.0477967"><ele>441.0</ele><time>2026-03-28T12:06:36.008Z</time></trkpt><trkpt lat="44.515735" lon="9.0477583"><ele>440.5</ele><time>2026-03-28T12:06:37.009Z</time></trkpt><trkpt lat="44.5158717" lon="9.0477133"><ele>440.0</ele><time>2026-03-28T12:06:38.009Z</time></trkpt><trkpt lat="44.516005" lon="9.0476633"><ele>440.0</ele><time>2026-03-28T12:06:39.008Z</time></trkpt><trkpt lat="44.5161483" lon="9.0476183"><ele>440.0</ele><time>2026-03-28T12:06:40.009Z</time></trkpt><trkpt lat="44.5162767" lon="9.0475967"><ele>440.0</ele><time>2026-03-28T12:06:41.008Z</time></trkpt><trkpt lat="44.5163967" lon="9.04763"><ele>440.0</ele><time>2026-03-28T12:06:42.008Z</time></trkpt><trkpt lat="44.51651" lon="9.04772"><ele>441.5</ele><time>2026-03-28T12:06:43.009Z</time></trkpt><trkpt lat="44.51661" lon="9.047835"><ele>443.0</ele><time>2026-03-28T12:06:44.009Z</time></trkpt><trkpt lat="44.5166933" lon="9.0479867"><ele>444.5</ele><time>2026-03-28T12:06:45.009Z</time></trkpt><trkpt lat="44.516765" lon="9.04816"><ele>446.0</ele><time>2026-03-28T12:06:46.009Z</time></trkpt><trkpt lat="44.51681" lon="9.048345"><ele>446.0</ele><time>2026-03-28T12:06:47.009Z</time></trkpt><trkpt lat="44.5168617" lon="9.04852"><ele>446.0</ele><time>2026-03-28T12:06:48.008Z</time></trkpt><trkpt lat="44.5169333" lon="9.0487033"><ele>446.0</ele><time>2026-03-28T12:06:49.009Z</time></trkpt><trkpt lat="44.5170067" lon="9.0488633"><ele>446.0</ele><time>2026-03-28T12:06:50.009Z</time></trkpt><trkpt lat="44.517085" lon="9.0490267"><ele>447.0</ele><time>2026-03-28T12:06:51.009Z</time></trkpt><trkpt lat="44.517185" lon="9.0491617"><ele>448.0</ele><time>2026-03-28T12:06:52.008Z</time></trkpt><trkpt lat="44.5172783" lon="9.0492867"><ele>449.0</ele><time>2026-03-28T12:06:53.009Z</time></trkpt><trkpt lat="44.5173683" lon="9.0493933"><ele>450.0</ele><time>2026-03-28T12:06:54.008Z</time></trkpt><trkpt lat="44.517455" lon="9.0495"><ele>450.0</ele><time>2026-03-28T12:06:55.009Z</time></trkpt><trkpt lat="44.5175367" lon="9.0495967"><ele>450.0</ele><time>2026-03-28T12:06:56.008Z</time></trkpt><trkpt lat="44.5175883" lon="9.0497017"><ele>450.0</ele><time>2026-03-28T12:06:57.009Z</time></trkpt><trkpt lat="44.517615" lon="9.049845"><ele>450.0</ele><time>2026-03-28T12:06:58.009Z</time></trkpt><trkpt lat="44.5176167" lon="9.0500317"><ele>450.0</ele><time>2026-03-28T12:06:59.009Z</time></trkpt><trkpt lat="44.5176083" lon="9.0502167"><ele>449.75</ele><time>2026-03-28T12:07:00.009Z</time></trkpt><trkpt lat="44.5176067" lon="9.0504"><ele>449.5</ele><time>2026-03-28T12:07:01.008Z</time></trkpt><trkpt lat="44.5175867" lon="9.0505883"><ele>449.25</ele><time>2026-03-28T12:07:02.009Z</time></trkpt><trkpt lat="44.5175817" lon="9.05079"><ele>449.0</ele><time>2026-03-28T12:07:03.009Z</time></trkpt><trkpt lat="44.51758" lon="9.0510067"><ele>449.0</ele><time>2026-03-28T12:07:04.008Z</time></trkpt><trkpt lat="44.5175867" lon="9.0512217"><ele>449.0</ele><time>2026-03-28T12:07:05.009Z</time></trkpt><trkpt lat="44.5176033" lon="9.051425"><ele>449.0</ele><time>2026-03-28T12:07:06.008Z</time></trkpt><trkpt lat="44.5176333" lon="9.0516217"><ele>449.0</ele><time>2026-03-28T12:07:07.009Z</time></trkpt><trkpt lat="44.5176867" lon="9.0517917"><ele>448.25</ele><time>2026-03-28T12:07:08.009Z</time></trkpt><trkpt lat="44.5177683" lon="9.051945"><ele>447.5</ele><time>2026-03-28T12:07:09.008Z</time></trkpt><trkpt lat="44.5178667" lon="9.0520833"><ele>446.75</ele><time>2026-03-28T12:07:10.009Z</time></trkpt><trkpt lat="44.517965" lon="9.0522383"><ele>446.0</ele><time>2026-03-28T12:07:11.009Z</time></trkpt><trkpt lat="44.51806" lon="9.0524017"><ele>448.66666666666663</ele><time>2026-03-28T12:07:12.008Z</time></trkpt><trkpt lat="44.5181517" lon="9.0525783"><ele>451.33333333333337</ele><time>2026-03-28T12:07:13.009Z</time></trkpt><trkpt lat="44.5182383" lon="9.0527667"><ele>454.0</ele><time>2026-03-28T12:07:14.009Z</time></trkpt><trkpt lat="44.5183167" lon="9.0529633"><ele>454.0</ele><time>2026-03-28T12:07:15.009Z</time></trkpt><trkpt lat="44.518385" lon="9.0531633"><ele>454.0</ele><time>2026-03-28T12:07:16.009Z</time></trkpt><trkpt lat="44.5184167" lon="9.053365"><ele>454.0</ele><time>2026-03-28T12:07:17.009Z</time></trkpt><trkpt lat="44.5184383" lon="9.05356"><ele>454.0</ele><time>2026-03-28T12:07:18.009Z</time></trkpt><trkpt lat="44.5184433" lon="9.0537433"><ele>453.25</ele><time>2026-03-28T12:07:19.009Z</time></trkpt><trkpt lat="44.5184633" lon="9.053925"><ele>452.5</ele><time>2026-03-28T12:07:20.009Z</time></trkpt><trkpt lat="44.51851" lon="9.0540833"><ele>451.75</ele><time>2026-03-28T12:07:21.009Z</time></trkpt><trkpt lat="44.518595" lon="9.054225"><ele>451.0</ele><time>2026-03-28T12:07:22.008Z</time></trkpt><trkpt lat="44.5186917" lon="9.054345"><ele>452.25</ele><time>2026-03-28T12:07:23.009Z</time></trkpt><trkpt lat="44.518795" lon="9.0544883"><ele>453.5</ele><time>2026-03-28T12:07:24.008Z</time></trkpt><trkpt lat="44.5188967" lon="9.054645"><ele>454.75</ele><time>2026-03-28T12:07:25.009Z</time></trkpt><trkpt lat="44.518985" lon="9.0548017"><ele>456.0</ele><time>2026-03-28T12:07:26.009Z</time></trkpt><trkpt lat="44.519085" lon="9.05497"><ele>456.0</ele><time>2026-03-28T12:07:27.009Z</time></trkpt><trkpt lat="44.5191667" lon="9.0551517"><ele>456.0</ele><time>2026-03-28T12:07:28.009Z</time></trkpt><trkpt lat="44.5192183" lon="9.0553267"><ele>456.0</ele><time>2026-03-28T12:07:29.009Z</time></trkpt><trkpt lat="44.5192567" lon="9.05552"><ele>456.0</ele><time>2026-03-28T12:07:30.008Z</time></trkpt><trkpt lat="44.5192783" lon="9.0557183"><ele>455.8</ele><time>2026-03-28T12:07:31.009Z</time></trkpt><trkpt lat="44.51929" lon="9.0559"><ele>455.6</ele><time>2026-03-28T12:07:32.009Z</time></trkpt><trkpt lat="44.5192783" lon="9.0560717"><ele>455.4</ele><time>2026-03-28T12:07:33.009Z</time></trkpt><trkpt lat="44.5192667" lon="9.05621"><ele>455.2</ele><time>2026-03-28T12:07:34.009Z</time></trkpt><trkpt lat="44.51922" lon="9.0563217"><ele>455.0</ele><time>2026-03-28T12:07:35.009Z</time></trkpt><trkpt lat="44.51913" lon="9.0564"><ele>455.0</ele><time>2026-03-28T12:07:36.009Z</time></trkpt><trkpt lat="44.5190117" lon="9.05645"><ele>455.0</ele><time>2026-03-28T12:07:37.009Z</time></trkpt><trkpt lat="44.5188783" lon="9.0564617"><ele>455.0</ele><time>2026-03-28T12:07:38.009Z</time></trkpt><trkpt lat="44.5187433" lon="9.05648"><ele>455.0</ele><time>2026-03-28T12:07:39.009Z</time></trkpt><trkpt lat="44.518605" lon="9.0564917"><ele>452.75</ele><time>2026-03-28T12:07:40.009Z</time></trkpt><trkpt lat="44.5184683" lon="9.05652"><ele>450.5</ele><time>2026-03-28T12:07:41.009Z</time></trkpt><trkpt lat="44.5183267" lon="9.0565317"><ele>448.25</ele><time>2026-03-28T12:07:42.009Z</time></trkpt><trkpt lat="44.5181783" lon="9.0565567"><ele>446.0</ele><time>2026-03-28T12:07:43.009Z</time></trkpt><trkpt lat="44.5180267" lon="9.0565867"><ele>447.75</ele><time>2026-03-28T12:07:44.008Z</time></trkpt><trkpt lat="44.517875" lon="9.0566233"><ele>449.5</ele><time>2026-03-28T12:07:45.009Z</time></trkpt><trkpt lat="44.5177433" lon="9.0566483"><ele>451.25</ele><time>2026-03-28T12:07:46.009Z</time></trkpt><trkpt lat="44.5176233" lon="9.0566717"><ele>453.0</ele><time>2026-03-28T12:07:47.009Z</time></trkpt><trkpt lat="44.5175233" lon="9.05671"><ele>453.0</ele><time>2026-03-28T12:07:48.009Z</time></trkpt><trkpt lat="44.5174417" lon="9.0567767"><ele>453.0</ele><time>2026-03-28T12:07:49.009Z</time></trkpt><trkpt lat="44.5173767" lon="9.0569083"><ele>453.0</ele><time>2026-03-28T12:07:50.009Z</time></trkpt><trkpt lat="44.51733" lon="9.0570583"><ele>453.0</ele><time>2026-03-28T12:07:51.008Z</time></trkpt><trkpt lat="44.51728" lon="9.0572217"><ele>453.0</ele><time>2026-03-28T12:07:52.009Z</time></trkpt><trkpt lat="44.5172417" lon="9.0573883"><ele>452.99999999999994</ele><time>2026-03-28T12:07:53.009Z</time></trkpt><trkpt lat="44.5171933" lon="9.05753"><ele>452.99999999999994</ele><time>2026-03-28T12:07:54.009Z</time></trkpt><trkpt lat="44.517145" lon="9.0576717"><ele>453.0</ele><time>2026-03-28T12:07:55.009Z</time></trkpt><trkpt lat="44.5171083" lon="9.0577867"><ele>453.0</ele><time>2026-03-28T12:07:56.009Z</time></trkpt><trkpt lat="44.51706" lon="9.05788"><ele>452.6666666666667</ele><time>2026-03-28T12:07:57.009Z</time></trkpt><trkpt lat="44.5169967" lon="9.0579783"><ele>452.33333333333337</ele><time>2026-03-28T12:07:58.009Z</time></trkpt><trkpt lat="44.516935" lon="9.05808"><ele>452.0</ele><time>2026-03-28T12:07:59.009Z</time></trkpt><trkpt lat="44.5168783" lon="9.0581867"><ele>451.6666666666667</ele><time>2026-03-28T12:08:00.008Z</time></trkpt><trkpt lat="44.5168483" lon="9.0582867"><ele>451.33333333333337</ele><time>2026-03-28T12:08:01.009Z</time></trkpt><trkpt lat="44.516815" lon="9.0583967"><ele>451.0</ele><time>2026-03-28T12:08:02.009Z</time></trkpt><trkpt lat="44.516785" lon="9.0585"><ele>451.8</ele><time>2026-03-28T12:08:03.009Z</time></trkpt><trkpt lat="44.5167517" lon="9.0586117"><ele>452.6</ele><time>2026-03-28T12:08:04.009Z</time></trkpt><trkpt lat="44.516715" lon="9.0587167"><ele>453.4</ele><time>2026-03-28T12:08:05.008Z</time></trkpt><trkpt lat="44.51667" lon="9.0588383"><ele>454.2</ele><time>2026-03-28T12:08:06.009Z</time></trkpt><trkpt lat="44.5166283" lon="9.0589617"><ele>455.0</ele><time>2026-03-28T12:08:07.008Z</time></trkpt><trkpt lat="44.5165833" lon="9.059095"><ele>456.2</ele><time>2026-03-28T12:08:08.009Z</time></trkpt><trkpt lat="44.5165367" lon="9.0592267"><ele>457.4</ele><time>2026-03-28T12:08:09.009Z</time></trkpt><trkpt lat="44.5164883" lon="9.0593617"><ele>458.6</ele><time>2026-03-28T12:08:10.009Z</time></trkpt><trkpt lat="44.5164367" lon="9.0594867"><ele>459.8</ele><time>2026-03-28T12:08:11.009Z</time></trkpt><trkpt lat="44.5163717" lon="9.0596133"><ele>461.0</ele><time>2026-03-28T12:08:12.008Z</time></trkpt><trkpt lat="44.51631" lon="9.05974"><ele>459.5</ele><time>2026-03-28T12:08:13.009Z</time></trkpt><trkpt lat="44.51623" lon="9.0598617"><ele>458.0</ele><time>2026-03-28T12:08:14.009Z</time></trkpt><trkpt lat="44.516145" lon="9.059985"><ele>456.5</ele><time>2026-03-28T12:08:15.009Z</time></trkpt><trkpt lat="44.516055" lon="9.060105"><ele>455.0</ele><time>2026-03-28T12:08:16.009Z</time></trkpt><trkpt lat="44.515945" lon="9.0602233"><ele>455.0</ele><time>2026-03-28T12:08:17.009Z</time></trkpt><trkpt lat="44.5158417" lon="9.06031"><ele>455.0</ele><time>2026-03-28T12:08:18.009Z</time></trkpt><trkpt lat="44.515755" lon="9.060395"><ele>455.0</ele><time>2026-03-28T12:08:19.009Z</time></trkpt><trkpt lat="44.5156683" lon="9.0605033"><ele>455.0</ele><time>2026-03-28T12:08:20.009Z</time></trkpt><trkpt lat="44.5155967" lon="9.0606283"><ele>455.0</ele><time>2026-03-28T12:08:21.008Z</time></trkpt><trkpt lat="44.5155317" lon="9.0607683"><ele>455.0</ele><time>2026-03-28T12:08:22.009Z</time></trkpt><trkpt lat="44.5154717" lon="9.060925"><ele>455.0</ele><time>2026-03-28T12:08:23.009Z</time></trkpt><trkpt lat="44.5154133" lon="9.0610733"><ele>455.0</ele><time>2026-03-28T12:08:24.008Z</time></trkpt><trkpt lat="44.5153733" lon="9.0612333"><ele>454.75</ele><time>2026-03-28T12:08:25.008Z</time></trkpt><trkpt lat="44.51536" lon="9.0614017"><ele>454.5</ele><time>2026-03-28T12:08:26.009Z</time></trkpt><trkpt lat="44.51536" lon="9.0615817"><ele>454.25</ele><time>2026-03-28T12:08:27.009Z</time></trkpt><trkpt lat="44.515365" lon="9.06176"><ele>454.0</ele><time>2026-03-28T12:08:28.009Z</time></trkpt><trkpt lat="44.5153533" lon="9.06194"><ele>454.75</ele><time>2026-03-28T12:08:29.009Z</time></trkpt><trkpt lat="44.5153317" lon="9.0621117"><ele>455.5</ele><time>2026-03-28T12:08:30.009Z</time></trkpt><trkpt lat="44.5153067" lon="9.0622917"><ele>456.25</ele><time>2026-03-28T12:08:31.009Z</time></trkpt><trkpt lat="44.5152917" lon="9.0624683"><ele>457.0</ele><time>2026-03-28T12:08:32.009Z</time></trkpt><trkpt lat="44.51527" lon="9.0626517"><ele>457.75</ele><time>2026-03-28T12:08:33.009Z</time></trkpt><trkpt lat="44.5152467" lon="9.0628433"><ele>458.5</ele><time>2026-03-28T12:08:34.008Z</time></trkpt><trkpt lat="44.5152083" lon="9.06303"><ele>459.25</ele><time>2026-03-28T12:08:35.009Z</time></trkpt><trkpt lat="44.51517" lon="9.06323"><ele>460.0</ele><time>2026-03-28T12:08:36.009Z</time></trkpt><trkpt lat="44.5151333" lon="9.06344"><ele>461.0</ele><time>2026-03-28T12:08:37.009Z</time></trkpt><trkpt lat="44.5151" lon="9.0636583"><ele>462.0</ele><time>2026-03-28T12:08:38.009Z</time></trkpt><trkpt lat="44.5150683" lon="9.06387"><ele>463.0</ele><time>2026-03-28T12:08:39.009Z</time></trkpt><trkpt lat="44.5150317" lon="9.0640833"><ele>465.33333333333337</ele><time>2026-03-28T12:08:40.009Z</time></trkpt><trkpt lat="44.51499" lon="9.0642883"><ele>467.66666666666663</ele><time>2026-03-28T12:08:41.009Z</time></trkpt><trkpt lat="44.51495" lon="9.064505"><ele>470.0</ele><time>2026-03-28T12:08:42.009Z</time></trkpt><trkpt lat="44.5149017" lon="9.064715"><ele>470.0</ele><time>2026-03-28T12:08:43.009Z</time></trkpt><trkpt lat="44.51483" lon="9.0649317"><ele>470.0</ele><time>2026-03-28T12:08:44.009Z</time></trkpt><trkpt lat="44.5147533" lon="9.065135"><ele>470.0</ele><time>2026-03-28T12:08:45.009Z</time></trkpt><trkpt lat="44.5146817" lon="9.0653267"><ele>469.5</ele><time>2026-03-28T12:08:46.009Z</time></trkpt><trkpt lat="44.5146233" lon="9.0655083"><ele>469.0</ele><time>2026-03-28T12:08:47.009Z</time></trkpt><trkpt lat="44.514565" lon="9.065675"><ele>468.5</ele><time>2026-03-28T12:08:48.009Z</time></trkpt><trkpt lat="44.5145083" lon="9.06584"><ele>468.0</ele><time>2026-03-28T12:08:49.008Z</time></trkpt><trkpt lat="44.5144467" lon="9.0659817"><ele>468.0</ele><time>2026-03-28T12:08:50.009Z</time></trkpt><trkpt lat="44.5143633" lon="9.0661017"><ele>468.0</ele><time>2026-03-28T12:08:51.009Z</time></trkpt><trkpt lat="44.514245" lon="9.066165"><ele>468.0</ele><time>2026-03-28T12:08:52.009Z</time></trkpt><trkpt lat="44.5141117" lon="9.0661767"><ele>468.0</ele><time>2026-03-28T12:08:53.009Z</time></trkpt><trkpt lat="44.5139667" lon="9.0661567"><ele>468.0</ele><time>2026-03-28T12:08:54.008Z</time></trkpt><trkpt lat="44.5138283" lon="9.0661217"><ele>468.0</ele><time>2026-03-28T12:08:55.009Z</time></trkpt><trkpt lat="44.51369" lon="9.0660967"><ele>468.0</ele><time>2026-03-28T12:08:56.009Z</time></trkpt><trkpt lat="44.5135517" lon="9.0660567"><ele>468.0</ele><time>2026-03-28T12:08:57.009Z</time></trkpt><trkpt lat="44.5134133" lon="9.06601"><ele>468.25</ele><time>2026-03-28T12:08:58.009Z</time></trkpt><trkpt lat="44.5132617" lon="9.065975"><ele>468.5</ele><time>2026-03-28T12:08:59.008Z</time></trkpt><trkpt lat="44.5131233" lon="9.0659417"><ele>468.75</ele><time>2026-03-28T12:09:00.009Z</time></trkpt><trkpt lat="44.5129867" lon="9.0659033"><ele>469.0</ele><time>2026-03-28T12:09:01.008Z</time></trkpt><trkpt lat="44.5128583" lon="9.0658617"><ele>469.0</ele><time>2026-03-28T12:09:02.009Z</time></trkpt><trkpt lat="44.51273" lon="9.0658483"><ele>469.0</ele><time>2026-03-28T12:09:03.009Z</time></trkpt><trkpt lat="44.5126083" lon="9.065885"><ele>469.0</ele><time>2026-03-28T12:09:04.009Z</time></trkpt><trkpt lat="44.5124917" lon="9.0659667"><ele>469.0</ele><time>2026-03-28T12:09:05.009Z</time></trkpt><trkpt lat="44.5123967" lon="9.0660967"><ele>469.0</ele><time>2026-03-28T12:09:06.009Z</time></trkpt><trkpt lat="44.5123133" lon="9.0662683"><ele>469.0</ele><time>2026-03-28T12:09:07.009Z</time></trkpt><trkpt lat="44.5122533" lon="9.06645"><ele>469.0</ele><time>2026-03-28T12:09:08.009Z</time></trkpt><trkpt lat="44.5121983" lon="9.0666233"><ele>469.0</ele><time>2026-03-28T12:09:09.009Z</time></trkpt><trkpt lat="44.5121417" lon="9.0667983"><ele>470.0</ele><time>2026-03-28T12:09:10.009Z</time></trkpt><trkpt lat="44.512085" lon="9.06698"><ele>471.0</ele><time>2026-03-28T12:09:11.009Z</time></trkpt><trkpt lat="44.5120533" lon="9.067165"><ele>472.0</ele><time>2026-03-28T12:09:12.009Z</time></trkpt><trkpt lat="44.5120383" lon="9.06737"><ele>473.0</ele><time>2026-03-28T12:09:13.009Z</time></trkpt><trkpt lat="44.5120533" lon="9.0675767"><ele>481.5</ele><time>2026-03-28T12:09:14.008Z</time></trkpt><trkpt lat="44.51208" lon="9.0677717"><ele>490.0</ele><time>2026-03-28T12:09:15.009Z</time></trkpt><trkpt lat="44.5121233" lon="9.0679617"><ele>498.5</ele><time>2026-03-28T12:09:16.009Z</time></trkpt><trkpt lat="44.51217" lon="9.0681567"><ele>507.0</ele><time>2026-03-28T12:09:17.009Z</time></trkpt><trkpt lat="44.51221" lon="9.0683567"><ele>507.0</ele><time>2026-03-28T12:09:18.009Z</time></trkpt><trkpt lat="44.51225" lon="9.068565"><ele>507.0</ele><time>2026-03-28T12:09:19.009Z</time></trkpt><trkpt lat="44.512285" lon="9.06877"><ele>507.0</ele><time>2026-03-28T12:09:20.009Z</time></trkpt><trkpt lat="44.5123183" lon="9.0689817"><ele>504.0</ele><time>2026-03-28T12:09:21.009Z</time></trkpt><trkpt lat="44.51235" lon="9.0691983"><ele>501.0</ele><time>2026-03-28T12:09:22.009Z</time></trkpt><trkpt lat="44.512375" lon="9.0694317"><ele>498.0</ele><time>2026-03-28T12:09:23.009Z</time></trkpt><trkpt lat="44.5124117" lon="9.0696517"><ele>498.0</ele><time>2026-03-28T12:09:24.009Z</time></trkpt><trkpt lat="44.5124467" lon="9.0698817"><ele>498.0</ele><time>2026-03-28T12:09:25.009Z</time></trkpt><trkpt lat="44.5124767" lon="9.0701267"><ele>498.0</ele><time>2026-03-28T12:09:26.009Z</time></trkpt><trkpt lat="44.5124983" lon="9.07036"><ele>495.0</ele><time>2026-03-28T12:09:27.009Z</time></trkpt><trkpt lat="44.5125083" lon="9.0705883"><ele>492.0</ele><time>2026-03-28T12:09:28.009Z</time></trkpt><trkpt lat="44.5125083" lon="9.0708117"><ele>489.0</ele><time>2026-03-28T12:09:29.009Z</time></trkpt><trkpt lat="44.5125" lon="9.07103"><ele>488.0</ele><time>2026-03-28T12:09:30.009Z</time></trkpt><trkpt lat="44.51248" lon="9.0712317"><ele>487.0</ele><time>2026-03-28T12:09:31.009Z</time></trkpt><trkpt lat="44.5124217" lon="9.0714383"><ele>486.0</ele><time>2026-03-28T12:09:32.009Z</time></trkpt><trkpt lat="44.5123467" lon="9.071635"><ele>486.0</ele><time>2026-03-28T12:09:33.009Z</time></trkpt><trkpt lat="44.51229" lon="9.07183"><ele>486.0</ele><time>2026-03-28T12:09:34.009Z</time></trkpt><trkpt lat="44.51226" lon="9.0720267"><ele>486.0</ele><time>2026-03-28T12:09:35.009Z</time></trkpt><trkpt lat="44.5122667" lon="9.0722117"><ele>486.0</ele><time>2026-03-28T12:09:36.009Z</time></trkpt><trkpt lat="44.5123033" lon="9.0723967"><ele>486.0</ele><time>2026-03-28T12:09:37.009Z</time></trkpt><trkpt lat="44.5123733" lon="9.07256"><ele>486.0</ele><time>2026-03-28T12:09:38.009Z</time></trkpt><trkpt lat="44.5124783" lon="9.0727033"><ele>486.0</ele><time>2026-03-28T12:09:39.008Z</time></trkpt><trkpt lat="44.5125817" lon="9.0728583"><ele>486.0</ele><time>2026-03-28T12:09:40.009Z</time></trkpt><trkpt lat="44.512665" lon="9.0730183"><ele>486.0</ele><time>2026-03-28T12:09:41.009Z</time></trkpt><trkpt lat="44.5127217" lon="9.0731933"><ele>486.0</ele><time>2026-03-28T12:09:42.009Z</time></trkpt><trkpt lat="44.5127483" lon="9.0733867"><ele>486.0</ele><time>2026-03-28T12:09:43.009Z</time></trkpt><trkpt lat="44.51276" lon="9.07358"><ele>486.0</ele><time>2026-03-28T12:09:44.009Z</time></trkpt><trkpt lat="44.5127517" lon="9.0737817"><ele>485.0</ele><time>2026-03-28T12:09:45.009Z</time></trkpt><trkpt lat="44.5127283" lon="9.0739783"><ele>484.0</ele><time>2026-03-28T12:09:46.009Z</time></trkpt><trkpt lat="44.5126967" lon="9.07417"><ele>483.0</ele><time>2026-03-28T12:09:47.009Z</time></trkpt><trkpt lat="44.5126533" lon="9.07437"><ele>482.0</ele><time>2026-03-28T12:09:48.009Z</time></trkpt><trkpt lat="44.5125983" lon="9.074565"><ele>481.5</ele><time>2026-03-28T12:09:49.009Z</time></trkpt><trkpt lat="44.5125517" lon="9.074755"><ele>481.0</ele><time>2026-03-28T12:09:50.008Z</time></trkpt><trkpt lat="44.5124967" lon="9.0749383"><ele>480.5</ele><time>2026-03-28T12:09:51.009Z</time></trkpt><trkpt lat="44.5124367" lon="9.0751317"><ele>480.0</ele><time>2026-03-28T12:09:52.009Z</time></trkpt><trkpt lat="44.5123867" lon="9.0753433"><ele>484.0</ele><time>2026-03-28T12:09:53.009Z</time></trkpt><trkpt lat="44.5123333" lon="9.0755533"><ele>488.0</ele><time>2026-03-28T12:09:54.009Z</time></trkpt><trkpt lat="44.5122817" lon="9.07576"><ele>492.0</ele><time>2026-03-28T12:09:55.009Z</time></trkpt><trkpt lat="44.51223" lon="9.0759633"><ele>495.25</ele><time>2026-03-28T12:09:56.009Z</time></trkpt><trkpt lat="44.5121833" lon="9.0761667"><ele>498.5</ele><time>2026-03-28T12:09:57.009Z</time></trkpt><trkpt lat="44.5121433" lon="9.0763467"><ele>501.75</ele><time>2026-03-28T12:09:58.009Z</time></trkpt><trkpt lat="44.512105" lon="9.076505"><ele>505.0</ele><time>2026-03-28T12:09:59.009Z</time></trkpt><trkpt lat="44.5120533" lon="9.07664"><ele>499.4</ele><time>2026-03-28T12:10:00.009Z</time></trkpt><trkpt lat="44.5119967" lon="9.0767717"><ele>493.8</ele><time>2026-03-28T12:10:01.008Z</time></trkpt><trkpt lat="44.51195" lon="9.076905"><ele>488.20000000000005</ele><time>2026-03-28T12:10:02.009Z</time></trkpt><trkpt lat="44.511895" lon="9.0770217"><ele>482.6</ele><time>2026-03-28T12:10:03.009Z</time></trkpt><trkpt lat="44.5118317" lon="9.0771417"><ele>477.0</ele><time>2026-03-28T12:10:04.009Z</time></trkpt><trkpt lat="44.5117583" lon="9.0772417"><ele>477.0</ele><time>2026-03-28T12:10:05.009Z</time></trkpt><trkpt lat="44.5116883" lon="9.0773467"><ele>477.0</ele><time>2026-03-28T12:10:06.009Z</time></trkpt><trkpt lat="44.511615" lon="9.0774633"><ele>477.0</ele><time>2026-03-28T12:10:07.009Z</time></trkpt><trkpt lat="44.51155" lon="9.0776083"><ele>477.0</ele><time>2026-03-28T12:10:08.009Z</time></trkpt><trkpt lat="44.5114867" lon="9.0777633"><ele>479.75</ele><time>2026-03-28T12:10:09.009Z</time></trkpt><trkpt lat="44.51143" lon="9.0779317"><ele>482.5</ele><time>2026-03-28T12:10:10.009Z</time></trkpt><trkpt lat="44.5113783" lon="9.0781033"><ele>485.25</ele><time>2026-03-28T12:10:11.009Z</time></trkpt><trkpt lat="44.5113317" lon="9.0782633"><ele>488.0</ele><time>2026-03-28T12:10:12.008Z</time></trkpt><trkpt lat="44.5112767" lon="9.078415"><ele>489.0</ele><time>2026-03-28T12:10:13.008Z</time></trkpt><trkpt lat="44.5112133" lon="9.07855"><ele>490.0</ele><time>2026-03-28T12:10:14.009Z</time></trkpt><trkpt lat="44.5111433" lon="9.0786917"><ele>491.0</ele><time>2026-03-28T12:10:15.009Z</time></trkpt><trkpt lat="44.5110767" lon="9.0788167"><ele>492.0</ele><time>2026-03-28T12:10:16.009Z</time></trkpt><trkpt lat="44.5110167" lon="9.07895"><ele>492.0</ele><time>2026-03-28T12:10:17.008Z</time></trkpt><trkpt lat="44.51096" lon="9.0790867"><ele>492.0</ele><time>2026-03-28T12:10:18.009Z</time></trkpt><trkpt lat="44.5109083" lon="9.0792417"><ele>492.0</ele><time>2026-03-28T12:10:19.008Z</time></trkpt><trkpt lat="44.5108617" lon="9.079405"><ele>492.0</ele><time>2026-03-28T12:10:20.008Z</time></trkpt><trkpt lat="44.5108233" lon="9.0795617"><ele>492.0</ele><time>2026-03-28T12:10:21.009Z</time></trkpt><trkpt lat="44.5108033" lon="9.0797017"><ele>492.0</ele><time>2026-03-28T12:10:22.009Z</time></trkpt><trkpt lat="44.5107833" lon="9.0798167"><ele>492.0</ele><time>2026-03-28T12:10:23.009Z</time></trkpt><trkpt lat="44.5107717" lon="9.0799083"><ele>492.0</ele><time>2026-03-28T12:10:24.009Z</time></trkpt><trkpt lat="44.51076" lon="9.0800233"><ele>492.0</ele><time>2026-03-28T12:10:26.008Z</time></trkpt><trkpt lat="44.5107317" lon="9.0801383"><ele>492.0</ele><time>2026-03-28T12:10:28.009Z</time></trkpt><trkpt lat="44.510695" lon="9.0802233"><ele>491.20000000000005</ele><time>2026-03-28T12:10:29.009Z</time></trkpt><trkpt lat="44.51064" lon="9.0803133"><ele>490.40000000000003</ele><time>2026-03-28T12:10:30.009Z</time></trkpt><trkpt lat="44.51057" lon="9.0803867"><ele>489.59999999999997</ele><time>2026-03-28T12:10:31.009Z</time></trkpt><trkpt lat="44.510475" lon="9.0804767"><ele>488.79999999999995</ele><time>2026-03-28T12:10:32.009Z</time></trkpt><trkpt lat="44.5103867" lon="9.0805617"><ele>488.0</ele><time>2026-03-28T12:10:33.009Z</time></trkpt><trkpt lat="44.510295" lon="9.080655"><ele>488.25</ele><time>2026-03-28T12:10:34.009Z</time></trkpt><trkpt lat="44.5102017" lon="9.080765"><ele>488.5</ele><time>2026-03-28T12:10:35.009Z</time></trkpt><trkpt lat="44.5101067" lon="9.08091"><ele>488.75</ele><time>2026-03-28T12:10:36.009Z</time></trkpt><trkpt lat="44.510015" lon="9.0810583"><ele>489.0</ele><time>2026-03-28T12:10:37.008Z</time></trkpt><trkpt lat="44.5099333" lon="9.08121"><ele>489.0</ele><time>2026-03-28T12:10:38.009Z</time></trkpt><trkpt lat="44.5098617" lon="9.0813633"><ele>489.0</ele><time>2026-03-28T12:10:39.009Z</time></trkpt><trkpt lat="44.5098" lon="9.081515"><ele>489.0</ele><time>2026-03-28T12:10:40.008Z</time></trkpt><trkpt lat="44.509755" lon="9.0816533"><ele>489.0</ele><time>2026-03-28T12:10:41.009Z</time></trkpt><trkpt lat="44.50972" lon="9.0818083"><ele>492.25</ele><time>2026-03-28T12:10:42.009Z</time></trkpt><trkpt lat="44.509695" lon="9.08197"><ele>495.5</ele><time>2026-03-28T12:10:43.009Z</time></trkpt><trkpt lat="44.50967" lon="9.08214"><ele>498.75</ele><time>2026-03-28T12:10:44.009Z</time></trkpt><trkpt lat="44.509645" lon="9.0823083"><ele>502.0</ele><time>2026-03-28T12:10:45.009Z</time></trkpt><trkpt lat="44.5096233" lon="9.08247"><ele>502.0</ele><time>2026-03-28T12:10:46.009Z</time></trkpt><trkpt lat="44.5096" lon="9.08261"><ele>502.00000000000006</ele><time>2026-03-28T12:10:47.009Z</time></trkpt><trkpt lat="44.509565" lon="9.0827517"><ele>502.00000000000006</ele><time>2026-03-28T12:10:48.009Z</time></trkpt><trkpt lat="44.5095117" lon="9.0828733"><ele>502.0</ele><time>2026-03-28T12:10:49.009Z</time></trkpt><trkpt lat="44.5094483" lon="9.0829767"><ele>502.0</ele><time>2026-03-28T12:10:50.009Z</time></trkpt><trkpt lat="44.5093967" lon="9.08308"><ele>499.6</ele><time>2026-03-28T12:10:51.008Z</time></trkpt><trkpt lat="44.5093617" lon="9.0831817"><ele>497.20000000000005</ele><time>2026-03-28T12:10:52.008Z</time></trkpt><trkpt lat="44.5093317" lon="9.0833067"><ele>494.8</ele><time>2026-03-28T12:10:53.009Z</time></trkpt><trkpt lat="44.5093233" lon="9.083445"><ele>492.4</ele><time>2026-03-28T12:10:54.009Z</time></trkpt><trkpt lat="44.50934" lon="9.083585"><ele>490.0</ele><time>2026-03-28T12:10:55.008Z</time></trkpt><trkpt lat="44.5093767" lon="9.0837267"><ele>490.0</ele><time>2026-03-28T12:10:56.009Z</time></trkpt><trkpt lat="44.5094367" lon="9.0838433"><ele>490.0</ele><time>2026-03-28T12:10:57.009Z</time></trkpt><trkpt lat="44.5095117" lon="9.0839383"><ele>490.0</ele><time>2026-03-28T12:10:58.009Z</time></trkpt><trkpt lat="44.5096117" lon="9.084"><ele>490.0</ele><time>2026-03-28T12:10:59.009Z</time></trkpt><trkpt lat="44.5097233" lon="9.0840383"><ele>490.0</ele><time>2026-03-28T12:11:00.008Z</time></trkpt><trkpt lat="44.5098383" lon="9.0840833"><ele>491.8</ele><time>2026-03-28T12:11:01.008Z</time></trkpt><trkpt lat="44.5099417" lon="9.0841567"><ele>493.6</ele><time>2026-03-28T12:11:02.009Z</time></trkpt><trkpt lat="44.5100333" lon="9.0842467"><ele>495.4</ele><time>2026-03-28T12:11:03.008Z</time></trkpt><trkpt lat="44.510125" lon="9.08433"><ele>497.2</ele><time>2026-03-28T12:11:04.009Z</time></trkpt><trkpt lat="44.5102117" lon="9.08441"><ele>499.0</ele><time>2026-03-28T12:11:05.009Z</time></trkpt><trkpt lat="44.5102883" lon="9.0844917"><ele>499.0</ele><time>2026-03-28T12:11:06.009Z</time></trkpt><trkpt lat="44.51036" lon="9.08457"><ele>499.0</ele><time>2026-03-28T12:11:07.009Z</time></trkpt><trkpt lat="44.5104133" lon="9.0846733"><ele>499.0</ele><time>2026-03-28T12:11:08.009Z</time></trkpt><trkpt lat="44.51044" lon="9.0848017"><ele>499.0</ele><time>2026-03-28T12:11:09.009Z</time></trkpt><trkpt lat="44.510445" lon="9.0849317"><ele>499.0</ele><time>2026-03-28T12:11:10.009Z</time></trkpt><trkpt lat="44.5104417" lon="9.0850767"><ele>500.00000000000006</ele><time>2026-03-28T12:11:11.009Z</time></trkpt><trkpt lat="44.5104317" lon="9.0852233"><ele>501.0</ele><time>2026-03-28T12:11:12.009Z</time></trkpt><trkpt lat="44.510425" lon="9.0853567"><ele>502.0</ele><time>2026-03-28T12:11:13.009Z</time></trkpt><trkpt lat="44.5104167" lon="9.0854567"><ele>503.0</ele><time>2026-03-28T12:11:14.009Z</time></trkpt><trkpt lat="44.5104217" lon="9.08555"><ele>504.00000000000006</ele><time>2026-03-28T12:11:15.009Z</time></trkpt><trkpt lat="44.510445" lon="9.0856333"><ele>505.0</ele><time>2026-03-28T12:11:16.009Z</time></trkpt><trkpt lat="44.5104767" lon="9.08572"><ele>503.6</ele><time>2026-03-28T12:11:17.008Z</time></trkpt><trkpt lat="44.5105433" lon="9.0857917"><ele>502.2</ele><time>2026-03-28T12:11:18.009Z</time></trkpt><trkpt lat="44.5106433" lon="9.0858317"><ele>500.79999999999995</ele><time>2026-03-28T12:11:19.009Z</time></trkpt><trkpt lat="44.51076" lon="9.08585"><ele>499.4</ele><time>2026-03-28T12:11:20.009Z</time></trkpt><trkpt lat="44.51087" lon="9.08586"><ele>498.0</ele><time>2026-03-28T12:11:21.009Z</time></trkpt><trkpt lat="44.5109733" lon="9.085885"><ele>498.0</ele><time>2026-03-28T12:11:22.009Z</time></trkpt><trkpt lat="44.5110767" lon="9.08591"><ele>497.99999999999994</ele><time>2026-03-28T12:11:23.009Z</time></trkpt><trkpt lat="44.5111767" lon="9.085915"><ele>497.99999999999994</ele><time>2026-03-28T12:11:24.009Z</time></trkpt><trkpt lat="44.5112717" lon="9.0859117"><ele>498.0</ele><time>2026-03-28T12:11:25.009Z</time></trkpt><trkpt lat="44.5113667" lon="9.0858867"><ele>498.0</ele><time>2026-03-28T12:11:26.009Z</time></trkpt><trkpt lat="44.5114483" lon="9.0858617"><ele>499.6666666666667</ele><time>2026-03-28T12:11:27.009Z</time></trkpt><trkpt lat="44.5115267" lon="9.0858533"><ele>501.33333333333337</ele><time>2026-03-28T12:11:28.009Z</time></trkpt><trkpt lat="44.5115933" lon="9.0858733"><ele>503.0</ele><time>2026-03-28T12:11:29.008Z</time></trkpt><trkpt lat="44.5116467" lon="9.0859317"><ele>504.6666666666667</ele><time>2026-03-28T12:11:30.008Z</time></trkpt><trkpt lat="44.511705" lon="9.086085"><ele>506.33333333333337</ele><time>2026-03-28T12:11:32.009Z</time></trkpt><trkpt lat="44.5116867" lon="9.0861917"><ele>508.0</ele><time>2026-03-28T12:11:33.009Z</time></trkpt><trkpt lat="44.5116367" lon="9.0863233"><ele>508.0</ele><time>2026-03-28T12:11:34.008Z</time></trkpt><trkpt lat="44.5115767" lon="9.0864333"><ele>507.99999999999994</ele><time>2026-03-28T12:11:35.009Z</time></trkpt><trkpt lat="44.51151" lon="9.0865417"><ele>507.99999999999994</ele><time>2026-03-28T12:11:36.009Z</time></trkpt><trkpt lat="44.5114583" lon="9.0866433"><ele>508.0</ele><time>2026-03-28T12:11:37.009Z</time></trkpt><trkpt lat="44.5114333" lon="9.0867733"><ele>508.0</ele><time>2026-03-28T12:11:38.009Z</time></trkpt><trkpt lat="44.51142" lon="9.0869133"><ele>509.4</ele><time>2026-03-28T12:11:39.009Z</time></trkpt><trkpt lat="44.511425" lon="9.0870717"><ele>510.79999999999995</ele><time>2026-03-28T12:11:40.009Z</time></trkpt><trkpt lat="44.5114283" lon="9.08724"><ele>512.2</ele><time>2026-03-28T12:11:41.009Z</time></trkpt><trkpt lat="44.5114167" lon="9.0873983"><ele>513.6</ele><time>2026-03-28T12:11:42.009Z</time></trkpt><trkpt lat="44.5113967" lon="9.0875367"><ele>515.0</ele><time>2026-03-28T12:11:43.009Z</time></trkpt><trkpt lat="44.5113467" lon="9.087675"><ele>512.0</ele><time>2026-03-28T12:11:44.009Z</time></trkpt><trkpt lat="44.5112833" lon="9.087775"><ele>509.0</ele><time>2026-03-28T12:11:45.008Z</time></trkpt><trkpt lat="44.5112017" lon="9.0878633"><ele>506.0</ele><time>2026-03-28T12:11:46.009Z</time></trkpt><trkpt lat="44.5111033" lon="9.08794"><ele>503.0</ele><time>2026-03-28T12:11:47.009Z</time></trkpt><trkpt lat="44.51101" lon="9.0880083"><ele>500.0</ele><time>2026-03-28T12:11:48.009Z</time></trkpt><trkpt lat="44.5109133" lon="9.0880733"><ele>500.0</ele><time>2026-03-28T12:11:49.009Z</time></trkpt><trkpt lat="44.5108" lon="9.0881233"><ele>500.0</ele><time>2026-03-28T12:11:50.009Z</time></trkpt><trkpt lat="44.510675" lon="9.088155"><ele>500.0</ele><time>2026-03-28T12:11:51.009Z</time></trkpt><trkpt lat="44.5105517" lon="9.0881867"><ele>500.0</ele><time>2026-03-28T12:11:52.009Z</time></trkpt><trkpt lat="44.510425" lon="9.088225"><ele>503.0</ele><time>2026-03-28T12:11:53.009Z</time></trkpt><trkpt lat="44.510305" lon="9.08827"><ele>506.0</ele><time>2026-03-28T12:11:54.009Z</time></trkpt><trkpt lat="44.5101833" lon="9.0883133"><ele>509.0</ele><time>2026-03-28T12:11:55.009Z</time></trkpt><trkpt lat="44.5100733" lon="9.0883883"><ele>512.0</ele><time>2026-03-28T12:11:56.009Z</time></trkpt><trkpt lat="44.5099467" lon="9.0884233"><ele>512.0</ele><time>2026-03-28T12:11:57.009Z</time></trkpt><trkpt lat="44.509845" lon="9.088495"><ele>512.0</ele><time>2026-03-28T12:11:58.009Z</time></trkpt><trkpt lat="44.5097467" lon="9.0885667"><ele>512.0</ele><time>2026-03-28T12:11:59.009Z</time></trkpt><trkpt lat="44.5096467" lon="9.08862"><ele>512.0</ele><time>2026-03-28T12:12:00.009Z</time></trkpt><trkpt lat="44.509565" lon="9.088665"><ele>512.0</ele><time>2026-03-28T12:12:01.009Z</time></trkpt><trkpt lat="44.5095083" lon="9.0887267"><ele>512.0</ele><time>2026-03-28T12:12:02.009Z</time></trkpt><trkpt lat="44.5094633" lon="9.0888317"><ele>512.0</ele><time>2026-03-28T12:12:03.009Z</time></trkpt><trkpt lat="44.5094383" lon="9.088935"><ele>512.0</ele><time>2026-03-28T12:12:04.009Z</time></trkpt><trkpt lat="44.5094383" lon="9.089025"><ele>512.0</ele><time>2026-03-28T12:12:05.009Z</time></trkpt><trkpt lat="44.50957" lon="9.0891317"><ele>512.0</ele><time>2026-03-28T12:12:07.009Z</time></trkpt><trkpt lat="44.5096733" lon="9.0891483"><ele>512.0</ele><time>2026-03-28T12:12:08.009Z</time></trkpt><trkpt lat="44.50979" lon="9.0891267"><ele>512.0</ele><time>2026-03-28T12:12:09.009Z</time></trkpt><trkpt lat="44.5099" lon="9.089105"><ele>512.0</ele><time>2026-03-28T12:12:10.008Z</time></trkpt><trkpt lat="44.5100067" lon="9.0890917"><ele>512.0</ele><time>2026-03-28T12:12:11.009Z</time></trkpt><trkpt lat="44.5101" lon="9.0891017"><ele>512.0</ele><time>2026-03-28T12:12:12.009Z</time></trkpt><trkpt lat="44.5101883" lon="9.0891433"><ele>512.0</ele><time>2026-03-28T12:12:13.009Z</time></trkpt><trkpt lat="44.5102683" lon="9.0892"><ele>512.0</ele><time>2026-03-28T12:12:14.008Z</time></trkpt><trkpt lat="44.5103583" lon="9.0892783"><ele>512.0</ele><time>2026-03-28T12:12:15.008Z</time></trkpt><trkpt lat="44.5104383" lon="9.08938"><ele>512.0</ele><time>2026-03-28T12:12:16.009Z</time></trkpt><trkpt lat="44.510505" lon="9.0895033"><ele>512.0</ele><time>2026-03-28T12:12:17.008Z</time></trkpt><trkpt lat="44.51055" lon="9.0896583"><ele>517.4</ele><time>2026-03-28T12:12:18.009Z</time></trkpt><trkpt lat="44.5105633" lon="9.0898233"><ele>522.8000000000001</ele><time>2026-03-28T12:12:19.008Z</time></trkpt><trkpt lat="44.5105583" lon="9.08998"><ele>528.2</ele><time>2026-03-28T12:12:20.009Z</time></trkpt><trkpt lat="44.5105417" lon="9.0901317"><ele>533.6</ele><time>2026-03-28T12:12:21.009Z</time></trkpt><trkpt lat="44.5105333" lon="9.0902667"><ele>539.0</ele><time>2026-03-28T12:12:22.009Z</time></trkpt><trkpt lat="44.5105233" lon="9.0903967"><ele>539.0</ele><time>2026-03-28T12:12:23.009Z</time></trkpt><trkpt lat="44.5105167" lon="9.0905267"><ele>539.0</ele><time>2026-03-28T12:12:24.009Z</time></trkpt><trkpt lat="44.5105183" lon="9.090655"><ele>539.0</ele><time>2026-03-28T12:12:25.009Z</time></trkpt><trkpt lat="44.51053" lon="9.0907883"><ele>539.0</ele><time>2026-03-28T12:12:26.009Z</time></trkpt><trkpt lat="44.5105533" lon="9.09092"><ele>539.0</ele><time>2026-03-28T12:12:27.009Z</time></trkpt><trkpt lat="44.51059" lon="9.0910533"><ele>538.1666666666666</ele><time>2026-03-28T12:12:28.009Z</time></trkpt><trkpt lat="44.5106217" lon="9.0911717"><ele>537.3333333333333</ele><time>2026-03-28T12:12:29.008Z</time></trkpt><trkpt lat="44.5106367" lon="9.09128"><ele>536.5</ele><time>2026-03-28T12:12:30.009Z</time></trkpt><trkpt lat="44.51062" lon="9.09139"><ele>535.6666666666666</ele><time>2026-03-28T12:12:31.009Z</time></trkpt><trkpt lat="44.51059" lon="9.0914933"><ele>534.8333333333334</ele><time>2026-03-28T12:12:32.009Z</time></trkpt><trkpt lat="44.5105567" lon="9.0915867"><ele>534.0</ele><time>2026-03-28T12:12:33.009Z</time></trkpt><trkpt lat="44.5105017" lon="9.0916517"><ele>532.3333333333334</ele><time>2026-03-28T12:12:34.009Z</time></trkpt><trkpt lat="44.5104367" lon="9.0916883"><ele>530.6666666666666</ele><time>2026-03-28T12:12:35.008Z</time></trkpt><trkpt lat="44.5103717" lon="9.0917233"><ele>529.0</ele><time>2026-03-28T12:12:36.008Z</time></trkpt><trkpt lat="44.5103083" lon="9.0918017"><ele>527.3333333333333</ele><time>2026-03-28T12:12:37.009Z</time></trkpt><trkpt lat="44.51026" lon="9.0919133"><ele>525.6666666666666</ele><time>2026-03-28T12:12:38.009Z</time></trkpt><trkpt lat="44.51023" lon="9.092035"><ele>524.0</ele><time>2026-03-28T12:12:39.009Z</time></trkpt><trkpt lat="44.510215" lon="9.092175"><ele>522.6</ele><time>2026-03-28T12:12:40.009Z</time></trkpt><trkpt lat="44.5102067" lon="9.0923183"><ele>521.2</ele><time>2026-03-28T12:12:41.009Z</time></trkpt><trkpt lat="44.5102067" lon="9.0924667"><ele>519.8000000000001</ele><time>2026-03-28T12:12:42.009Z</time></trkpt><trkpt lat="44.5102267" lon="9.092625"><ele>518.4</ele><time>2026-03-28T12:12:43.009Z</time></trkpt><trkpt lat="44.5102367" lon="9.092775"><ele>517.0</ele><time>2026-03-28T12:12:44.009Z</time></trkpt><trkpt lat="44.510225" lon="9.092925"><ele>517.0</ele><time>2026-03-28T12:12:45.009Z</time></trkpt><trkpt lat="44.5102" lon="9.093075"><ele>517.0</ele><time>2026-03-28T12:12:46.009Z</time></trkpt><trkpt lat="44.5101917" lon="9.0932167"><ele>517.0</ele><time>2026-03-28T12:12:47.009Z</time></trkpt><trkpt lat="44.51018" lon="9.0933517"><ele>517.0</ele><time>2026-03-28T12:12:48.008Z</time></trkpt><trkpt lat="44.5101517" lon="9.0934767"><ele>517.0</ele><time>2026-03-28T12:12:49.009Z</time></trkpt><trkpt lat="44.510105" lon="9.0935967"><ele>518.2</ele><time>2026-03-28T12:12:50.009Z</time></trkpt><trkpt lat="44.5100317" lon="9.0936983"><ele>519.4000000000001</ele><time>2026-03-28T12:12:51.009Z</time></trkpt><trkpt lat="44.5099433" lon="9.0937733"><ele>520.5999999999999</ele><time>2026-03-28T12:12:52.009Z</time></trkpt><trkpt lat="44.50985" lon="9.0938433"><ele>521.8</ele><time>2026-03-28T12:12:53.009Z</time></trkpt><trkpt lat="44.5097483" lon="9.093915"><ele>523.0</ele><time>2026-03-28T12:12:54.009Z</time></trkpt><trkpt lat="44.509655" lon="9.0939667"><ele>520.4</ele><time>2026-03-28T12:12:55.009Z</time></trkpt><trkpt lat="44.50955" lon="9.094"><ele>517.8</ele><time>2026-03-28T12:12:56.009Z</time></trkpt><trkpt lat="44.5094417" lon="9.0940217"><ele>515.2</ele><time>2026-03-28T12:12:57.009Z</time></trkpt><trkpt lat="44.5093317" lon="9.0940283"><ele>512.6</ele><time>2026-03-28T12:12:58.009Z</time></trkpt><trkpt lat="44.50923" lon="9.09403"><ele>510.0</ele><time>2026-03-28T12:12:59.008Z</time></trkpt><trkpt lat="44.509135" lon="9.0940233"><ele>510.0</ele><time>2026-03-28T12:13:00.009Z</time></trkpt><trkpt lat="44.509045" lon="9.094"><ele>510.0</ele><time>2026-03-28T12:13:01.009Z</time></trkpt><trkpt lat="44.5089467" lon="9.0939617"><ele>510.0</ele><time>2026-03-28T12:13:02.009Z</time></trkpt><trkpt lat="44.5088383" lon="9.0939267"><ele>510.0</ele><time>2026-03-28T12:13:03.009Z</time></trkpt><trkpt lat="44.5087217" lon="9.0938917"><ele>510.0</ele><time>2026-03-28T12:13:04.009Z</time></trkpt><trkpt lat="44.5086167" lon="9.0938617"><ele>509.4</ele><time>2026-03-28T12:13:05.009Z</time></trkpt><trkpt lat="44.5085167" lon="9.0938417"><ele>508.8</ele><time>2026-03-28T12:13:06.009Z</time></trkpt><trkpt lat="44.50842" lon="9.0938333"><ele>508.20000000000005</ele><time>2026-03-28T12:13:07.009Z</time></trkpt><trkpt lat="44.50832" lon="9.0938517"><ele>507.6</ele><time>2026-03-28T12:13:08.009Z</time></trkpt><trkpt lat="44.5082217" lon="9.0939"><ele>507.0</ele><time>2026-03-28T12:13:09.009Z</time></trkpt><trkpt lat="44.508125" lon="9.09398"><ele>507.0</ele><time>2026-03-28T12:13:10.009Z</time></trkpt><trkpt lat="44.50802" lon="9.0940867"><ele>507.0</ele><time>2026-03-28T12:13:11.009Z</time></trkpt><trkpt lat="44.50791" lon="9.09421"><ele>507.0</ele><time>2026-03-28T12:13:12.009Z</time></trkpt><trkpt lat="44.507795" lon="9.0943517"><ele>507.0</ele><time>2026-03-28T12:13:13.009Z</time></trkpt><trkpt lat="44.5076717" lon="9.0944983"><ele>509.0</ele><time>2026-03-28T12:13:14.008Z</time></trkpt><trkpt lat="44.5075483" lon="9.094655"><ele>511.0</ele><time>2026-03-28T12:13:15.009Z</time></trkpt><trkpt lat="44.5074233" lon="9.09481"><ele>513.0</ele><time>2026-03-28T12:13:16.009Z</time></trkpt><trkpt lat="44.5073217" lon="9.094955"><ele>515.0</ele><time>2026-03-28T12:13:17.008Z</time></trkpt><trkpt lat="44.5072383" lon="9.0950617"><ele>517.0</ele><time>2026-03-28T12:13:18.008Z</time></trkpt><trkpt lat="44.5071733" lon="9.0951667"><ele>519.0</ele><time>2026-03-28T12:13:19.009Z</time></trkpt><trkpt lat="44.5071433" lon="9.0953083"><ele>521.0</ele><time>2026-03-28T12:13:20.009Z</time></trkpt><trkpt lat="44.5071333" lon="9.09547"><ele>523.0</ele><time>2026-03-28T12:13:21.009Z</time></trkpt><trkpt lat="44.5071317" lon="9.0956367"><ele>525.5</ele><time>2026-03-28T12:13:22.009Z</time></trkpt><trkpt lat="44.5071383" lon="9.0957967"><ele>528.0</ele><time>2026-03-28T12:13:23.009Z</time></trkpt><trkpt lat="44.5071383" lon="9.0959517"><ele>530.5</ele><time>2026-03-28T12:13:24.009Z</time></trkpt><trkpt lat="44.5071217" lon="9.0961017"><ele>533.0</ele><time>2026-03-28T12:13:25.009Z</time></trkpt><trkpt lat="44.5070817" lon="9.0962717"><ele>529.3333333333333</ele><time>2026-03-28T12:13:26.009Z</time></trkpt><trkpt lat="44.507025" lon="9.096445"><ele>525.6666666666666</ele><time>2026-03-28T12:13:27.009Z</time></trkpt><trkpt lat="44.50694" lon="9.0966367"><ele>522.0</ele><time>2026-03-28T12:13:28.009Z</time></trkpt><trkpt lat="44.5068583" lon="9.096845"><ele>523.0</ele><time>2026-03-28T12:13:29.008Z</time></trkpt><trkpt lat="44.5067933" lon="9.0970533"><ele>524.0</ele><time>2026-03-28T12:13:30.009Z</time></trkpt><trkpt lat="44.5067317" lon="9.09726"><ele>525.0</ele><time>2026-03-28T12:13:31.008Z</time></trkpt><trkpt lat="44.506675" lon="9.0974517"><ele>525.0</ele><time>2026-03-28T12:13:32.009Z</time></trkpt><trkpt lat="44.5065817" lon="9.0976217"><ele>525.0</ele><time>2026-03-28T12:13:33.009Z</time></trkpt><trkpt lat="44.5064783" lon="9.09779"><ele>525.0</ele><time>2026-03-28T12:13:34.008Z</time></trkpt><trkpt lat="44.506375" lon="9.0979233"><ele>525.0</ele><time>2026-03-28T12:13:35.009Z</time></trkpt><trkpt lat="44.5062633" lon="9.098045"><ele>525.0</ele><time>2026-03-28T12:13:36.009Z</time></trkpt><trkpt lat="44.506145" lon="9.0981467"><ele>525.0</ele><time>2026-03-28T12:13:37.008Z</time></trkpt><trkpt lat="44.5060167" lon="9.0982217"><ele>525.0</ele><time>2026-03-28T12:13:38.009Z</time></trkpt><trkpt lat="44.5058933" lon="9.0982767"><ele>524.25</ele><time>2026-03-28T12:13:39.009Z</time></trkpt><trkpt lat="44.5057833" lon="9.098315"><ele>523.5</ele><time>2026-03-28T12:13:40.009Z</time></trkpt><trkpt lat="44.5056483" lon="9.0983717"><ele>522.75</ele><time>2026-03-28T12:13:41.009Z</time></trkpt><trkpt lat="44.5055083" lon="9.098395"><ele>522.0</ele><time>2026-03-28T12:13:42.008Z</time></trkpt><trkpt lat="44.5053817" lon="9.0983917"><ele>520.25</ele><time>2026-03-28T12:13:43.008Z</time></trkpt><trkpt lat="44.50527" lon="9.0984083"><ele>518.5</ele><time>2026-03-28T12:13:44.008Z</time></trkpt><trkpt lat="44.50517" lon="9.09846"><ele>516.75</ele><time>2026-03-28T12:13:45.009Z</time></trkpt><trkpt lat="44.5050717" lon="9.09857"><ele>515.0</ele><time>2026-03-28T12:13:46.009Z</time></trkpt><trkpt lat="44.5049667" lon="9.0986833"><ele>515.0</ele><time>2026-03-28T12:13:47.009Z</time></trkpt><trkpt lat="44.5048633" lon="9.0988267"><ele>515.0</ele><time>2026-03-28T12:13:48.009Z</time></trkpt><trkpt lat="44.5047883" lon="9.0989767"><ele>515.0</ele><time>2026-03-28T12:13:49.009Z</time></trkpt><trkpt lat="44.5047167" lon="9.0991033"><ele>515.0</ele><time>2026-03-28T12:13:50.009Z</time></trkpt><trkpt lat="44.5046583" lon="9.099265"><ele>517.75</ele><time>2026-03-28T12:13:51.009Z</time></trkpt><trkpt lat="44.5046367" lon="9.09944"><ele>520.5</ele><time>2026-03-28T12:13:52.009Z</time></trkpt><trkpt lat="44.504625" lon="9.0996183"><ele>523.25</ele><time>2026-03-28T12:13:53.009Z</time></trkpt><trkpt lat="44.504615" lon="9.0998133"><ele>526.0</ele><time>2026-03-28T12:13:54.008Z</time></trkpt><trkpt lat="44.504605" lon="9.1000167"><ele>525.0</ele><time>2026-03-28T12:13:55.009Z</time></trkpt><trkpt lat="44.5045833" lon="9.10023"><ele>524.0</ele><time>2026-03-28T12:13:56.008Z</time></trkpt><trkpt lat="44.5045667" lon="9.1004433"><ele>523.0</ele><time>2026-03-28T12:13:57.009Z</time></trkpt><trkpt lat="44.5045417" lon="9.100655"><ele>525.3333333333334</ele><time>2026-03-28T12:13:58.009Z</time></trkpt><trkpt lat="44.5045183" lon="9.10087"><ele>527.6666666666666</ele><time>2026-03-28T12:13:59.009Z</time></trkpt><trkpt lat="44.50451" lon="9.101085"><ele>530.0</ele><time>2026-03-28T12:14:00.008Z</time></trkpt><trkpt lat="44.5045167" lon="9.1013"><ele>530.0</ele><time>2026-03-28T12:14:01.009Z</time></trkpt><trkpt lat="44.50453" lon="9.101515"><ele>530.0</ele><time>2026-03-28T12:14:02.009Z</time></trkpt><trkpt lat="44.504545" lon="9.1017267"><ele>530.0</ele><time>2026-03-28T12:14:03.009Z</time></trkpt><trkpt lat="44.504575" lon="9.1019417"><ele>536.0</ele><time>2026-03-28T12:14:04.009Z</time></trkpt><trkpt lat="44.504605" lon="9.1021567"><ele>542.0</ele><time>2026-03-28T12:14:05.009Z</time></trkpt><trkpt lat="44.5046383" lon="9.1023433"><ele>548.0</ele><time>2026-03-28T12:14:06.009Z</time></trkpt><trkpt lat="44.5046533" lon="9.1025317"><ele>554.0</ele><time>2026-03-28T12:14:07.008Z</time></trkpt><trkpt lat="44.504645" lon="9.102715"><ele>555.25</ele><time>2026-03-28T12:14:08.009Z</time></trkpt><trkpt lat="44.5046033" lon="9.1028583"><ele>556.5</ele><time>2026-03-28T12:14:09.009Z</time></trkpt><trkpt lat="44.5045167" lon="9.103015"><ele>557.75</ele><time>2026-03-28T12:14:10.009Z</time></trkpt><trkpt lat="44.50443" lon="9.1031583"><ele>559.0</ele><time>2026-03-28T12:14:11.009Z</time></trkpt><trkpt lat="44.5043533" lon="9.1032983"><ele>551.75</ele><time>2026-03-28T12:14:12.008Z</time></trkpt><trkpt lat="44.5042717" lon="9.103415"><ele>544.5</ele><time>2026-03-28T12:14:13.009Z</time></trkpt><trkpt lat="44.5041717" lon="9.1035083"><ele>537.25</ele><time>2026-03-28T12:14:14.009Z</time></trkpt><trkpt lat="44.50405" lon="9.10355"><ele>530.0</ele><time>2026-03-28T12:14:15.008Z</time></trkpt><trkpt lat="44.5039133" lon="9.1035567"><ele>530.0</ele><time>2026-03-28T12:14:16.009Z</time></trkpt><trkpt lat="44.5037767" lon="9.1035317"><ele>530.0</ele><time>2026-03-28T12:14:17.009Z</time></trkpt><trkpt lat="44.503655" lon="9.103515"><ele>530.0</ele><time>2026-03-28T12:14:18.009Z</time></trkpt><trkpt lat="44.5035217" lon="9.1035333"><ele>530.0</ele><time>2026-03-28T12:14:19.008Z</time></trkpt><trkpt lat="44.50338" lon="9.10356"><ele>529.0</ele><time>2026-03-28T12:14:20.009Z</time></trkpt><trkpt lat="44.5032233" lon="9.1035733"><ele>528.0</ele><time>2026-03-28T12:14:21.009Z</time></trkpt><trkpt lat="44.5030717" lon="9.1035967"><ele>527.0</ele><time>2026-03-28T12:14:22.009Z</time></trkpt><trkpt lat="44.502925" lon="9.1036133"><ele>527.6666666666666</ele><time>2026-03-28T12:14:23.009Z</time></trkpt><trkpt lat="44.502775" lon="9.103635"><ele>528.3333333333334</ele><time>2026-03-28T12:14:24.009Z</time></trkpt><trkpt lat="44.5026283" lon="9.1036783"><ele>529.0</ele><time>2026-03-28T12:14:25.009Z</time></trkpt><trkpt lat="44.502495" lon="9.103775"><ele>529.0</ele><time>2026-03-28T12:14:26.008Z</time></trkpt><trkpt lat="44.5023833" lon="9.1038867"><ele>529.0</ele><time>2026-03-28T12:14:27.009Z</time></trkpt><trkpt lat="44.5022667" lon="9.1040083"><ele>529.0</ele><time>2026-03-28T12:14:28.009Z</time></trkpt><trkpt lat="44.5021767" lon="9.104155"><ele>529.0</ele><time>2026-03-28T12:14:29.009Z</time></trkpt><trkpt lat="44.5021033" lon="9.1043383"><ele>531.0</ele><time>2026-03-28T12:14:30.009Z</time></trkpt><trkpt lat="44.5020433" lon="9.1045333"><ele>533.0</ele><time>2026-03-28T12:14:31.009Z</time></trkpt><trkpt lat="44.5019917" lon="9.1047017"><ele>535.0</ele><time>2026-03-28T12:14:32.009Z</time></trkpt><trkpt lat="44.5019217" lon="9.1048567"><ele>537.0</ele><time>2026-03-28T12:14:33.009Z</time></trkpt><trkpt lat="44.5018267" lon="9.1049783"><ele>538.5</ele><time>2026-03-28T12:14:34.009Z</time></trkpt><trkpt lat="44.5017167" lon="9.1050933"><ele>540.0</ele><time>2026-03-28T12:14:35.009Z</time></trkpt><trkpt lat="44.5016117" lon="9.1052217"><ele>541.5</ele><time>2026-03-28T12:14:36.009Z</time></trkpt><trkpt lat="44.501485" lon="9.1052633"><ele>543.0</ele><time>2026-03-28T12:14:37.008Z</time></trkpt><trkpt lat="44.5013617" lon="9.1053383"><ele>541.0</ele><time>2026-03-28T12:14:38.009Z</time></trkpt><trkpt lat="44.5012317" lon="9.1053883"><ele>539.0</ele><time>2026-03-28T12:14:39.009Z</time></trkpt><trkpt lat="44.5010917" lon="9.1054017"><ele>537.0</ele><time>2026-03-28T12:14:40.009Z</time></trkpt><trkpt lat="44.50095" lon="9.1053967"><ele>535.0</ele><time>2026-03-28T12:14:41.009Z</time></trkpt><trkpt lat="44.5008167" lon="9.1053917"><ele>535.0</ele><time>2026-03-28T12:14:42.008Z</time></trkpt><trkpt lat="44.5006783" lon="9.1053933"><ele>535.0</ele><time>2026-03-28T12:14:43.009Z</time></trkpt><trkpt lat="44.5005567" lon="9.10541"><ele>535.0</ele><time>2026-03-28T12:14:44.009Z</time></trkpt><trkpt lat="44.500485" lon="9.10554"><ele>535.0</ele><time>2026-03-28T12:14:45.008Z</time></trkpt><trkpt lat="44.50044" lon="9.1056717"><ele>541.0</ele><time>2026-03-28T12:14:46.009Z</time></trkpt><trkpt lat="44.5004333" lon="9.1058217"><ele>547.0</ele><time>2026-03-28T12:14:47.009Z</time></trkpt><trkpt lat="44.5004433" lon="9.1059833"><ele>553.0</ele><time>2026-03-28T12:14:48.008Z</time></trkpt><trkpt lat="44.5004633" lon="9.1061517"><ele>559.0</ele><time>2026-03-28T12:14:49.009Z</time></trkpt><trkpt lat="44.5004767" lon="9.106315"><ele>559.0</ele><time>2026-03-28T12:14:50.008Z</time></trkpt><trkpt lat="44.5004883" lon="9.106485"><ele>559.0</ele><time>2026-03-28T12:14:51.009Z</time></trkpt><trkpt lat="44.5004883" lon="9.10667"><ele>559.0</ele><time>2026-03-28T12:14:52.009Z</time></trkpt><trkpt lat="44.5005033" lon="9.1068433"><ele>559.0</ele><time>2026-03-28T12:14:53.009Z</time></trkpt><trkpt lat="44.500515" lon="9.1070167"><ele>562.5</ele><time>2026-03-28T12:14:54.009Z</time></trkpt><trkpt lat="44.5005283" lon="9.1071883"><ele>566.0</ele><time>2026-03-28T12:14:55.009Z</time></trkpt><trkpt lat="44.5005183" lon="9.10735"><ele>569.5</ele><time>2026-03-28T12:14:56.009Z</time></trkpt><trkpt lat="44.50049" lon="9.1075033"><ele>573.0</ele><time>2026-03-28T12:14:57.008Z</time></trkpt><trkpt lat="44.5004217" lon="9.10765"><ele>564.5</ele><time>2026-03-28T12:14:58.009Z</time></trkpt><trkpt lat="44.5003617" lon="9.107795"><ele>556.0</ele><time>2026-03-28T12:14:59.009Z</time></trkpt><trkpt lat="44.500275" lon="9.10791"><ele>547.5</ele><time>2026-03-28T12:15:00.009Z</time></trkpt><trkpt lat="44.5002033" lon="9.1080233"><ele>539.0</ele><time>2026-03-28T12:15:01.009Z</time></trkpt><trkpt lat="44.500105" lon="9.1080867"><ele>539.0</ele><time>2026-03-28T12:15:02.009Z</time></trkpt><trkpt lat="44.500005" lon="9.1081283"><ele>539.0</ele><time>2026-03-28T12:15:03.008Z</time></trkpt><trkpt lat="44.4999033" lon="9.10814"><ele>539.0</ele><time>2026-03-28T12:15:04.009Z</time></trkpt><trkpt lat="44.4997967" lon="9.1081467"><ele>539.0</ele><time>2026-03-28T12:15:05.009Z</time></trkpt><trkpt lat="44.49969" lon="9.1081567"><ele>539.0</ele><time>2026-03-28T12:15:06.009Z</time></trkpt><trkpt lat="44.499595" lon="9.1081983"><ele>539.0</ele><time>2026-03-28T12:15:07.009Z</time></trkpt><trkpt lat="44.499515" lon="9.10829"><ele>539.0</ele><time>2026-03-28T12:15:08.009Z</time></trkpt><trkpt lat="44.4994583" lon="9.10842"><ele>539.0</ele><time>2026-03-28T12:15:09.009Z</time></trkpt><trkpt lat="44.49942" lon="9.1085917"><ele>539.0</ele><time>2026-03-28T12:15:10.009Z</time></trkpt><trkpt lat="44.49939" lon="9.1087533"><ele>539.0</ele><time>2026-03-28T12:15:11.009Z</time></trkpt><trkpt lat="44.499355" lon="9.1089267"><ele>539.0</ele><time>2026-03-28T12:15:12.009Z</time></trkpt><trkpt lat="44.499305" lon="9.10907"><ele>539.0</ele><time>2026-03-28T12:15:13.009Z</time></trkpt><trkpt lat="44.4992533" lon="9.1092183"><ele>539.0</ele><time>2026-03-28T12:15:14.009Z</time></trkpt><trkpt lat="44.4992517" lon="9.109375"><ele>543.4</ele><time>2026-03-28T12:15:15.008Z</time></trkpt><trkpt lat="44.4992567" lon="9.109515"><ele>547.8</ele><time>2026-03-28T12:15:16.009Z</time></trkpt><trkpt lat="44.49927" lon="9.10968"><ele>552.2</ele><time>2026-03-28T12:15:17.009Z</time></trkpt><trkpt lat="44.4992833" lon="9.1098483"><ele>556.6</ele><time>2026-03-28T12:15:18.009Z</time></trkpt><trkpt lat="44.4993083" lon="9.1099967"><ele>561.0</ele><time>2026-03-28T12:15:19.009Z</time></trkpt><trkpt lat="44.499315" lon="9.11012"><ele>561.8</ele><time>2026-03-28T12:15:20.009Z</time></trkpt><trkpt lat="44.49929" lon="9.1102217"><ele>562.6</ele><time>2026-03-28T12:15:21.008Z</time></trkpt><trkpt lat="44.4992217" lon="9.1103117"><ele>563.4</ele><time>2026-03-28T12:15:22.008Z</time></trkpt><trkpt lat="44.4991317" lon="9.1104017"><ele>564.2</ele><time>2026-03-28T12:15:23.009Z</time></trkpt><trkpt lat="44.4990583" lon="9.1104933"><ele>565.0</ele><time>2026-03-28T12:15:24.009Z</time></trkpt><trkpt lat="44.499005" lon="9.110595"><ele>565.0</ele><time>2026-03-28T12:15:25.009Z</time></trkpt><trkpt lat="44.498965" lon="9.1107233"><ele>565.0</ele><time>2026-03-28T12:15:26.009Z</time></trkpt><trkpt lat="44.4989517" lon="9.1108567"><ele>565.0</ele><time>2026-03-28T12:15:27.009Z</time></trkpt><trkpt lat="44.4989783" lon="9.1109933"><ele>565.0</ele><time>2026-03-28T12:15:28.009Z</time></trkpt><trkpt lat="44.4990217" lon="9.1111467"><ele>565.0</ele><time>2026-03-28T12:15:29.009Z</time></trkpt><trkpt lat="44.499075" lon="9.1112983"><ele>565.25</ele><time>2026-03-28T12:15:30.009Z</time></trkpt><trkpt lat="44.499135" lon="9.1114467"><ele>565.5</ele><time>2026-03-28T12:15:31.009Z</time></trkpt><trkpt lat="44.4991617" lon="9.1115933"><ele>565.75</ele><time>2026-03-28T12:15:32.009Z</time></trkpt><trkpt lat="44.4991717" lon="9.111755"><ele>566.0</ele><time>2026-03-28T12:15:33.008Z</time></trkpt><trkpt lat="44.49918" lon="9.1119267"><ele>566.25</ele><time>2026-03-28T12:15:34.009Z</time></trkpt><trkpt lat="44.499205" lon="9.1121217"><ele>566.5</ele><time>2026-03-28T12:15:35.008Z</time></trkpt><trkpt lat="44.4992167" lon="9.112305"><ele>566.75</ele><time>2026-03-28T12:15:36.009Z</time></trkpt><trkpt lat="44.49918" lon="9.1124967"><ele>567.0</ele><time>2026-03-28T12:15:37.008Z</time></trkpt><trkpt lat="44.4991317" lon="9.112655"><ele>570.25</ele><time>2026-03-28T12:15:38.009Z</time></trkpt><trkpt lat="44.4990667" lon="9.112805"><ele>573.5</ele><time>2026-03-28T12:15:39.008Z</time></trkpt><trkpt lat="44.4989883" lon="9.1129517"><ele>576.75</ele><time>2026-03-28T12:15:40.009Z</time></trkpt><trkpt lat="44.4989167" lon="9.1130833"><ele>580.0</ele><time>2026-03-28T12:15:41.009Z</time></trkpt><trkpt lat="44.4988183" lon="9.1131917"><ele>574.6</ele><time>2026-03-28T12:15:42.009Z</time></trkpt><trkpt lat="44.4987233" lon="9.1132683"><ele>569.2</ele><time>2026-03-28T12:15:43.008Z</time></trkpt><trkpt lat="44.4986317" lon="9.113365"><ele>563.8</ele><time>2026-03-28T12:15:44.008Z</time></trkpt><trkpt lat="44.4985717" lon="9.1134783"><ele>558.4</ele><time>2026-03-28T12:15:45.009Z</time></trkpt><trkpt lat="44.498545" lon="9.1136117"><ele>553.0</ele><time>2026-03-28T12:15:46.009Z</time></trkpt><trkpt lat="44.4985583" lon="9.1137533"><ele>553.0</ele><time>2026-03-28T12:15:47.009Z</time></trkpt><trkpt lat="44.4985933" lon="9.1139017"><ele>553.0</ele><time>2026-03-28T12:15:48.009Z</time></trkpt><trkpt lat="44.4986067" lon="9.114055"><ele>553.0</ele><time>2026-03-28T12:15:49.009Z</time></trkpt><trkpt lat="44.4985883" lon="9.1142083"><ele>553.0</ele><time>2026-03-28T12:15:50.009Z</time></trkpt><trkpt lat="44.4985583" lon="9.114375"><ele>554.5</ele><time>2026-03-28T12:15:51.009Z</time></trkpt><trkpt lat="44.498545" lon="9.1145383"><ele>556.0</ele><time>2026-03-28T12:15:52.009Z</time></trkpt><trkpt lat="44.4985383" lon="9.11469"><ele>557.5</ele><time>2026-03-28T12:15:53.008Z</time></trkpt><trkpt lat="44.4985533" lon="9.1148683"><ele>559.0</ele><time>2026-03-28T12:15:54.009Z</time></trkpt><trkpt lat="44.4985583" lon="9.11505"><ele>560.0</ele><time>2026-03-28T12:15:55.008Z</time></trkpt><trkpt lat="44.4985583" lon="9.1152367"><ele>561.0</ele><time>2026-03-28T12:15:56.009Z</time></trkpt><trkpt lat="44.4985567" lon="9.11542"><ele>562.0</ele><time>2026-03-28T12:15:57.009Z</time></trkpt><trkpt lat="44.49853" lon="9.1155967"><ele>563.0</ele><time>2026-03-28T12:15:58.008Z</time></trkpt><trkpt lat="44.4984867" lon="9.1157633"><ele>565.5</ele><time>2026-03-28T12:15:59.008Z</time></trkpt><trkpt lat="44.498435" lon="9.1159433"><ele>568.0</ele><time>2026-03-28T12:16:00.009Z</time></trkpt><trkpt lat="44.49838" lon="9.11611"><ele>570.5</ele><time>2026-03-28T12:16:01.009Z</time></trkpt><trkpt lat="44.4983333" lon="9.1162867"><ele>573.0</ele><time>2026-03-28T12:16:02.009Z</time></trkpt><trkpt lat="44.498295" lon="9.1164567"><ele>577.75</ele><time>2026-03-28T12:16:03.008Z</time></trkpt><trkpt lat="44.49825" lon="9.1166283"><ele>582.5</ele><time>2026-03-28T12:16:04.009Z</time></trkpt><trkpt lat="44.4981883" lon="9.1167867"><ele>587.25</ele><time>2026-03-28T12:16:05.009Z</time></trkpt><trkpt lat="44.4981117" lon="9.1169533"><ele>592.0</ele><time>2026-03-28T12:16:06.009Z</time></trkpt><trkpt lat="44.49803" lon="9.1171067"><ele>592.0</ele><time>2026-03-28T12:16:07.009Z</time></trkpt><trkpt lat="44.4979567" lon="9.1172633"><ele>592.0</ele><time>2026-03-28T12:16:08.009Z</time></trkpt><trkpt lat="44.4978817" lon="9.1174033"><ele>592.0</ele><time>2026-03-28T12:16:09.009Z</time></trkpt><trkpt lat="44.4977817" lon="9.11752"><ele>592.0</ele><time>2026-03-28T12:16:10.009Z</time></trkpt><trkpt lat="44.4976667" lon="9.1176133"><ele>589.5</ele><time>2026-03-28T12:16:11.009Z</time></trkpt><trkpt lat="44.4975617" lon="9.1176983"><ele>587.0</ele><time>2026-03-28T12:16:12.008Z</time></trkpt><trkpt lat="44.4974433" lon="9.1177433"><ele>584.5</ele><time>2026-03-28T12:16:13.009Z</time></trkpt><trkpt lat="44.4973267" lon="9.1178083"><ele>582.0</ele><time>2026-03-28T12:16:14.008Z</time></trkpt><trkpt lat="44.4972267" lon="9.1178633"><ele>582.0</ele><time>2026-03-28T12:16:15.009Z</time></trkpt><trkpt lat="44.4971383" lon="9.1179233"><ele>582.0</ele><time>2026-03-28T12:16:16.009Z</time></trkpt><trkpt lat="44.4970683" lon="9.11803"><ele>582.0</ele><time>2026-03-28T12:16:17.008Z</time></trkpt><trkpt lat="44.4970133" lon="9.1181783"><ele>582.0</ele><time>2026-03-28T12:16:18.009Z</time></trkpt><trkpt lat="44.4969767" lon="9.1183467"><ele>582.0</ele><time>2026-03-28T12:16:19.009Z</time></trkpt><trkpt lat="44.4969483" lon="9.1184917"><ele>579.4</ele><time>2026-03-28T12:16:20.009Z</time></trkpt><trkpt lat="44.49695" lon="9.1186333"><ele>576.8000000000001</ele><time>2026-03-28T12:16:21.008Z</time></trkpt><trkpt lat="44.4969617" lon="9.1187583"><ele>574.2</ele><time>2026-03-28T12:16:22.009Z</time></trkpt><trkpt lat="44.4969917" lon="9.1188633"><ele>571.6</ele><time>2026-03-28T12:16:23.009Z</time></trkpt><trkpt lat="44.49706" lon="9.1189433"><ele>569.0</ele><time>2026-03-28T12:16:24.009Z</time></trkpt><trkpt lat="44.4971667" lon="9.1189783"><ele>575.6</ele><time>2026-03-28T12:16:25.009Z</time></trkpt><trkpt lat="44.4972733" lon="9.119015"><ele>582.2</ele><time>2026-03-28T12:16:26.009Z</time></trkpt><trkpt lat="44.4973783" lon="9.119065"><ele>588.8000000000001</ele><time>2026-03-28T12:16:27.009Z</time></trkpt><trkpt lat="44.4974567" lon="9.1191217"><ele>595.4</ele><time>2026-03-28T12:16:28.009Z</time></trkpt><trkpt lat="44.4975183" lon="9.119205"><ele>602.0</ele><time>2026-03-28T12:16:29.009Z</time></trkpt><trkpt lat="44.4975383" lon="9.1193133"><ele>602.0</ele><time>2026-03-28T12:16:30.009Z</time></trkpt><trkpt lat="44.4975567" lon="9.1194467"><ele>602.0</ele><time>2026-03-28T12:16:31.009Z</time></trkpt><trkpt lat="44.4975467" lon="9.1195967"><ele>602.0</ele><time>2026-03-28T12:16:32.009Z</time></trkpt><trkpt lat="44.4975367" lon="9.1197617"><ele>602.0</ele><time>2026-03-28T12:16:33.009Z</time></trkpt><trkpt lat="44.4975233" lon="9.11994"><ele>602.4</ele><time>2026-03-28T12:16:34.008Z</time></trkpt><trkpt lat="44.4975" lon="9.1201067"><ele>602.8000000000001</ele><time>2026-03-28T12:16:35.009Z</time></trkpt><trkpt lat="44.4974817" lon="9.1202717"><ele>603.2</ele><time>2026-03-28T12:16:36.009Z</time></trkpt><trkpt lat="44.497445" lon="9.1204067"><ele>603.6</ele><time>2026-03-28T12:16:37.008Z</time></trkpt><trkpt lat="44.4973717" lon="9.12051"><ele>604.0</ele><time>2026-03-28T12:16:38.009Z</time></trkpt><trkpt lat="44.49728" lon="9.1205933"><ele>604.0</ele><time>2026-03-28T12:16:39.009Z</time></trkpt><trkpt lat="44.4971767" lon="9.1206617"><ele>604.0</ele><time>2026-03-28T12:16:40.008Z</time></trkpt><trkpt lat="44.4970967" lon="9.1207633"><ele>604.0</ele><time>2026-03-28T12:16:41.009Z</time></trkpt><trkpt lat="44.4970283" lon="9.1208983"><ele>604.0</ele><time>2026-03-28T12:16:42.009Z</time></trkpt><trkpt lat="44.4969983" lon="9.1210667"><ele>605.5</ele><time>2026-03-28T12:16:43.008Z</time></trkpt><trkpt lat="44.4970033" lon="9.1212467"><ele>607.0</ele><time>2026-03-28T12:16:44.009Z</time></trkpt><trkpt lat="44.49703" lon="9.121405"><ele>608.5</ele><time>2026-03-28T12:16:45.009Z</time></trkpt><trkpt lat="44.497075" lon="9.121555"><ele>610.0</ele><time>2026-03-28T12:16:46.009Z</time></trkpt><trkpt lat="44.4971433" lon="9.1217267"><ele>610.0</ele><time>2026-03-28T12:16:47.008Z</time></trkpt><trkpt lat="44.4972433" lon="9.1218833"><ele>610.0</ele><time>2026-03-28T12:16:48.009Z</time></trkpt><trkpt lat="44.4973533" lon="9.1220383"><ele>610.0</ele><time>2026-03-28T12:16:49.009Z</time></trkpt><trkpt lat="44.497465" lon="9.122185"><ele>610.0</ele><time>2026-03-28T12:16:50.008Z</time></trkpt><trkpt lat="44.4975833" lon="9.1223433"><ele>610.0</ele><time>2026-03-28T12:16:51.009Z</time></trkpt><trkpt lat="44.4976867" lon="9.12251"><ele>610.0</ele><time>2026-03-28T12:16:52.008Z</time></trkpt><trkpt lat="44.4977883" lon="9.122675"><ele>607.75</ele><time>2026-03-28T12:16:53.009Z</time></trkpt><trkpt lat="44.497885" lon="9.1228283"><ele>605.5</ele><time>2026-03-28T12:16:54.008Z</time></trkpt><trkpt lat="44.4979733" lon="9.1229867"><ele>603.25</ele><time>2026-03-28T12:16:55.009Z</time></trkpt><trkpt lat="44.4980717" lon="9.123145"><ele>601.0</ele><time>2026-03-28T12:16:56.009Z</time></trkpt><trkpt lat="44.4981817" lon="9.12329"><ele>601.0</ele><time>2026-03-28T12:16:57.009Z</time></trkpt><trkpt lat="44.498295" lon="9.12342"><ele>601.0</ele><time>2026-03-28T12:16:58.009Z</time></trkpt><trkpt lat="44.4983767" lon="9.1235567"><ele>601.0</ele><time>2026-03-28T12:16:59.009Z</time></trkpt><trkpt lat="44.4984383" lon="9.1237067"><ele>601.0</ele><time>2026-03-28T12:17:00.009Z</time></trkpt><trkpt lat="44.4984867" lon="9.1238733"><ele>601.0</ele><time>2026-03-28T12:17:01.009Z</time></trkpt><trkpt lat="44.4985117" lon="9.124055"><ele>601.0</ele><time>2026-03-28T12:17:02.009Z</time></trkpt><trkpt lat="44.4985383" lon="9.12424"><ele>601.0</ele><time>2026-03-28T12:17:03.009Z</time></trkpt><trkpt lat="44.4985467" lon="9.1244283"><ele>601.0</ele><time>2026-03-28T12:17:04.009Z</time></trkpt><trkpt lat="44.4985583" lon="9.1246117"><ele>598.25</ele><time>2026-03-28T12:17:05.009Z</time></trkpt><trkpt lat="44.49854" lon="9.124785"><ele>595.5</ele><time>2026-03-28T12:17:06.009Z</time></trkpt><trkpt lat="44.4985033" lon="9.1249533"><ele>592.75</ele><time>2026-03-28T12:17:07.008Z</time></trkpt><trkpt lat="44.4984467" lon="9.1251283"><ele>590.0</ele><time>2026-03-28T12:17:08.009Z</time></trkpt><trkpt lat="44.498395" lon="9.1252967"><ele>589.5</ele><time>2026-03-28T12:17:09.009Z</time></trkpt><trkpt lat="44.4983483" lon="9.1254483"><ele>589.0</ele><time>2026-03-28T12:17:10.008Z</time></trkpt><trkpt lat="44.4982867" lon="9.1255767"><ele>588.5</ele><time>2026-03-28T12:17:11.009Z</time></trkpt><trkpt lat="44.4982067" lon="9.1256883"><ele>588.0</ele><time>2026-03-28T12:17:12.009Z</time></trkpt><trkpt lat="44.49811" lon="9.1257683"><ele>588.75</ele><time>2026-03-28T12:17:13.009Z</time></trkpt><trkpt lat="44.4979917" lon="9.12582"><ele>589.5</ele><time>2026-03-28T12:17:14.009Z</time></trkpt><trkpt lat="44.4978717" lon="9.125815"><ele>590.25</ele><time>2026-03-28T12:17:15.009Z</time></trkpt><trkpt lat="44.4977583" lon="9.125755"><ele>591.0</ele><time>2026-03-28T12:17:16.008Z</time></trkpt><trkpt lat="44.4976433" lon="9.125655"><ele>591.0</ele><time>2026-03-28T12:17:17.009Z</time></trkpt><trkpt lat="44.49755" lon="9.1255217"><ele>591.0</ele><time>2026-03-28T12:17:18.009Z</time></trkpt><trkpt lat="44.49746" lon="9.1253783"><ele>591.0</ele><time>2026-03-28T12:17:19.009Z</time></trkpt><trkpt lat="44.4974033" lon="9.1252167"><ele>591.0</ele><time>2026-03-28T12:17:20.009Z</time></trkpt><trkpt lat="44.4973767" lon="9.1250417"><ele>589.5</ele><time>2026-03-28T12:17:21.009Z</time></trkpt><trkpt lat="44.49735" lon="9.1248683"><ele>588.0</ele><time>2026-03-28T12:17:22.009Z</time></trkpt><trkpt lat="44.4973217" lon="9.1247083"><ele>586.5</ele><time>2026-03-28T12:17:23.009Z</time></trkpt><trkpt lat="44.4972633" lon="9.1245533"><ele>585.0</ele><time>2026-03-28T12:17:24.008Z</time></trkpt><trkpt lat="44.4971917" lon="9.1243967"><ele>585.0</ele><time>2026-03-28T12:17:25.009Z</time></trkpt><trkpt lat="44.49711" lon="9.1242367"><ele>585.0</ele><time>2026-03-28T12:17:26.009Z</time></trkpt><trkpt lat="44.4970283" lon="9.12407"><ele>585.0</ele><time>2026-03-28T12:17:27.009Z</time></trkpt><trkpt lat="44.4969517" lon="9.123915"><ele>585.0</ele><time>2026-03-28T12:17:28.009Z</time></trkpt><trkpt lat="44.4968717" lon="9.1237667"><ele>585.2</ele><time>2026-03-28T12:17:29.009Z</time></trkpt><trkpt lat="44.4967933" lon="9.1236533"><ele>585.4</ele><time>2026-03-28T12:17:30.008Z</time></trkpt><trkpt lat="44.4967067" lon="9.1235817"><ele>585.6</ele><time>2026-03-28T12:17:31.009Z</time></trkpt><trkpt lat="44.496605" lon="9.1235333"><ele>585.8</ele><time>2026-03-28T12:17:32.009Z</time></trkpt><trkpt lat="44.496485" lon="9.1235383"><ele>586.0</ele><time>2026-03-28T12:17:33.009Z</time></trkpt><trkpt lat="44.4963633" lon="9.1235517"><ele>586.0</ele><time>2026-03-28T12:17:34.009Z</time></trkpt><trkpt lat="44.4962533" lon="9.12358"><ele>586.0</ele><time>2026-03-28T12:17:35.008Z</time></trkpt><trkpt lat="44.4961667" lon="9.1236567"><ele>586.0</ele><time>2026-03-28T12:17:36.009Z</time></trkpt><trkpt lat="44.4960767" lon="9.123775"><ele>586.0</ele><time>2026-03-28T12:17:37.009Z</time></trkpt><trkpt lat="44.4959983" lon="9.123915"><ele>588.5</ele><time>2026-03-28T12:17:38.009Z</time></trkpt><trkpt lat="44.49592" lon="9.1240667"><ele>591.0</ele><time>2026-03-28T12:17:39.009Z</time></trkpt><trkpt lat="44.4958433" lon="9.124225"><ele>593.5</ele><time>2026-03-28T12:17:40.009Z</time></trkpt><trkpt lat="44.4957683" lon="9.1243833"><ele>596.0</ele><time>2026-03-28T12:17:41.009Z</time></trkpt><trkpt lat="44.4956833" lon="9.1245567"><ele>596.0</ele><time>2026-03-28T12:17:42.009Z</time></trkpt><trkpt lat="44.4956167" lon="9.1247117"><ele>596.0</ele><time>2026-03-28T12:17:43.009Z</time></trkpt><trkpt lat="44.4955267" lon="9.12484"><ele>596.0</ele><time>2026-03-28T12:17:44.009Z</time></trkpt><trkpt lat="44.4954333" lon="9.1249133"><ele>596.0</ele><time>2026-03-28T12:17:45.009Z</time></trkpt><trkpt lat="44.4953433" lon="9.1249867"><ele>596.0</ele><time>2026-03-28T12:17:46.009Z</time></trkpt><trkpt lat="44.4952917" lon="9.1250683"><ele>596.0</ele><time>2026-03-28T12:17:47.009Z</time></trkpt><trkpt lat="44.4952567" lon="9.125185"><ele>596.0</ele><time>2026-03-28T12:17:48.009Z</time></trkpt><trkpt lat="44.4952467" lon="9.12529"><ele>596.0</ele><time>2026-03-28T12:17:49.009Z</time></trkpt><trkpt lat="44.4952567" lon="9.1253867"><ele>596.0</ele><time>2026-03-28T12:17:50.009Z</time></trkpt><trkpt lat="44.4953217" lon="9.1254783"><ele>596.0</ele><time>2026-03-28T12:17:51.009Z</time></trkpt><trkpt lat="44.495425" lon="9.1255517"><ele>600.5</ele><time>2026-03-28T12:17:52.009Z</time></trkpt><trkpt lat="44.49555" lon="9.12562"><ele>605.0</ele><time>2026-03-28T12:17:53.009Z</time></trkpt><trkpt lat="44.495665" lon="9.1256983"><ele>609.5</ele><time>2026-03-28T12:17:54.008Z</time></trkpt><trkpt lat="44.4957683" lon="9.1257767"><ele>614.0</ele><time>2026-03-28T12:17:55.009Z</time></trkpt><trkpt lat="44.4958683" lon="9.125855"><ele>614.0</ele><time>2026-03-28T12:17:56.009Z</time></trkpt><trkpt lat="44.49595" lon="9.12595"><ele>614.0</ele><time>2026-03-28T12:17:57.009Z</time></trkpt><trkpt lat="44.4960033" lon="9.1260583"><ele>614.0</ele><time>2026-03-28T12:17:58.009Z</time></trkpt><trkpt lat="44.4960267" lon="9.1261983"><ele>614.0</ele><time>2026-03-28T12:17:59.009Z</time></trkpt><trkpt lat="44.496015" lon="9.1263367"><ele>614.0</ele><time>2026-03-28T12:18:00.009Z</time></trkpt><trkpt lat="44.49599" lon="9.1264633"><ele>613.0</ele><time>2026-03-28T12:18:01.009Z</time></trkpt><trkpt lat="44.4959417" lon="9.12661"><ele>612.0</ele><time>2026-03-28T12:18:02.008Z</time></trkpt><trkpt lat="44.4958633" lon="9.1267517"><ele>611.0</ele><time>2026-03-28T12:18:03.009Z</time></trkpt><trkpt lat="44.495775" lon="9.1268967"><ele>610.0</ele><time>2026-03-28T12:18:04.008Z</time></trkpt><trkpt lat="44.4957" lon="9.12704"><ele>610.0</ele><time>2026-03-28T12:18:05.009Z</time></trkpt><trkpt lat="44.495635" lon="9.1271767"><ele>610.0</ele><time>2026-03-28T12:18:06.008Z</time></trkpt><trkpt lat="44.495585" lon="9.127355"><ele>610.0</ele><time>2026-03-28T12:18:07.009Z</time></trkpt><trkpt lat="44.4955483" lon="9.1275283"><ele>610.0</ele><time>2026-03-28T12:18:08.009Z</time></trkpt><trkpt lat="44.4955183" lon="9.1276967"><ele>611.0</ele><time>2026-03-28T12:18:09.009Z</time></trkpt><trkpt lat="44.4955017" lon="9.1278717"><ele>612.0</ele><time>2026-03-28T12:18:10.009Z</time></trkpt><trkpt lat="44.495485" lon="9.1280467"><ele>613.0</ele><time>2026-03-28T12:18:11.009Z</time></trkpt><trkpt lat="44.4954533" lon="9.1282067"><ele>614.0</ele><time>2026-03-28T12:18:12.009Z</time></trkpt><trkpt lat="44.4954117" lon="9.1283683"><ele>614.0</ele><time>2026-03-28T12:18:13.009Z</time></trkpt><trkpt lat="44.4953567" lon="9.1285183"><ele>614.0</ele><time>2026-03-28T12:18:14.009Z</time></trkpt><trkpt lat="44.4952883" lon="9.12865"><ele>614.0</ele><time>2026-03-28T12:18:15.009Z</time></trkpt><trkpt lat="44.495205" lon="9.1287717"><ele>614.0</ele><time>2026-03-28T12:18:16.009Z</time></trkpt><trkpt lat="44.4951133" lon="9.1288967"><ele>614.0</ele><time>2026-03-28T12:18:17.009Z</time></trkpt><trkpt lat="44.4950217" lon="9.1290167"><ele>614.0</ele><time>2026-03-28T12:18:18.008Z</time></trkpt><trkpt lat="44.4949183" lon="9.1291467"><ele>614.0</ele><time>2026-03-28T12:18:19.009Z</time></trkpt><trkpt lat="44.494825" lon="9.1292617"><ele>614.0</ele><time>2026-03-28T12:18:20.009Z</time></trkpt><trkpt lat="44.494735" lon="9.1293583"><ele>616.0</ele><time>2026-03-28T12:18:21.009Z</time></trkpt><trkpt lat="44.494635" lon="9.1294583"><ele>618.0</ele><time>2026-03-28T12:18:22.009Z</time></trkpt><trkpt lat="44.49453" lon="9.129555"><ele>620.0</ele><time>2026-03-28T12:18:23.009Z</time></trkpt><trkpt lat="44.4944317" lon="9.1296767"><ele>622.0</ele><time>2026-03-28T12:18:24.009Z</time></trkpt><trkpt lat="44.4943433" lon="9.1297967"><ele>620.25</ele><time>2026-03-28T12:18:25.009Z</time></trkpt><trkpt lat="44.4942717" lon="9.1299217"><ele>618.5</ele><time>2026-03-28T12:18:26.009Z</time></trkpt><trkpt lat="44.4941817" lon="9.1300267"><ele>616.75</ele><time>2026-03-28T12:18:27.009Z</time></trkpt><trkpt lat="44.494085" lon="9.130135"><ele>615.0</ele><time>2026-03-28T12:18:28.009Z</time></trkpt><trkpt lat="44.4939817" lon="9.1302467"><ele>615.0</ele><time>2026-03-28T12:18:29.009Z</time></trkpt><trkpt lat="44.4938733" lon="9.1303417"><ele>615.0</ele><time>2026-03-28T12:18:30.009Z</time></trkpt><trkpt lat="44.4937533" lon="9.1304217"><ele>615.0</ele><time>2026-03-28T12:18:31.009Z</time></trkpt><trkpt lat="44.4936267" lon="9.1304783"><ele>615.0</ele><time>2026-03-28T12:18:32.009Z</time></trkpt><trkpt lat="44.4934817" lon="9.13052"><ele>611.5</ele><time>2026-03-28T12:18:33.009Z</time></trkpt><trkpt lat="44.4933417" lon="9.130545"><ele>608.0</ele><time>2026-03-28T12:18:34.009Z</time></trkpt><trkpt lat="44.4931967" lon="9.1305683"><ele>604.5</ele><time>2026-03-28T12:18:35.009Z</time></trkpt><trkpt lat="44.49305" lon="9.1305733"><ele>601.0</ele><time>2026-03-28T12:18:36.008Z</time></trkpt><trkpt lat="44.4929167" lon="9.1305733"><ele>599.0</ele><time>2026-03-28T12:18:37.009Z</time></trkpt><trkpt lat="44.4928033" lon="9.1305733"><ele>597.0</ele><time>2026-03-28T12:18:38.009Z</time></trkpt><trkpt lat="44.4927067" lon="9.1305683"><ele>595.0</ele><time>2026-03-28T12:18:39.008Z</time></trkpt><trkpt lat="44.49263" lon="9.13055"><ele>593.0</ele><time>2026-03-28T12:18:40.008Z</time></trkpt><trkpt lat="44.4925667" lon="9.1305033"><ele>591.0</ele><time>2026-03-28T12:18:41.008Z</time></trkpt><trkpt lat="44.4925217" lon="9.1304217"><ele>589.0</ele><time>2026-03-28T12:18:42.009Z</time></trkpt><trkpt lat="44.492505" lon="9.13032"><ele>589.0</ele><time>2026-03-28T12:18:43.009Z</time></trkpt><trkpt lat="44.492505" lon="9.13021"><ele>589.0</ele><time>2026-03-28T12:18:44.009Z</time></trkpt><trkpt lat="44.49254" lon="9.130105"><ele>589.0</ele><time>2026-03-28T12:18:45.009Z</time></trkpt><trkpt lat="44.4926117" lon="9.1300033"><ele>589.0</ele><time>2026-03-28T12:18:46.009Z</time></trkpt><trkpt lat="44.4926967" lon="9.1299417"><ele>589.0</ele><time>2026-03-28T12:18:47.009Z</time></trkpt><trkpt lat="44.492805" lon="9.1299167"><ele>589.0</ele><time>2026-03-28T12:18:48.009Z</time></trkpt><trkpt lat="44.4929117" lon="9.1299367"><ele>589.0</ele><time>2026-03-28T12:18:49.009Z</time></trkpt><trkpt lat="44.4930117" lon="9.130015"><ele>589.0</ele><time>2026-03-28T12:18:50.009Z</time></trkpt><trkpt lat="44.4930867" lon="9.13013"><ele>589.0</ele><time>2026-03-28T12:18:51.009Z</time></trkpt><trkpt lat="44.4931417" lon="9.1302833"><ele>592.0</ele><time>2026-03-28T12:18:52.009Z</time></trkpt><trkpt lat="44.4931783" lon="9.1304567"><ele>595.0</ele><time>2026-03-28T12:18:53.009Z</time></trkpt><trkpt lat="44.4932133" lon="9.13062"><ele>598.0</ele><time>2026-03-28T12:18:54.009Z</time></trkpt><trkpt lat="44.4932567" lon="9.130765"><ele>601.0</ele><time>2026-03-28T12:18:55.009Z</time></trkpt><trkpt lat="44.493305" lon="9.1309167"><ele>604.75</ele><time>2026-03-28T12:18:56.009Z</time></trkpt><trkpt lat="44.4933667" lon="9.1310567"><ele>608.5</ele><time>2026-03-28T12:18:57.009Z</time></trkpt><trkpt lat="44.4934417" lon="9.1311883"><ele>612.25</ele><time>2026-03-28T12:18:58.009Z</time></trkpt><trkpt lat="44.4935367" lon="9.1313033"><ele>616.0</ele><time>2026-03-28T12:18:59.009Z</time></trkpt><trkpt lat="44.49364" lon="9.1314117"><ele>616.0</ele><time>2026-03-28T12:19:00.009Z</time></trkpt><trkpt lat="44.493755" lon="9.1315167"><ele>616.0</ele><time>2026-03-28T12:19:01.009Z</time></trkpt><trkpt lat="44.4938667" lon="9.1316167"><ele>616.0</ele><time>2026-03-28T12:19:02.009Z</time></trkpt><trkpt lat="44.4939783" lon="9.131725"><ele>616.0</ele><time>2026-03-28T12:19:03.009Z</time></trkpt><trkpt lat="44.4941017" lon="9.1318317"><ele>620.5</ele><time>2026-03-28T12:19:04.009Z</time></trkpt><trkpt lat="44.494225" lon="9.1319283"><ele>625.0</ele><time>2026-03-28T12:19:05.009Z</time></trkpt><trkpt lat="44.49435" lon="9.1320283"><ele>629.5</ele><time>2026-03-28T12:19:06.009Z</time></trkpt><trkpt lat="44.4944767" lon="9.1321267"><ele>634.0</ele><time>2026-03-28T12:19:07.009Z</time></trkpt><trkpt lat="44.49461" lon="9.1322183"><ele>636.0</ele><time>2026-03-28T12:19:08.009Z</time></trkpt><trkpt lat="44.494735" lon="9.1323033"><ele>638.0</ele><time>2026-03-28T12:19:09.009Z</time></trkpt><trkpt lat="44.4948617" lon="9.1323917"><ele>640.0</ele><time>2026-03-28T12:19:10.009Z</time></trkpt><trkpt lat="44.4949883" lon="9.13248"><ele>642.0</ele><time>2026-03-28T12:19:11.009Z</time></trkpt><trkpt lat="44.49717" lon="9.1348383"><ele>644.3333333333334</ele><time>2026-03-28T12:19:27.011Z</time></trkpt><trkpt lat="44.4973217" lon="9.1349733"><ele>646.6666666666667</ele><time>2026-03-28T12:19:28.011Z</time></trkpt><trkpt lat="44.4974483" lon="9.1351267"><ele>649.0</ele><time>2026-03-28T12:19:29.011Z</time></trkpt><trkpt lat="44.49757" lon="9.1352817"><ele>649.0</ele><time>2026-03-28T12:19:30.011Z</time></trkpt><trkpt lat="44.4976933" lon="9.1354467"><ele>649.0</ele><time>2026-03-28T12:19:31.011Z</time></trkpt><trkpt lat="44.4978167" lon="9.1355983"><ele>649.0</ele><time>2026-03-28T12:19:32.011Z</time></trkpt><trkpt lat="44.4979383" lon="9.1357533"><ele>651.3333333333334</ele><time>2026-03-28T12:19:33.011Z</time></trkpt><trkpt lat="44.4980533" lon="9.135905"><ele>653.6666666666666</ele><time>2026-03-28T12:19:34.011Z</time></trkpt><trkpt lat="44.4981583" lon="9.1360517"><ele>656.0</ele><time>2026-03-28T12:19:35.011Z</time></trkpt><trkpt lat="44.4982767" lon="9.136195"><ele>656.0</ele><time>2026-03-28T12:19:36.011Z</time></trkpt><trkpt lat="44.498395" lon="9.1363417"><ele>656.0</ele><time>2026-03-28T12:19:37.011Z</time></trkpt><trkpt lat="44.4985083" lon="9.1364883"><ele>656.0</ele><time>2026-03-28T12:19:38.011Z</time></trkpt><trkpt lat="44.4986217" lon="9.1366367"><ele>658.0</ele><time>2026-03-28T12:19:39.011Z</time></trkpt><trkpt lat="44.4987417" lon="9.1367883"><ele>660.0</ele><time>2026-03-28T12:19:40.011Z</time></trkpt><trkpt lat="44.4988583" lon="9.1369433"><ele>662.0</ele><time>2026-03-28T12:19:41.011Z</time></trkpt><trkpt lat="44.4989617" lon="9.1371083"><ele>662.0</ele><time>2026-03-28T12:19:42.011Z</time></trkpt><trkpt lat="44.4990633" lon="9.1372767"><ele>662.0</ele><time>2026-03-28T12:19:43.011Z</time></trkpt><trkpt lat="44.4991667" lon="9.13744"><ele>662.0</ele><time>2026-03-28T12:19:44.011Z</time></trkpt><trkpt lat="44.4992817" lon="9.1375967"><ele>664.0</ele><time>2026-03-28T12:19:45.011Z</time></trkpt><trkpt lat="44.4993883" lon="9.1377617"><ele>666.0</ele><time>2026-03-28T12:19:46.011Z</time></trkpt><trkpt lat="44.4995083" lon="9.13793"><ele>668.0</ele><time>2026-03-28T12:19:47.011Z</time></trkpt><trkpt lat="44.4996233" lon="9.1380983"><ele>670.6666666666666</ele><time>2026-03-28T12:19:48.011Z</time></trkpt><trkpt lat="44.49973" lon="9.1382783"><ele>673.3333333333334</ele><time>2026-03-28T12:19:49.011Z</time></trkpt><trkpt lat="44.4998333" lon="9.1384567"><ele>676.0</ele><time>2026-03-28T12:19:50.011Z</time></trkpt><trkpt lat="44.4999417" lon="9.138635"><ele>676.0</ele><time>2026-03-28T12:19:51.011Z</time></trkpt><trkpt lat="44.5000467" lon="9.138815"><ele>676.0</ele><time>2026-03-28T12:19:52.011Z</time></trkpt><trkpt lat="44.5001533" lon="9.1390033"><ele>676.0</ele><time>2026-03-28T12:19:53.011Z</time></trkpt><trkpt lat="44.5002583" lon="9.1391817"><ele>679.6666666666667</ele><time>2026-03-28T12:19:54.011Z</time></trkpt><trkpt lat="44.5003583" lon="9.1393683"><ele>683.3333333333334</ele><time>2026-03-28T12:19:55.011Z</time></trkpt><trkpt lat="44.5004583" lon="9.139565"><ele>687.0</ele><time>2026-03-28T12:19:56.011Z</time></trkpt><trkpt lat="44.5005633" lon="9.1397617"><ele>692.0</ele><time>2026-03-28T12:19:57.011Z</time></trkpt><trkpt lat="44.50065" lon="9.1399633"><ele>697.0</ele><time>2026-03-28T12:19:58.011Z</time></trkpt><trkpt lat="44.500735" lon="9.14017"><ele>702.0</ele><time>2026-03-28T12:19:59.011Z</time></trkpt><trkpt lat="44.5008333" lon="9.1403883"><ele>702.0</ele><time>2026-03-28T12:20:00.011Z</time></trkpt><trkpt lat="44.5009383" lon="9.140605"><ele>702.0</ele><time>2026-03-28T12:20:01.01Z</time></trkpt><trkpt lat="44.501035" lon="9.14082"><ele>702.0</ele><time>2026-03-28T12:20:02.011Z</time></trkpt><trkpt lat="44.5026883" lon="9.1461617"><ele>701.3333333333334</ele><time>2026-03-28T12:20:24.012Z</time></trkpt><trkpt lat="44.5027417" lon="9.1464117"><ele>700.6666666666667</ele><time>2026-03-28T12:20:25.012Z</time></trkpt><trkpt lat="44.5028033" lon="9.1466683"><ele>700.0</ele><time>2026-03-28T12:20:26.012Z</time></trkpt><trkpt lat="44.5028783" lon="9.1469067"><ele>705.0</ele><time>2026-03-28T12:20:27.012Z</time></trkpt><trkpt lat="44.5029583" lon="9.147135"><ele>710.0</ele><time>2026-03-28T12:20:28.012Z</time></trkpt><trkpt lat="44.5030417" lon="9.1473567"><ele>715.0</ele><time>2026-03-28T12:20:29.012Z</time></trkpt><trkpt lat="44.5031217" lon="9.14757"><ele>715.0</ele><time>2026-03-28T12:20:30.012Z</time></trkpt><trkpt lat="44.5032167" lon="9.1477833"><ele>715.0</ele><time>2026-03-28T12:20:31.012Z</time></trkpt><trkpt lat="44.503315" lon="9.1479767"><ele>715.0</ele><time>2026-03-28T12:20:32.012Z</time></trkpt><trkpt lat="44.5034167" lon="9.1481767"><ele>710.0</ele><time>2026-03-28T12:20:33.012Z</time></trkpt><trkpt lat="44.50353" lon="9.1483683"><ele>705.0</ele><time>2026-03-28T12:20:34.012Z</time></trkpt><trkpt lat="44.5036383" lon="9.1485683"><ele>700.0</ele><time>2026-03-28T12:20:35.012Z</time></trkpt><trkpt lat="44.5037567" lon="9.1487567"><ele>704.0</ele><time>2026-03-28T12:20:36.012Z</time></trkpt><trkpt lat="44.50388" lon="9.1489517"><ele>708.0</ele><time>2026-03-28T12:20:37.011Z</time></trkpt><trkpt lat="44.5040117" lon="9.1491283"><ele>712.0</ele><time>2026-03-28T12:20:38.012Z</time></trkpt><trkpt lat="44.50415" lon="9.1492933"><ele>712.0</ele><time>2026-03-28T12:20:39.012Z</time></trkpt><trkpt lat="44.5042933" lon="9.1494467"><ele>712.0</ele><time>2026-03-28T12:20:40.012Z</time></trkpt><trkpt lat="44.5044483" lon="9.1495917"><ele>712.0</ele><time>2026-03-28T12:20:41.011Z</time></trkpt><trkpt lat="44.5046117" lon="9.14972"><ele>721.0</ele><time>2026-03-28T12:20:42.012Z</time></trkpt><trkpt lat="44.5047583" lon="9.14986"><ele>730.0</ele><time>2026-03-28T12:20:43.012Z</time></trkpt><trkpt lat="44.5049033" lon="9.149995"><ele>739.0</ele><time>2026-03-28T12:20:44.012Z</time></trkpt><trkpt lat="44.5050433" lon="9.15013"><ele>740.5</ele><time>2026-03-28T12:20:45.012Z</time></trkpt><trkpt lat="44.5051817" lon="9.1502717"><ele>742.0</ele><time>2026-03-28T12:20:46.012Z</time></trkpt><trkpt lat="44.506885" lon="9.1519033"><ele>737.3333333333334</ele><time>2026-03-28T12:20:56.009Z</time></trkpt><trkpt lat="44.507045" lon="9.1520317"><ele>732.6666666666666</ele><time>2026-03-28T12:20:57.01Z</time></trkpt><trkpt lat="44.507175" lon="9.152175"><ele>728.0</ele><time>2026-03-28T12:20:58.01Z</time></trkpt><trkpt lat="44.507325" lon="9.152335"><ele>729.6666666666666</ele><time>2026-03-28T12:20:59.01Z</time></trkpt><trkpt lat="44.5074717" lon="9.1524917"><ele>731.3333333333334</ele><time>2026-03-28T12:21:00.01Z</time></trkpt><trkpt lat="44.5076133" lon="9.152645"><ele>733.0</ele><time>2026-03-28T12:21:01.01Z</time></trkpt><trkpt lat="44.5077567" lon="9.152795"><ele>733.0</ele><time>2026-03-28T12:21:02.01Z</time></trkpt><trkpt lat="44.5078917" lon="9.1529517"><ele>733.0</ele><time>2026-03-28T12:21:03.01Z</time></trkpt><trkpt lat="44.5080183" lon="9.1531317"><ele>733.0</ele><time>2026-03-28T12:21:04.01Z</time></trkpt><trkpt lat="44.5081517" lon="9.1532933"><ele>744.0</ele><time>2026-03-28T12:21:05.01Z</time></trkpt><trkpt lat="44.508625" lon="9.1536967"><ele>741.6666666666666</ele><time>2026-03-28T12:21:08.012Z</time></trkpt><trkpt lat="44.50884" lon="9.1536833"><ele>739.3333333333333</ele><time>2026-03-28T12:21:09.012Z</time></trkpt><trkpt lat="44.50904" lon="9.153705"><ele>737.0</ele><time>2026-03-28T12:21:10.012Z</time></trkpt><trkpt lat="44.509235" lon="9.1537317"><ele>737.0</ele><time>2026-03-28T12:21:11.011Z</time></trkpt><trkpt lat="44.509425" lon="9.1537817"><ele>737.0</ele><time>2026-03-28T12:21:12.011Z</time></trkpt><trkpt lat="44.5096033" lon="9.1538567"><ele>737.0</ele><time>2026-03-28T12:21:13.012Z</time></trkpt><trkpt lat="44.5098083" lon="9.15391"><ele>738.0</ele><time>2026-03-28T12:21:14.011Z</time></trkpt><trkpt lat="44.509985" lon="9.1539583"><ele>739.0</ele><time>2026-03-28T12:21:15.012Z</time></trkpt><trkpt lat="44.51017" lon="9.1540183"><ele>740.0</ele><time>2026-03-28T12:21:16.012Z</time></trkpt><trkpt lat="44.510355" lon="9.1540883"><ele>738.3333333333333</ele><time>2026-03-28T12:21:17.012Z</time></trkpt><trkpt lat="44.5105433" lon="9.15416"><ele>736.6666666666666</ele><time>2026-03-28T12:21:18.011Z</time></trkpt><trkpt lat="44.5107267" lon="9.1542333"><ele>735.0</ele><time>2026-03-28T12:21:19.012Z</time></trkpt><trkpt lat="44.5109233" lon="9.15431"><ele>735.0</ele><time>2026-03-28T12:21:20.011Z</time></trkpt><trkpt lat="44.51112" lon="9.1543983"><ele>735.0</ele><time>2026-03-28T12:21:21.012Z</time></trkpt><trkpt lat="44.5113133" lon="9.1544883"><ele>735.0</ele><time>2026-03-28T12:21:22.012Z</time></trkpt><trkpt lat="44.5115017" lon="9.154585"><ele>736.3333333333334</ele><time>2026-03-28T12:21:23.012Z</time></trkpt><trkpt lat="44.5116833" lon="9.15469"><ele>737.6666666666667</ele><time>2026-03-28T12:21:24.011Z</time></trkpt><trkpt lat="44.5118633" lon="9.1548117"><ele>739.0</ele><time>2026-03-28T12:21:25.012Z</time></trkpt><trkpt lat="44.512025" lon="9.1549417"><ele>742.0</ele><time>2026-03-28T12:21:26.012Z</time></trkpt><trkpt lat="44.512175" lon="9.1551033"><ele>745.0</ele><time>2026-03-28T12:21:27.012Z</time></trkpt><trkpt lat="44.512315" lon="9.1552667"><ele>748.0</ele><time>2026-03-28T12:21:28.012Z</time></trkpt><trkpt lat="44.5124567" lon="9.1554283"><ele>748.0</ele><time>2026-03-28T12:21:29.012Z</time></trkpt><trkpt lat="44.51259" lon="9.1555883"><ele>748.0</ele><time>2026-03-28T12:21:30.012Z</time></trkpt><trkpt lat="44.5127267" lon="9.1557567"><ele>748.0</ele><time>2026-03-28T12:21:31.012Z</time></trkpt><trkpt lat="44.5128667" lon="9.1559267"><ele>746.6666666666667</ele><time>2026-03-28T12:21:32.012Z</time></trkpt><trkpt lat="44.5129917" lon="9.1561283"><ele>745.3333333333334</ele><time>2026-03-28T12:21:33.011Z</time></trkpt><trkpt lat="44.5131167" lon="9.156295"><ele>744.0</ele><time>2026-03-28T12:21:34.012Z</time></trkpt><trkpt lat="44.5132383" lon="9.1564917"><ele>744.0</ele><time>2026-03-28T12:21:35.012Z</time></trkpt><trkpt lat="44.5133567" lon="9.15671"><ele>744.0</ele><time>2026-03-28T12:21:36.012Z</time></trkpt><trkpt lat="44.5134867" lon="9.15692"><ele>744.0</ele><time>2026-03-28T12:21:37.012Z</time></trkpt><trkpt lat="44.5136117" lon="9.1571333"><ele>744.0</ele><time>2026-03-28T12:21:38.012Z</time></trkpt><trkpt lat="44.5137367" lon="9.1573417"><ele>744.0</ele><time>2026-03-28T12:21:39.011Z</time></trkpt><trkpt lat="44.51386" lon="9.1575517"><ele>744.0</ele><time>2026-03-28T12:21:40.012Z</time></trkpt><trkpt lat="44.51401" lon="9.157825"><ele>744.0</ele><time>2026-03-28T12:21:41.012Z</time></trkpt><trkpt lat="44.5139817" lon="9.1581033"><ele>744.0</ele><time>2026-03-28T12:21:42.011Z</time></trkpt><trkpt lat="44.5139567" lon="9.15841"><ele>744.0</ele><time>2026-03-28T12:21:43.012Z</time></trkpt><trkpt lat="44.5139517" lon="9.1586983"><ele>744.0</ele><time>2026-03-28T12:21:44.012Z</time></trkpt><trkpt lat="44.51396" lon="9.1590167"><ele>744.0</ele><time>2026-03-28T12:21:45.012Z</time></trkpt><trkpt lat="44.5139733" lon="9.1593017"><ele>744.0</ele><time>2026-03-28T12:21:46.012Z</time></trkpt><trkpt lat="44.5139883" lon="9.15957"><ele>739.6666666666666</ele><time>2026-03-28T12:21:47.012Z</time></trkpt><trkpt lat="44.5139883" lon="9.15983"><ele>735.3333333333333</ele><time>2026-03-28T12:21:48.012Z</time></trkpt><trkpt lat="44.5139917" lon="9.1600933"><ele>731.0</ele><time>2026-03-28T12:21:49.012Z</time></trkpt><trkpt lat="44.5139833" lon="9.1603517"><ele>728.3333333333333</ele><time>2026-03-28T12:21:50.011Z</time></trkpt><trkpt lat="44.5139667" lon="9.1606083"><ele>725.6666666666666</ele><time>2026-03-28T12:21:51.012Z</time></trkpt><trkpt lat="44.5139433" lon="9.16087"><ele>723.0</ele><time>2026-03-28T12:21:52.012Z</time></trkpt><trkpt lat="44.5139117" lon="9.1611317"><ele>723.0</ele><time>2026-03-28T12:21:53.012Z</time></trkpt><trkpt lat="44.5138683" lon="9.1613817"><ele>723.0</ele><time>2026-03-28T12:21:54.011Z</time></trkpt><trkpt lat="44.5138183" lon="9.161625"><ele>723.0</ele><time>2026-03-28T12:21:55.012Z</time></trkpt><trkpt lat="44.5137633" lon="9.1618717"><ele>732.0</ele><time>2026-03-28T12:21:56.012Z</time></trkpt><trkpt lat="44.5137067" lon="9.1621317"><ele>741.0</ele><time>2026-03-28T12:21:57.012Z</time></trkpt><trkpt lat="44.5136433" lon="9.1624033"><ele>750.0</ele><time>2026-03-28T12:21:58.012Z</time></trkpt><trkpt lat="44.513585" lon="9.1626833"><ele>756.3333333333333</ele><time>2026-03-28T12:21:59.012Z</time></trkpt><trkpt lat="44.5135233" lon="9.1629483"><ele>762.6666666666666</ele><time>2026-03-28T12:22:00.012Z</time></trkpt><trkpt lat="44.513465" lon="9.16322"><ele>769.0</ele><time>2026-03-28T12:22:01.012Z</time></trkpt><trkpt lat="44.5134133" lon="9.1635067"><ele>774.3333333333333</ele><time>2026-03-28T12:22:02.012Z</time></trkpt><trkpt lat="44.5133567" lon="9.1637817"><ele>779.6666666666667</ele><time>2026-03-28T12:22:03.012Z</time></trkpt><trkpt lat="44.5133017" lon="9.1640567"><ele>785.0</ele><time>2026-03-28T12:22:04.012Z</time></trkpt><trkpt lat="44.513245" lon="9.1643317"><ele>798.0</ele><time>2026-03-28T12:22:05.011Z</time></trkpt><trkpt lat="44.5089933" lon="9.1834433"><ele>798.0</ele><time>2026-03-28T12:23:20.01Z</time></trkpt><trkpt lat="44.5089617" lon="9.1839267"><ele>798.0</ele><time>2026-03-28T12:23:22.011Z</time></trkpt><trkpt lat="44.50893" lon="9.1841317"><ele>796.3333333333333</ele><time>2026-03-28T12:23:23.011Z</time></trkpt><trkpt lat="44.5088967" lon="9.18435"><ele>794.6666666666666</ele><time>2026-03-28T12:23:24.011Z</time></trkpt><trkpt lat="44.5088667" lon="9.18455"><ele>793.0</ele><time>2026-03-28T12:23:25.011Z</time></trkpt><trkpt lat="44.5088317" lon="9.1847633"><ele>793.0</ele><time>2026-03-28T12:23:26.011Z</time></trkpt><trkpt lat="44.5088033" lon="9.18494"><ele>793.0</ele><time>2026-03-28T12:23:27.011Z</time></trkpt><trkpt lat="44.508785" lon="9.1850933"><ele>793.0</ele><time>2026-03-28T12:23:28.011Z</time></trkpt><trkpt lat="44.5087717" lon="9.1852267"><ele>793.0</ele><time>2026-03-28T12:23:29.011Z</time></trkpt><trkpt lat="44.5087167" lon="9.185335"><ele>793.0</ele><time>2026-03-28T12:23:31.011Z</time></trkpt><trkpt lat="44.5086317" lon="9.18529"><ele>796.4999999999999</ele><time>2026-03-28T12:23:33.01Z</time></trkpt><trkpt lat="44.5085667" lon="9.1852017"><ele>800.0</ele><time>2026-03-28T12:23:35.011Z</time></trkpt><trkpt lat="44.5085367" lon="9.18506"><ele>803.5</ele><time>2026-03-28T12:23:37.01Z</time></trkpt><trkpt lat="44.5085117" lon="9.18497"><ele>807.0</ele><time>2026-03-28T12:23:38.01Z</time></trkpt><trkpt lat="44.5084917" lon="9.18486"><ele>810.4999999999999</ele><time>2026-03-28T12:23:39.01Z</time></trkpt><trkpt lat="44.5084767" lon="9.1847467"><ele>814.0</ele><time>2026-03-28T12:23:40.011Z</time></trkpt><trkpt lat="44.5084933" lon="9.18462"><ele>814.3333333333333</ele><time>2026-03-28T12:23:41.01Z</time></trkpt><trkpt lat="44.5085333" lon="9.1845083"><ele>814.6666666666666</ele><time>2026-03-28T12:23:42.011Z</time></trkpt><trkpt lat="44.508565" lon="9.1843867"><ele>815.0</ele><time>2026-03-28T12:23:43.011Z</time></trkpt><trkpt lat="44.508595" lon="9.18426"><ele>815.3333333333333</ele><time>2026-03-28T12:23:44.011Z</time></trkpt><trkpt lat="44.50859" lon="9.1841433"><ele>815.6666666666666</ele><time>2026-03-28T12:23:45.011Z</time></trkpt><trkpt lat="44.50857" lon="9.1840417"><ele>816.0</ele><time>2026-03-28T12:23:46.011Z</time></trkpt><trkpt lat="44.5085117" lon="9.1839483"><ele>816.6666666666666</ele><time>2026-03-28T12:23:47.011Z</time></trkpt><trkpt lat="44.5084383" lon="9.1838767"><ele>817.3333333333333</ele><time>2026-03-28T12:23:48.01Z</time></trkpt><trkpt lat="44.508345" lon="9.183815"><ele>818.0</ele><time>2026-03-28T12:23:49.011Z</time></trkpt><trkpt lat="44.5082683" lon="9.18375"><ele>818.6666666666666</ele><time>2026-03-28T12:23:50.011Z</time></trkpt><trkpt lat="44.5082067" lon="9.1836717"><ele>819.3333333333333</ele><time>2026-03-28T12:23:51.011Z</time></trkpt><trkpt lat="44.508165" lon="9.183595"><ele>820.0</ele><time>2026-03-28T12:23:52.011Z</time></trkpt><trkpt lat="44.508195" lon="9.183465"><ele>820.0</ele><time>2026-03-28T12:23:54.011Z</time></trkpt><trkpt lat="44.50828" lon="9.1834167"><ele>820.0</ele><time>2026-03-28T12:23:55.011Z</time></trkpt><trkpt lat="44.5083967" lon="9.1833817"><ele>820.0</ele><time>2026-03-28T12:23:56.01Z</time></trkpt><trkpt lat="44.5085433" lon="9.1833067"><ele>820.0</ele><time>2026-03-28T12:23:57.01Z</time></trkpt><trkpt lat="44.508675" lon="9.1831883"><ele>816.5</ele><time>2026-03-28T12:23:58.011Z</time></trkpt><trkpt lat="44.5087633" lon="9.183025"><ele>813.0</ele><time>2026-03-28T12:23:59.01Z</time></trkpt><trkpt lat="44.50883" lon="9.1828617"><ele>809.5</ele><time>2026-03-28T12:24:00.011Z</time></trkpt><trkpt lat="44.5088817" lon="9.1826917"><ele>806.0</ele><time>2026-03-28T12:24:01.011Z</time></trkpt><trkpt lat="44.5089167" lon="9.1825133"><ele>811.25</ele><time>2026-03-28T12:24:02.011Z</time></trkpt><trkpt lat="44.508945" lon="9.1823467"><ele>816.5</ele><time>2026-03-28T12:24:03.011Z</time></trkpt><trkpt lat="44.509005" lon="9.1822117"><ele>821.75</ele><time>2026-03-28T12:24:04.011Z</time></trkpt><trkpt lat="44.5090783" lon="9.182095"><ele>827.0</ele><time>2026-03-28T12:24:05.011Z</time></trkpt><trkpt lat="44.5091767" lon="9.1820067"><ele>827.0</ele><time>2026-03-28T12:24:06.011Z</time></trkpt><trkpt lat="44.5092717" lon="9.1819033"><ele>827.0</ele><time>2026-03-28T12:24:07.011Z</time></trkpt><trkpt lat="44.509375" lon="9.1817933"><ele>827.0</ele><time>2026-03-28T12:24:08.011Z</time></trkpt><trkpt lat="44.5094717" lon="9.1816683"><ele>827.0</ele><time>2026-03-28T12:24:09.011Z</time></trkpt><trkpt lat="44.5095817" lon="9.1815417"><ele>826.0</ele><time>2026-03-28T12:24:10.01Z</time></trkpt><trkpt lat="44.50968" lon="9.1814033"><ele>825.0</ele><time>2026-03-28T12:24:11.011Z</time></trkpt><trkpt lat="44.5097617" lon="9.1812433"><ele>824.0</ele><time>2026-03-28T12:24:12.01Z</time></trkpt><trkpt lat="44.509855" lon="9.1810917"><ele>823.0</ele><time>2026-03-28T12:24:13.011Z</time></trkpt><trkpt lat="44.509955" lon="9.1809683"><ele>823.0</ele><time>2026-03-28T12:24:14.01Z</time></trkpt><trkpt lat="44.51005" lon="9.1808533"><ele>823.0</ele><time>2026-03-28T12:24:15.011Z</time></trkpt><trkpt lat="44.5101317" lon="9.180715"><ele>823.0</ele><time>2026-03-28T12:24:16.011Z</time></trkpt><trkpt lat="44.5101983" lon="9.1805633"><ele>823.0</ele><time>2026-03-28T12:24:17.011Z</time></trkpt><trkpt lat="44.5102367" lon="9.1803917"><ele>823.5</ele><time>2026-03-28T12:24:18.011Z</time></trkpt><trkpt lat="44.5102417" lon="9.1802083"><ele>824.0</ele><time>2026-03-28T12:24:19.011Z</time></trkpt><trkpt lat="44.510245" lon="9.1800283"><ele>824.5</ele><time>2026-03-28T12:24:20.01Z</time></trkpt><trkpt lat="44.510215" lon="9.17986"><ele>825.0</ele><time>2026-03-28T12:24:21.011Z</time></trkpt><trkpt lat="44.51017" lon="9.1797183"><ele>825.0</ele><time>2026-03-28T12:24:22.01Z</time></trkpt><trkpt lat="44.510095" lon="9.179585"><ele>825.0</ele><time>2026-03-28T12:24:23.011Z</time></trkpt><trkpt lat="44.5100017" lon="9.1794733"><ele>825.0</ele><time>2026-03-28T12:24:24.011Z</time></trkpt><trkpt lat="44.50991" lon="9.17937"><ele>825.0</ele><time>2026-03-28T12:24:25.011Z</time></trkpt><trkpt lat="44.509805" lon="9.1792433"><ele>825.0</ele><time>2026-03-28T12:24:26.011Z</time></trkpt><trkpt lat="44.5097117" lon="9.1791033"><ele>825.0</ele><time>2026-03-28T12:24:27.011Z</time></trkpt><trkpt lat="44.5096283" lon="9.178945"><ele>825.0</ele><time>2026-03-28T12:24:28.011Z</time></trkpt><trkpt lat="44.5095717" lon="9.1787917"><ele>825.0</ele><time>2026-03-28T12:24:29.01Z</time></trkpt><trkpt lat="44.50952" lon="9.178655"><ele>823.5</ele><time>2026-03-28T12:24:30.011Z</time></trkpt><trkpt lat="44.5094367" lon="9.1785383"><ele>822.0</ele><time>2026-03-28T12:24:31.011Z</time></trkpt><trkpt lat="44.509325" lon="9.1784267"><ele>820.5</ele><time>2026-03-28T12:24:32.011Z</time></trkpt><trkpt lat="44.509215" lon="9.1783083"><ele>819.0</ele><time>2026-03-28T12:24:33.011Z</time></trkpt><trkpt lat="44.5090967" lon="9.1781733"><ele>819.0</ele><time>2026-03-28T12:24:34.011Z</time></trkpt><trkpt lat="44.5089767" lon="9.1780233"><ele>819.0</ele><time>2026-03-28T12:24:35.011Z</time></trkpt><trkpt lat="44.5088617" lon="9.177855"><ele>819.0</ele><time>2026-03-28T12:24:36.011Z</time></trkpt><trkpt lat="44.5087583" lon="9.1776817"><ele>820.6666666666667</ele><time>2026-03-28T12:24:37.011Z</time></trkpt><trkpt lat="44.5086433" lon="9.177505"><ele>822.3333333333334</ele><time>2026-03-28T12:24:38.011Z</time></trkpt><trkpt lat="44.50853" lon="9.1773433"><ele>824.0</ele><time>2026-03-28T12:24:39.011Z</time></trkpt><trkpt lat="44.508425" lon="9.1771917"><ele>824.0</ele><time>2026-03-28T12:24:40.011Z</time></trkpt><trkpt lat="44.5083217" lon="9.1770483"><ele>824.0</ele><time>2026-03-28T12:24:41.011Z</time></trkpt><trkpt lat="44.5082117" lon="9.1769317"><ele>824.0</ele><time>2026-03-28T12:24:42.011Z</time></trkpt><trkpt lat="44.5081033" lon="9.1768433"><ele>824.0</ele><time>2026-03-28T12:24:43.011Z</time></trkpt><trkpt lat="44.5079833" lon="9.1767783"><ele>825.8000000000001</ele><time>2026-03-28T12:24:44.011Z</time></trkpt><trkpt lat="44.5078633" lon="9.1767317"><ele>827.6</ele><time>2026-03-28T12:24:45.011Z</time></trkpt><trkpt lat="44.5077683" lon="9.176705"><ele>829.4</ele><time>2026-03-28T12:24:46.011Z</time></trkpt><trkpt lat="44.5076867" lon="9.1766917"><ele>831.2</ele><time>2026-03-28T12:24:47.011Z</time></trkpt><trkpt lat="44.507585" lon="9.1767183"><ele>833.0</ele><time>2026-03-28T12:24:49.011Z</time></trkpt><trkpt lat="44.5075633" lon="9.176815"><ele>833.0</ele><time>2026-03-28T12:24:51.01Z</time></trkpt><trkpt lat="44.50764" lon="9.1768883"><ele>833.0</ele><time>2026-03-28T12:24:53.011Z</time></trkpt><trkpt lat="44.5077017" lon="9.1769067"><ele>833.0</ele><time>2026-03-28T12:24:54.011Z</time></trkpt><trkpt lat="44.507845" lon="9.1769483"><ele>833.0</ele><time>2026-03-28T12:24:56.011Z</time></trkpt><trkpt lat="44.5079283" lon="9.176985"><ele>833.0</ele><time>2026-03-28T12:24:57.011Z</time></trkpt><trkpt lat="44.5080183" lon="9.1770183"><ele>834.2</ele><time>2026-03-28T12:24:58.011Z</time></trkpt><trkpt lat="44.508105" lon="9.1770767"><ele>835.4</ele><time>2026-03-28T12:24:59.011Z</time></trkpt><trkpt lat="44.5081817" lon="9.1771667"><ele>836.6</ele><time>2026-03-28T12:25:00.011Z</time></trkpt><trkpt lat="44.5082483" lon="9.1772817"><ele>837.8000000000001</ele><time>2026-03-28T12:25:01.011Z</time></trkpt><trkpt lat="44.5083233" lon="9.1773983"><ele>839.0</ele><time>2026-03-28T12:25:02.011Z</time></trkpt><trkpt lat="44.5083867" lon="9.1775183"><ele>839.0</ele><time>2026-03-28T12:25:03.011Z</time></trkpt><trkpt lat="44.5084433" lon="9.1776533"><ele>839.0</ele><time>2026-03-28T12:25:04.011Z</time></trkpt><trkpt lat="44.5084883" lon="9.1777967"><ele>839.0</ele><time>2026-03-28T12:25:05.011Z</time></trkpt><trkpt lat="44.5085317" lon="9.17793"><ele>839.0</ele><time>2026-03-28T12:25:06.01Z</time></trkpt><trkpt lat="44.5085867" lon="9.1780383"><ele>839.0</ele><time>2026-03-28T12:25:07.011Z</time></trkpt><trkpt lat="44.5086567" lon="9.1781383"><ele>839.0000000000001</ele><time>2026-03-28T12:25:08.011Z</time></trkpt><trkpt lat="44.508725" lon="9.17824"><ele>839.0</ele><time>2026-03-28T12:25:09.011Z</time></trkpt><trkpt lat="44.50877" lon="9.1783367"><ele>839.0</ele><time>2026-03-28T12:25:10.011Z</time></trkpt><trkpt lat="44.508805" lon="9.1784233"><ele>839.0</ele><time>2026-03-28T12:25:11.011Z</time></trkpt><trkpt lat="44.508795" lon="9.17854"><ele>839.0000000000001</ele><time>2026-03-28T12:25:13.011Z</time></trkpt><trkpt lat="44.5087133" lon="9.1785367"><ele>839.0</ele><time>2026-03-28T12:25:16.011Z</time></trkpt><trkpt lat="44.5086717" lon="9.1784567"><ele>839.0</ele><time>2026-03-28T12:25:17.011Z</time></trkpt><trkpt lat="44.5086083" lon="9.1783517"><ele>839.0</ele><time>2026-03-28T12:25:18.011Z</time></trkpt><trkpt lat="44.508525" lon="9.1782333"><ele>839.0</ele><time>2026-03-28T12:25:19.011Z</time></trkpt><trkpt lat="44.5084433" lon="9.1781083"><ele>839.0</ele><time>2026-03-28T12:25:20.011Z</time></trkpt><trkpt lat="44.5083667" lon="9.177995"><ele>839.0</ele><time>2026-03-28T12:25:21.011Z</time></trkpt><trkpt lat="44.50829" lon="9.1778783"><ele>839.0</ele><time>2026-03-28T12:25:22.011Z</time></trkpt><trkpt lat="44.5082067" lon="9.17777"><ele>839.0</ele><time>2026-03-28T12:25:23.011Z</time></trkpt><trkpt lat="44.5081217" lon="9.1776767"><ele>839.0</ele><time>2026-03-28T12:25:24.011Z</time></trkpt><trkpt lat="44.50804" lon="9.17761"><ele>839.0</ele><time>2026-03-28T12:25:25.011Z</time></trkpt><trkpt lat="44.50796" lon="9.1775633"><ele>839.0</ele><time>2026-03-28T12:25:26.011Z</time></trkpt><trkpt lat="44.50787" lon="9.1775417"><ele>843.4000000000001</ele><time>2026-03-28T12:25:27.011Z</time></trkpt><trkpt lat="44.5077733" lon="9.1775383"><ele>847.8</ele><time>2026-03-28T12:25:28.011Z</time></trkpt><trkpt lat="44.5076667" lon="9.1775483"><ele>852.1999999999999</ele><time>2026-03-28T12:25:29.011Z</time></trkpt><trkpt lat="44.50757" lon="9.1775483"><ele>856.5999999999999</ele><time>2026-03-28T12:25:30.011Z</time></trkpt><trkpt lat="44.50748" lon="9.1775533"><ele>861.0</ele><time>2026-03-28T12:25:31.011Z</time></trkpt><trkpt lat="44.5073867" lon="9.17755"><ele>861.0</ele><time>2026-03-28T12:25:32.011Z</time></trkpt><trkpt lat="44.5072733" lon="9.177515"><ele>860.9999999999999</ele><time>2026-03-28T12:25:33.011Z</time></trkpt><trkpt lat="44.5071767" lon="9.1774783"><ele>860.9999999999999</ele><time>2026-03-28T12:25:34.011Z</time></trkpt><trkpt lat="44.5070967" lon="9.177455"><ele>861.0</ele><time>2026-03-28T12:25:35.011Z</time></trkpt><trkpt lat="44.507025" lon="9.1774467"><ele>861.0</ele><time>2026-03-28T12:25:36.01Z</time></trkpt><trkpt lat="44.5069417" lon="9.1774683"><ele>863.0</ele><time>2026-03-28T12:25:37.011Z</time></trkpt><trkpt lat="44.5068633" lon="9.1774883"><ele>865.0</ele><time>2026-03-28T12:25:38.011Z</time></trkpt><trkpt lat="44.50679" lon="9.1774867"><ele>867.0</ele><time>2026-03-28T12:25:39.011Z</time></trkpt><trkpt lat="44.5067133" lon="9.17746"><ele>869.0</ele><time>2026-03-28T12:25:40.011Z</time></trkpt><trkpt lat="44.506635" lon="9.177395"><ele>871.0</ele><time>2026-03-28T12:25:41.011Z</time></trkpt><trkpt lat="44.5065683" lon="9.17728"><ele>873.0</ele><time>2026-03-28T12:25:42.01Z</time></trkpt><trkpt lat="44.5065" lon="9.1771967"><ele>869.8333333333334</ele><time>2026-03-28T12:25:43.011Z</time></trkpt><trkpt lat="44.5064217" lon="9.177125"><ele>866.6666666666667</ele><time>2026-03-28T12:25:44.011Z</time></trkpt><trkpt lat="44.506345" lon="9.1770983"><ele>863.5</ele><time>2026-03-28T12:25:45.011Z</time></trkpt><trkpt lat="44.5062667" lon="9.1771033"><ele>860.3333333333334</ele><time>2026-03-28T12:25:46.01Z</time></trkpt><trkpt lat="44.5061817" lon="9.1771433"><ele>857.1666666666667</ele><time>2026-03-28T12:25:47.011Z</time></trkpt><trkpt lat="44.5060883" lon="9.177185"><ele>854.0</ele><time>2026-03-28T12:25:48.011Z</time></trkpt><trkpt lat="44.5059917" lon="9.177215"><ele>854.0000000000001</ele><time>2026-03-28T12:25:49.011Z</time></trkpt><trkpt lat="44.5059017" lon="9.1772483"><ele>854.0</ele><time>2026-03-28T12:25:50.011Z</time></trkpt><trkpt lat="44.5058133" lon="9.1772983"><ele>854.0</ele><time>2026-03-28T12:25:51.011Z</time></trkpt><trkpt lat="44.5057467" lon="9.17737"><ele>854.0</ele><time>2026-03-28T12:25:52.011Z</time></trkpt><trkpt lat="44.50569" lon="9.1774583"><ele>854.0000000000001</ele><time>2026-03-28T12:25:53.011Z</time></trkpt><trkpt lat="44.5056483" lon="9.177565"><ele>854.0</ele><time>2026-03-28T12:25:54.011Z</time></trkpt><trkpt lat="44.5056367" lon="9.1776767"><ele>857.5000000000001</ele><time>2026-03-28T12:25:55.01Z</time></trkpt><trkpt lat="44.5056317" lon="9.1777867"><ele>861.0</ele><time>2026-03-28T12:25:56.01Z</time></trkpt><trkpt lat="44.5056083" lon="9.1778817"><ele>864.5</ele><time>2026-03-28T12:25:57.01Z</time></trkpt><trkpt lat="44.5055233" lon="9.178005"><ele>868.0</ele><time>2026-03-28T12:25:59.011Z</time></trkpt><trkpt lat="44.5054533" lon="9.1780167"><ele>871.5000000000001</ele><time>2026-03-28T12:26:00.011Z</time></trkpt><trkpt lat="44.5053633" lon="9.178005"><ele>875.0</ele><time>2026-03-28T12:26:01.011Z</time></trkpt><trkpt lat="44.505295" lon="9.17801"><ele>875.0000000000001</ele><time>2026-03-28T12:26:02.011Z</time></trkpt><trkpt lat="44.5052167" lon="9.1780783"><ele>875.0</ele><time>2026-03-28T12:26:04.011Z</time></trkpt><trkpt lat="44.505305" lon="9.1781617"><ele>875.0</ele><time>2026-03-28T12:26:07.01Z</time></trkpt><trkpt lat="44.50538" lon="9.1781767"><ele>875.0</ele><time>2026-03-28T12:26:08.011Z</time></trkpt><trkpt lat="44.5054583" lon="9.1781883"><ele>875.0000000000001</ele><time>2026-03-28T12:26:09.011Z</time></trkpt><trkpt lat="44.5055467" lon="9.17819"><ele>875.0</ele><time>2026-03-28T12:26:10.011Z</time></trkpt><trkpt lat="44.505635" lon="9.1781617"><ele>875.2857142857143</ele><time>2026-03-28T12:26:11.011Z</time></trkpt><trkpt lat="44.5056983" lon="9.178115"><ele>875.5714285714286</ele><time>2026-03-28T12:26:12.011Z</time></trkpt><trkpt lat="44.5057567" lon="9.1780517"><ele>875.8571428571429</ele><time>2026-03-28T12:26:13.011Z</time></trkpt><trkpt lat="44.5058017" lon="9.177985"><ele>876.1428571428571</ele><time>2026-03-28T12:26:14.011Z</time></trkpt><trkpt lat="44.5058483" lon="9.177915"><ele>876.4285714285714</ele><time>2026-03-28T12:26:15.011Z</time></trkpt><trkpt lat="44.5059033" lon="9.17786"><ele>876.7142857142858</ele><time>2026-03-28T12:26:16.011Z</time></trkpt><trkpt lat="44.505985" lon="9.1778"><ele>877.0</ele><time>2026-03-28T12:26:17.011Z</time></trkpt><trkpt lat="44.5060767" lon="9.17776"><ele>876.9999999999999</ele><time>2026-03-28T12:26:18.011Z</time></trkpt><trkpt lat="44.5061683" lon="9.1777317"><ele>877.0</ele><time>2026-03-28T12:26:19.011Z</time></trkpt><trkpt lat="44.5062383" lon="9.177725"><ele>877.0</ele><time>2026-03-28T12:26:20.011Z</time></trkpt><trkpt lat="44.5062367" lon="9.177825"><ele>877.0</ele><time>2026-03-28T12:26:23.011Z</time></trkpt><trkpt lat="44.506175" lon="9.1778517"><ele>876.9999999999999</ele><time>2026-03-28T12:26:24.011Z</time></trkpt><trkpt lat="44.50609" lon="9.177885"><ele>877.0</ele><time>2026-03-28T12:26:25.011Z</time></trkpt><trkpt lat="44.5060133" lon="9.177925"><ele>876.9999999999999</ele><time>2026-03-28T12:26:26.011Z</time></trkpt><trkpt lat="44.50595" lon="9.1779867"><ele>877.0</ele><time>2026-03-28T12:26:27.011Z</time></trkpt><trkpt lat="44.5058933" lon="9.1780833"><ele>877.0</ele><time>2026-03-28T12:26:28.011Z</time></trkpt><trkpt lat="44.5058517" lon="9.1781933"><ele>877.0</ele><time>2026-03-28T12:26:29.011Z</time></trkpt><trkpt lat="44.50581" lon="9.1782833"><ele>876.9999999999999</ele><time>2026-03-28T12:26:30.01Z</time></trkpt><trkpt lat="44.505765" lon="9.178385"><ele>877.0</ele><time>2026-03-28T12:26:31.011Z</time></trkpt><trkpt lat="44.5057" lon="9.17846"><ele>879.8</ele><time>2026-03-28T12:26:32.011Z</time></trkpt><trkpt lat="44.5056217" lon="9.1785333"><ele>882.6</ele><time>2026-03-28T12:26:33.01Z</time></trkpt><trkpt lat="44.505535" lon="9.178585"><ele>885.3999999999999</ele><time>2026-03-28T12:26:34.011Z</time></trkpt><trkpt lat="44.5054483" lon="9.1786333"><ele>888.1999999999999</ele><time>2026-03-28T12:26:35.011Z</time></trkpt><trkpt lat="44.5053583" lon="9.1786333"><ele>891.0</ele><time>2026-03-28T12:26:36.011Z</time></trkpt><trkpt lat="44.5052783" lon="9.1786217"><ele>891.0</ele><time>2026-03-28T12:26:37.011Z</time></trkpt><trkpt lat="44.5052033" lon="9.1786383"><ele>891.0</ele><time>2026-03-28T12:26:38.011Z</time></trkpt><trkpt lat="44.505135" lon="9.1786783"><ele>891.0</ele><time>2026-03-28T12:26:39.011Z</time></trkpt><trkpt lat="44.505075" lon="9.1787383"><ele>891.0</ele><time>2026-03-28T12:26:40.011Z</time></trkpt><trkpt lat="44.50502" lon="9.178835"><ele>891.0</ele><time>2026-03-28T12:26:41.011Z</time></trkpt><trkpt lat="44.5049683" lon="9.1789533"><ele>891.0</ele><time>2026-03-28T12:26:42.01Z</time></trkpt><trkpt lat="44.5049267" lon="9.179105"><ele>897.0</ele><time>2026-03-28T12:26:43.01Z</time></trkpt><trkpt lat="44.5048933" lon="9.1792183"><ele>902.9999999999999</ele><time>2026-03-28T12:26:44.011Z</time></trkpt><trkpt lat="44.5048583" lon="9.1793183"><ele>908.9999999999999</ele><time>2026-03-28T12:26:45.011Z</time></trkpt><trkpt lat="44.504815" lon="9.1794217"><ele>915.0</ele><time>2026-03-28T12:26:46.01Z</time></trkpt><trkpt lat="44.504715" lon="9.179495"><ele>921.0</ele><time>2026-03-28T12:26:48.011Z</time></trkpt><trkpt lat="44.5046017" lon="9.1795667"><ele>922.8333333333334</ele><time>2026-03-28T12:26:50.011Z</time></trkpt><trkpt lat="44.5045533" lon="9.17965"><ele>924.6666666666667</ele><time>2026-03-28T12:26:51.011Z</time></trkpt><trkpt lat="44.5045083" lon="9.1797217"><ele>926.5</ele><time>2026-03-28T12:26:52.011Z</time></trkpt><trkpt lat="44.5044517" lon="9.179795"><ele>928.3333333333334</ele><time>2026-03-28T12:26:53.011Z</time></trkpt><trkpt lat="44.504395" lon="9.179855"><ele>930.1666666666667</ele><time>2026-03-28T12:26:54.01Z</time></trkpt><trkpt lat="44.50434" lon="9.1799083"><ele>932.0</ele><time>2026-03-28T12:26:55.011Z</time></trkpt><trkpt lat="44.5042233" lon="9.1799117"><ele>932.0000000000001</ele><time>2026-03-28T12:26:57.011Z</time></trkpt><trkpt lat="44.5041583" lon="9.1799183"><ele>932.0</ele><time>2026-03-28T12:26:58.01Z</time></trkpt><trkpt lat="44.5040817" lon="9.179925"><ele>932.0</ele><time>2026-03-28T12:26:59.011Z</time></trkpt><trkpt lat="44.5040183" lon="9.1799567"><ele>932.0</ele><time>2026-03-28T12:27:00.011Z</time></trkpt><trkpt lat="44.5039283" lon="9.1799933"><ele>932.0000000000001</ele><time>2026-03-28T12:27:01.011Z</time></trkpt><trkpt lat="44.50385" lon="9.1800283"><ele>932.0</ele><time>2026-03-28T12:27:02.011Z</time></trkpt><trkpt lat="44.5037583" lon="9.1800683"><ele>934.1666666666667</ele><time>2026-03-28T12:27:03.011Z</time></trkpt><trkpt lat="44.503675" lon="9.1800983"><ele>936.3333333333334</ele><time>2026-03-28T12:27:04.011Z</time></trkpt><trkpt lat="44.503595" lon="9.1801283"><ele>938.5</ele><time>2026-03-28T12:27:05.011Z</time></trkpt><trkpt lat="44.5035183" lon="9.1801467"><ele>940.6666666666667</ele><time>2026-03-28T12:27:06.011Z</time></trkpt><trkpt lat="44.50344" lon="9.1801367"><ele>942.8333333333334</ele><time>2026-03-28T12:27:07.011Z</time></trkpt><trkpt lat="44.50338" lon="9.1800867"><ele>945.0</ele><time>2026-03-28T12:27:08.01Z</time></trkpt><trkpt lat="44.5033217" lon="9.1799817"><ele>945.0</ele><time>2026-03-28T12:27:09.011Z</time></trkpt><trkpt lat="44.5032783" lon="9.1798533"><ele>945.0</ele><time>2026-03-28T12:27:10.011Z</time></trkpt><trkpt lat="44.5032467" lon="9.179715"><ele>945.0</ele><time>2026-03-28T12:27:11.011Z</time></trkpt><trkpt lat="44.5032467" lon="9.179575"><ele>945.0</ele><time>2026-03-28T12:27:12.011Z</time></trkpt><trkpt lat="44.5032817" lon="9.1794283"><ele>945.0</ele><time>2026-03-28T12:27:13.011Z</time></trkpt><trkpt lat="44.503325" lon="9.1792817"><ele>944.6</ele><time>2026-03-28T12:27:14.011Z</time></trkpt><trkpt lat="44.5033617" lon="9.1791467"><ele>944.2</ele><time>2026-03-28T12:27:15.011Z</time></trkpt><trkpt lat="44.5033783" lon="9.1790217"><ele>943.8</ele><time>2026-03-28T12:27:16.011Z</time></trkpt><trkpt lat="44.5033683" lon="9.1788917"><ele>943.4</ele><time>2026-03-28T12:27:17.011Z</time></trkpt><trkpt lat="44.5033567" lon="9.17876"><ele>943.0</ele><time>2026-03-28T12:27:18.011Z</time></trkpt><trkpt lat="44.5033517" lon="9.1786317"><ele>942.9999999999999</ele><time>2026-03-28T12:27:19.011Z</time></trkpt><trkpt lat="44.5033533" lon="9.1785083"><ele>943.0</ele><time>2026-03-28T12:27:20.011Z</time></trkpt><trkpt lat="44.5033683" lon="9.1783817"><ele>943.0</ele><time>2026-03-28T12:27:21.01Z</time></trkpt><trkpt lat="44.503385" lon="9.178265"><ele>943.0</ele><time>2026-03-28T12:27:22.011Z</time></trkpt><trkpt lat="44.5034033" lon="9.17814"><ele>942.9999999999999</ele><time>2026-03-28T12:27:23.011Z</time></trkpt><trkpt lat="44.5034267" lon="9.1780183"><ele>943.0</ele><time>2026-03-28T12:27:24.011Z</time></trkpt><trkpt lat="44.5034433" lon="9.1779033"><ele>942.5714285714287</ele><time>2026-03-28T12:27:25.011Z</time></trkpt><trkpt lat="44.5034517" lon="9.17781"><ele>942.1428571428572</ele><time>2026-03-28T12:27:26.011Z</time></trkpt><trkpt lat="44.5034417" lon="9.1777183"><ele>941.7142857142858</ele><time>2026-03-28T12:27:27.011Z</time></trkpt><trkpt lat="44.503405" lon="9.1776383"><ele>941.2857142857142</ele><time>2026-03-28T12:27:28.01Z</time></trkpt><trkpt lat="44.50334" lon="9.1775817"><ele>940.8571428571428</ele><time>2026-03-28T12:27:29.011Z</time></trkpt><trkpt lat="44.50327" lon="9.1775467"><ele>940.4285714285713</ele><time>2026-03-28T12:27:30.011Z</time></trkpt><trkpt lat="44.50319" lon="9.1775017"><ele>940.0</ele><time>2026-03-28T12:27:31.01Z</time></trkpt><trkpt lat="44.5031033" lon="9.1774617"><ele>939.9999999999999</ele><time>2026-03-28T12:27:32.011Z</time></trkpt><trkpt lat="44.5030067" lon="9.1774167"><ele>940.0</ele><time>2026-03-28T12:27:33.011Z</time></trkpt><trkpt lat="44.5029183" lon="9.177385"><ele>940.0</ele><time>2026-03-28T12:27:34.011Z</time></trkpt><trkpt lat="44.5028433" lon="9.1773533"><ele>940.0</ele><time>2026-03-28T12:27:35.011Z</time></trkpt><trkpt lat="44.5027733" lon="9.177345"><ele>939.9999999999999</ele><time>2026-03-28T12:27:36.011Z</time></trkpt><trkpt lat="44.5026983" lon="9.1773683"><ele>940.0</ele><time>2026-03-28T12:27:37.011Z</time></trkpt><trkpt lat="44.502635" lon="9.1774183"><ele>940.8333333333333</ele><time>2026-03-28T12:27:38.011Z</time></trkpt><trkpt lat="44.5025817" lon="9.1774917"><ele>941.6666666666666</ele><time>2026-03-28T12:27:39.011Z</time></trkpt><trkpt lat="44.5025433" lon="9.1775783"><ele>942.5</ele><time>2026-03-28T12:27:40.011Z</time></trkpt><trkpt lat="44.5025083" lon="9.177685"><ele>943.3333333333333</ele><time>2026-03-28T12:27:41.011Z</time></trkpt><trkpt lat="44.502465" lon="9.1777867"><ele>944.1666666666666</ele><time>2026-03-28T12:27:42.011Z</time></trkpt><trkpt lat="44.5024067" lon="9.177895"><ele>945.0</ele><time>2026-03-28T12:27:43.01Z</time></trkpt><trkpt lat="44.5023283" lon="9.1779967"><ele>945.0</ele><time>2026-03-28T12:27:44.011Z</time></trkpt><trkpt lat="44.5022333" lon="9.1780667"><ele>945.0</ele><time>2026-03-28T12:27:45.011Z</time></trkpt><trkpt lat="44.502145" lon="9.1781333"><ele>945.0</ele><time>2026-03-28T12:27:46.01Z</time></trkpt><trkpt lat="44.5020467" lon="9.1781617"><ele>945.0</ele><time>2026-03-28T12:27:47.011Z</time></trkpt><trkpt lat="44.5019533" lon="9.1781967"><ele>945.0</ele><time>2026-03-28T12:27:48.011Z</time></trkpt><trkpt lat="44.50186" lon="9.1782433"><ele>949.2</ele><time>2026-03-28T12:27:49.011Z</time></trkpt><trkpt lat="44.5017633" lon="9.1783017"><ele>953.4</ele><time>2026-03-28T12:27:50.011Z</time></trkpt><trkpt lat="44.5016683" lon="9.178385"><ele>957.5999999999999</ele><time>2026-03-28T12:27:51.011Z</time></trkpt><trkpt lat="44.5015717" lon="9.1784583"><ele>961.8</ele><time>2026-03-28T12:27:52.011Z</time></trkpt><trkpt lat="44.5014767" lon="9.1785267"><ele>966.0</ele><time>2026-03-28T12:27:53.011Z</time></trkpt><trkpt lat="44.5013917" lon="9.1785983"><ele>966.0</ele><time>2026-03-28T12:27:54.011Z</time></trkpt><trkpt lat="44.5013167" lon="9.1786483"><ele>966.0</ele><time>2026-03-28T12:27:55.011Z</time></trkpt><trkpt lat="44.50124" lon="9.1786667"><ele>966.0</ele><time>2026-03-28T12:27:56.011Z</time></trkpt><trkpt lat="44.5011683" lon="9.17865"><ele>966.0</ele><time>2026-03-28T12:27:57.011Z</time></trkpt><trkpt lat="44.50111" lon="9.1785917"><ele>966.0</ele><time>2026-03-28T12:27:58.01Z</time></trkpt><trkpt lat="44.501055" lon="9.1785"><ele>966.0</ele><time>2026-03-28T12:27:59.011Z</time></trkpt><trkpt lat="44.50098" lon="9.1784"><ele>966.8</ele><time>2026-03-28T12:28:00.011Z</time></trkpt><trkpt lat="44.5008933" lon="9.1783117"><ele>967.5999999999999</ele><time>2026-03-28T12:28:01.01Z</time></trkpt><trkpt lat="44.5008067" lon="9.17826"><ele>968.4</ele><time>2026-03-28T12:28:02.011Z</time></trkpt><trkpt lat="44.50072" lon="9.1782567"><ele>969.2</ele><time>2026-03-28T12:28:03.011Z</time></trkpt><trkpt lat="44.5006333" lon="9.1783117"><ele>970.0</ele><time>2026-03-28T12:28:04.011Z</time></trkpt><trkpt lat="44.5005383" lon="9.1783767"><ele>970.0000000000001</ele><time>2026-03-28T12:28:05.011Z</time></trkpt><trkpt lat="44.500445" lon="9.1784"><ele>970.0</ele><time>2026-03-28T12:28:06.011Z</time></trkpt><trkpt lat="44.5003717" lon="9.1784033"><ele>970.0000000000001</ele><time>2026-03-28T12:28:07.011Z</time></trkpt><trkpt lat="44.5003083" lon="9.1783933"><ele>970.0000000000001</ele><time>2026-03-28T12:28:08.011Z</time></trkpt><trkpt lat="44.5002417" lon="9.17838"><ele>970.0</ele><time>2026-03-28T12:28:09.01Z</time></trkpt><trkpt lat="44.5001733" lon="9.1783883"><ele>970.0000000000001</ele><time>2026-03-28T12:28:10.011Z</time></trkpt><trkpt lat="44.500105" lon="9.17844"><ele>970.0000000000001</ele><time>2026-03-28T12:28:11.011Z</time></trkpt><trkpt lat="44.5000483" lon="9.1785367"><ele>968.8333333333333</ele><time>2026-03-28T12:28:12.011Z</time></trkpt><trkpt lat="44.5000033" lon="9.1786367"><ele>967.6666666666666</ele><time>2026-03-28T12:28:13.011Z</time></trkpt><trkpt lat="44.49999" lon="9.1787583"><ele>966.5</ele><time>2026-03-28T12:28:14.011Z</time></trkpt><trkpt lat="44.4999817" lon="9.1788767"><ele>965.3333333333333</ele><time>2026-03-28T12:28:15.011Z</time></trkpt><trkpt lat="44.4999583" lon="9.1789917"><ele>964.1666666666666</ele><time>2026-03-28T12:28:16.01Z</time></trkpt><trkpt lat="44.4999267" lon="9.17911"><ele>963.0</ele><time>2026-03-28T12:28:17.01Z</time></trkpt><trkpt lat="44.499865" lon="9.179235"><ele>965.0</ele><time>2026-03-28T12:28:18.011Z</time></trkpt><trkpt lat="44.4997783" lon="9.17934"><ele>967.0</ele><time>2026-03-28T12:28:19.011Z</time></trkpt><trkpt lat="44.4996867" lon="9.17944"><ele>969.0</ele><time>2026-03-28T12:28:20.011Z</time></trkpt><trkpt lat="44.4995967" lon="9.1795117"><ele>971.0</ele><time>2026-03-28T12:28:21.011Z</time></trkpt><trkpt lat="44.4994983" lon="9.179545"><ele>973.0</ele><time>2026-03-28T12:28:22.01Z</time></trkpt><trkpt lat="44.4994017" lon="9.17957"><ele>973.0</ele><time>2026-03-28T12:28:23.01Z</time></trkpt><trkpt lat="44.499305" lon="9.1796133"><ele>973.0</ele><time>2026-03-28T12:28:24.011Z</time></trkpt><trkpt lat="44.4992083" lon="9.1796667"><ele>973.0</ele><time>2026-03-28T12:28:25.011Z</time></trkpt><trkpt lat="44.4991117" lon="9.1797217"><ele>973.0</ele><time>2026-03-28T12:28:26.011Z</time></trkpt><trkpt lat="44.49902" lon="9.17975"><ele>973.0</ele><time>2026-03-28T12:28:27.011Z</time></trkpt><trkpt lat="44.498925" lon="9.1797233"><ele>973.0</ele><time>2026-03-28T12:28:28.01Z</time></trkpt><trkpt lat="44.4988233" lon="9.1796933"><ele>973.0</ele><time>2026-03-28T12:28:29.011Z</time></trkpt><trkpt lat="44.4987183" lon="9.1796683"><ele>973.0</ele><time>2026-03-28T12:28:30.01Z</time></trkpt><trkpt lat="44.49861" lon="9.17968"><ele>973.0</ele><time>2026-03-28T12:28:31.011Z</time></trkpt><trkpt lat="44.4985133" lon="9.1796867"><ele>973.0</ele><time>2026-03-28T12:28:32.011Z</time></trkpt><trkpt lat="44.498425" lon="9.1796967"><ele>975.8333333333333</ele><time>2026-03-28T12:28:33.011Z</time></trkpt><trkpt lat="44.4983467" lon="9.179715"><ele>978.6666666666666</ele><time>2026-03-28T12:28:34.011Z</time></trkpt><trkpt lat="44.4982833" lon="9.1797"><ele>981.5</ele><time>2026-03-28T12:28:35.011Z</time></trkpt><trkpt lat="44.498225" lon="9.1796267"><ele>984.3333333333333</ele><time>2026-03-28T12:28:36.01Z</time></trkpt><trkpt lat="44.49819" lon="9.1795017"><ele>987.1666666666666</ele><time>2026-03-28T12:28:37.011Z</time></trkpt><trkpt lat="44.498165" lon="9.1793367"><ele>990.0</ele><time>2026-03-28T12:28:38.011Z</time></trkpt><trkpt lat="44.4981433" lon="9.17918"><ele>991.4</ele><time>2026-03-28T12:28:39.011Z</time></trkpt><trkpt lat="44.4981167" lon="9.1790167"><ele>992.8</ele><time>2026-03-28T12:28:40.011Z</time></trkpt><trkpt lat="44.4980883" lon="9.1788783"><ele>994.2</ele><time>2026-03-28T12:28:41.011Z</time></trkpt><trkpt lat="44.4980483" lon="9.1787467"><ele>995.6</ele><time>2026-03-28T12:28:42.011Z</time></trkpt><trkpt lat="44.4979767" lon="9.1786383"><ele>997.0</ele><time>2026-03-28T12:28:43.011Z</time></trkpt><trkpt lat="44.4978967" lon="9.1785467"><ele>997.0</ele><time>2026-03-28T12:28:44.01Z</time></trkpt><trkpt lat="44.4978067" lon="9.1784617"><ele>997.0</ele><time>2026-03-28T12:28:45.01Z</time></trkpt><trkpt lat="44.4977067" lon="9.178375"><ele>997.0</ele><time>2026-03-28T12:28:46.011Z</time></trkpt><trkpt lat="44.49761" lon="9.17829"><ele>997.0</ele><time>2026-03-28T12:28:47.011Z</time></trkpt><trkpt lat="44.4975217" lon="9.1782317"><ele>997.0</ele><time>2026-03-28T12:28:48.011Z</time></trkpt><trkpt lat="44.49744" lon="9.1782033"><ele>996.9999999999999</ele><time>2026-03-28T12:28:49.011Z</time></trkpt><trkpt lat="44.49737" lon="9.1782033"><ele>997.0</ele><time>2026-03-28T12:28:50.011Z</time></trkpt><trkpt lat="44.497285" lon="9.1782717"><ele>997.0</ele><time>2026-03-28T12:28:52.011Z</time></trkpt><trkpt lat="44.49734" lon="9.1783733"><ele>997.0</ele><time>2026-03-28T12:28:54.011Z</time></trkpt><trkpt lat="44.49742" lon="9.1784183"><ele>996.9999999999999</ele><time>2026-03-28T12:28:55.011Z</time></trkpt><trkpt lat="44.49748" lon="9.1784717"><ele>997.0</ele><time>2026-03-28T12:28:56.011Z</time></trkpt><trkpt lat="44.4975367" lon="9.1785517"><ele>997.0</ele><time>2026-03-28T12:28:57.011Z</time></trkpt><trkpt lat="44.4975883" lon="9.1786583"><ele>997.0</ele><time>2026-03-28T12:28:58.011Z</time></trkpt><trkpt lat="44.497635" lon="9.1787833"><ele>997.0</ele><time>2026-03-28T12:28:59.011Z</time></trkpt><trkpt lat="44.4976767" lon="9.1789267"><ele>997.0</ele><time>2026-03-28T12:29:00.011Z</time></trkpt><trkpt lat="44.4977283" lon="9.17907"><ele>997.0</ele><time>2026-03-28T12:29:01.011Z</time></trkpt><trkpt lat="44.497785" lon="9.1792117"><ele>1000.8333333333333</ele><time>2026-03-28T12:29:02.011Z</time></trkpt><trkpt lat="44.4978367" lon="9.1793567"><ele>1004.6666666666666</ele><time>2026-03-28T12:29:03.011Z</time></trkpt><trkpt lat="44.4978733" lon="9.17947"><ele>1008.5</ele><time>2026-03-28T12:29:04.011Z</time></trkpt><trkpt lat="44.497895" lon="9.17956"><ele>1012.3333333333333</ele><time>2026-03-28T12:29:05.011Z</time></trkpt><trkpt lat="44.497865" lon="9.1796533"><ele>1016.1666666666666</ele><time>2026-03-28T12:29:07.011Z</time></trkpt><trkpt lat="44.497805" lon="9.1796183"><ele>1020.0</ele><time>2026-03-28T12:29:09.011Z</time></trkpt><trkpt lat="44.497735" lon="9.1794967"><ele>1020.0</ele><time>2026-03-28T12:29:11.01Z</time></trkpt><trkpt lat="44.4976667" lon="9.1793617"><ele>1020.0</ele><time>2026-03-28T12:29:13.011Z</time></trkpt><trkpt lat="44.4976183" lon="9.179265"><ele>1020.0</ele><time>2026-03-28T12:29:14.01Z</time></trkpt><trkpt lat="44.4975467" lon="9.1791233"><ele>1020.0</ele><time>2026-03-28T12:29:15.011Z</time></trkpt><trkpt lat="44.4974783" lon="9.1790033"><ele>1020.0</ele><time>2026-03-28T12:29:16.011Z</time></trkpt><trkpt lat="44.4973967" lon="9.1789"><ele>1017.2</ele><time>2026-03-28T12:29:17.011Z</time></trkpt><trkpt lat="44.4973083" lon="9.17885"><ele>1014.4</ele><time>2026-03-28T12:29:18.01Z</time></trkpt><trkpt lat="44.4972083" lon="9.178845"><ele>1011.5999999999999</ele><time>2026-03-28T12:29:19.011Z</time></trkpt><trkpt lat="44.49711" lon="9.17889"><ele>1008.8</ele><time>2026-03-28T12:29:20.011Z</time></trkpt><trkpt lat="44.4970167" lon="9.17892"><ele>1006.0</ele><time>2026-03-28T12:29:21.011Z</time></trkpt><trkpt lat="44.4969217" lon="9.1789433"><ele>1006.0</ele><time>2026-03-28T12:29:22.011Z</time></trkpt><trkpt lat="44.4968233" lon="9.1789683"><ele>1005.9999999999999</ele><time>2026-03-28T12:29:23.011Z</time></trkpt><trkpt lat="44.4967233" lon="9.1789767"><ele>1005.9999999999999</ele><time>2026-03-28T12:29:24.011Z</time></trkpt><trkpt lat="44.496625" lon="9.1789717"><ele>1006.0</ele><time>2026-03-28T12:29:25.011Z</time></trkpt><trkpt lat="44.4965117" lon="9.178965"><ele>1006.0</ele><time>2026-03-28T12:29:26.011Z</time></trkpt><trkpt lat="44.4963967" lon="9.17896"><ele>1006.0</ele><time>2026-03-28T12:29:27.01Z</time></trkpt><trkpt lat="44.4962967" lon="9.1789583"><ele>1005.9999999999999</ele><time>2026-03-28T12:29:28.011Z</time></trkpt><trkpt lat="44.4961983" lon="9.17897"><ele>1005.9999999999999</ele><time>2026-03-28T12:29:29.011Z</time></trkpt><trkpt lat="44.496105" lon="9.1790267"><ele>1006.0</ele><time>2026-03-28T12:29:30.011Z</time></trkpt><trkpt lat="44.49601" lon="9.179085"><ele>1006.0</ele><time>2026-03-28T12:29:31.011Z</time></trkpt><trkpt lat="44.49592" lon="9.1791167"><ele>1008.8333333333333</ele><time>2026-03-28T12:29:32.011Z</time></trkpt><trkpt lat="44.4958333" lon="9.17912"><ele>1011.6666666666666</ele><time>2026-03-28T12:29:33.011Z</time></trkpt><trkpt lat="44.495755" lon="9.1790817"><ele>1014.5</ele><time>2026-03-28T12:29:34.011Z</time></trkpt><trkpt lat="44.4956933" lon="9.1790083"><ele>1017.3333333333333</ele><time>2026-03-28T12:29:35.011Z</time></trkpt><trkpt lat="44.4956467" lon="9.178925"><ele>1020.1666666666666</ele><time>2026-03-28T12:29:36.011Z</time></trkpt><trkpt lat="44.495585" lon="9.178835"><ele>1023.0</ele><time>2026-03-28T12:29:37.011Z</time></trkpt><trkpt lat="44.4955267" lon="9.1787767"><ele>1023.0</ele><time>2026-03-28T12:29:38.01Z</time></trkpt><trkpt lat="44.4954617" lon="9.1787167"><ele>1023.0</ele><time>2026-03-28T12:29:39.011Z</time></trkpt><trkpt lat="44.495355" lon="9.1786717"><ele>1023.0</ele><time>2026-03-28T12:29:41.011Z</time></trkpt><trkpt lat="44.4953" lon="9.1788033"><ele>1023.0</ele><time>2026-03-28T12:30:17.01Z</time></trkpt><trkpt lat="44.4952983" lon="9.1789233"><ele>1023.0</ele><time>2026-03-28T12:30:19.011Z</time></trkpt><trkpt lat="44.49531" lon="9.179015"><ele>1025.4</ele><time>2026-03-28T12:30:20.011Z</time></trkpt><trkpt lat="44.4953167" lon="9.1791183"><ele>1027.8</ele><time>2026-03-28T12:30:21.011Z</time></trkpt><trkpt lat="44.495345" lon="9.1792333"><ele>1030.2</ele><time>2026-03-28T12:30:22.011Z</time></trkpt><trkpt lat="44.4953983" lon="9.1793783"><ele>1032.6</ele><time>2026-03-28T12:30:23.01Z</time></trkpt><trkpt lat="44.49543" lon="9.1795367"><ele>1035.0</ele><time>2026-03-28T12:30:24.011Z</time></trkpt><trkpt lat="44.495445" lon="9.179715"><ele>1040.25</ele><time>2026-03-28T12:30:25.011Z</time></trkpt><trkpt lat="44.4954517" lon="9.1798783"><ele>1045.5</ele><time>2026-03-28T12:30:26.011Z</time></trkpt><trkpt lat="44.49542" lon="9.1800383"><ele>1050.75</ele><time>2026-03-28T12:30:27.011Z</time></trkpt><trkpt lat="44.4953733" lon="9.1802033"><ele>1056.0</ele><time>2026-03-28T12:30:28.011Z</time></trkpt><trkpt lat="44.4953083" lon="9.18037"><ele>1048.0</ele><time>2026-03-28T12:30:29.011Z</time></trkpt><trkpt lat="44.495225" lon="9.18053"><ele>1040.0</ele><time>2026-03-28T12:30:30.01Z</time></trkpt><trkpt lat="44.49514" lon="9.180665"><ele>1032.0</ele><time>2026-03-28T12:30:31.011Z</time></trkpt><trkpt lat="44.495045" lon="9.1807933"><ele>1024.0</ele><time>2026-03-28T12:30:32.011Z</time></trkpt><trkpt lat="44.4949633" lon="9.1809083"><ele>1024.0</ele><time>2026-03-28T12:30:33.011Z</time></trkpt><trkpt lat="44.4948933" lon="9.1810133"><ele>1024.0</ele><time>2026-03-28T12:30:34.011Z</time></trkpt><trkpt lat="44.4948283" lon="9.1811583"><ele>1024.0</ele><time>2026-03-28T12:30:35.011Z</time></trkpt><trkpt lat="44.4947733" lon="9.1813133"><ele>1024.0</ele><time>2026-03-28T12:30:36.01Z</time></trkpt><trkpt lat="44.4947283" lon="9.1814817"><ele>1018.5</ele><time>2026-03-28T12:30:37.011Z</time></trkpt><trkpt lat="44.4946767" lon="9.1816383"><ele>1013.0</ele><time>2026-03-28T12:30:38.011Z</time></trkpt><trkpt lat="44.4946133" lon="9.18178"><ele>1007.5</ele><time>2026-03-28T12:30:39.01Z</time></trkpt><trkpt lat="44.49453" lon="9.1818833"><ele>1002.0</ele><time>2026-03-28T12:30:40.011Z</time></trkpt><trkpt lat="44.494435" lon="9.181935"><ele>1002.0</ele><time>2026-03-28T12:30:41.011Z</time></trkpt><trkpt lat="44.49435" lon="9.18199"><ele>1002.0</ele><time>2026-03-28T12:30:42.011Z</time></trkpt><trkpt lat="44.4942867" lon="9.1820767"><ele>1002.0</ele><time>2026-03-28T12:30:43.011Z</time></trkpt><trkpt lat="44.4942167" lon="9.1821717"><ele>1002.0</ele><time>2026-03-28T12:30:44.011Z</time></trkpt><trkpt lat="44.49414" lon="9.18229"><ele>1002.0</ele><time>2026-03-28T12:30:45.011Z</time></trkpt><trkpt lat="44.4940417" lon="9.1823783"><ele>999.25</ele><time>2026-03-28T12:30:46.011Z</time></trkpt><trkpt lat="44.4939367" lon="9.1824517"><ele>996.5</ele><time>2026-03-28T12:30:47.011Z</time></trkpt><trkpt lat="44.4938067" lon="9.1824967"><ele>993.75</ele><time>2026-03-28T12:30:48.011Z</time></trkpt><trkpt lat="44.4937017" lon="9.1825483"><ele>991.0</ele><time>2026-03-28T12:30:49.011Z</time></trkpt><trkpt lat="44.4936" lon="9.1826283"><ele>991.0</ele><time>2026-03-28T12:30:50.011Z</time></trkpt><trkpt lat="44.4934967" lon="9.18275"><ele>991.0</ele><time>2026-03-28T12:30:51.011Z</time></trkpt><trkpt lat="44.4933867" lon="9.1828867"><ele>991.0</ele><time>2026-03-28T12:30:52.011Z</time></trkpt><trkpt lat="44.4932783" lon="9.1830233"><ele>991.0</ele><time>2026-03-28T12:30:53.011Z</time></trkpt><trkpt lat="44.4931633" lon="9.1831717"><ele>990.25</ele><time>2026-03-28T12:30:54.011Z</time></trkpt><trkpt lat="44.4930617" lon="9.1833067"><ele>989.5</ele><time>2026-03-28T12:30:55.01Z</time></trkpt><trkpt lat="44.49294" lon="9.1834317"><ele>988.75</ele><time>2026-03-28T12:30:56.011Z</time></trkpt><trkpt lat="44.492805" lon="9.1835217"><ele>988.0</ele><time>2026-03-28T12:30:57.011Z</time></trkpt><trkpt lat="44.4926733" lon="9.1835717"><ele>988.0</ele><time>2026-03-28T12:30:58.011Z</time></trkpt><trkpt lat="44.49256" lon="9.1836167"><ele>988.0</ele><time>2026-03-28T12:30:59.011Z</time></trkpt><trkpt lat="44.4924517" lon="9.1836633"><ele>988.0</ele><time>2026-03-28T12:31:00.01Z</time></trkpt><trkpt lat="44.49234" lon="9.183755"><ele>988.0</ele><time>2026-03-28T12:31:01.011Z</time></trkpt><trkpt lat="44.4922233" lon="9.183785"><ele>988.0</ele><time>2026-03-28T12:31:02.011Z</time></trkpt><trkpt lat="44.4921183" lon="9.1837783"><ele>988.0</ele><time>2026-03-28T12:31:03.011Z</time></trkpt><trkpt lat="44.4920217" lon="9.1837217"><ele>988.0</ele><time>2026-03-28T12:31:04.011Z</time></trkpt><trkpt lat="44.491925" lon="9.1836383"><ele>988.0</ele><time>2026-03-28T12:31:05.011Z</time></trkpt><trkpt lat="44.4918333" lon="9.1835567"><ele>988.0</ele><time>2026-03-28T12:31:06.011Z</time></trkpt><trkpt lat="44.4917267" lon="9.1834767"><ele>987.75</ele><time>2026-03-28T12:31:07.011Z</time></trkpt><trkpt lat="44.4916117" lon="9.183415"><ele>987.5</ele><time>2026-03-28T12:31:08.011Z</time></trkpt><trkpt lat="44.4914817" lon="9.1833583"><ele>987.25</ele><time>2026-03-28T12:31:09.011Z</time></trkpt><trkpt lat="44.4913467" lon="9.183305"><ele>987.0</ele><time>2026-03-28T12:31:10.011Z</time></trkpt><trkpt lat="44.4912367" lon="9.1832483"><ele>984.8</ele><time>2026-03-28T12:31:11.011Z</time></trkpt><trkpt lat="44.49112" lon="9.1831867"><ele>982.6</ele><time>2026-03-28T12:31:12.01Z</time></trkpt><trkpt lat="44.4910283" lon="9.1831167"><ele>980.3999999999999</ele><time>2026-03-28T12:31:13.011Z</time></trkpt><trkpt lat="44.4909467" lon="9.183035"><ele>978.1999999999999</ele><time>2026-03-28T12:31:14.01Z</time></trkpt><trkpt lat="44.4908733" lon="9.182985"><ele>976.0</ele><time>2026-03-28T12:31:15.011Z</time></trkpt><trkpt lat="44.4908067" lon="9.182975"><ele>976.0</ele><time>2026-03-28T12:31:16.01Z</time></trkpt><trkpt lat="44.4907167" lon="9.183085"><ele>975.9999999999999</ele><time>2026-03-28T12:31:18.011Z</time></trkpt><trkpt lat="44.490695" lon="9.1831817"><ele>975.9999999999999</ele><time>2026-03-28T12:31:19.011Z</time></trkpt><trkpt lat="44.4907133" lon="9.1833083"><ele>976.0</ele><time>2026-03-28T12:31:20.011Z</time></trkpt><trkpt lat="44.490755" lon="9.183475"><ele>976.0</ele><time>2026-03-28T12:31:21.011Z</time></trkpt><trkpt lat="44.4908133" lon="9.18363"><ele>976.0</ele><time>2026-03-28T12:31:22.011Z</time></trkpt><trkpt lat="44.4908467" lon="9.1837883"><ele>975.9999999999999</ele><time>2026-03-28T12:31:23.011Z</time></trkpt><trkpt lat="44.49087" lon="9.1839417"><ele>975.9999999999999</ele><time>2026-03-28T12:31:24.01Z</time></trkpt><trkpt lat="44.4908817" lon="9.184055"><ele>976.0</ele><time>2026-03-28T12:31:25.011Z</time></trkpt><trkpt lat="44.4908633" lon="9.1841933"><ele>976.0</ele><time>2026-03-28T12:31:26.011Z</time></trkpt><trkpt lat="44.4908033" lon="9.1843233"><ele>976.75</ele><time>2026-03-28T12:31:27.011Z</time></trkpt><trkpt lat="44.490735" lon="9.1844617"><ele>977.5</ele><time>2026-03-28T12:31:28.01Z</time></trkpt><trkpt lat="44.4906717" lon="9.184595"><ele>978.25</ele><time>2026-03-28T12:31:29.01Z</time></trkpt><trkpt lat="44.4906217" lon="9.1847317"><ele>979.0</ele><time>2026-03-28T12:31:30.011Z</time></trkpt><trkpt lat="44.4905817" lon="9.1848733"><ele>979.4999999999999</ele><time>2026-03-28T12:31:31.011Z</time></trkpt><trkpt lat="44.4905433" lon="9.1850067"><ele>980.0</ele><time>2026-03-28T12:31:32.011Z</time></trkpt><trkpt lat="44.4904983" lon="9.1851417"><ele>980.5</ele><time>2026-03-28T12:31:33.011Z</time></trkpt><trkpt lat="44.4904483" lon="9.1852333"><ele>981.0</ele><time>2026-03-28T12:31:34.011Z</time></trkpt><trkpt lat="44.4903917" lon="9.1853067"><ele>981.4999999999999</ele><time>2026-03-28T12:31:35.011Z</time></trkpt><trkpt lat="44.49035" lon="9.1854"><ele>982.0</ele><time>2026-03-28T12:31:36.011Z</time></trkpt><trkpt lat="44.49032" lon="9.1854967"><ele>980.4000000000001</ele><time>2026-03-28T12:31:37.011Z</time></trkpt><trkpt lat="44.4903167" lon="9.1856183"><ele>978.8000000000001</ele><time>2026-03-28T12:31:38.01Z</time></trkpt><trkpt lat="44.4903467" lon="9.185775"><ele>977.2</ele><time>2026-03-28T12:31:39.011Z</time></trkpt><trkpt lat="44.4903867" lon="9.1859267"><ele>975.6</ele><time>2026-03-28T12:31:40.011Z</time></trkpt><trkpt lat="44.49043" lon="9.1860683"><ele>974.0</ele><time>2026-03-28T12:31:41.01Z</time></trkpt><trkpt lat="44.4904833" lon="9.1862017"><ele>974.0</ele><time>2026-03-28T12:31:42.011Z</time></trkpt><trkpt lat="44.4905617" lon="9.1863217"><ele>974.0</ele><time>2026-03-28T12:31:43.011Z</time></trkpt><trkpt lat="44.4906517" lon="9.18643"><ele>974.0</ele><time>2026-03-28T12:31:44.011Z</time></trkpt><trkpt lat="44.49076" lon="9.18653"><ele>974.0</ele><time>2026-03-28T12:31:45.01Z</time></trkpt><trkpt lat="44.4908333" lon="9.1866683"><ele>970.6666666666667</ele><time>2026-03-28T12:31:46.011Z</time></trkpt><trkpt lat="44.490935" lon="9.1867483"><ele>967.3333333333334</ele><time>2026-03-28T12:31:47.011Z</time></trkpt><trkpt lat="44.4910033" lon="9.1867667"><ele>964.0</ele><time>2026-03-28T12:31:48.01Z</time></trkpt><trkpt lat="44.4910783" lon="9.1867533"><ele>960.6666666666667</ele><time>2026-03-28T12:31:49.011Z</time></trkpt><trkpt lat="44.49115" lon="9.1867133"><ele>957.3333333333334</ele><time>2026-03-28T12:31:50.011Z</time></trkpt><trkpt lat="44.4912267" lon="9.186725"><ele>954.0</ele><time>2026-03-28T12:31:52.011Z</time></trkpt><trkpt lat="44.4911617" lon="9.1868417"><ele>954.0</ele><time>2026-03-28T12:31:55.011Z</time></trkpt><trkpt lat="44.49107" lon="9.18688"><ele>954.0</ele><time>2026-03-28T12:31:56.01Z</time></trkpt><trkpt lat="44.4909683" lon="9.1869067"><ele>954.0</ele><time>2026-03-28T12:31:57.011Z</time></trkpt><trkpt lat="44.4908433" lon="9.18688"><ele>954.0</ele><time>2026-03-28T12:31:58.01Z</time></trkpt><trkpt lat="44.490715" lon="9.1868433"><ele>954.0</ele><time>2026-03-28T12:31:59.011Z</time></trkpt><trkpt lat="44.4905783" lon="9.1867733"><ele>954.0</ele><time>2026-03-28T12:32:00.011Z</time></trkpt><trkpt lat="44.49044" lon="9.186725"><ele>954.0</ele><time>2026-03-28T12:32:01.011Z</time></trkpt><trkpt lat="44.490305" lon="9.1866933"><ele>954.0</ele><time>2026-03-28T12:32:02.011Z</time></trkpt><trkpt lat="44.4901867" lon="9.1866817"><ele>950.6</ele><time>2026-03-28T12:32:03.011Z</time></trkpt><trkpt lat="44.4900917" lon="9.1866933"><ele>947.2</ele><time>2026-03-28T12:32:04.011Z</time></trkpt><trkpt lat="44.4900133" lon="9.186745"><ele>943.8000000000001</ele><time>2026-03-28T12:32:05.01Z</time></trkpt><trkpt lat="44.4899467" lon="9.1868317"><ele>940.4000000000001</ele><time>2026-03-28T12:32:06.011Z</time></trkpt><trkpt lat="44.4898917" lon="9.1869333"><ele>937.0</ele><time>2026-03-28T12:32:07.011Z</time></trkpt><trkpt lat="44.489845" lon="9.1870617"><ele>937.0</ele><time>2026-03-28T12:32:08.011Z</time></trkpt><trkpt lat="44.48979" lon="9.1872133"><ele>937.0</ele><time>2026-03-28T12:32:09.011Z</time></trkpt><trkpt lat="44.4897233" lon="9.1873683"><ele>937.0</ele><time>2026-03-28T12:32:10.011Z</time></trkpt><trkpt lat="44.48965" lon="9.18752"><ele>937.0</ele><time>2026-03-28T12:32:11.011Z</time></trkpt><trkpt lat="44.489585" lon="9.187675"><ele>932.6</ele><time>2026-03-28T12:32:12.011Z</time></trkpt><trkpt lat="44.4895267" lon="9.1878167"><ele>928.2</ele><time>2026-03-28T12:32:13.011Z</time></trkpt><trkpt lat="44.4894683" lon="9.1879533"><ele>923.8</ele><time>2026-03-28T12:32:14.011Z</time></trkpt><trkpt lat="44.4894033" lon="9.18807"><ele>919.4</ele><time>2026-03-28T12:32:15.011Z</time></trkpt><trkpt lat="44.4893333" lon="9.1881733"><ele>915.0</ele><time>2026-03-28T12:32:16.011Z</time></trkpt><trkpt lat="44.48927" lon="9.1882733"><ele>915.0</ele><time>2026-03-28T12:32:17.011Z</time></trkpt><trkpt lat="44.4892017" lon="9.1883483"><ele>915.0</ele><time>2026-03-28T12:32:18.01Z</time></trkpt><trkpt lat="44.4891467" lon="9.1884333"><ele>915.0</ele><time>2026-03-28T12:32:19.011Z</time></trkpt><trkpt lat="44.4891083" lon="9.1885283"><ele>915.0</ele><time>2026-03-28T12:32:20.011Z</time></trkpt><trkpt lat="44.489085" lon="9.18864"><ele>915.0</ele><time>2026-03-28T12:32:21.011Z</time></trkpt><trkpt lat="44.4890983" lon="9.1887717"><ele>915.0</ele><time>2026-03-28T12:32:22.011Z</time></trkpt><trkpt lat="44.48913" lon="9.1889133"><ele>914.5</ele><time>2026-03-28T12:32:23.011Z</time></trkpt><trkpt lat="44.4891683" lon="9.1890733"><ele>914.0</ele><time>2026-03-28T12:32:24.011Z</time></trkpt><trkpt lat="44.4892183" lon="9.1892583"><ele>913.5</ele><time>2026-03-28T12:32:25.011Z</time></trkpt><trkpt lat="44.4892617" lon="9.18946"><ele>913.0</ele><time>2026-03-28T12:32:26.011Z</time></trkpt><trkpt lat="44.4893" lon="9.1896683"><ele>910.75</ele><time>2026-03-28T12:32:27.011Z</time></trkpt><trkpt lat="44.4893483" lon="9.1898683"><ele>908.5</ele><time>2026-03-28T12:32:28.01Z</time></trkpt><trkpt lat="44.4893983" lon="9.1900567"><ele>906.25</ele><time>2026-03-28T12:32:29.011Z</time></trkpt><trkpt lat="44.4894433" lon="9.1902383"><ele>904.0</ele><time>2026-03-28T12:32:30.01Z</time></trkpt><trkpt lat="44.4894833" lon="9.1904233"><ele>904.0</ele><time>2026-03-28T12:32:31.011Z</time></trkpt><trkpt lat="44.4895083" lon="9.1906"><ele>904.0</ele><time>2026-03-28T12:32:32.011Z</time></trkpt><trkpt lat="44.4895283" lon="9.1907733"><ele>904.0</ele><time>2026-03-28T12:32:33.011Z</time></trkpt><trkpt lat="44.489545" lon="9.1909333"><ele>904.0</ele><time>2026-03-28T12:32:34.01Z</time></trkpt><trkpt lat="44.4895467" lon="9.1910933"><ele>901.8000000000001</ele><time>2026-03-28T12:32:35.011Z</time></trkpt><trkpt lat="44.48954" lon="9.1912633"><ele>899.6000000000001</ele><time>2026-03-28T12:32:36.011Z</time></trkpt><trkpt lat="44.4895133" lon="9.191405"><ele>897.4</ele><time>2026-03-28T12:32:37.011Z</time></trkpt><trkpt lat="44.4894717" lon="9.1915467"><ele>895.2</ele><time>2026-03-28T12:32:38.011Z</time></trkpt><trkpt lat="44.4894367" lon="9.1916783"><ele>893.0</ele><time>2026-03-28T12:32:39.011Z</time></trkpt><trkpt lat="44.4894133" lon="9.1918217"><ele>893.2</ele><time>2026-03-28T12:32:40.011Z</time></trkpt><trkpt lat="44.4894017" lon="9.1919483"><ele>893.4</ele><time>2026-03-28T12:32:41.011Z</time></trkpt><trkpt lat="44.4894067" lon="9.192085"><ele>893.6000000000001</ele><time>2026-03-28T12:32:42.011Z</time></trkpt><trkpt lat="44.4894183" lon="9.1922267"><ele>893.8000000000001</ele><time>2026-03-28T12:32:43.011Z</time></trkpt><trkpt lat="44.48944" lon="9.1923667"><ele>894.0</ele><time>2026-03-28T12:32:44.011Z</time></trkpt><trkpt lat="44.4894583" lon="9.192515"><ele>894.0</ele><time>2026-03-28T12:32:45.011Z</time></trkpt><trkpt lat="44.4894633" lon="9.1926617"><ele>894.0000000000001</ele><time>2026-03-28T12:32:46.011Z</time></trkpt><trkpt lat="44.4894517" lon="9.1928083"><ele>894.0000000000001</ele><time>2026-03-28T12:32:47.011Z</time></trkpt><trkpt lat="44.489415" lon="9.192935"><ele>894.0</ele><time>2026-03-28T12:32:48.011Z</time></trkpt><trkpt lat="44.4893467" lon="9.1930717"><ele>894.0</ele><time>2026-03-28T12:32:49.011Z</time></trkpt><trkpt lat="44.4892617" lon="9.1932"><ele>896.5</ele><time>2026-03-28T12:32:50.011Z</time></trkpt><trkpt lat="44.4891567" lon="9.1933317"><ele>899.0</ele><time>2026-03-28T12:32:51.01Z</time></trkpt><trkpt lat="44.4890383" lon="9.1934667"><ele>901.5</ele><time>2026-03-28T12:32:52.011Z</time></trkpt><trkpt lat="44.488925" lon="9.1935867"><ele>904.0</ele><time>2026-03-28T12:32:53.011Z</time></trkpt><trkpt lat="44.4888183" lon="9.1937067"><ele>901.5</ele><time>2026-03-28T12:32:54.011Z</time></trkpt><trkpt lat="44.48872" lon="9.1938333"><ele>899.0</ele><time>2026-03-28T12:32:55.011Z</time></trkpt><trkpt lat="44.4886233" lon="9.1939583"><ele>896.5</ele><time>2026-03-28T12:32:56.011Z</time></trkpt><trkpt lat="44.4885033" lon="9.1940517"><ele>894.0</ele><time>2026-03-28T12:32:57.011Z</time></trkpt><trkpt lat="44.4883783" lon="9.1941267"><ele>894.0</ele><time>2026-03-28T12:32:58.011Z</time></trkpt><trkpt lat="44.4882567" lon="9.19419"><ele>894.0</ele><time>2026-03-28T12:32:59.011Z</time></trkpt><trkpt lat="44.4881417" lon="9.1942583"><ele>894.0</ele><time>2026-03-28T12:33:00.01Z</time></trkpt><trkpt lat="44.488025" lon="9.19429"><ele>894.0</ele><time>2026-03-28T12:33:01.011Z</time></trkpt><trkpt lat="44.487905" lon="9.1942683"><ele>889.5</ele><time>2026-03-28T12:33:02.011Z</time></trkpt><trkpt lat="44.4877833" lon="9.1942267"><ele>885.0</ele><time>2026-03-28T12:33:03.011Z</time></trkpt><trkpt lat="44.48767" lon="9.1941933"><ele>880.5</ele><time>2026-03-28T12:33:04.01Z</time></trkpt><trkpt lat="44.48756" lon="9.1941717"><ele>876.0</ele><time>2026-03-28T12:33:05.011Z</time></trkpt><trkpt lat="44.4874483" lon="9.1941617"><ele>876.0</ele><time>2026-03-28T12:33:06.011Z</time></trkpt><trkpt lat="44.4873433" lon="9.19415"><ele>875.9999999999999</ele><time>2026-03-28T12:33:07.011Z</time></trkpt><trkpt lat="44.48723" lon="9.1941567"><ele>875.9999999999999</ele><time>2026-03-28T12:33:08.011Z</time></trkpt><trkpt lat="44.4871167" lon="9.1941617"><ele>876.0</ele><time>2026-03-28T12:33:09.011Z</time></trkpt><trkpt lat="44.487025" lon="9.1941733"><ele>876.0</ele><time>2026-03-28T12:33:10.011Z</time></trkpt><trkpt lat="44.48695" lon="9.1942033"><ele>872.8333333333334</ele><time>2026-03-28T12:33:11.011Z</time></trkpt><trkpt lat="44.4868833" lon="9.1942433"><ele>869.6666666666667</ele><time>2026-03-28T12:33:12.011Z</time></trkpt><trkpt lat="44.4868333" lon="9.194305"><ele>866.5</ele><time>2026-03-28T12:33:13.011Z</time></trkpt><trkpt lat="44.48681" lon="9.1944033"><ele>863.3333333333334</ele><time>2026-03-28T12:33:14.011Z</time></trkpt><trkpt lat="44.486815" lon="9.19452"><ele>860.1666666666667</ele><time>2026-03-28T12:33:15.011Z</time></trkpt><trkpt lat="44.4868333" lon="9.19464"><ele>857.0</ele><time>2026-03-28T12:33:16.011Z</time></trkpt><trkpt lat="44.4868733" lon="9.194765"><ele>856.0</ele><time>2026-03-28T12:33:17.011Z</time></trkpt><trkpt lat="44.4869283" lon="9.19488"><ele>855.0</ele><time>2026-03-28T12:33:18.01Z</time></trkpt><trkpt lat="44.48701" lon="9.1949683"><ele>854.0</ele><time>2026-03-28T12:33:19.011Z</time></trkpt><trkpt lat="44.4871017" lon="9.19504"><ele>853.0</ele><time>2026-03-28T12:33:20.011Z</time></trkpt><trkpt lat="44.487195" lon="9.1951033"><ele>852.0</ele><time>2026-03-28T12:33:21.01Z</time></trkpt><trkpt lat="44.48728" lon="9.1951617"><ele>856.5</ele><time>2026-03-28T12:33:22.01Z</time></trkpt><trkpt lat="44.4873583" lon="9.1952217"><ele>861.0</ele><time>2026-03-28T12:33:23.011Z</time></trkpt><trkpt lat="44.4874233" lon="9.1952733"><ele>865.5</ele><time>2026-03-28T12:33:24.01Z</time></trkpt><trkpt lat="44.4874867" lon="9.1953483"><ele>870.0</ele><time>2026-03-28T12:33:25.011Z</time></trkpt><trkpt lat="44.487515" lon="9.1954333"><ele>874.5</ele><time>2026-03-28T12:33:26.011Z</time></trkpt><trkpt lat="44.4874817" lon="9.1956"><ele>879.0</ele><time>2026-03-28T12:33:28.011Z</time></trkpt><trkpt lat="44.4874317" lon="9.1957"><ele>879.0</ele><time>2026-03-28T12:33:29.011Z</time></trkpt><trkpt lat="44.487385" lon="9.1958133"><ele>879.0</ele><time>2026-03-28T12:33:30.011Z</time></trkpt><trkpt lat="44.4873767" lon="9.1959183"><ele>879.0</ele><time>2026-03-28T12:33:31.011Z</time></trkpt><trkpt lat="44.4873683" lon="9.1960183"><ele>879.0</ele><time>2026-03-28T12:33:32.01Z</time></trkpt><trkpt lat="44.48735" lon="9.1961167"><ele>879.0</ele><time>2026-03-28T12:33:33.011Z</time></trkpt><trkpt lat="44.4873167" lon="9.1962017"><ele>879.0</ele><time>2026-03-28T12:33:34.011Z</time></trkpt><trkpt lat="44.48721" lon="9.1962883"><ele>879.0</ele><time>2026-03-28T12:33:36.011Z</time></trkpt><trkpt lat="44.48714" lon="9.19633"><ele>879.0</ele><time>2026-03-28T12:33:37.011Z</time></trkpt><trkpt lat="44.48708" lon="9.196405"><ele>879.0</ele><time>2026-03-28T12:33:38.011Z</time></trkpt><trkpt lat="44.48703" lon="9.1964967"><ele>879.0</ele><time>2026-03-28T12:33:39.011Z</time></trkpt><trkpt lat="44.4869833" lon="9.196615"><ele>879.0</ele><time>2026-03-28T12:33:40.011Z</time></trkpt><trkpt lat="44.4869667" lon="9.196735"><ele>879.0</ele><time>2026-03-28T12:33:41.011Z</time></trkpt><trkpt lat="44.486945" lon="9.1968583"><ele>876.8333333333334</ele><time>2026-03-28T12:33:42.011Z</time></trkpt><trkpt lat="44.4869267" lon="9.1969917"><ele>874.6666666666667</ele><time>2026-03-28T12:33:43.011Z</time></trkpt><trkpt lat="44.4869317" lon="9.197125"><ele>872.5</ele><time>2026-03-28T12:33:44.011Z</time></trkpt><trkpt lat="44.4869467" lon="9.1972333"><ele>870.3333333333334</ele><time>2026-03-28T12:33:45.011Z</time></trkpt><trkpt lat="44.4869717" lon="9.19734"><ele>868.1666666666667</ele><time>2026-03-28T12:33:46.011Z</time></trkpt><trkpt lat="44.4869917" lon="9.1974317"><ele>866.0</ele><time>2026-03-28T12:33:47.011Z</time></trkpt><trkpt lat="44.48696" lon="9.1975883"><ele>866.0</ele><time>2026-03-28T12:33:49.011Z</time></trkpt><trkpt lat="44.4868617" lon="9.1976767"><ele>865.9999999999999</ele><time>2026-03-28T12:33:51.011Z</time></trkpt><trkpt lat="44.486795" lon="9.19766"><ele>865.9999999999999</ele><time>2026-03-28T12:33:52.011Z</time></trkpt><trkpt lat="44.4867117" lon="9.19762"><ele>866.0</ele><time>2026-03-28T12:33:53.011Z</time></trkpt><trkpt lat="44.4866283" lon="9.19754"><ele>866.0</ele><time>2026-03-28T12:33:54.01Z</time></trkpt><trkpt lat="44.486545" lon="9.1974267"><ele>862.0</ele><time>2026-03-28T12:33:55.011Z</time></trkpt><trkpt lat="44.486455" lon="9.1972883"><ele>858.0</ele><time>2026-03-28T12:33:56.011Z</time></trkpt><trkpt lat="44.4863617" lon="9.1971567"><ele>854.0</ele><time>2026-03-28T12:33:57.011Z</time></trkpt><trkpt lat="44.486275" lon="9.1970467"><ele>850.0</ele><time>2026-03-28T12:33:58.01Z</time></trkpt><trkpt lat="44.486195" lon="9.1969583"><ele>846.8</ele><time>2026-03-28T12:33:59.011Z</time></trkpt><trkpt lat="44.4861" lon="9.196875"><ele>843.6</ele><time>2026-03-28T12:34:00.011Z</time></trkpt><trkpt lat="44.486" lon="9.19681"><ele>840.4000000000001</ele><time>2026-03-28T12:34:01.011Z</time></trkpt><trkpt lat="44.485895" lon="9.1967667"><ele>837.2</ele><time>2026-03-28T12:34:02.011Z</time></trkpt><trkpt lat="44.4857967" lon="9.1967483"><ele>834.0</ele><time>2026-03-28T12:34:03.011Z</time></trkpt><trkpt lat="44.4857117" lon="9.1967517"><ele>834.0</ele><time>2026-03-28T12:34:04.011Z</time></trkpt><trkpt lat="44.48563" lon="9.1967833"><ele>834.0</ele><time>2026-03-28T12:34:05.011Z</time></trkpt><trkpt lat="44.4855317" lon="9.19684"><ele>834.0</ele><time>2026-03-28T12:34:06.011Z</time></trkpt><trkpt lat="44.48544" lon="9.1969"><ele>834.0</ele><time>2026-03-28T12:34:07.011Z</time></trkpt><trkpt lat="44.48533" lon="9.1969417"><ele>834.0</ele><time>2026-03-28T12:34:08.011Z</time></trkpt><trkpt lat="44.48523" lon="9.196995"><ele>831.6</ele><time>2026-03-28T12:34:09.011Z</time></trkpt><trkpt lat="44.4851317" lon="9.19704"><ele>829.2</ele><time>2026-03-28T12:34:10.011Z</time></trkpt><trkpt lat="44.4850317" lon="9.1970517"><ele>826.8000000000001</ele><time>2026-03-28T12:34:11.011Z</time></trkpt><trkpt lat="44.48493" lon="9.1970433"><ele>824.4000000000001</ele><time>2026-03-28T12:34:12.01Z</time></trkpt><trkpt lat="44.4848383" lon="9.1970183"><ele>822.0</ele><time>2026-03-28T12:34:13.011Z</time></trkpt><trkpt lat="44.4847367" lon="9.1969633"><ele>822.0</ele><time>2026-03-28T12:34:14.011Z</time></trkpt><trkpt lat="44.4846183" lon="9.1968717"><ele>822.0</ele><time>2026-03-28T12:34:15.011Z</time></trkpt><trkpt lat="44.4845067" lon="9.1968"><ele>822.0</ele><time>2026-03-28T12:34:16.011Z</time></trkpt><trkpt lat="44.4843933" lon="9.1967317"><ele>822.0</ele><time>2026-03-28T12:34:17.011Z</time></trkpt><trkpt lat="44.4842783" lon="9.1966583"><ele>821.0</ele><time>2026-03-28T12:34:18.011Z</time></trkpt><trkpt lat="44.484165" lon="9.1965817"><ele>820.0</ele><time>2026-03-28T12:34:19.011Z</time></trkpt><trkpt lat="44.4840717" lon="9.1965133"><ele>819.0</ele><time>2026-03-28T12:34:20.011Z</time></trkpt><trkpt lat="44.4839917" lon="9.196445"><ele>818.0</ele><time>2026-03-28T12:34:21.011Z</time></trkpt><trkpt lat="44.4839283" lon="9.19639"><ele>817.0</ele><time>2026-03-28T12:34:22.01Z</time></trkpt><trkpt lat="44.4838067" lon="9.1963483"><ele>812.8</ele><time>2026-03-28T12:34:24.011Z</time></trkpt><trkpt lat="44.4837083" lon="9.196455"><ele>808.6</ele><time>2026-03-28T12:34:26.011Z</time></trkpt><trkpt lat="44.4836833" lon="9.1965583"><ele>804.4</ele><time>2026-03-28T12:34:27.011Z</time></trkpt><trkpt lat="44.48368" lon="9.1966617"><ele>800.1999999999999</ele><time>2026-03-28T12:34:28.011Z</time></trkpt><trkpt lat="44.483705" lon="9.1968017"><ele>796.0</ele><time>2026-03-28T12:34:29.01Z</time></trkpt><trkpt lat="44.4837483" lon="9.1969367"><ele>800.1999999999999</ele><time>2026-03-28T12:34:30.011Z</time></trkpt><trkpt lat="44.483815" lon="9.1970633"><ele>804.4</ele><time>2026-03-28T12:34:31.01Z</time></trkpt><trkpt lat="44.4838667" lon="9.1971917"><ele>808.6</ele><time>2026-03-28T12:34:32.011Z</time></trkpt><trkpt lat="44.48392" lon="9.197325"><ele>812.8</ele><time>2026-03-28T12:34:33.011Z</time></trkpt><trkpt lat="44.4839667" lon="9.1974683"><ele>817.0</ele><time>2026-03-28T12:34:34.011Z</time></trkpt><trkpt lat="44.48403" lon="9.1975967"><ele>818.75</ele><time>2026-03-28T12:34:35.011Z</time></trkpt><trkpt lat="44.484075" lon="9.197735"><ele>820.5</ele><time>2026-03-28T12:34:36.011Z</time></trkpt><trkpt lat="44.484115" lon="9.197885"><ele>822.25</ele><time>2026-03-28T12:34:37.011Z</time></trkpt><trkpt lat="44.48414" lon="9.198045"><ele>824.0</ele><time>2026-03-28T12:34:38.01Z</time></trkpt><trkpt lat="44.48418" lon="9.1982033"><ele>820.5</ele><time>2026-03-28T12:34:39.011Z</time></trkpt><trkpt lat="44.4842417" lon="9.19836"><ele>817.0</ele><time>2026-03-28T12:34:40.01Z</time></trkpt><trkpt lat="44.4843067" lon="9.1985117"><ele>813.5</ele><time>2026-03-28T12:34:41.011Z</time></trkpt><trkpt lat="44.4843683" lon="9.1986483"><ele>810.0</ele><time>2026-03-28T12:34:42.011Z</time></trkpt><trkpt lat="44.4844233" lon="9.1987783"><ele>810.0</ele><time>2026-03-28T12:34:43.011Z</time></trkpt><trkpt lat="44.484465" lon="9.198895"><ele>810.0</ele><time>2026-03-28T12:34:44.011Z</time></trkpt><trkpt lat="44.4844883" lon="9.198995"><ele>810.0</ele><time>2026-03-28T12:34:45.011Z</time></trkpt><trkpt lat="44.4844917" lon="9.1991617"><ele>810.0</ele><time>2026-03-28T12:34:47.01Z</time></trkpt><trkpt lat="44.48438" lon="9.1992717"><ele>810.0</ele><time>2026-03-28T12:34:49.011Z</time></trkpt><trkpt lat="44.4842767" lon="9.19932"><ele>810.4</ele><time>2026-03-28T12:34:50.011Z</time></trkpt><trkpt lat="44.484185" lon="9.19933"><ele>810.8</ele><time>2026-03-28T12:34:51.011Z</time></trkpt><trkpt lat="44.4840767" lon="9.199295"><ele>811.2</ele><time>2026-03-28T12:34:52.011Z</time></trkpt><trkpt lat="44.4839867" lon="9.1992767"><ele>811.6</ele><time>2026-03-28T12:34:53.011Z</time></trkpt><trkpt lat="44.483895" lon="9.1992667"><ele>812.0</ele><time>2026-03-28T12:34:54.011Z</time></trkpt><trkpt lat="44.4837983" lon="9.1992783"><ele>806.25</ele><time>2026-03-28T12:34:55.011Z</time></trkpt><trkpt lat="44.4836933" lon="9.19932"><ele>800.5</ele><time>2026-03-28T12:34:56.011Z</time></trkpt><trkpt lat="44.48359" lon="9.1993983"><ele>794.75</ele><time>2026-03-28T12:34:57.011Z</time></trkpt><trkpt lat="44.48347" lon="9.1994367"><ele>789.0</ele><time>2026-03-28T12:34:58.011Z</time></trkpt><trkpt lat="44.48334" lon="9.1994567"><ele>789.0</ele><time>2026-03-28T12:34:59.01Z</time></trkpt><trkpt lat="44.48321" lon="9.1994783"><ele>789.0</ele><time>2026-03-28T12:35:00.011Z</time></trkpt><trkpt lat="44.483085" lon="9.1995117"><ele>789.0</ele><time>2026-03-28T12:35:01.011Z</time></trkpt><trkpt lat="44.4829783" lon="9.1995483"><ele>789.0</ele><time>2026-03-28T12:35:02.011Z</time></trkpt><trkpt lat="44.4828817" lon="9.1996083"><ele>785.8333333333334</ele><time>2026-03-28T12:35:03.011Z</time></trkpt><trkpt lat="44.482805" lon="9.1996717"><ele>782.6666666666667</ele><time>2026-03-28T12:35:04.011Z</time></trkpt><trkpt lat="44.4827267" lon="9.1997233"><ele>779.5</ele><time>2026-03-28T12:35:05.011Z</time></trkpt><trkpt lat="44.48264" lon="9.199755"><ele>776.3333333333334</ele><time>2026-03-28T12:35:06.011Z</time></trkpt><trkpt lat="44.4825533" lon="9.1997633"><ele>773.1666666666667</ele><time>2026-03-28T12:35:07.011Z</time></trkpt><trkpt lat="44.4824883" lon="9.1997683"><ele>770.0</ele><time>2026-03-28T12:35:08.011Z</time></trkpt><trkpt lat="44.4824233" lon="9.19983"><ele>772.4</ele><time>2026-03-28T12:35:10.01Z</time></trkpt><trkpt lat="44.4824383" lon="9.1999817"><ele>774.8</ele><time>2026-03-28T12:35:12.011Z</time></trkpt><trkpt lat="44.4824617" lon="9.2001017"><ele>777.2</ele><time>2026-03-28T12:35:13.011Z</time></trkpt><trkpt lat="44.482465" lon="9.2002483"><ele>779.6</ele><time>2026-03-28T12:35:14.011Z</time></trkpt><trkpt lat="44.482455" lon="9.2003917"><ele>782.0</ele><time>2026-03-28T12:35:15.01Z</time></trkpt><trkpt lat="44.4824467" lon="9.20052"><ele>782.0000000000001</ele><time>2026-03-28T12:35:16.011Z</time></trkpt><trkpt lat="44.4824567" lon="9.200635"><ele>782.0</ele><time>2026-03-28T12:35:17.011Z</time></trkpt><trkpt lat="44.48248" lon="9.2007433"><ele>782.0</ele><time>2026-03-28T12:35:18.011Z</time></trkpt><trkpt lat="44.4825067" lon="9.2008567"><ele>782.0</ele><time>2026-03-28T12:35:19.011Z</time></trkpt><trkpt lat="44.4825367" lon="9.2009617"><ele>782.0000000000001</ele><time>2026-03-28T12:35:20.011Z</time></trkpt><trkpt lat="44.4825567" lon="9.2010667"><ele>782.0</ele><time>2026-03-28T12:35:21.01Z</time></trkpt><trkpt lat="44.48255" lon="9.2011683"><ele>783.25</ele><time>2026-03-28T12:35:22.011Z</time></trkpt><trkpt lat="44.4825233" lon="9.2012817"><ele>784.5</ele><time>2026-03-28T12:35:23.011Z</time></trkpt><trkpt lat="44.4824733" lon="9.20141"><ele>785.75</ele><time>2026-03-28T12:35:24.011Z</time></trkpt><trkpt lat="44.4823983" lon="9.201555"><ele>787.0</ele><time>2026-03-28T12:35:25.011Z</time></trkpt><trkpt lat="44.482295" lon="9.2016783"><ele>788.1666666666666</ele><time>2026-03-28T12:35:26.011Z</time></trkpt><trkpt lat="44.482215" lon="9.20178"><ele>789.3333333333333</ele><time>2026-03-28T12:35:27.011Z</time></trkpt><trkpt lat="44.48217" lon="9.2018817"><ele>790.5</ele><time>2026-03-28T12:35:28.011Z</time></trkpt><trkpt lat="44.4821267" lon="9.2019917"><ele>791.6666666666667</ele><time>2026-03-28T12:35:29.011Z</time></trkpt><trkpt lat="44.4821067" lon="9.202105"><ele>792.8333333333334</ele><time>2026-03-28T12:35:30.011Z</time></trkpt><trkpt lat="44.4821217" lon="9.2022133"><ele>794.0</ele><time>2026-03-28T12:35:31.01Z</time></trkpt><trkpt lat="44.4821583" lon="9.2023133"><ele>796.0000000000001</ele><time>2026-03-28T12:35:32.011Z</time></trkpt><trkpt lat="44.4822083" lon="9.20238"><ele>798.0</ele><time>2026-03-28T12:35:33.011Z</time></trkpt><trkpt lat="44.4821917" lon="9.20253"><ele>800.0</ele><time>2026-03-28T12:35:35.01Z</time></trkpt><trkpt lat="44.48214" lon="9.2026"><ele>802.0</ele><time>2026-03-28T12:35:36.011Z</time></trkpt><trkpt lat="44.4820667" lon="9.2026617"><ele>804.0000000000001</ele><time>2026-03-28T12:35:37.011Z</time></trkpt><trkpt lat="44.48198" lon="9.2027017"><ele>806.0</ele><time>2026-03-28T12:35:38.011Z</time></trkpt><trkpt lat="44.48188" lon="9.2027067"><ele>801.1428571428572</ele><time>2026-03-28T12:35:39.011Z</time></trkpt><trkpt lat="44.4818" lon="9.2027033"><ele>796.2857142857142</ele><time>2026-03-28T12:35:40.01Z</time></trkpt><trkpt lat="44.4817283" lon="9.2027217"><ele>791.4285714285714</ele><time>2026-03-28T12:35:41.011Z</time></trkpt><trkpt lat="44.481665" lon="9.2027683"><ele>786.5714285714287</ele><time>2026-03-28T12:35:42.011Z</time></trkpt><trkpt lat="44.481605" lon="9.202845"><ele>781.7142857142858</ele><time>2026-03-28T12:35:43.011Z</time></trkpt><trkpt lat="44.48154" lon="9.2028883"><ele>776.8571428571429</ele><time>2026-03-28T12:35:44.011Z</time></trkpt><trkpt lat="44.481475" lon="9.20287"><ele>772.0</ele><time>2026-03-28T12:35:45.011Z</time></trkpt><trkpt lat="44.481345" lon="9.20275"><ele>773.4999999999999</ele><time>2026-03-28T12:35:47.011Z</time></trkpt><trkpt lat="44.48126" lon="9.202675"><ele>775.0</ele><time>2026-03-28T12:35:48.011Z</time></trkpt><trkpt lat="44.4811883" lon="9.202605"><ele>776.5</ele><time>2026-03-28T12:35:49.011Z</time></trkpt><trkpt lat="44.48112" lon="9.20252"><ele>778.0</ele><time>2026-03-28T12:35:50.011Z</time></trkpt><trkpt lat="44.4810667" lon="9.202425"><ele>779.4999999999999</ele><time>2026-03-28T12:35:51.011Z</time></trkpt><trkpt lat="44.481035" lon="9.2023417"><ele>781.0</ele><time>2026-03-28T12:35:52.011Z</time></trkpt><trkpt lat="44.4810333" lon="9.2022467"><ele>776.9999999999999</ele><time>2026-03-28T12:35:53.01Z</time></trkpt><trkpt lat="44.4810483" lon="9.2021283"><ele>773.0</ele><time>2026-03-28T12:35:54.011Z</time></trkpt><trkpt lat="44.4810433" lon="9.2020233"><ele>769.0</ele><time>2026-03-28T12:35:55.011Z</time></trkpt><trkpt lat="44.481025" lon="9.20191"><ele>765.0</ele><time>2026-03-28T12:35:56.011Z</time></trkpt><trkpt lat="44.4809767" lon="9.2018267"><ele>761.0</ele><time>2026-03-28T12:35:57.011Z</time></trkpt><trkpt lat="44.4809033" lon="9.2017517"><ele>757.0</ele><time>2026-03-28T12:35:58.011Z</time></trkpt><trkpt lat="44.4808267" lon="9.2016667"><ele>757.0</ele><time>2026-03-28T12:35:59.011Z</time></trkpt><trkpt lat="44.4807467" lon="9.20158"><ele>757.0</ele><time>2026-03-28T12:36:00.011Z</time></trkpt><trkpt lat="44.4806833" lon="9.2015483"><ele>757.0</ele><time>2026-03-28T12:36:01.011Z</time></trkpt><trkpt lat="44.480615" lon="9.2014833"><ele>757.0</ele><time>2026-03-28T12:36:02.011Z</time></trkpt><trkpt lat="44.480545" lon="9.2014117"><ele>757.0</ele><time>2026-03-28T12:36:03.011Z</time></trkpt><trkpt lat="44.4804767" lon="9.201325"><ele>757.0</ele><time>2026-03-28T12:36:04.011Z</time></trkpt><trkpt lat="44.4804067" lon="9.2012367"><ele>753.2</ele><time>2026-03-28T12:36:05.011Z</time></trkpt><trkpt lat="44.4803467" lon="9.2011683"><ele>749.4000000000001</ele><time>2026-03-28T12:36:06.011Z</time></trkpt><trkpt lat="44.4802733" lon="9.2011233"><ele>745.5999999999999</ele><time>2026-03-28T12:36:07.011Z</time></trkpt><trkpt lat="44.4801767" lon="9.201085"><ele>741.8</ele><time>2026-03-28T12:36:08.011Z</time></trkpt><trkpt lat="44.4800683" lon="9.2010667"><ele>738.0</ele><time>2026-03-28T12:36:09.011Z</time></trkpt><trkpt lat="44.4799383" lon="9.201075"><ele>738.0</ele><time>2026-03-28T12:36:10.011Z</time></trkpt><trkpt lat="44.47982" lon="9.2010983"><ele>738.0</ele><time>2026-03-28T12:36:11.011Z</time></trkpt><trkpt lat="44.4797033" lon="9.2011017"><ele>738.0</ele><time>2026-03-28T12:36:12.011Z</time></trkpt><trkpt lat="44.47959" lon="9.2010933"><ele>738.0</ele><time>2026-03-28T12:36:13.011Z</time></trkpt><trkpt lat="44.47948" lon="9.20108"><ele>737.0</ele><time>2026-03-28T12:36:14.011Z</time></trkpt><trkpt lat="44.4793917" lon="9.2010417"><ele>736.0</ele><time>2026-03-28T12:36:15.011Z</time></trkpt><trkpt lat="44.4793133" lon="9.2009617"><ele>735.0</ele><time>2026-03-28T12:36:16.011Z</time></trkpt><trkpt lat="44.479275" lon="9.2008683"><ele>734.0</ele><time>2026-03-28T12:36:17.01Z</time></trkpt><trkpt lat="44.47926" lon="9.2007583"><ele>733.0</ele><time>2026-03-28T12:36:18.011Z</time></trkpt><trkpt lat="44.479265" lon="9.2006383"><ele>732.0</ele><time>2026-03-28T12:36:19.01Z</time></trkpt><trkpt lat="44.4792683" lon="9.2005167"><ele>732.0</ele><time>2026-03-28T12:36:20.011Z</time></trkpt><trkpt lat="44.4792517" lon="9.2004067"><ele>732.0</ele><time>2026-03-28T12:36:21.011Z</time></trkpt><trkpt lat="44.4792133" lon="9.2003"><ele>732.0</ele><time>2026-03-28T12:36:22.011Z</time></trkpt><trkpt lat="44.479155" lon="9.2001833"><ele>732.0</ele><time>2026-03-28T12:36:23.011Z</time></trkpt><trkpt lat="44.47909" lon="9.2000583"><ele>732.0</ele><time>2026-03-28T12:36:24.011Z</time></trkpt><trkpt lat="44.4790133" lon="9.1999117"><ele>727.5</ele><time>2026-03-28T12:36:25.011Z</time></trkpt><trkpt lat="44.47894" lon="9.1997533"><ele>723.0</ele><time>2026-03-28T12:36:26.011Z</time></trkpt><trkpt lat="44.4788767" lon="9.19959"><ele>718.5</ele><time>2026-03-28T12:36:27.011Z</time></trkpt><trkpt lat="44.4788183" lon="9.199445"><ele>714.0</ele><time>2026-03-28T12:36:28.01Z</time></trkpt><trkpt lat="44.47878" lon="9.1993283"><ele>716.0</ele><time>2026-03-28T12:36:29.011Z</time></trkpt><trkpt lat="44.4787367" lon="9.1992333"><ele>718.0</ele><time>2026-03-28T12:36:30.011Z</time></trkpt><trkpt lat="44.4786667" lon="9.199155"><ele>720.0</ele><time>2026-03-28T12:36:31.011Z</time></trkpt><trkpt lat="44.478575" lon="9.19909"><ele>722.0</ele><time>2026-03-28T12:36:32.011Z</time></trkpt><trkpt lat="44.47847" lon="9.1990233"><ele>724.0</ele><time>2026-03-28T12:36:33.011Z</time></trkpt><trkpt lat="44.47837" lon="9.19894"><ele>719.8000000000001</ele><time>2026-03-28T12:36:34.011Z</time></trkpt><trkpt lat="44.4782767" lon="9.1988533"><ele>715.6</ele><time>2026-03-28T12:36:35.011Z</time></trkpt><trkpt lat="44.4781817" lon="9.19879"><ele>711.4</ele><time>2026-03-28T12:36:36.01Z</time></trkpt><trkpt lat="44.47808" lon="9.1987533"><ele>707.2</ele><time>2026-03-28T12:36:37.011Z</time></trkpt><trkpt lat="44.4779567" lon="9.1987317"><ele>703.0</ele><time>2026-03-28T12:36:38.011Z</time></trkpt><trkpt lat="44.477825" lon="9.1987333"><ele>701.5</ele><time>2026-03-28T12:36:39.011Z</time></trkpt><trkpt lat="44.4776783" lon="9.1987317"><ele>700.0</ele><time>2026-03-28T12:36:40.01Z</time></trkpt><trkpt lat="44.4775367" lon="9.1987267"><ele>698.5</ele><time>2026-03-28T12:36:41.011Z</time></trkpt><trkpt lat="44.4774033" lon="9.1987083"><ele>697.0</ele><time>2026-03-28T12:36:42.011Z</time></trkpt><trkpt lat="44.47727" lon="9.1986783"><ele>697.0</ele><time>2026-03-28T12:36:43.011Z</time></trkpt><trkpt lat="44.477155" lon="9.1986583"><ele>697.0</ele><time>2026-03-28T12:36:44.011Z</time></trkpt><trkpt lat="44.4770583" lon="9.198625"><ele>697.0</ele><time>2026-03-28T12:36:45.011Z</time></trkpt><trkpt lat="44.476985" lon="9.1986"><ele>697.0</ele><time>2026-03-28T12:36:46.011Z</time></trkpt><trkpt lat="44.4769017" lon="9.1985867"><ele>697.0</ele><time>2026-03-28T12:36:47.011Z</time></trkpt><trkpt lat="44.4768317" lon="9.198595"><ele>697.0</ele><time>2026-03-28T12:36:48.01Z</time></trkpt><trkpt lat="44.4767267" lon="9.1986367"><ele>697.0</ele><time>2026-03-28T12:36:50.01Z</time></trkpt><trkpt lat="44.47681" lon="9.19854"><ele>697.0</ele><time>2026-03-28T12:36:54.011Z</time></trkpt><trkpt lat="44.476895" lon="9.1984933"><ele>697.0</ele><time>2026-03-28T12:36:55.011Z</time></trkpt><trkpt lat="44.47699" lon="9.1984383"><ele>697.0</ele><time>2026-03-28T12:36:56.01Z</time></trkpt><trkpt lat="44.47708" lon="9.1983617"><ele>697.0</ele><time>2026-03-28T12:36:57.011Z</time></trkpt><trkpt lat="44.47715" lon="9.19827"><ele>693.6666666666667</ele><time>2026-03-28T12:36:58.011Z</time></trkpt><trkpt lat="44.47721" lon="9.1981633"><ele>690.3333333333334</ele><time>2026-03-28T12:36:59.01Z</time></trkpt><trkpt lat="44.4772717" lon="9.1980733"><ele>687.0</ele><time>2026-03-28T12:37:00.011Z</time></trkpt><trkpt lat="44.4773383" lon="9.198"><ele>683.6666666666666</ele><time>2026-03-28T12:37:01.011Z</time></trkpt><trkpt lat="44.4774167" lon="9.1979517"><ele>680.3333333333333</ele><time>2026-03-28T12:37:02.01Z</time></trkpt><trkpt lat="44.4775033" lon="9.1979333"><ele>677.0</ele><time>2026-03-28T12:37:03.011Z</time></trkpt><trkpt lat="44.477605" lon="9.197925"><ele>677.0</ele><time>2026-03-28T12:37:04.011Z</time></trkpt><trkpt lat="44.4777" lon="9.1979033"><ele>677.0</ele><time>2026-03-28T12:37:05.011Z</time></trkpt><trkpt lat="44.4777967" lon="9.19787"><ele>677.0</ele><time>2026-03-28T12:37:06.011Z</time></trkpt><trkpt lat="44.4778983" lon="9.1978"><ele>677.0</ele><time>2026-03-28T12:37:07.011Z</time></trkpt><trkpt lat="44.4779917" lon="9.1977267"><ele>677.0</ele><time>2026-03-28T12:37:08.011Z</time></trkpt><trkpt lat="44.4780833" lon="9.1976733"><ele>677.3333333333333</ele><time>2026-03-28T12:37:09.011Z</time></trkpt><trkpt lat="44.47817" lon="9.197655"><ele>677.6666666666666</ele><time>2026-03-28T12:37:10.011Z</time></trkpt><trkpt lat="44.4782383" lon="9.1976367"><ele>678.0</ele><time>2026-03-28T12:37:11.011Z</time></trkpt><trkpt lat="44.4783" lon="9.1975817"><ele>678.3333333333334</ele><time>2026-03-28T12:37:13.011Z</time></trkpt><trkpt lat="44.4782267" lon="9.197475"><ele>678.6666666666667</ele><time>2026-03-28T12:37:15.01Z</time></trkpt><trkpt lat="44.4781483" lon="9.1974483"><ele>679.0</ele><time>2026-03-28T12:37:16.011Z</time></trkpt><trkpt lat="44.47805" lon="9.1974433"><ele>679.0</ele><time>2026-03-28T12:37:17.011Z</time></trkpt><trkpt lat="44.4779367" lon="9.19747"><ele>679.0</ele><time>2026-03-28T12:37:18.011Z</time></trkpt><trkpt lat="44.4778167" lon="9.1974867"><ele>679.0</ele><time>2026-03-28T12:37:19.01Z</time></trkpt><trkpt lat="44.4776917" lon="9.197495"><ele>679.0</ele><time>2026-03-28T12:37:20.011Z</time></trkpt><trkpt lat="44.4775633" lon="9.1974817"><ele>678.5</ele><time>2026-03-28T12:37:21.011Z</time></trkpt><trkpt lat="44.4774367" lon="9.1974683"><ele>678.0</ele><time>2026-03-28T12:37:22.011Z</time></trkpt><trkpt lat="44.4773067" lon="9.1974517"><ele>677.5</ele><time>2026-03-28T12:37:23.011Z</time></trkpt><trkpt lat="44.4771767" lon="9.1974333"><ele>677.0</ele><time>2026-03-28T12:37:24.01Z</time></trkpt><trkpt lat="44.4770583" lon="9.1974167"><ele>677.0</ele><time>2026-03-28T12:37:25.011Z</time></trkpt><trkpt lat="44.4769517" lon="9.1974067"><ele>677.0</ele><time>2026-03-28T12:37:26.011Z</time></trkpt><trkpt lat="44.476855" lon="9.197385"><ele>677.0</ele><time>2026-03-28T12:37:27.011Z</time></trkpt><trkpt lat="44.476765" lon="9.1973133"><ele>677.0</ele><time>2026-03-28T12:37:28.011Z</time></trkpt><trkpt lat="44.476695" lon="9.1972083"><ele>677.0</ele><time>2026-03-28T12:37:29.011Z</time></trkpt><trkpt lat="44.4766283" lon="9.1970967"><ele>673.5</ele><time>2026-03-28T12:37:30.011Z</time></trkpt><trkpt lat="44.47657" lon="9.19699"><ele>670.0</ele><time>2026-03-28T12:37:31.01Z</time></trkpt><trkpt lat="44.4765217" lon="9.1969167"><ele>666.5</ele><time>2026-03-28T12:37:32.011Z</time></trkpt><trkpt lat="44.4764733" lon="9.1968583"><ele>663.0</ele><time>2026-03-28T12:37:33.011Z</time></trkpt><trkpt lat="44.476375" lon="9.196855"><ele>659.5</ele><time>2026-03-28T12:37:35.011Z</time></trkpt><trkpt lat="44.4763167" lon="9.1969117"><ele>656.0</ele><time>2026-03-28T12:37:36.011Z</time></trkpt><trkpt lat="44.47626" lon="9.1970133"><ele>656.25</ele><time>2026-03-28T12:37:37.011Z</time></trkpt><trkpt lat="44.4761933" lon="9.19715"><ele>656.5</ele><time>2026-03-28T12:37:38.011Z</time></trkpt><trkpt lat="44.47612" lon="9.1973283"><ele>656.75</ele><time>2026-03-28T12:37:39.011Z</time></trkpt><trkpt lat="44.47606" lon="9.1974867"><ele>657.0</ele><time>2026-03-28T12:37:40.01Z</time></trkpt><trkpt lat="44.475985" lon="9.1975983"><ele>657.0</ele><time>2026-03-28T12:37:41.011Z</time></trkpt><trkpt lat="44.4758933" lon="9.1976633"><ele>657.0</ele><time>2026-03-28T12:37:42.01Z</time></trkpt><trkpt lat="44.475785" lon="9.197685"><ele>657.0</ele><time>2026-03-28T12:37:43.011Z</time></trkpt><trkpt lat="44.4756733" lon="9.197695"><ele>657.0</ele><time>2026-03-28T12:37:44.011Z</time></trkpt><trkpt lat="44.47556" lon="9.1976817"><ele>657.0</ele><time>2026-03-28T12:37:45.011Z</time></trkpt><trkpt lat="44.4754633" lon="9.19766"><ele>652.4</ele><time>2026-03-28T12:37:46.011Z</time></trkpt><trkpt lat="44.4753717" lon="9.197645"><ele>647.8000000000001</ele><time>2026-03-28T12:37:47.01Z</time></trkpt><trkpt lat="44.47528" lon="9.19766"><ele>643.2</ele><time>2026-03-28T12:37:48.011Z</time></trkpt><trkpt lat="44.47518" lon="9.197705"><ele>638.6</ele><time>2026-03-28T12:37:49.011Z</time></trkpt><trkpt lat="44.4750783" lon="9.19776"><ele>634.0</ele><time>2026-03-28T12:37:50.011Z</time></trkpt><trkpt lat="44.47498" lon="9.197785"><ele>634.0</ele><time>2026-03-28T12:37:51.011Z</time></trkpt><trkpt lat="44.4748983" lon="9.1978333"><ele>634.0</ele><time>2026-03-28T12:37:52.011Z</time></trkpt><trkpt lat="44.47483" lon="9.1978917"><ele>634.0</ele><time>2026-03-28T12:37:53.011Z</time></trkpt><trkpt lat="44.4747617" lon="9.1979633"><ele>634.0</ele><time>2026-03-28T12:37:54.011Z</time></trkpt><trkpt lat="44.4747" lon="9.1980567"><ele>634.0</ele><time>2026-03-28T12:37:55.011Z</time></trkpt><trkpt lat="44.4746417" lon="9.19816"><ele>634.0</ele><time>2026-03-28T12:37:56.011Z</time></trkpt><trkpt lat="44.4746017" lon="9.1982683"><ele>631.4</ele><time>2026-03-28T12:37:57.011Z</time></trkpt><trkpt lat="44.4745733" lon="9.1984"><ele>628.8</ele><time>2026-03-28T12:37:58.011Z</time></trkpt><trkpt lat="44.4745467" lon="9.1985467"><ele>626.2</ele><time>2026-03-28T12:37:59.011Z</time></trkpt><trkpt lat="44.4745117" lon="9.1986983"><ele>623.6</ele><time>2026-03-28T12:38:00.011Z</time></trkpt><trkpt lat="44.4744617" lon="9.1988467"><ele>621.0</ele><time>2026-03-28T12:38:01.01Z</time></trkpt><trkpt lat="44.4744" lon="9.19897"><ele>626.6</ele><time>2026-03-28T12:38:02.011Z</time></trkpt><trkpt lat="44.4743217" lon="9.199095"><ele>632.2</ele><time>2026-03-28T12:38:03.011Z</time></trkpt><trkpt lat="44.47424" lon="9.199185"><ele>637.8000000000001</ele><time>2026-03-28T12:38:04.011Z</time></trkpt><trkpt lat="44.4741517" lon="9.1992617"><ele>643.4000000000001</ele><time>2026-03-28T12:38:05.011Z</time></trkpt><trkpt lat="44.47406" lon="9.199325"><ele>649.0</ele><time>2026-03-28T12:38:06.011Z</time></trkpt><trkpt lat="44.473975" lon="9.1993917"><ele>649.0</ele><time>2026-03-28T12:38:07.01Z</time></trkpt><trkpt lat="44.4738983" lon="9.199465"><ele>649.0</ele><time>2026-03-28T12:38:08.011Z</time></trkpt><trkpt lat="44.4738367" lon="9.199545"><ele>649.0</ele><time>2026-03-28T12:38:09.011Z</time></trkpt><trkpt lat="44.4737883" lon="9.1996433"><ele>649.0</ele><time>2026-03-28T12:38:10.011Z</time></trkpt><trkpt lat="44.4737483" lon="9.19977"><ele>649.0</ele><time>2026-03-28T12:38:11.011Z</time></trkpt><trkpt lat="44.4737067" lon="9.1999067"><ele>644.8000000000001</ele><time>2026-03-28T12:38:12.011Z</time></trkpt><trkpt lat="44.47366" lon="9.200025"><ele>640.6</ele><time>2026-03-28T12:38:13.01Z</time></trkpt><trkpt lat="44.4736033" lon="9.2001217"><ele>636.4</ele><time>2026-03-28T12:38:14.011Z</time></trkpt><trkpt lat="44.473545" lon="9.2001967"><ele>632.2</ele><time>2026-03-28T12:38:15.011Z</time></trkpt><trkpt lat="44.4734833" lon="9.2002717"><ele>628.0</ele><time>2026-03-28T12:38:16.011Z</time></trkpt><trkpt lat="44.4733817" lon="9.200305"><ele>628.0</ele><time>2026-03-28T12:38:18.011Z</time></trkpt><trkpt lat="44.473315" lon="9.2001767"><ele>628.0</ele><time>2026-03-28T12:38:20.011Z</time></trkpt><trkpt lat="44.4732933" lon="9.2000383"><ele>628.0</ele><time>2026-03-28T12:38:21.011Z</time></trkpt><trkpt lat="44.4732733" lon="9.19986"><ele>628.0</ele><time>2026-03-28T12:38:22.011Z</time></trkpt><trkpt lat="44.4732533" lon="9.1996983"><ele>626.4</ele><time>2026-03-28T12:38:23.01Z</time></trkpt><trkpt lat="44.4732433" lon="9.1995583"><ele>624.8</ele><time>2026-03-28T12:38:24.011Z</time></trkpt><trkpt lat="44.47324" lon="9.1994"><ele>623.2</ele><time>2026-03-28T12:38:25.011Z</time></trkpt><trkpt lat="44.4732533" lon="9.1992367"><ele>621.6</ele><time>2026-03-28T12:38:26.011Z</time></trkpt><trkpt lat="44.4732667" lon="9.1990833"><ele>620.0</ele><time>2026-03-28T12:38:27.011Z</time></trkpt><trkpt lat="44.4732783" lon="9.19894"><ele>618.4</ele><time>2026-03-28T12:38:28.011Z</time></trkpt><trkpt lat="44.47329" lon="9.1988167"><ele>616.8</ele><time>2026-03-28T12:38:29.011Z</time></trkpt><trkpt lat="44.47329" lon="9.1986917"><ele>615.2</ele><time>2026-03-28T12:38:30.011Z</time></trkpt><trkpt lat="44.473285" lon="9.1985717"><ele>613.6</ele><time>2026-03-28T12:38:31.011Z</time></trkpt><trkpt lat="44.4732633" lon="9.1984333"><ele>612.0</ele><time>2026-03-28T12:38:32.01Z</time></trkpt><trkpt lat="44.4732367" lon="9.19828"><ele>607.8000000000001</ele><time>2026-03-28T12:38:33.011Z</time></trkpt><trkpt lat="44.4732017" lon="9.1981217"><ele>603.6</ele><time>2026-03-28T12:38:34.011Z</time></trkpt><trkpt lat="44.47318" lon="9.1979717"><ele>599.4000000000001</ele><time>2026-03-28T12:38:35.01Z</time></trkpt><trkpt lat="44.473135" lon="9.1978433"><ele>595.2</ele><time>2026-03-28T12:38:36.011Z</time></trkpt><trkpt lat="44.47309" lon="9.1977167"><ele>591.0</ele><time>2026-03-28T12:38:37.011Z</time></trkpt><trkpt lat="44.47304" lon="9.1976083"><ele>591.0</ele><time>2026-03-28T12:38:38.011Z</time></trkpt><trkpt lat="44.4729583" lon="9.19752"><ele>591.0</ele><time>2026-03-28T12:38:39.011Z</time></trkpt><trkpt lat="44.4728583" lon="9.1974533"><ele>591.0</ele><time>2026-03-28T12:38:40.011Z</time></trkpt><trkpt lat="44.4727633" lon="9.1974033"><ele>591.0</ele><time>2026-03-28T12:38:41.011Z</time></trkpt><trkpt lat="44.4726683" lon="9.19738"><ele>591.0</ele><time>2026-03-28T12:38:42.011Z</time></trkpt><trkpt lat="44.4725967" lon="9.1973617"><ele>591.6</ele><time>2026-03-28T12:38:43.011Z</time></trkpt><trkpt lat="44.47251" lon="9.1974267"><ele>592.2</ele><time>2026-03-28T12:38:45.011Z</time></trkpt><trkpt lat="44.4725217" lon="9.197625"><ele>592.8</ele><time>2026-03-28T12:38:47.011Z</time></trkpt><trkpt lat="44.4725567" lon="9.1977433"><ele>593.4</ele><time>2026-03-28T12:38:48.01Z</time></trkpt><trkpt lat="44.4725933" lon="9.1979"><ele>594.0</ele><time>2026-03-28T12:38:49.011Z</time></trkpt><trkpt lat="44.47262" lon="9.1980683"><ele>594.0</ele><time>2026-03-28T12:38:50.011Z</time></trkpt><trkpt lat="44.472655" lon="9.1982433"><ele>594.0</ele><time>2026-03-28T12:38:51.011Z</time></trkpt><trkpt lat="44.472675" lon="9.1984283"><ele>594.0</ele><time>2026-03-28T12:38:52.01Z</time></trkpt><trkpt lat="44.47272" lon="9.1985917"><ele>594.0</ele><time>2026-03-28T12:38:53.011Z</time></trkpt><trkpt lat="44.47276" lon="9.1987517"><ele>594.0</ele><time>2026-03-28T12:38:54.011Z</time></trkpt><trkpt lat="44.47281" lon="9.19891"><ele>594.0</ele><time>2026-03-28T12:38:55.011Z</time></trkpt><trkpt lat="44.4728467" lon="9.1990633"><ele>594.0</ele><time>2026-03-28T12:38:56.011Z</time></trkpt><trkpt lat="44.4728633" lon="9.199235"><ele>594.0</ele><time>2026-03-28T12:38:57.011Z</time></trkpt><trkpt lat="44.472865" lon="9.1994033"><ele>592.25</ele><time>2026-03-28T12:38:58.011Z</time></trkpt><trkpt lat="44.472865" lon="9.1995817"><ele>590.5</ele><time>2026-03-28T12:38:59.011Z</time></trkpt><trkpt lat="44.4728617" lon="9.1997583"><ele>588.75</ele><time>2026-03-28T12:39:00.011Z</time></trkpt><trkpt lat="44.47286" lon="9.199915"><ele>587.0</ele><time>2026-03-28T12:39:01.01Z</time></trkpt><trkpt lat="44.4728567" lon="9.2000683"><ele>587.0</ele><time>2026-03-28T12:39:02.011Z</time></trkpt><trkpt lat="44.4728433" lon="9.2002367"><ele>587.0</ele><time>2026-03-28T12:39:03.01Z</time></trkpt><trkpt lat="44.4728133" lon="9.2003917"><ele>587.0</ele><time>2026-03-28T12:39:04.011Z</time></trkpt><trkpt lat="44.4727683" lon="9.2005367"><ele>587.0</ele><time>2026-03-28T12:39:05.011Z</time></trkpt><trkpt lat="44.47271" lon="9.2006867"><ele>589.8000000000001</ele><time>2026-03-28T12:39:06.01Z</time></trkpt><trkpt lat="44.4726567" lon="9.200825"><ele>592.6</ele><time>2026-03-28T12:39:07.011Z</time></trkpt><trkpt lat="44.4726033" lon="9.2009433"><ele>595.4000000000001</ele><time>2026-03-28T12:39:08.01Z</time></trkpt><trkpt lat="44.4725417" lon="9.2010433"><ele>598.2</ele><time>2026-03-28T12:39:09.011Z</time></trkpt><trkpt lat="44.4724933" lon="9.201145"><ele>601.0</ele><time>2026-03-28T12:39:10.011Z</time></trkpt><trkpt lat="44.472455" lon="9.2012567"><ele>601.0</ele><time>2026-03-28T12:39:11.011Z</time></trkpt><trkpt lat="44.4724317" lon="9.2013933"><ele>601.0</ele><time>2026-03-28T12:39:12.011Z</time></trkpt><trkpt lat="44.4724183" lon="9.201545"><ele>601.0</ele><time>2026-03-28T12:39:13.011Z</time></trkpt><trkpt lat="44.47242" lon="9.2016967"><ele>601.0</ele><time>2026-03-28T12:39:14.011Z</time></trkpt><trkpt lat="44.4724117" lon="9.2018167"><ele>601.0</ele><time>2026-03-28T12:39:15.011Z</time></trkpt><trkpt lat="44.4724017" lon="9.20195"><ele>603.2</ele><time>2026-03-28T12:39:16.01Z</time></trkpt><trkpt lat="44.4723867" lon="9.20209"><ele>605.4000000000001</ele><time>2026-03-28T12:39:17.011Z</time></trkpt><trkpt lat="44.472365" lon="9.2022283"><ele>607.6</ele><time>2026-03-28T12:39:18.011Z</time></trkpt><trkpt lat="44.4723567" lon="9.202365"><ele>609.8000000000001</ele><time>2026-03-28T12:39:19.01Z</time></trkpt><trkpt lat="44.47235" lon="9.20249"><ele>612.0</ele><time>2026-03-28T12:39:20.011Z</time></trkpt><trkpt lat="44.4723467" lon="9.202625"><ele>612.0</ele><time>2026-03-28T12:39:21.011Z</time></trkpt><trkpt lat="44.4723267" lon="9.2027667"><ele>612.0</ele><time>2026-03-28T12:39:22.011Z</time></trkpt><trkpt lat="44.4722967" lon="9.2028867"><ele>612.0</ele><time>2026-03-28T12:39:23.01Z</time></trkpt><trkpt lat="44.4722683" lon="9.2030017"><ele>612.0</ele><time>2026-03-28T12:39:24.011Z</time></trkpt><trkpt lat="44.4722667" lon="9.2031217"><ele>612.0</ele><time>2026-03-28T12:39:25.011Z</time></trkpt><trkpt lat="44.4722867" lon="9.2032433"><ele>613.5</ele><time>2026-03-28T12:39:26.011Z</time></trkpt><trkpt lat="44.4723067" lon="9.2033683"><ele>615.0</ele><time>2026-03-28T12:39:27.011Z</time></trkpt><trkpt lat="44.47231" lon="9.2034917"><ele>616.5</ele><time>2026-03-28T12:39:28.011Z</time></trkpt><trkpt lat="44.472295" lon="9.2035933"><ele>618.0</ele><time>2026-03-28T12:39:29.011Z</time></trkpt><trkpt lat="44.47226" lon="9.203695"><ele>619.5</ele><time>2026-03-28T12:39:30.011Z</time></trkpt><trkpt lat="44.4721933" lon="9.2037833"><ele>621.0</ele><time>2026-03-28T12:39:31.011Z</time></trkpt><trkpt lat="44.4721133" lon="9.2038617"><ele>615.2</ele><time>2026-03-28T12:39:32.011Z</time></trkpt><trkpt lat="44.472025" lon="9.203955"><ele>609.4000000000001</ele><time>2026-03-28T12:39:33.011Z</time></trkpt><trkpt lat="44.4719433" lon="9.2040567"><ele>603.6</ele><time>2026-03-28T12:39:34.011Z</time></trkpt><trkpt lat="44.4718617" lon="9.2041467"><ele>597.8000000000001</ele><time>2026-03-28T12:39:35.01Z</time></trkpt><trkpt lat="44.471785" lon="9.2042217"><ele>592.0</ele><time>2026-03-28T12:39:36.01Z</time></trkpt><trkpt lat="44.4717233" lon="9.2043033"><ele>592.0</ele><time>2026-03-28T12:39:37.011Z</time></trkpt><trkpt lat="44.4716817" lon="9.2043917"><ele>592.0</ele><time>2026-03-28T12:39:38.011Z</time></trkpt><trkpt lat="44.4716433" lon="9.204505"><ele>592.0</ele><time>2026-03-28T12:39:39.011Z</time></trkpt><trkpt lat="44.4715917" lon="9.2046167"><ele>592.0</ele><time>2026-03-28T12:39:40.011Z</time></trkpt><trkpt lat="44.4715233" lon="9.2047333"><ele>592.0</ele><time>2026-03-28T12:39:41.011Z</time></trkpt><trkpt lat="44.4714483" lon="9.2048583"><ele>589.8000000000001</ele><time>2026-03-28T12:39:42.011Z</time></trkpt><trkpt lat="44.4713683" lon="9.2049767"><ele>587.6</ele><time>2026-03-28T12:39:43.011Z</time></trkpt><trkpt lat="44.4712967" lon="9.2050917"><ele>585.4000000000001</ele><time>2026-03-28T12:39:44.011Z</time></trkpt><trkpt lat="44.4712367" lon="9.2051933"><ele>583.2</ele><time>2026-03-28T12:39:45.011Z</time></trkpt><trkpt lat="44.4711833" lon="9.205295"><ele>581.0</ele><time>2026-03-28T12:39:46.011Z</time></trkpt><trkpt lat="44.47113" lon="9.20543"><ele>581.0</ele><time>2026-03-28T12:39:47.011Z</time></trkpt><trkpt lat="44.4711" lon="9.2055617"><ele>581.0</ele><time>2026-03-28T12:39:48.011Z</time></trkpt><trkpt lat="44.4710867" lon="9.20571"><ele>581.0</ele><time>2026-03-28T12:39:49.011Z</time></trkpt><trkpt lat="44.4710617" lon="9.2058533"><ele>581.0</ele><time>2026-03-28T12:39:50.011Z</time></trkpt><trkpt lat="44.4710283" lon="9.2059883"><ele>581.0</ele><time>2026-03-28T12:39:51.011Z</time></trkpt><trkpt lat="44.4709917" lon="9.206105"><ele>581.6666666666666</ele><time>2026-03-28T12:39:52.01Z</time></trkpt><trkpt lat="44.470955" lon="9.2062117"><ele>582.3333333333333</ele><time>2026-03-28T12:39:53.011Z</time></trkpt><trkpt lat="44.4709233" lon="9.2063083"><ele>583.0</ele><time>2026-03-28T12:39:54.011Z</time></trkpt><trkpt lat="44.4709133" lon="9.20642"><ele>583.6666666666666</ele><time>2026-03-28T12:39:55.011Z</time></trkpt><trkpt lat="44.4709267" lon="9.2065467"><ele>584.3333333333334</ele><time>2026-03-28T12:39:56.011Z</time></trkpt><trkpt lat="44.4709433" lon="9.2066867"><ele>585.0</ele><time>2026-03-28T12:39:57.011Z</time></trkpt><trkpt lat="44.4709567" lon="9.2068217"><ele>586.2</ele><time>2026-03-28T12:39:58.01Z</time></trkpt><trkpt lat="44.4709567" lon="9.2069533"><ele>587.4</ele><time>2026-03-28T12:39:59.011Z</time></trkpt><trkpt lat="44.470935" lon="9.207075"><ele>588.6</ele><time>2026-03-28T12:40:00.011Z</time></trkpt><trkpt lat="44.4709017" lon="9.2072067"><ele>589.8</ele><time>2026-03-28T12:40:01.011Z</time></trkpt><trkpt lat="44.470855" lon="9.2073317"><ele>591.0</ele><time>2026-03-28T12:40:02.01Z</time></trkpt><trkpt lat="44.47077" lon="9.2073933"><ele>591.0</ele><time>2026-03-28T12:40:04.011Z</time></trkpt><trkpt lat="44.4707" lon="9.2073567"><ele>591.0</ele><time>2026-03-28T12:40:05.011Z</time></trkpt><trkpt lat="44.4706417" lon="9.2072667"><ele>591.0</ele><time>2026-03-28T12:40:06.01Z</time></trkpt><trkpt lat="44.4705983" lon="9.207145"><ele>591.0</ele><time>2026-03-28T12:40:07.011Z</time></trkpt><trkpt lat="44.4705433" lon="9.207"><ele>591.0</ele><time>2026-03-28T12:40:08.011Z</time></trkpt><trkpt lat="44.4704933" lon="9.2068533"><ele>591.0</ele><time>2026-03-28T12:40:09.011Z</time></trkpt><trkpt lat="44.4704433" lon="9.2066833"><ele>591.0</ele><time>2026-03-28T12:40:10.011Z</time></trkpt><trkpt lat="44.47042" lon="9.2065067"><ele>591.0</ele><time>2026-03-28T12:40:11.011Z</time></trkpt><trkpt lat="44.47039" lon="9.2063517"><ele>591.0</ele><time>2026-03-28T12:40:12.01Z</time></trkpt><trkpt lat="44.47036" lon="9.2062217"><ele>594.0</ele><time>2026-03-28T12:40:13.01Z</time></trkpt><trkpt lat="44.4703333" lon="9.2061083"><ele>597.0</ele><time>2026-03-28T12:40:14.011Z</time></trkpt><trkpt lat="44.4702967" lon="9.2059967"><ele>600.0</ele><time>2026-03-28T12:40:15.011Z</time></trkpt><trkpt lat="44.4702683" lon="9.2059133"><ele>603.0</ele><time>2026-03-28T12:40:16.011Z</time></trkpt><trkpt lat="44.4702383" lon="9.2058067"><ele>606.0</ele><time>2026-03-28T12:40:17.01Z</time></trkpt><trkpt lat="44.4702117" lon="9.205675"><ele>609.0</ele><time>2026-03-28T12:40:18.011Z</time></trkpt><trkpt lat="44.4702017" lon="9.2055483"><ele>609.0</ele><time>2026-03-28T12:40:19.011Z</time></trkpt><trkpt lat="44.470225" lon="9.2054267"><ele>609.0</ele><time>2026-03-28T12:40:20.011Z</time></trkpt><trkpt lat="44.4702617" lon="9.20532"><ele>609.0</ele><time>2026-03-28T12:40:21.011Z</time></trkpt><trkpt lat="44.47028" lon="9.205195"><ele>609.0</ele><time>2026-03-28T12:40:22.011Z</time></trkpt><trkpt lat="44.4702717" lon="9.2050583"><ele>609.0</ele><time>2026-03-28T12:40:23.011Z</time></trkpt><trkpt lat="44.47026" lon="9.20492"><ele>609.8</ele><time>2026-03-28T12:40:24.011Z</time></trkpt><trkpt lat="44.4702683" lon="9.20476"><ele>610.5999999999999</ele><time>2026-03-28T12:40:25.01Z</time></trkpt><trkpt lat="44.4702833" lon="9.2046183"><ele>611.4</ele><time>2026-03-28T12:40:26.011Z</time></trkpt><trkpt lat="44.4703067" lon="9.2044917"><ele>612.1999999999999</ele><time>2026-03-28T12:40:27.011Z</time></trkpt><trkpt lat="44.4703333" lon="9.2043733"><ele>613.0</ele><time>2026-03-28T12:40:28.01Z</time></trkpt><trkpt lat="44.47036" lon="9.20424"><ele>613.0</ele><time>2026-03-28T12:40:29.011Z</time></trkpt><trkpt lat="44.47039" lon="9.204095"><ele>613.0</ele><time>2026-03-28T12:40:30.011Z</time></trkpt><trkpt lat="44.4704383" lon="9.203965"><ele>613.0</ele><time>2026-03-28T12:40:31.011Z</time></trkpt><trkpt lat="44.4705033" lon="9.2038617"><ele>613.0</ele><time>2026-03-28T12:40:32.011Z</time></trkpt><trkpt lat="44.4705683" lon="9.2037317"><ele>613.0</ele><time>2026-03-28T12:40:33.01Z</time></trkpt><trkpt lat="44.4706317" lon="9.2036367"><ele>608.8333333333334</ele><time>2026-03-28T12:40:34.011Z</time></trkpt><trkpt lat="44.4707017" lon="9.2035517"><ele>604.6666666666667</ele><time>2026-03-28T12:40:35.011Z</time></trkpt><trkpt lat="44.4707683" lon="9.2034967"><ele>600.5</ele><time>2026-03-28T12:40:36.011Z</time></trkpt><trkpt lat="44.4708317" lon="9.20344"><ele>596.3333333333334</ele><time>2026-03-28T12:40:37.011Z</time></trkpt><trkpt lat="44.4708733" lon="9.203365"><ele>592.1666666666666</ele><time>2026-03-28T12:40:38.011Z</time></trkpt><trkpt lat="44.4708783" lon="9.203275"><ele>588.0</ele><time>2026-03-28T12:40:39.011Z</time></trkpt><trkpt lat="44.4708683" lon="9.2030883"><ele>588.0</ele><time>2026-03-28T12:40:41.011Z</time></trkpt><trkpt lat="44.4708417" lon="9.20297"><ele>588.0</ele><time>2026-03-28T12:40:42.011Z</time></trkpt><trkpt lat="44.4708" lon="9.2028267"><ele>588.0</ele><time>2026-03-28T12:40:43.011Z</time></trkpt><trkpt lat="44.4707617" lon="9.2026883"><ele>588.0</ele><time>2026-03-28T12:40:44.011Z</time></trkpt><trkpt lat="44.470725" lon="9.2025483"><ele>588.0</ele><time>2026-03-28T12:40:45.011Z</time></trkpt><trkpt lat="44.47071" lon="9.202415"><ele>589.0</ele><time>2026-03-28T12:40:46.011Z</time></trkpt><trkpt lat="44.470695" lon="9.2022933"><ele>590.0</ele><time>2026-03-28T12:40:47.011Z</time></trkpt><trkpt lat="44.4707083" lon="9.202165"><ele>591.0</ele><time>2026-03-28T12:40:48.011Z</time></trkpt><trkpt lat="44.470725" lon="9.20203"><ele>592.0</ele><time>2026-03-28T12:40:49.011Z</time></trkpt><trkpt lat="44.4707533" lon="9.2018967"><ele>593.0</ele><time>2026-03-28T12:40:50.01Z</time></trkpt><trkpt lat="44.4707917" lon="9.201775"><ele>593.0</ele><time>2026-03-28T12:40:51.011Z</time></trkpt><trkpt lat="44.4708417" lon="9.2016767"><ele>593.0</ele><time>2026-03-28T12:40:52.011Z</time></trkpt><trkpt lat="44.4708817" lon="9.20158"><ele>593.0</ele><time>2026-03-28T12:40:53.011Z</time></trkpt><trkpt lat="44.4708967" lon="9.2014767"><ele>593.0</ele><time>2026-03-28T12:40:54.011Z</time></trkpt><trkpt lat="44.4708967" lon="9.2013533"><ele>593.0</ele><time>2026-03-28T12:40:55.011Z</time></trkpt><trkpt lat="44.4708767" lon="9.2012067"><ele>593.0</ele><time>2026-03-28T12:40:56.011Z</time></trkpt><trkpt lat="44.47086" lon="9.20106"><ele>594.0</ele><time>2026-03-28T12:40:57.011Z</time></trkpt><trkpt lat="44.4708483" lon="9.2009"><ele>595.0</ele><time>2026-03-28T12:40:58.011Z</time></trkpt><trkpt lat="44.4708433" lon="9.2007467"><ele>596.0</ele><time>2026-03-28T12:40:59.011Z</time></trkpt><trkpt lat="44.470855" lon="9.2005933"><ele>597.0</ele><time>2026-03-28T12:41:00.011Z</time></trkpt><trkpt lat="44.4708883" lon="9.2004467"><ele>598.0</ele><time>2026-03-28T12:41:01.011Z</time></trkpt><trkpt lat="44.4709333" lon="9.2003167"><ele>598.0</ele><time>2026-03-28T12:41:02.011Z</time></trkpt><trkpt lat="44.4709817" lon="9.2001817"><ele>598.0</ele><time>2026-03-28T12:41:03.011Z</time></trkpt><trkpt lat="44.471025" lon="9.20005"><ele>598.0</ele><time>2026-03-28T12:41:04.011Z</time></trkpt><trkpt lat="44.4710533" lon="9.1999167"><ele>598.0</ele><time>2026-03-28T12:41:05.011Z</time></trkpt><trkpt lat="44.4710817" lon="9.1997933"><ele>598.0</ele><time>2026-03-28T12:41:06.011Z</time></trkpt><trkpt lat="44.4711283" lon="9.1996817"><ele>597.0</ele><time>2026-03-28T12:41:07.011Z</time></trkpt><trkpt lat="44.471155" lon="9.1995583"><ele>596.0</ele><time>2026-03-28T12:41:08.011Z</time></trkpt><trkpt lat="44.4711833" lon="9.1994183"><ele>595.0</ele><time>2026-03-28T12:41:09.011Z</time></trkpt><trkpt lat="44.4711883" lon="9.19926"><ele>594.0</ele><time>2026-03-28T12:41:10.011Z</time></trkpt><trkpt lat="44.4711883" lon="9.19911"><ele>593.0</ele><time>2026-03-28T12:41:11.01Z</time></trkpt><trkpt lat="44.471185" lon="9.1989833"><ele>590.4</ele><time>2026-03-28T12:41:12.011Z</time></trkpt><trkpt lat="44.47117" lon="9.1988567"><ele>587.8</ele><time>2026-03-28T12:41:13.011Z</time></trkpt><trkpt lat="44.4711317" lon="9.1987383"><ele>585.2</ele><time>2026-03-28T12:41:14.011Z</time></trkpt><trkpt lat="44.47108" lon="9.1986317"><ele>582.6</ele><time>2026-03-28T12:41:15.011Z</time></trkpt><trkpt lat="44.471005" lon="9.19853"><ele>580.0</ele><time>2026-03-28T12:41:16.01Z</time></trkpt><trkpt lat="44.4709183" lon="9.1984517"><ele>580.0</ele><time>2026-03-28T12:41:17.011Z</time></trkpt><trkpt lat="44.4708133" lon="9.1983717"><ele>580.0</ele><time>2026-03-28T12:41:18.011Z</time></trkpt><trkpt lat="44.4707117" lon="9.1982883"><ele>580.0</ele><time>2026-03-28T12:41:19.011Z</time></trkpt><trkpt lat="44.4706117" lon="9.1981767"><ele>580.0</ele><time>2026-03-28T12:41:20.011Z</time></trkpt><trkpt lat="44.4705083" lon="9.1980383"><ele>582.6666666666667</ele><time>2026-03-28T12:41:21.011Z</time></trkpt><trkpt lat="44.4704017" lon="9.197875"><ele>585.3333333333334</ele><time>2026-03-28T12:41:22.011Z</time></trkpt><trkpt lat="44.4702917" lon="9.1977233"><ele>588.0</ele><time>2026-03-28T12:41:23.011Z</time></trkpt><trkpt lat="44.4701933" lon="9.1975667"><ele>588.0</ele><time>2026-03-28T12:41:24.011Z</time></trkpt><trkpt lat="44.4701217" lon="9.1974217"><ele>588.0</ele><time>2026-03-28T12:41:25.011Z</time></trkpt><trkpt lat="44.4700583" lon="9.1972817"><ele>588.0</ele><time>2026-03-28T12:41:26.011Z</time></trkpt><trkpt lat="44.4700067" lon="9.1971317"><ele>588.0</ele><time>2026-03-28T12:41:27.011Z</time></trkpt><trkpt lat="44.46997" lon="9.1969883"><ele>585.6666666666666</ele><time>2026-03-28T12:41:28.01Z</time></trkpt><trkpt lat="44.46994" lon="9.1968767"><ele>583.3333333333334</ele><time>2026-03-28T12:41:29.011Z</time></trkpt><trkpt lat="44.4699017" lon="9.19679"><ele>581.0</ele><time>2026-03-28T12:41:30.011Z</time></trkpt><trkpt lat="44.46984" lon="9.1967133"><ele>578.6666666666667</ele><time>2026-03-28T12:41:31.011Z</time></trkpt><trkpt lat="44.4697633" lon="9.1966383"><ele>576.3333333333334</ele><time>2026-03-28T12:41:32.011Z</time></trkpt><trkpt lat="44.4696833" lon="9.1965717"><ele>574.0</ele><time>2026-03-28T12:41:33.01Z</time></trkpt><trkpt lat="44.4696033" lon="9.1964917"><ele>574.0</ele><time>2026-03-28T12:41:34.011Z</time></trkpt><trkpt lat="44.4695333" lon="9.1963933"><ele>574.0</ele><time>2026-03-28T12:41:35.011Z</time></trkpt><trkpt lat="44.469465" lon="9.19629"><ele>574.0</ele><time>2026-03-28T12:41:36.011Z</time></trkpt><trkpt lat="44.4693933" lon="9.1961867"><ele>574.0</ele><time>2026-03-28T12:41:37.011Z</time></trkpt><trkpt lat="44.4693167" lon="9.196075"><ele>574.0</ele><time>2026-03-28T12:41:38.011Z</time></trkpt><trkpt lat="44.46925" lon="9.1959617"><ele>574.0</ele><time>2026-03-28T12:41:39.01Z</time></trkpt><trkpt lat="44.46921" lon="9.19585"><ele>574.0</ele><time>2026-03-28T12:41:40.011Z</time></trkpt><trkpt lat="44.4692033" lon="9.195735"><ele>574.0</ele><time>2026-03-28T12:41:41.011Z</time></trkpt><trkpt lat="44.46922" lon="9.195615"><ele>574.0</ele><time>2026-03-28T12:41:42.011Z</time></trkpt><trkpt lat="44.469255" lon="9.195495"><ele>574.0</ele><time>2026-03-28T12:41:43.011Z</time></trkpt><trkpt lat="44.4692633" lon="9.195395"><ele>574.0</ele><time>2026-03-28T12:41:44.011Z</time></trkpt><trkpt lat="44.4692567" lon="9.19529"><ele>571.1666666666667</ele><time>2026-03-28T12:41:45.011Z</time></trkpt><trkpt lat="44.4692233" lon="9.195175"><ele>568.3333333333334</ele><time>2026-03-28T12:41:46.011Z</time></trkpt><trkpt lat="44.4691733" lon="9.1950767"><ele>565.5</ele><time>2026-03-28T12:41:47.011Z</time></trkpt><trkpt lat="44.4691183" lon="9.19499"><ele>562.6666666666666</ele><time>2026-03-28T12:41:48.011Z</time></trkpt><trkpt lat="44.4690383" lon="9.19493"><ele>559.8333333333333</ele><time>2026-03-28T12:41:49.011Z</time></trkpt><trkpt lat="44.4689433" lon="9.1949"><ele>557.0</ele><time>2026-03-28T12:41:50.011Z</time></trkpt><trkpt lat="44.4688367" lon="9.19488"><ele>557.6</ele><time>2026-03-28T12:41:51.011Z</time></trkpt><trkpt lat="44.4687333" lon="9.194885"><ele>558.2</ele><time>2026-03-28T12:41:52.01Z</time></trkpt><trkpt lat="44.4686367" lon="9.1949217"><ele>558.8</ele><time>2026-03-28T12:41:53.01Z</time></trkpt><trkpt lat="44.46853" lon="9.1949717"><ele>559.4</ele><time>2026-03-28T12:41:54.01Z</time></trkpt><trkpt lat="44.4684317" lon="9.1950367"><ele>560.0</ele><time>2026-03-28T12:41:55.011Z</time></trkpt><trkpt lat="44.4683317" lon="9.1951083"><ele>560.0</ele><time>2026-03-28T12:41:56.01Z</time></trkpt><trkpt lat="44.468245" lon="9.1951567"><ele>560.0</ele><time>2026-03-28T12:41:57.01Z</time></trkpt><trkpt lat="44.4681533" lon="9.1951933"><ele>560.0</ele><time>2026-03-28T12:41:58.011Z</time></trkpt><trkpt lat="44.46806" lon="9.1952"><ele>560.0</ele><time>2026-03-28T12:41:59.01Z</time></trkpt><trkpt lat="44.4679517" lon="9.1951733"><ele>560.0</ele><time>2026-03-28T12:42:00.011Z</time></trkpt><trkpt lat="44.4678367" lon="9.1951133"><ele>560.8</ele><time>2026-03-28T12:42:01.011Z</time></trkpt><trkpt lat="44.467725" lon="9.195055"><ele>561.6</ele><time>2026-03-28T12:42:02.011Z</time></trkpt><trkpt lat="44.4676267" lon="9.195005"><ele>562.4</ele><time>2026-03-28T12:42:03.011Z</time></trkpt><trkpt lat="44.4675317" lon="9.194955"><ele>563.2</ele><time>2026-03-28T12:42:04.011Z</time></trkpt><trkpt lat="44.4674567" lon="9.1948933"><ele>564.0</ele><time>2026-03-28T12:42:05.011Z</time></trkpt><trkpt lat="44.467405" lon="9.194815"><ele>561.8</ele><time>2026-03-28T12:42:06.011Z</time></trkpt><trkpt lat="44.4673533" lon="9.19467"><ele>559.5999999999999</ele><time>2026-03-28T12:42:08.011Z</time></trkpt><trkpt lat="44.4674" lon="9.1945483"><ele>557.4</ele><time>2026-03-28T12:42:10.01Z</time></trkpt><trkpt lat="44.4674883" lon="9.1944917"><ele>555.1999999999999</ele><time>2026-03-28T12:42:11.01Z</time></trkpt><trkpt lat="44.4675967" lon="9.194425"><ele>553.0</ele><time>2026-03-28T12:42:12.011Z</time></trkpt><trkpt lat="44.4677233" lon="9.1943533"><ele>553.0</ele><time>2026-03-28T12:42:13.011Z</time></trkpt><trkpt lat="44.46785" lon="9.1942883"><ele>553.0</ele><time>2026-03-28T12:42:14.011Z</time></trkpt><trkpt lat="44.4679533" lon="9.19422"><ele>553.0</ele><time>2026-03-28T12:42:15.01Z</time></trkpt><trkpt lat="44.4680367" lon="9.1941483"><ele>553.0</ele><time>2026-03-28T12:42:16.011Z</time></trkpt><trkpt lat="44.4681183" lon="9.1940667"><ele>553.0</ele><time>2026-03-28T12:42:17.01Z</time></trkpt><trkpt lat="44.46818" lon="9.19396"><ele>550.8333333333334</ele><time>2026-03-28T12:42:18.011Z</time></trkpt><trkpt lat="44.468215" lon="9.1938133"><ele>548.6666666666667</ele><time>2026-03-28T12:42:19.011Z</time></trkpt><trkpt lat="44.4682267" lon="9.19367"><ele>546.5</ele><time>2026-03-28T12:42:20.011Z</time></trkpt><trkpt lat="44.46822" lon="9.1935517"><ele>544.3333333333334</ele><time>2026-03-28T12:42:21.01Z</time></trkpt><trkpt lat="44.468205" lon="9.19344"><ele>542.1666666666666</ele><time>2026-03-28T12:42:22.011Z</time></trkpt><trkpt lat="44.4681817" lon="9.1933533"><ele>540.0</ele><time>2026-03-28T12:42:23.011Z</time></trkpt><trkpt lat="44.4681283" lon="9.1933"><ele>540.0</ele><time>2026-03-28T12:42:24.011Z</time></trkpt><trkpt lat="44.4680583" lon="9.1932633"><ele>540.0</ele><time>2026-03-28T12:42:25.011Z</time></trkpt><trkpt lat="44.4679717" lon="9.1932517"><ele>540.0</ele><time>2026-03-28T12:42:26.011Z</time></trkpt><trkpt lat="44.4678783" lon="9.1932483"><ele>540.0</ele><time>2026-03-28T12:42:27.011Z</time></trkpt><trkpt lat="44.4677867" lon="9.19328"><ele>540.0</ele><time>2026-03-28T12:42:28.011Z</time></trkpt><trkpt lat="44.4677167" lon="9.1933483"><ele>540.0</ele><time>2026-03-28T12:42:29.01Z</time></trkpt><trkpt lat="44.4676517" lon="9.1934483"><ele>539.0</ele><time>2026-03-28T12:42:30.01Z</time></trkpt><trkpt lat="44.467585" lon="9.1935383"><ele>538.0</ele><time>2026-03-28T12:42:31.011Z</time></trkpt><trkpt lat="44.4675083" lon="9.1936267"><ele>537.0</ele><time>2026-03-28T12:42:32.011Z</time></trkpt><trkpt lat="44.4674117" lon="9.1936967"><ele>536.0</ele><time>2026-03-28T12:42:33.011Z</time></trkpt><trkpt lat="44.467305" lon="9.1937583"><ele>535.0</ele><time>2026-03-28T12:42:34.011Z</time></trkpt><trkpt lat="44.4671967" lon="9.1937733"><ele>532.0</ele><time>2026-03-28T12:42:35.011Z</time></trkpt><trkpt lat="44.4670833" lon="9.1937683"><ele>529.0</ele><time>2026-03-28T12:42:36.011Z</time></trkpt><trkpt lat="44.4669783" lon="9.1937517"><ele>526.0</ele><time>2026-03-28T12:42:37.01Z</time></trkpt><trkpt lat="44.46687" lon="9.193745"><ele>523.0</ele><time>2026-03-28T12:42:38.011Z</time></trkpt><trkpt lat="44.4667517" lon="9.1937567"><ele>520.0</ele><time>2026-03-28T12:42:39.011Z</time></trkpt><trkpt lat="44.4666167" lon="9.1937833"><ele>520.0</ele><time>2026-03-28T12:42:40.011Z</time></trkpt><trkpt lat="44.4664783" lon="9.1938133"><ele>520.0</ele><time>2026-03-28T12:42:41.01Z</time></trkpt><trkpt lat="44.466335" lon="9.19383"><ele>520.0</ele><time>2026-03-28T12:42:42.011Z</time></trkpt><trkpt lat="44.466205" lon="9.193835"><ele>520.0</ele><time>2026-03-28T12:42:43.011Z</time></trkpt><trkpt lat="44.4660783" lon="9.19381"><ele>520.0</ele><time>2026-03-28T12:42:44.011Z</time></trkpt><trkpt lat="44.4659483" lon="9.193775"><ele>520.0</ele><time>2026-03-28T12:42:45.011Z</time></trkpt><trkpt lat="44.4658317" lon="9.19375"><ele>520.0</ele><time>2026-03-28T12:42:46.011Z</time></trkpt><trkpt lat="44.465715" lon="9.1937267"><ele>520.0</ele><time>2026-03-28T12:42:47.011Z</time></trkpt><trkpt lat="44.4655983" lon="9.1937017"><ele>520.0</ele><time>2026-03-28T12:42:48.011Z</time></trkpt><trkpt lat="44.4654617" lon="9.1936833"><ele>520.0</ele><time>2026-03-28T12:42:49.011Z</time></trkpt><trkpt lat="44.4653317" lon="9.1936667"><ele>520.0</ele><time>2026-03-28T12:42:50.011Z</time></trkpt><trkpt lat="44.465205" lon="9.1936417"><ele>520.0</ele><time>2026-03-28T12:42:51.011Z</time></trkpt><trkpt lat="44.465095" lon="9.193625"><ele>521.3333333333334</ele><time>2026-03-28T12:42:52.011Z</time></trkpt><trkpt lat="44.4650083" lon="9.1935967"><ele>522.6666666666667</ele><time>2026-03-28T12:42:53.011Z</time></trkpt><trkpt lat="44.4649567" lon="9.1935417"><ele>524.0</ele><time>2026-03-28T12:42:54.011Z</time></trkpt><trkpt lat="44.4648867" lon="9.1934633"><ele>525.3333333333334</ele><time>2026-03-28T12:42:55.011Z</time></trkpt><trkpt lat="44.4648217" lon="9.1933517"><ele>526.6666666666666</ele><time>2026-03-28T12:42:56.011Z</time></trkpt><trkpt lat="44.4647583" lon="9.19325"><ele>528.0</ele><time>2026-03-28T12:42:57.011Z</time></trkpt><trkpt lat="44.464705" lon="9.1931567"><ele>524.1999999999999</ele><time>2026-03-28T12:42:58.011Z</time></trkpt><trkpt lat="44.4646433" lon="9.193085"><ele>520.4</ele><time>2026-03-28T12:42:59.011Z</time></trkpt><trkpt lat="44.464555" lon="9.1930417"><ele>516.5999999999999</ele><time>2026-03-28T12:43:00.011Z</time></trkpt><trkpt lat="44.4644633" lon="9.1930183"><ele>512.8</ele><time>2026-03-28T12:43:01.011Z</time></trkpt><trkpt lat="44.4643567" lon="9.1930233"><ele>509.0</ele><time>2026-03-28T12:43:02.011Z</time></trkpt><trkpt lat="44.46426" lon="9.1930683"><ele>509.0</ele><time>2026-03-28T12:43:03.011Z</time></trkpt><trkpt lat="44.4641767" lon="9.1931583"><ele>509.0</ele><time>2026-03-28T12:43:04.01Z</time></trkpt><trkpt lat="44.4640667" lon="9.1931983"><ele>509.0</ele><time>2026-03-28T12:43:05.011Z</time></trkpt><trkpt lat="44.4639667" lon="9.1931617"><ele>509.0</ele><time>2026-03-28T12:43:06.01Z</time></trkpt><trkpt lat="44.46387" lon="9.1930833"><ele>509.0</ele><time>2026-03-28T12:43:07.011Z</time></trkpt><trkpt lat="44.4637683" lon="9.1929867"><ele>512.5</ele><time>2026-03-28T12:43:08.011Z</time></trkpt><trkpt lat="44.4636583" lon="9.19288"><ele>516.0</ele><time>2026-03-28T12:43:09.011Z</time></trkpt><trkpt lat="44.4635483" lon="9.1927783"><ele>519.5</ele><time>2026-03-28T12:43:10.011Z</time></trkpt><trkpt lat="44.4634433" lon="9.1927"><ele>523.0</ele><time>2026-03-28T12:43:11.011Z</time></trkpt><trkpt lat="44.4633567" lon="9.1926167"><ele>523.0</ele><time>2026-03-28T12:43:12.011Z</time></trkpt><trkpt lat="44.463285" lon="9.1925233"><ele>523.0</ele><time>2026-03-28T12:43:13.011Z</time></trkpt><trkpt lat="44.4632217" lon="9.1924017"><ele>523.0</ele><time>2026-03-28T12:43:14.011Z</time></trkpt><trkpt lat="44.4631733" lon="9.1922833"><ele>523.0</ele><time>2026-03-28T12:43:15.011Z</time></trkpt><trkpt lat="44.4631267" lon="9.1921717"><ele>523.0</ele><time>2026-03-28T12:43:16.011Z</time></trkpt><trkpt lat="44.4630717" lon="9.1920817"><ele>518.4</ele><time>2026-03-28T12:43:17.011Z</time></trkpt><trkpt lat="44.463" lon="9.1920183"><ele>513.8</ele><time>2026-03-28T12:43:18.01Z</time></trkpt><trkpt lat="44.4629267" lon="9.1919817"><ele>509.2</ele><time>2026-03-28T12:43:19.011Z</time></trkpt><trkpt lat="44.4628417" lon="9.1919683"><ele>504.6</ele><time>2026-03-28T12:43:20.011Z</time></trkpt><trkpt lat="44.4627417" lon="9.1920067"><ele>500.0</ele><time>2026-03-28T12:43:21.011Z</time></trkpt><trkpt lat="44.4626167" lon="9.192075"><ele>498.25</ele><time>2026-03-28T12:43:22.011Z</time></trkpt><trkpt lat="44.462485" lon="9.1921433"><ele>496.5</ele><time>2026-03-28T12:43:23.01Z</time></trkpt><trkpt lat="44.4623683" lon="9.1922033"><ele>494.75</ele><time>2026-03-28T12:43:24.011Z</time></trkpt><trkpt lat="44.4622517" lon="9.19225"><ele>493.0</ele><time>2026-03-28T12:43:25.011Z</time></trkpt><trkpt lat="44.46215" lon="9.1923117"><ele>490.79999999999995</ele><time>2026-03-28T12:43:26.011Z</time></trkpt><trkpt lat="44.4620467" lon="9.192325"><ele>488.59999999999997</ele><time>2026-03-28T12:43:27.011Z</time></trkpt><trkpt lat="44.461945" lon="9.1923317"><ele>486.40000000000003</ele><time>2026-03-28T12:43:28.011Z</time></trkpt><trkpt lat="44.46185" lon="9.19233"><ele>484.20000000000005</ele><time>2026-03-28T12:43:29.011Z</time></trkpt><trkpt lat="44.4617617" lon="9.1923067"><ele>482.0</ele><time>2026-03-28T12:43:30.011Z</time></trkpt><trkpt lat="44.4616717" lon="9.1922583"><ele>482.0</ele><time>2026-03-28T12:43:31.011Z</time></trkpt><trkpt lat="44.46158" lon="9.1921983"><ele>482.00000000000006</ele><time>2026-03-28T12:43:32.011Z</time></trkpt><trkpt lat="44.46149" lon="9.1921367"><ele>482.00000000000006</ele><time>2026-03-28T12:43:33.011Z</time></trkpt><trkpt lat="44.4614017" lon="9.1920717"><ele>482.0</ele><time>2026-03-28T12:43:34.01Z</time></trkpt><trkpt lat="44.4613233" lon="9.1919817"><ele>482.0</ele><time>2026-03-28T12:43:35.011Z</time></trkpt><trkpt lat="44.4612517" lon="9.191875"><ele>479.0</ele><time>2026-03-28T12:43:36.011Z</time></trkpt><trkpt lat="44.4611833" lon="9.1917433"><ele>476.0</ele><time>2026-03-28T12:43:37.011Z</time></trkpt><trkpt lat="44.4611083" lon="9.19162"><ele>473.0</ele><time>2026-03-28T12:43:38.011Z</time></trkpt><trkpt lat="44.46103" lon="9.191505"><ele>470.0</ele><time>2026-03-28T12:43:39.011Z</time></trkpt><trkpt lat="44.460945" lon="9.19141"><ele>469.99999999999994</ele><time>2026-03-28T12:43:40.011Z</time></trkpt><trkpt lat="44.4608683" lon="9.1913383"><ele>470.0</ele><time>2026-03-28T12:43:41.01Z</time></trkpt><trkpt lat="44.4607917" lon="9.1913033"><ele>470.0</ele><time>2026-03-28T12:43:42.011Z</time></trkpt><trkpt lat="44.4606917" lon="9.191275"><ele>470.0</ele><time>2026-03-28T12:43:44.011Z</time></trkpt><trkpt lat="44.4606167" lon="9.1912717"><ele>469.99999999999994</ele><time>2026-03-28T12:44:07.011Z</time></trkpt><trkpt lat="44.4605433" lon="9.191255"><ele>470.0</ele><time>2026-03-28T12:44:09.011Z</time></trkpt><trkpt lat="44.4604417" lon="9.191235"><ele>469.8333333333333</ele><time>2026-03-28T12:44:11.011Z</time></trkpt><trkpt lat="44.460345" lon="9.1911817"><ele>469.66666666666663</ele><time>2026-03-28T12:44:13.011Z</time></trkpt><trkpt lat="44.46027" lon="9.1911483"><ele>469.5</ele><time>2026-03-28T12:44:15.01Z</time></trkpt><trkpt lat="44.460175" lon="9.1911333"><ele>469.33333333333337</ele><time>2026-03-28T12:44:37.011Z</time></trkpt><trkpt lat="44.4601017" lon="9.1911367"><ele>469.1666666666667</ele><time>2026-03-28T12:44:38.01Z</time></trkpt><trkpt lat="44.4600083" lon="9.1911667"><ele>469.0</ele><time>2026-03-28T12:44:39.011Z</time></trkpt><trkpt lat="44.4599067" lon="9.19123"><ele>469.0</ele><time>2026-03-28T12:44:40.011Z</time></trkpt><trkpt lat="44.4597983" lon="9.1913133"><ele>469.0</ele><time>2026-03-28T12:44:41.011Z</time></trkpt><trkpt lat="44.4596917" lon="9.1914"><ele>469.0</ele><time>2026-03-28T12:44:42.011Z</time></trkpt><trkpt lat="44.4596" lon="9.1914867"><ele>469.0</ele><time>2026-03-28T12:44:43.011Z</time></trkpt><trkpt lat="44.4595033" lon="9.1915683"><ele>472.6</ele><time>2026-03-28T12:44:44.011Z</time></trkpt><trkpt lat="44.4593967" lon="9.1916283"><ele>476.2</ele><time>2026-03-28T12:44:45.011Z</time></trkpt><trkpt lat="44.4592883" lon="9.19168"><ele>479.80000000000007</ele><time>2026-03-28T12:44:46.011Z</time></trkpt><trkpt lat="44.4591817" lon="9.1917217"><ele>483.40000000000003</ele><time>2026-03-28T12:44:47.01Z</time></trkpt><trkpt lat="44.4590867" lon="9.1917633"><ele>487.0</ele><time>2026-03-28T12:44:48.011Z</time></trkpt><trkpt lat="44.4589983" lon="9.19179"><ele>487.0</ele><time>2026-03-28T12:44:49.011Z</time></trkpt><trkpt lat="44.458905" lon="9.1918067"><ele>487.00000000000006</ele><time>2026-03-28T12:44:50.011Z</time></trkpt><trkpt lat="44.4588017" lon="9.1918083"><ele>487.00000000000006</ele><time>2026-03-28T12:44:51.011Z</time></trkpt><trkpt lat="44.4587" lon="9.1918083"><ele>487.0</ele><time>2026-03-28T12:44:52.011Z</time></trkpt><trkpt lat="44.4586033" lon="9.1918017"><ele>487.0</ele><time>2026-03-28T12:44:53.011Z</time></trkpt><trkpt lat="44.458505" lon="9.1917717"><ele>485.50000000000006</ele><time>2026-03-28T12:44:54.011Z</time></trkpt><trkpt lat="44.4584083" lon="9.1917333"><ele>484.0</ele><time>2026-03-28T12:44:55.011Z</time></trkpt><trkpt lat="44.458315" lon="9.1916717"><ele>482.5</ele><time>2026-03-28T12:44:56.011Z</time></trkpt><trkpt lat="44.4582433" lon="9.19163"><ele>481.0</ele><time>2026-03-28T12:44:57.011Z</time></trkpt><trkpt lat="44.4581633" lon="9.1916067"><ele>479.50000000000006</ele><time>2026-03-28T12:44:58.011Z</time></trkpt><trkpt lat="44.4580883" lon="9.1916067"><ele>478.0</ele><time>2026-03-28T12:44:59.011Z</time></trkpt><trkpt lat="44.45801" lon="9.1916367"><ele>475.0</ele><time>2026-03-28T12:45:00.011Z</time></trkpt><trkpt lat="44.4579317" lon="9.1916867"><ele>471.99999999999994</ele><time>2026-03-28T12:45:01.011Z</time></trkpt><trkpt lat="44.4578383" lon="9.1917333"><ele>468.99999999999994</ele><time>2026-03-28T12:45:02.011Z</time></trkpt><trkpt lat="44.457745" lon="9.1917733"><ele>466.0</ele><time>2026-03-28T12:45:03.011Z</time></trkpt><trkpt lat="44.457655" lon="9.1918"><ele>463.0</ele><time>2026-03-28T12:45:04.011Z</time></trkpt><trkpt lat="44.4575717" lon="9.19182"><ele>463.00000000000006</ele><time>2026-03-28T12:45:05.011Z</time></trkpt><trkpt lat="44.457505" lon="9.1918517"><ele>463.0</ele><time>2026-03-28T12:45:06.011Z</time></trkpt><trkpt lat="44.4574417" lon="9.1918967"><ele>463.0</ele><time>2026-03-28T12:45:07.011Z</time></trkpt><trkpt lat="44.4573767" lon="9.1919267"><ele>463.0</ele><time>2026-03-28T12:45:08.011Z</time></trkpt><trkpt lat="44.4573117" lon="9.19192"><ele>463.00000000000006</ele><time>2026-03-28T12:45:09.011Z</time></trkpt><trkpt lat="44.45719" lon="9.1918867"><ele>463.0</ele><time>2026-03-28T12:45:11.011Z</time></trkpt><trkpt lat="44.457115" lon="9.1918983"><ele>459.2</ele><time>2026-03-28T12:45:12.011Z</time></trkpt><trkpt lat="44.4570283" lon="9.19193"><ele>455.4</ele><time>2026-03-28T12:45:13.011Z</time></trkpt><trkpt lat="44.4569233" lon="9.1919833"><ele>451.59999999999997</ele><time>2026-03-28T12:45:14.011Z</time></trkpt><trkpt lat="44.4568167" lon="9.19206"><ele>447.79999999999995</ele><time>2026-03-28T12:45:15.011Z</time></trkpt><trkpt lat="44.4567217" lon="9.1921433"><ele>444.0</ele><time>2026-03-28T12:45:16.011Z</time></trkpt><trkpt lat="44.4566417" lon="9.1922433"><ele>444.0</ele><time>2026-03-28T12:45:17.011Z</time></trkpt><trkpt lat="44.4565683" lon="9.19233"><ele>444.0</ele><time>2026-03-28T12:45:18.01Z</time></trkpt><trkpt lat="44.4564933" lon="9.1924117"><ele>444.0</ele><time>2026-03-28T12:45:19.011Z</time></trkpt><trkpt lat="44.4564383" lon="9.1925167"><ele>444.0</ele><time>2026-03-28T12:45:20.01Z</time></trkpt><trkpt lat="44.4563683" lon="9.1925917"><ele>444.0</ele><time>2026-03-28T12:45:21.011Z</time></trkpt><trkpt lat="44.4562833" lon="9.1926433"><ele>444.5</ele><time>2026-03-28T12:45:22.011Z</time></trkpt><trkpt lat="44.4562017" lon="9.192665"><ele>445.0</ele><time>2026-03-28T12:45:23.011Z</time></trkpt><trkpt lat="44.4561283" lon="9.1926767"><ele>445.5</ele><time>2026-03-28T12:45:24.011Z</time></trkpt><trkpt lat="44.4560667" lon="9.1927"><ele>446.0</ele><time>2026-03-28T12:45:25.011Z</time></trkpt><trkpt lat="44.4560033" lon="9.1926283"><ele>446.5</ele><time>2026-03-28T12:45:27.011Z</time></trkpt><trkpt lat="44.4560683" lon="9.1925317"><ele>447.0</ele><time>2026-03-28T12:45:30.011Z</time></trkpt><trkpt lat="44.4561383" lon="9.1924917"><ele>447.0</ele><time>2026-03-28T12:45:31.011Z</time></trkpt><trkpt lat="44.4562133" lon="9.1924367"><ele>447.00000000000006</ele><time>2026-03-28T12:45:32.011Z</time></trkpt><trkpt lat="44.4563183" lon="9.1923483"><ele>447.00000000000006</ele><time>2026-03-28T12:45:33.011Z</time></trkpt><trkpt lat="44.4564133" lon="9.1922367"><ele>447.0</ele><time>2026-03-28T12:45:34.011Z</time></trkpt><trkpt lat="44.4564983" lon="9.192125"><ele>447.0</ele><time>2026-03-28T12:45:35.011Z</time></trkpt><trkpt lat="44.45658" lon="9.1920217"><ele>446.25</ele><time>2026-03-28T12:45:36.011Z</time></trkpt><trkpt lat="44.4566667" lon="9.1919"><ele>445.5</ele><time>2026-03-28T12:45:37.01Z</time></trkpt><trkpt lat="44.4567633" lon="9.19179"><ele>444.75</ele><time>2026-03-28T12:45:38.011Z</time></trkpt><trkpt lat="44.4568483" lon="9.1916833"><ele>444.0</ele><time>2026-03-28T12:45:39.011Z</time></trkpt><trkpt lat="44.45692" lon="9.19159"><ele>444.0</ele><time>2026-03-28T12:45:40.01Z</time></trkpt><trkpt lat="44.4569717" lon="9.19152"><ele>444.0</ele><time>2026-03-28T12:45:41.01Z</time></trkpt><trkpt lat="44.457005" lon="9.1914"><ele>444.0</ele><time>2026-03-28T12:45:43.011Z</time></trkpt><trkpt lat="44.4569383" lon="9.191335"><ele>444.0</ele><time>2026-03-28T12:45:45.011Z</time></trkpt><trkpt lat="44.456875" lon="9.1913533"><ele>444.0</ele><time>2026-03-28T12:45:46.011Z</time></trkpt><trkpt lat="44.4568" lon="9.1914467"><ele>444.0</ele><time>2026-03-28T12:45:47.011Z</time></trkpt><trkpt lat="44.4567233" lon="9.1915417"><ele>444.0</ele><time>2026-03-28T12:45:48.01Z</time></trkpt><trkpt lat="44.4566367" lon="9.19163"><ele>444.0</ele><time>2026-03-28T12:45:49.011Z</time></trkpt><trkpt lat="44.4565517" lon="9.1917017"><ele>444.0</ele><time>2026-03-28T12:45:50.011Z</time></trkpt><trkpt lat="44.4564717" lon="9.1917683"><ele>444.0</ele><time>2026-03-28T12:45:51.01Z</time></trkpt><trkpt lat="44.4563867" lon="9.19184"><ele>444.0</ele><time>2026-03-28T12:45:52.011Z</time></trkpt><trkpt lat="44.4562983" lon="9.1919367"><ele>439.4</ele><time>2026-03-28T12:45:53.01Z</time></trkpt><trkpt lat="44.456225" lon="9.1920183"><ele>434.79999999999995</ele><time>2026-03-28T12:45:54.011Z</time></trkpt><trkpt lat="44.456165" lon="9.1920833"><ele>430.20000000000005</ele><time>2026-03-28T12:45:55.011Z</time></trkpt><trkpt lat="44.456075" lon="9.1920933"><ele>425.6</ele><time>2026-03-28T12:45:57.01Z</time></trkpt><trkpt lat="44.4561033" lon="9.1919533"><ele>421.0</ele><time>2026-03-28T12:45:59.011Z</time></trkpt><trkpt lat="44.4561667" lon="9.19184"><ele>421.0</ele><time>2026-03-28T12:46:00.011Z</time></trkpt><trkpt lat="44.4562683" lon="9.1917117"><ele>421.0</ele><time>2026-03-28T12:46:01.011Z</time></trkpt><trkpt lat="44.4564067" lon="9.191545"><ele>421.0</ele><time>2026-03-28T12:46:02.011Z</time></trkpt><trkpt lat="44.45655" lon="9.191395"><ele>419.25</ele><time>2026-03-28T12:46:03.011Z</time></trkpt><trkpt lat="44.45667" lon="9.191255"><ele>417.5</ele><time>2026-03-28T12:46:04.011Z</time></trkpt><trkpt lat="44.4567833" lon="9.1911283"><ele>415.75</ele><time>2026-03-28T12:46:05.011Z</time></trkpt><trkpt lat="44.4568833" lon="9.191025"><ele>414.0</ele><time>2026-03-28T12:46:06.01Z</time></trkpt><trkpt lat="44.4569883" lon="9.1909633"><ele>414.0</ele><time>2026-03-28T12:46:07.011Z</time></trkpt><trkpt lat="44.4570867" lon="9.19094"><ele>414.0</ele><time>2026-03-28T12:46:08.01Z</time></trkpt><trkpt lat="44.4571583" lon="9.1909533"><ele>414.0</ele><time>2026-03-28T12:46:09.011Z</time></trkpt><trkpt lat="44.45723" lon="9.190945"><ele>414.0</ele><time>2026-03-28T12:46:10.011Z</time></trkpt><trkpt lat="44.4573" lon="9.190905"><ele>414.0</ele><time>2026-03-28T12:46:11.011Z</time></trkpt><trkpt lat="44.4573567" lon="9.19084"><ele>414.0</ele><time>2026-03-28T12:46:12.011Z</time></trkpt><trkpt lat="44.4574" lon="9.19074"><ele>413.5</ele><time>2026-03-28T12:46:13.011Z</time></trkpt><trkpt lat="44.457435" lon="9.1906133"><ele>413.0</ele><time>2026-03-28T12:46:14.011Z</time></trkpt><trkpt lat="44.4574617" lon="9.1904983"><ele>412.5</ele><time>2026-03-28T12:46:15.011Z</time></trkpt><trkpt lat="44.457505" lon="9.1903933"><ele>412.0</ele><time>2026-03-28T12:46:16.011Z</time></trkpt><trkpt lat="44.4575567" lon="9.1902983"><ele>411.5</ele><time>2026-03-28T12:46:17.011Z</time></trkpt><trkpt lat="44.4575883" lon="9.1902083"><ele>411.0</ele><time>2026-03-28T12:46:18.01Z</time></trkpt><trkpt lat="44.4575867" lon="9.1900633"><ele>411.0</ele><time>2026-03-28T12:46:20.011Z</time></trkpt><trkpt lat="44.4575017" lon="9.1900033"><ele>411.0</ele><time>2026-03-28T12:46:22.01Z</time></trkpt><trkpt lat="44.4574383" lon="9.1900767"><ele>411.0</ele><time>2026-03-28T12:46:23.011Z</time></trkpt><trkpt lat="44.4573867" lon="9.19018"><ele>411.0</ele><time>2026-03-28T12:46:24.011Z</time></trkpt><trkpt lat="44.4573333" lon="9.1903017"><ele>411.0</ele><time>2026-03-28T12:46:25.011Z</time></trkpt><trkpt lat="44.457285" lon="9.1904183"><ele>411.0</ele><time>2026-03-28T12:46:26.011Z</time></trkpt><trkpt lat="44.45723" lon="9.190525"><ele>411.0</ele><time>2026-03-28T12:46:27.011Z</time></trkpt><trkpt lat="44.45717" lon="9.1906133"><ele>411.0</ele><time>2026-03-28T12:46:28.011Z</time></trkpt><trkpt lat="44.4570883" lon="9.1906733"><ele>411.0</ele><time>2026-03-28T12:46:29.011Z</time></trkpt><trkpt lat="44.4569967" lon="9.190705"><ele>411.0</ele><time>2026-03-28T12:46:30.01Z</time></trkpt><trkpt lat="44.456885" lon="9.1907133"><ele>411.75</ele><time>2026-03-28T12:46:31.011Z</time></trkpt><trkpt lat="44.4567683" lon="9.1907217"><ele>412.5</ele><time>2026-03-28T12:46:32.011Z</time></trkpt><trkpt lat="44.4566533" lon="9.1907517"><ele>413.25</ele><time>2026-03-28T12:46:33.011Z</time></trkpt><trkpt lat="44.4565383" lon="9.190795"><ele>414.0</ele><time>2026-03-28T12:46:34.011Z</time></trkpt><trkpt lat="44.456425" lon="9.1908717"><ele>414.0</ele><time>2026-03-28T12:46:35.01Z</time></trkpt><trkpt lat="44.4563033" lon="9.19094"><ele>414.0</ele><time>2026-03-28T12:46:36.01Z</time></trkpt><trkpt lat="44.4561817" lon="9.1910283"><ele>414.0</ele><time>2026-03-28T12:46:37.01Z</time></trkpt><trkpt lat="44.4560617" lon="9.1911033"><ele>414.0</ele><time>2026-03-28T12:46:38.011Z</time></trkpt><trkpt lat="44.45595" lon="9.19119"><ele>408.0</ele><time>2026-03-28T12:46:39.01Z</time></trkpt><trkpt lat="44.45584" lon="9.19127"><ele>402.0</ele><time>2026-03-28T12:46:40.011Z</time></trkpt><trkpt lat="44.4557283" lon="9.1913417"><ele>396.0</ele><time>2026-03-28T12:46:41.01Z</time></trkpt><trkpt lat="44.4556267" lon="9.19141"><ele>390.0</ele><time>2026-03-28T12:46:42.011Z</time></trkpt><trkpt lat="44.455525" lon="9.191475"><ele>390.25</ele><time>2026-03-28T12:46:43.011Z</time></trkpt><trkpt lat="44.4554183" lon="9.1915333"><ele>390.5</ele><time>2026-03-28T12:46:44.011Z</time></trkpt><trkpt lat="44.4553033" lon="9.19157"><ele>390.75</ele><time>2026-03-28T12:46:45.011Z</time></trkpt><trkpt lat="44.455195" lon="9.191615"><ele>391.0</ele><time>2026-03-28T12:46:46.011Z</time></trkpt><trkpt lat="44.455085" lon="9.1916783"><ele>391.0</ele><time>2026-03-28T12:46:47.011Z</time></trkpt><trkpt lat="44.4549783" lon="9.1917333"><ele>391.0</ele><time>2026-03-28T12:46:48.011Z</time></trkpt><trkpt lat="44.454875" lon="9.1918017"><ele>391.0</ele><time>2026-03-28T12:46:49.011Z</time></trkpt><trkpt lat="44.4547817" lon="9.1918833"><ele>391.0</ele><time>2026-03-28T12:46:50.01Z</time></trkpt><trkpt lat="44.45469" lon="9.1919817"><ele>389.75</ele><time>2026-03-28T12:46:51.01Z</time></trkpt><trkpt lat="44.454595" lon="9.1921033"><ele>388.5</ele><time>2026-03-28T12:46:52.011Z</time></trkpt><trkpt lat="44.45449" lon="9.1922117"><ele>387.25</ele><time>2026-03-28T12:46:53.011Z</time></trkpt><trkpt lat="44.4543883" lon="9.192325"><ele>386.0</ele><time>2026-03-28T12:46:54.011Z</time></trkpt><trkpt lat="44.454295" lon="9.1924517"><ele>386.0</ele><time>2026-03-28T12:46:55.01Z</time></trkpt><trkpt lat="44.4542017" lon="9.19258"><ele>386.0</ele><time>2026-03-28T12:46:56.011Z</time></trkpt><trkpt lat="44.4541167" lon="9.1927167"><ele>386.0</ele><time>2026-03-28T12:46:57.011Z</time></trkpt><trkpt lat="44.4540367" lon="9.1928367"><ele>386.0</ele><time>2026-03-28T12:46:58.011Z</time></trkpt><trkpt lat="44.4539533" lon="9.1929317"><ele>386.0</ele><time>2026-03-28T12:46:59.011Z</time></trkpt><trkpt lat="44.453875" lon="9.1930283"><ele>386.0</ele><time>2026-03-28T12:47:00.011Z</time></trkpt><trkpt lat="44.4537983" lon="9.193115"><ele>386.0</ele><time>2026-03-28T12:47:01.011Z</time></trkpt><trkpt lat="44.4537317" lon="9.1931867"><ele>386.0</ele><time>2026-03-28T12:47:02.011Z</time></trkpt><trkpt lat="44.453645" lon="9.1932533"><ele>386.0</ele><time>2026-03-28T12:47:04.011Z</time></trkpt><trkpt lat="44.453685" lon="9.1930833"><ele>386.0</ele><time>2026-03-28T12:47:08.011Z</time></trkpt><trkpt lat="44.4537583" lon="9.1929567"><ele>386.0</ele><time>2026-03-28T12:47:09.011Z</time></trkpt><trkpt lat="44.4538183" lon="9.192815"><ele>386.0</ele><time>2026-03-28T12:47:10.011Z</time></trkpt><trkpt lat="44.4538717" lon="9.1926733"><ele>386.0</ele><time>2026-03-28T12:47:11.011Z</time></trkpt><trkpt lat="44.453925" lon="9.1925517"><ele>386.0</ele><time>2026-03-28T12:47:12.011Z</time></trkpt><trkpt lat="44.4539767" lon="9.19243"><ele>386.0</ele><time>2026-03-28T12:47:13.011Z</time></trkpt><trkpt lat="44.454025" lon="9.1923183"><ele>386.0</ele><time>2026-03-28T12:47:14.01Z</time></trkpt><trkpt lat="44.454085" lon="9.1922117"><ele>386.0</ele><time>2026-03-28T12:47:15.011Z</time></trkpt><trkpt lat="44.4541533" lon="9.1921217"><ele>386.0</ele><time>2026-03-28T12:47:16.01Z</time></trkpt><trkpt lat="44.4542333" lon="9.1920417"><ele>382.8</ele><time>2026-03-28T12:47:17.011Z</time></trkpt><trkpt lat="44.45431" lon="9.1919583"><ele>379.6</ele><time>2026-03-28T12:47:18.01Z</time></trkpt><trkpt lat="44.4543833" lon="9.1918733"><ele>376.4</ele><time>2026-03-28T12:47:19.011Z</time></trkpt><trkpt lat="44.4544433" lon="9.1917667"><ele>373.2</ele><time>2026-03-28T12:47:20.011Z</time></trkpt><trkpt lat="44.4544933" lon="9.191645"><ele>370.0</ele><time>2026-03-28T12:47:21.011Z</time></trkpt><trkpt lat="44.45454" lon="9.1915317"><ele>370.0</ele><time>2026-03-28T12:47:22.011Z</time></trkpt><trkpt lat="44.4545833" lon="9.1914367"><ele>370.0</ele><time>2026-03-28T12:47:23.011Z</time></trkpt><trkpt lat="44.4546283" lon="9.1913583"><ele>370.0</ele><time>2026-03-28T12:47:24.011Z</time></trkpt><trkpt lat="44.4546867" lon="9.191295"><ele>370.0</ele><time>2026-03-28T12:47:25.01Z</time></trkpt><trkpt lat="44.4547567" lon="9.1912483"><ele>370.0</ele><time>2026-03-28T12:47:26.011Z</time></trkpt><trkpt lat="44.4548383" lon="9.1912133"><ele>370.0</ele><time>2026-03-28T12:47:27.011Z</time></trkpt><trkpt lat="44.454905" lon="9.1911517"><ele>370.0</ele><time>2026-03-28T12:47:28.011Z</time></trkpt><trkpt lat="44.4549733" lon="9.19109"><ele>370.0</ele><time>2026-03-28T12:47:29.011Z</time></trkpt><trkpt lat="44.4550483" lon="9.1910083"><ele>370.0</ele><time>2026-03-28T12:47:30.011Z</time></trkpt><trkpt lat="44.4551267" lon="9.1909233"><ele>370.0</ele><time>2026-03-28T12:47:31.011Z</time></trkpt><trkpt lat="44.4552017" lon="9.1908333"><ele>370.0</ele><time>2026-03-28T12:47:32.011Z</time></trkpt><trkpt lat="44.4552817" lon="9.1907483"><ele>369.8</ele><time>2026-03-28T12:47:33.011Z</time></trkpt><trkpt lat="44.4553583" lon="9.19067"><ele>369.6</ele><time>2026-03-28T12:47:34.011Z</time></trkpt><trkpt lat="44.45545" lon="9.1906067"><ele>369.4</ele><time>2026-03-28T12:47:35.011Z</time></trkpt><trkpt lat="44.455555" lon="9.1905533"><ele>369.2</ele><time>2026-03-28T12:47:36.011Z</time></trkpt><trkpt lat="44.455645" lon="9.1905117"><ele>369.0</ele><time>2026-03-28T12:47:37.011Z</time></trkpt><trkpt lat="44.4557133" lon="9.1904683"><ele>369.0</ele><time>2026-03-28T12:47:38.011Z</time></trkpt><trkpt lat="44.455775" lon="9.1903917"><ele>369.0</ele><time>2026-03-28T12:47:39.011Z</time></trkpt><trkpt lat="44.4558183" lon="9.1902883"><ele>369.0</ele><time>2026-03-28T12:47:40.01Z</time></trkpt><trkpt lat="44.4558683" lon="9.1901767"><ele>369.0</ele><time>2026-03-28T12:47:41.011Z</time></trkpt><trkpt lat="44.4559233" lon="9.19006"><ele>369.0</ele><time>2026-03-28T12:47:42.011Z</time></trkpt><trkpt lat="44.4559817" lon="9.1899333"><ele>367.6</ele><time>2026-03-28T12:47:43.01Z</time></trkpt><trkpt lat="44.4560417" lon="9.1898133"><ele>366.2</ele><time>2026-03-28T12:47:44.01Z</time></trkpt><trkpt lat="44.4560783" lon="9.189685"><ele>364.8</ele><time>2026-03-28T12:47:45.01Z</time></trkpt><trkpt lat="44.4560983" lon="9.1895567"><ele>363.40000000000003</ele><time>2026-03-28T12:47:46.01Z</time></trkpt><trkpt lat="44.4561017" lon="9.18944"><ele>362.0</ele><time>2026-03-28T12:47:47.01Z</time></trkpt><trkpt lat="44.4560767" lon="9.1893267"><ele>362.0</ele><time>2026-03-28T12:47:48.009Z</time></trkpt><trkpt lat="44.4560367" lon="9.1892283"><ele>362.0</ele><time>2026-03-28T12:47:49.01Z</time></trkpt><trkpt lat="44.45598" lon="9.1891517"><ele>362.0</ele><time>2026-03-28T12:47:50.01Z</time></trkpt><trkpt lat="44.455905" lon="9.189105"><ele>362.0</ele><time>2026-03-28T12:47:51.01Z</time></trkpt><trkpt lat="44.45581" lon="9.1890967"><ele>362.0</ele><time>2026-03-28T12:47:52.01Z</time></trkpt><trkpt lat="44.45571" lon="9.18912"><ele>362.0</ele><time>2026-03-28T12:47:53.01Z</time></trkpt><trkpt lat="44.455615" lon="9.1892"><ele>362.0</ele><time>2026-03-28T12:47:54.01Z</time></trkpt><trkpt lat="44.4555367" lon="9.1893083"><ele>362.0</ele><time>2026-03-28T12:47:55.01Z</time></trkpt><trkpt lat="44.4554617" lon="9.1894367"><ele>362.0</ele><time>2026-03-28T12:47:56.01Z</time></trkpt><trkpt lat="44.4553733" lon="9.1895283"><ele>362.0</ele><time>2026-03-28T12:47:57.01Z</time></trkpt><trkpt lat="44.45529" lon="9.1896183"><ele>362.0</ele><time>2026-03-28T12:47:58.01Z</time></trkpt><trkpt lat="44.45521" lon="9.189715"><ele>360.8</ele><time>2026-03-28T12:47:59.01Z</time></trkpt><trkpt lat="44.4551333" lon="9.1898117"><ele>359.6</ele><time>2026-03-28T12:48:00.01Z</time></trkpt><trkpt lat="44.4550467" lon="9.1899067"><ele>358.40000000000003</ele><time>2026-03-28T12:48:01.01Z</time></trkpt><trkpt lat="44.4549517" lon="9.1899883"><ele>357.20000000000005</ele><time>2026-03-28T12:48:02.01Z</time></trkpt><trkpt lat="44.454855" lon="9.1900867"><ele>356.0</ele><time>2026-03-28T12:48:03.009Z</time></trkpt><trkpt lat="44.45474" lon="9.1901483"><ele>356.0</ele><time>2026-03-28T12:48:04.01Z</time></trkpt><trkpt lat="44.454625" lon="9.1901983"><ele>356.0</ele><time>2026-03-28T12:48:05.01Z</time></trkpt><trkpt lat="44.4545133" lon="9.1902483"><ele>356.0</ele><time>2026-03-28T12:48:06.01Z</time></trkpt><trkpt lat="44.4544217" lon="9.19031"><ele>356.0</ele><time>2026-03-28T12:48:07.009Z</time></trkpt><trkpt lat="44.4543467" lon="9.1903833"><ele>356.0</ele><time>2026-03-28T12:48:08.01Z</time></trkpt><trkpt lat="44.4542767" lon="9.1904667"><ele>355.83333333333337</ele><time>2026-03-28T12:48:09.01Z</time></trkpt><trkpt lat="44.4542133" lon="9.1905667"><ele>355.6666666666667</ele><time>2026-03-28T12:48:10.01Z</time></trkpt><trkpt lat="44.4541567" lon="9.1906683"><ele>355.5</ele><time>2026-03-28T12:48:11.009Z</time></trkpt><trkpt lat="44.454105" lon="9.19077"><ele>355.3333333333333</ele><time>2026-03-28T12:48:12.01Z</time></trkpt><trkpt lat="44.4540433" lon="9.1908333"><ele>355.16666666666663</ele><time>2026-03-28T12:48:13.01Z</time></trkpt><trkpt lat="44.4539817" lon="9.19087"><ele>355.0</ele><time>2026-03-28T12:48:14.01Z</time></trkpt><trkpt lat="44.453905" lon="9.1909067"><ele>355.0</ele><time>2026-03-28T12:48:15.009Z</time></trkpt><trkpt lat="44.4538183" lon="9.190895"><ele>355.0</ele><time>2026-03-28T12:48:16.009Z</time></trkpt><trkpt lat="44.453725" lon="9.1908917"><ele>355.0</ele><time>2026-03-28T12:48:17.01Z</time></trkpt><trkpt lat="44.4536483" lon="9.1909233"><ele>355.0</ele><time>2026-03-28T12:48:18.01Z</time></trkpt><trkpt lat="44.453575" lon="9.1909833"><ele>355.0</ele><time>2026-03-28T12:48:19.01Z</time></trkpt><trkpt lat="44.45351" lon="9.19108"><ele>355.0</ele><time>2026-03-28T12:48:20.009Z</time></trkpt><trkpt lat="44.4534517" lon="9.1911933"><ele>353.6</ele><time>2026-03-28T12:48:21.01Z</time></trkpt><trkpt lat="44.4534017" lon="9.1913"><ele>352.2</ele><time>2026-03-28T12:48:22.01Z</time></trkpt><trkpt lat="44.4533467" lon="9.191405"><ele>350.79999999999995</ele><time>2026-03-28T12:48:23.01Z</time></trkpt><trkpt lat="44.4532867" lon="9.191505"><ele>349.4</ele><time>2026-03-28T12:48:24.009Z</time></trkpt><trkpt lat="44.4532333" lon="9.19161"><ele>348.0</ele><time>2026-03-28T12:48:25.009Z</time></trkpt><trkpt lat="44.4531867" lon="9.1917167"><ele>348.0</ele><time>2026-03-28T12:48:26.01Z</time></trkpt><trkpt lat="44.453145" lon="9.1918467"><ele>348.0</ele><time>2026-03-28T12:48:27.01Z</time></trkpt><trkpt lat="44.45311" lon="9.19199"><ele>348.0</ele><time>2026-03-28T12:48:28.01Z</time></trkpt><trkpt lat="44.4530767" lon="9.1921117"><ele>348.0</ele><time>2026-03-28T12:48:29.01Z</time></trkpt><trkpt lat="44.4530433" lon="9.192215"><ele>348.0</ele><time>2026-03-28T12:48:30.01Z</time></trkpt><trkpt lat="44.4529983" lon="9.192295"><ele>348.0</ele><time>2026-03-28T12:48:31.01Z</time></trkpt><trkpt lat="44.4529433" lon="9.192355"><ele>348.0</ele><time>2026-03-28T12:48:32.01Z</time></trkpt><trkpt lat="44.4528717" lon="9.1923567"><ele>348.0</ele><time>2026-03-28T12:48:33.01Z</time></trkpt><trkpt lat="44.45281" lon="9.192325"><ele>348.0</ele><time>2026-03-28T12:48:34.01Z</time></trkpt><trkpt lat="44.4527483" lon="9.19226"><ele>348.0</ele><time>2026-03-28T12:48:35.01Z</time></trkpt><trkpt lat="44.4526967" lon="9.19214"><ele>348.0</ele><time>2026-03-28T12:48:36.01Z</time></trkpt><trkpt lat="44.45267" lon="9.1919717"><ele>348.0</ele><time>2026-03-28T12:48:37.01Z</time></trkpt><trkpt lat="44.452675" lon="9.19181"><ele>348.0</ele><time>2026-03-28T12:48:38.01Z</time></trkpt><trkpt lat="44.4526933" lon="9.1916283"><ele>348.0</ele><time>2026-03-28T12:48:39.01Z</time></trkpt><trkpt lat="44.4527333" lon="9.19143"><ele>348.0</ele><time>2026-03-28T12:48:40.01Z</time></trkpt><trkpt lat="44.452795" lon="9.191245"><ele>346.0</ele><time>2026-03-28T12:48:41.01Z</time></trkpt><trkpt lat="44.452845" lon="9.191075"><ele>344.0</ele><time>2026-03-28T12:48:42.01Z</time></trkpt><trkpt lat="44.4528983" lon="9.1909167"><ele>342.0</ele><time>2026-03-28T12:48:43.01Z</time></trkpt><trkpt lat="44.4529367" lon="9.190765"><ele>340.0</ele><time>2026-03-28T12:48:44.009Z</time></trkpt><trkpt lat="44.4529467" lon="9.190625"><ele>336.8</ele><time>2026-03-28T12:48:45.01Z</time></trkpt><trkpt lat="44.4529517" lon="9.19051"><ele>333.6</ele><time>2026-03-28T12:48:46.01Z</time></trkpt><trkpt lat="44.4529283" lon="9.1904017"><ele>330.4</ele><time>2026-03-28T12:48:47.01Z</time></trkpt><trkpt lat="44.45289" lon="9.1903033"><ele>327.2</ele><time>2026-03-28T12:48:48.01Z</time></trkpt><trkpt lat="44.4528183" lon="9.1902183"><ele>324.0</ele><time>2026-03-28T12:48:49.01Z</time></trkpt><trkpt lat="44.45272" lon="9.1901367"><ele>324.0</ele><time>2026-03-28T12:48:50.01Z</time></trkpt><trkpt lat="44.4526267" lon="9.1900667"><ele>324.0</ele><time>2026-03-28T12:48:51.01Z</time></trkpt><trkpt lat="44.452535" lon="9.1900067"><ele>324.0</ele><time>2026-03-28T12:48:52.01Z</time></trkpt><trkpt lat="44.4524367" lon="9.1899567"><ele>324.0</ele><time>2026-03-28T12:48:53.01Z</time></trkpt><trkpt lat="44.4523367" lon="9.1899183"><ele>324.0</ele><time>2026-03-28T12:48:54.01Z</time></trkpt><trkpt lat="44.4522283" lon="9.18991"><ele>324.25</ele><time>2026-03-28T12:48:55.009Z</time></trkpt><trkpt lat="44.4521233" lon="9.189915"><ele>324.5</ele><time>2026-03-28T12:48:56.01Z</time></trkpt><trkpt lat="44.4520133" lon="9.1899283"><ele>324.75</ele><time>2026-03-28T12:48:57.01Z</time></trkpt><trkpt lat="44.4518967" lon="9.1899483"><ele>325.0</ele><time>2026-03-28T12:48:58.01Z</time></trkpt><trkpt lat="44.4517783" lon="9.189965"><ele>325.0</ele><time>2026-03-28T12:48:59.01Z</time></trkpt><trkpt lat="44.4516767" lon="9.1899917"><ele>325.0</ele><time>2026-03-28T12:49:00.01Z</time></trkpt><trkpt lat="44.45158" lon="9.19001"><ele>325.0</ele><time>2026-03-28T12:49:01.01Z</time></trkpt><trkpt lat="44.451485" lon="9.1900383"><ele>325.0</ele><time>2026-03-28T12:49:02.01Z</time></trkpt><trkpt lat="44.4514017" lon="9.1900783"><ele>325.0</ele><time>2026-03-28T12:49:03.01Z</time></trkpt><trkpt lat="44.4513233" lon="9.1901"><ele>324.6</ele><time>2026-03-28T12:49:04.01Z</time></trkpt><trkpt lat="44.4512533" lon="9.190085"><ele>324.2</ele><time>2026-03-28T12:49:05.01Z</time></trkpt><trkpt lat="44.45117" lon="9.1900283"><ele>323.79999999999995</ele><time>2026-03-28T12:49:06.01Z</time></trkpt><trkpt lat="44.4510867" lon="9.1899333"><ele>323.4</ele><time>2026-03-28T12:49:07.01Z</time></trkpt><trkpt lat="44.451" lon="9.18983"><ele>323.0</ele><time>2026-03-28T12:49:08.01Z</time></trkpt><trkpt lat="44.4509233" lon="9.1897283"><ele>323.0</ele><time>2026-03-28T12:49:09.01Z</time></trkpt><trkpt lat="44.450855" lon="9.1896267"><ele>323.0</ele><time>2026-03-28T12:49:10.01Z</time></trkpt><trkpt lat="44.4507967" lon="9.1895117"><ele>323.0</ele><time>2026-03-28T12:49:11.01Z</time></trkpt><trkpt lat="44.4507417" lon="9.1893917"><ele>323.0</ele><time>2026-03-28T12:49:12.01Z</time></trkpt><trkpt lat="44.4506833" lon="9.1892633"><ele>323.0</ele><time>2026-03-28T12:49:13.01Z</time></trkpt><trkpt lat="44.45063" lon="9.1891217"><ele>322.79999999999995</ele><time>2026-03-28T12:49:14.009Z</time></trkpt><trkpt lat="44.45058" lon="9.188985"><ele>322.6</ele><time>2026-03-28T12:49:15.01Z</time></trkpt><trkpt lat="44.45052" lon="9.1888617"><ele>322.4</ele><time>2026-03-28T12:49:16.01Z</time></trkpt><trkpt lat="44.4504467" lon="9.1887567"><ele>322.20000000000005</ele><time>2026-03-28T12:49:17.01Z</time></trkpt><trkpt lat="44.4503683" lon="9.18866"><ele>322.0</ele><time>2026-03-28T12:49:18.01Z</time></trkpt><trkpt lat="44.4502683" lon="9.1885717"><ele>322.0</ele><time>2026-03-28T12:49:19.01Z</time></trkpt><trkpt lat="44.45019" lon="9.18848"><ele>322.0</ele><time>2026-03-28T12:49:20.01Z</time></trkpt><trkpt lat="44.45011" lon="9.1883967"><ele>322.0</ele><time>2026-03-28T12:49:21.01Z</time></trkpt><trkpt lat="44.450025" lon="9.18834"><ele>322.0</ele><time>2026-03-28T12:49:22.01Z</time></trkpt><trkpt lat="44.4499267" lon="9.1882717"><ele>322.0</ele><time>2026-03-28T12:49:23.01Z</time></trkpt><trkpt lat="44.449815" lon="9.1882183"><ele>322.0</ele><time>2026-03-28T12:49:24.01Z</time></trkpt><trkpt lat="44.4496967" lon="9.18818"><ele>322.0</ele><time>2026-03-28T12:49:25.01Z</time></trkpt><trkpt lat="44.4495733" lon="9.1881617"><ele>322.0</ele><time>2026-03-28T12:49:26.009Z</time></trkpt><trkpt lat="44.44946" lon="9.18814"><ele>322.0</ele><time>2026-03-28T12:49:27.01Z</time></trkpt><trkpt lat="44.4493617" lon="9.18809"><ele>319.0</ele><time>2026-03-28T12:49:28.009Z</time></trkpt><trkpt lat="44.44927" lon="9.1880033"><ele>316.0</ele><time>2026-03-28T12:49:29.01Z</time></trkpt><trkpt lat="44.449185" lon="9.1879167"><ele>313.0</ele><time>2026-03-28T12:49:30.01Z</time></trkpt><trkpt lat="44.449105" lon="9.1878367"><ele>310.0</ele><time>2026-03-28T12:49:31.01Z</time></trkpt><trkpt lat="44.4490233" lon="9.18779"><ele>307.0</ele><time>2026-03-28T12:49:32.01Z</time></trkpt><trkpt lat="44.44892" lon="9.187775"><ele>307.0</ele><time>2026-03-28T12:49:33.009Z</time></trkpt><trkpt lat="44.4488217" lon="9.187785"><ele>307.0</ele><time>2026-03-28T12:49:34.009Z</time></trkpt><trkpt lat="44.448715" lon="9.187795"><ele>307.0</ele><time>2026-03-28T12:49:35.01Z</time></trkpt><trkpt lat="44.4486183" lon="9.18777"><ele>307.0</ele><time>2026-03-28T12:49:36.01Z</time></trkpt><trkpt lat="44.4485233" lon="9.18771"><ele>307.0</ele><time>2026-03-28T12:49:37.01Z</time></trkpt><trkpt lat="44.4484167" lon="9.1876433"><ele>308.0</ele><time>2026-03-28T12:49:38.01Z</time></trkpt><trkpt lat="44.4483033" lon="9.1875917"><ele>309.0</ele><time>2026-03-28T12:49:39.01Z</time></trkpt><trkpt lat="44.44819" lon="9.18755"><ele>310.0</ele><time>2026-03-28T12:49:40.01Z</time></trkpt><trkpt lat="44.4480783" lon="9.1875133"><ele>311.0</ele><time>2026-03-28T12:49:41.01Z</time></trkpt><trkpt lat="44.44796" lon="9.1875017"><ele>312.25</ele><time>2026-03-28T12:49:42.01Z</time></trkpt><trkpt lat="44.4478383" lon="9.1875067"><ele>313.5</ele><time>2026-03-28T12:49:43.01Z</time></trkpt><trkpt lat="44.44772" lon="9.187525"><ele>314.75</ele><time>2026-03-28T12:49:44.009Z</time></trkpt><trkpt lat="44.44761" lon="9.18753"><ele>316.0</ele><time>2026-03-28T12:49:45.01Z</time></trkpt><trkpt lat="44.4475083" lon="9.18751"><ele>316.0</ele><time>2026-03-28T12:49:46.01Z</time></trkpt><trkpt lat="44.4474033" lon="9.187475"><ele>316.0</ele><time>2026-03-28T12:49:47.01Z</time></trkpt><trkpt lat="44.4472933" lon="9.187455"><ele>316.0</ele><time>2026-03-28T12:49:48.01Z</time></trkpt><trkpt lat="44.447175" lon="9.1874667"><ele>316.0</ele><time>2026-03-28T12:49:49.009Z</time></trkpt><trkpt lat="44.4470483" lon="9.187505"><ele>312.5</ele><time>2026-03-28T12:49:50.01Z</time></trkpt><trkpt lat="44.4469283" lon="9.18756"><ele>309.0</ele><time>2026-03-28T12:49:51.01Z</time></trkpt><trkpt lat="44.4468117" lon="9.18762"><ele>305.5</ele><time>2026-03-28T12:49:52.01Z</time></trkpt><trkpt lat="44.4466883" lon="9.18769"><ele>302.0</ele><time>2026-03-28T12:49:53.01Z</time></trkpt><trkpt lat="44.4465817" lon="9.1877583"><ele>302.0</ele><time>2026-03-28T12:49:54.01Z</time></trkpt><trkpt lat="44.4464567" lon="9.187805"><ele>302.0</ele><time>2026-03-28T12:49:55.01Z</time></trkpt><trkpt lat="44.446345" lon="9.1878417"><ele>302.0</ele><time>2026-03-28T12:49:56.009Z</time></trkpt><trkpt lat="44.446235" lon="9.1879033"><ele>302.0</ele><time>2026-03-28T12:49:57.01Z</time></trkpt><trkpt lat="44.4461117" lon="9.1879817"><ele>304.25</ele><time>2026-03-28T12:49:58.009Z</time></trkpt><trkpt lat="44.44599" lon="9.1880567"><ele>306.5</ele><time>2026-03-28T12:49:59.01Z</time></trkpt><trkpt lat="44.4458833" lon="9.188135"><ele>308.75</ele><time>2026-03-28T12:50:00.01Z</time></trkpt><trkpt lat="44.4457917" lon="9.1882033"><ele>311.0</ele><time>2026-03-28T12:50:01.01Z</time></trkpt><trkpt lat="44.445725" lon="9.188295"><ele>311.0</ele><time>2026-03-28T12:50:02.01Z</time></trkpt><trkpt lat="44.44567" lon="9.1884133"><ele>311.0</ele><time>2026-03-28T12:50:03.01Z</time></trkpt><trkpt lat="44.44563" lon="9.1885567"><ele>311.0</ele><time>2026-03-28T12:50:04.01Z</time></trkpt><trkpt lat="44.4456017" lon="9.1886983"><ele>311.0</ele><time>2026-03-28T12:50:05.01Z</time></trkpt><trkpt lat="44.4455633" lon="9.1888267"><ele>311.0</ele><time>2026-03-28T12:50:06.01Z</time></trkpt><trkpt lat="44.4454917" lon="9.1889133"><ele>303.0</ele><time>2026-03-28T12:50:07.01Z</time></trkpt><trkpt lat="44.445395" lon="9.1889483"><ele>295.0</ele><time>2026-03-28T12:50:08.01Z</time></trkpt><trkpt lat="44.4452717" lon="9.18897"><ele>287.0</ele><time>2026-03-28T12:50:09.009Z</time></trkpt><trkpt lat="44.4451467" lon="9.1889717"><ele>279.0</ele><time>2026-03-28T12:50:10.01Z</time></trkpt><trkpt lat="44.4450233" lon="9.188985"><ele>281.0</ele><time>2026-03-28T12:50:11.01Z</time></trkpt><trkpt lat="44.4449" lon="9.1890133"><ele>283.0</ele><time>2026-03-28T12:50:12.01Z</time></trkpt><trkpt lat="44.4447733" lon="9.18906"><ele>285.0</ele><time>2026-03-28T12:50:13.009Z</time></trkpt><trkpt lat="44.4446583" lon="9.1891717"><ele>287.0</ele><time>2026-03-28T12:50:14.01Z</time></trkpt><trkpt lat="44.4445317" lon="9.18924"><ele>287.0</ele><time>2026-03-28T12:50:15.01Z</time></trkpt><trkpt lat="44.4444133" lon="9.18928"><ele>287.0</ele><time>2026-03-28T12:50:16.01Z</time></trkpt><trkpt lat="44.4442933" lon="9.18929"><ele>287.0</ele><time>2026-03-28T12:50:17.01Z</time></trkpt><trkpt lat="44.4441883" lon="9.1893183"><ele>287.0</ele><time>2026-03-28T12:50:18.01Z</time></trkpt><trkpt lat="44.4440917" lon="9.189365"><ele>287.0</ele><time>2026-03-28T12:50:19.01Z</time></trkpt><trkpt lat="44.4440067" lon="9.1894583"><ele>287.0</ele><time>2026-03-28T12:50:20.01Z</time></trkpt><trkpt lat="44.4439267" lon="9.1895667"><ele>287.0</ele><time>2026-03-28T12:50:21.01Z</time></trkpt><trkpt lat="44.443855" lon="9.1896583"><ele>287.0</ele><time>2026-03-28T12:50:22.01Z</time></trkpt><trkpt lat="44.4437783" lon="9.1897167"><ele>287.0</ele><time>2026-03-28T12:50:23.01Z</time></trkpt><trkpt lat="44.443675" lon="9.1897417"><ele>288.0</ele><time>2026-03-28T12:50:24.01Z</time></trkpt><trkpt lat="44.4435533" lon="9.1897533"><ele>289.0</ele><time>2026-03-28T12:50:25.01Z</time></trkpt><trkpt lat="44.4434417" lon="9.18978"><ele>290.0</ele><time>2026-03-28T12:50:26.01Z</time></trkpt><trkpt lat="44.4433383" lon="9.1898217"><ele>291.0</ele><time>2026-03-28T12:50:27.01Z</time></trkpt><trkpt lat="44.44325" lon="9.1898917"><ele>292.0</ele><time>2026-03-28T12:50:28.01Z</time></trkpt><trkpt lat="44.44318" lon="9.1899767"><ele>292.0</ele><time>2026-03-28T12:50:29.01Z</time></trkpt><trkpt lat="44.4431117" lon="9.1900517"><ele>292.0</ele><time>2026-03-28T12:50:30.01Z</time></trkpt><trkpt lat="44.44303" lon="9.1901283"><ele>292.0</ele><time>2026-03-28T12:50:31.009Z</time></trkpt><trkpt lat="44.4429183" lon="9.1901683"><ele>292.0</ele><time>2026-03-28T12:50:32.01Z</time></trkpt><trkpt lat="44.4427967" lon="9.1901883"><ele>292.0</ele><time>2026-03-28T12:50:33.01Z</time></trkpt><trkpt lat="44.4426833" lon="9.1902317"><ele>291.3333333333333</ele><time>2026-03-28T12:50:34.01Z</time></trkpt><trkpt lat="44.442595" lon="9.1902733"><ele>290.66666666666663</ele><time>2026-03-28T12:50:35.01Z</time></trkpt><trkpt lat="44.442505" lon="9.1902733"><ele>290.0</ele><time>2026-03-28T12:50:36.01Z</time></trkpt><trkpt lat="44.4424317" lon="9.1902633"><ele>289.3333333333333</ele><time>2026-03-28T12:50:37.01Z</time></trkpt><trkpt lat="44.4423633" lon="9.1902017"><ele>288.6666666666667</ele><time>2026-03-28T12:50:38.01Z</time></trkpt><trkpt lat="44.4422883" lon="9.1901117"><ele>288.0</ele><time>2026-03-28T12:50:39.01Z</time></trkpt><trkpt lat="44.44221" lon="9.18997"><ele>286.0</ele><time>2026-03-28T12:50:40.01Z</time></trkpt><trkpt lat="44.4421383" lon="9.1898383"><ele>284.0</ele><time>2026-03-28T12:50:41.01Z</time></trkpt><trkpt lat="44.4420583" lon="9.189715"><ele>282.0</ele><time>2026-03-28T12:50:42.01Z</time></trkpt><trkpt lat="44.4420067" lon="9.1895783"><ele>280.0</ele><time>2026-03-28T12:50:43.01Z</time></trkpt><trkpt lat="44.4419717" lon="9.18944"><ele>280.0</ele><time>2026-03-28T12:50:44.01Z</time></trkpt><trkpt lat="44.4419433" lon="9.1893083"><ele>280.0</ele><time>2026-03-28T12:50:45.01Z</time></trkpt><trkpt lat="44.4419083" lon="9.1891817"><ele>280.0</ele><time>2026-03-28T12:50:46.01Z</time></trkpt><trkpt lat="44.441855" lon="9.189085"><ele>280.0</ele><time>2026-03-28T12:50:47.01Z</time></trkpt><trkpt lat="44.4417933" lon="9.1890117"><ele>280.0</ele><time>2026-03-28T12:50:48.01Z</time></trkpt><trkpt lat="44.44172" lon="9.1889683"><ele>280.0</ele><time>2026-03-28T12:50:49.01Z</time></trkpt><trkpt lat="44.4416283" lon="9.18896"><ele>280.0</ele><time>2026-03-28T12:50:50.01Z</time></trkpt><trkpt lat="44.4415233" lon="9.1889883"><ele>280.0</ele><time>2026-03-28T12:50:51.01Z</time></trkpt><trkpt lat="44.441415" lon="9.1890217"><ele>280.0</ele><time>2026-03-28T12:50:52.01Z</time></trkpt><trkpt lat="44.4412967" lon="9.189025"><ele>280.0</ele><time>2026-03-28T12:50:53.01Z</time></trkpt><trkpt lat="44.44118" lon="9.1890117"><ele>271.0</ele><time>2026-03-28T12:50:54.01Z</time></trkpt><trkpt lat="44.4410667" lon="9.1889917"><ele>262.0</ele><time>2026-03-28T12:50:55.01Z</time></trkpt><trkpt lat="44.44094" lon="9.1889933"><ele>253.0</ele><time>2026-03-28T12:50:56.01Z</time></trkpt><trkpt lat="44.44082" lon="9.18899"><ele>244.0</ele><time>2026-03-28T12:50:57.01Z</time></trkpt><trkpt lat="44.4407033" lon="9.1889767"><ele>244.0</ele><time>2026-03-28T12:50:58.01Z</time></trkpt><trkpt lat="44.4406" lon="9.188955"><ele>243.99999999999997</ele><time>2026-03-28T12:50:59.01Z</time></trkpt><trkpt lat="44.44051" lon="9.1888967"><ele>243.99999999999997</ele><time>2026-03-28T12:51:00.01Z</time></trkpt><trkpt lat="44.4404433" lon="9.1888033"><ele>244.0</ele><time>2026-03-28T12:51:01.01Z</time></trkpt><trkpt lat="44.44038" lon="9.1886833"><ele>244.0</ele><time>2026-03-28T12:51:02.01Z</time></trkpt><trkpt lat="44.4403117" lon="9.1885717"><ele>245.2</ele><time>2026-03-28T12:51:03.009Z</time></trkpt><trkpt lat="44.4402233" lon="9.1885033"><ele>246.39999999999998</ele><time>2026-03-28T12:51:04.01Z</time></trkpt><trkpt lat="44.4401233" lon="9.1884667"><ele>247.6</ele><time>2026-03-28T12:51:05.01Z</time></trkpt><trkpt lat="44.440025" lon="9.18847"><ele>248.8</ele><time>2026-03-28T12:51:06.01Z</time></trkpt><trkpt lat="44.4399267" lon="9.18851"><ele>250.0</ele><time>2026-03-28T12:51:07.01Z</time></trkpt><trkpt lat="44.4398417" lon="9.18857"><ele>250.0</ele><time>2026-03-28T12:51:08.01Z</time></trkpt><trkpt lat="44.43976" lon="9.1886133"><ele>250.0</ele><time>2026-03-28T12:51:09.01Z</time></trkpt><trkpt lat="44.439665" lon="9.1886083"><ele>250.0</ele><time>2026-03-28T12:51:10.009Z</time></trkpt><trkpt lat="44.4395767" lon="9.1885733"><ele>250.0</ele><time>2026-03-28T12:51:11.01Z</time></trkpt><trkpt lat="44.4394833" lon="9.1885467"><ele>250.0</ele><time>2026-03-28T12:51:12.01Z</time></trkpt><trkpt lat="44.4393683" lon="9.188535"><ele>248.75</ele><time>2026-03-28T12:51:13.009Z</time></trkpt><trkpt lat="44.43926" lon="9.1885567"><ele>247.5</ele><time>2026-03-28T12:51:14.01Z</time></trkpt><trkpt lat="44.4391417" lon="9.1886117"><ele>246.25</ele><time>2026-03-28T12:51:15.01Z</time></trkpt><trkpt lat="44.4390233" lon="9.18865"><ele>245.0</ele><time>2026-03-28T12:51:16.01Z</time></trkpt><trkpt lat="44.4388983" lon="9.1886583"><ele>244.4</ele><time>2026-03-28T12:51:17.01Z</time></trkpt><trkpt lat="44.4387817" lon="9.1886517"><ele>243.8</ele><time>2026-03-28T12:51:18.009Z</time></trkpt><trkpt lat="44.4386733" lon="9.188665"><ele>243.2</ele><time>2026-03-28T12:51:19.01Z</time></trkpt><trkpt lat="44.43857" lon="9.18867"><ele>242.6</ele><time>2026-03-28T12:51:20.01Z</time></trkpt><trkpt lat="44.4384817" lon="9.1886267"><ele>242.0</ele><time>2026-03-28T12:51:21.01Z</time></trkpt><trkpt lat="44.438405" lon="9.1885567"><ele>242.0</ele><time>2026-03-28T12:51:22.01Z</time></trkpt><trkpt lat="44.4383367" lon="9.1884633"><ele>242.0</ele><time>2026-03-28T12:51:23.01Z</time></trkpt><trkpt lat="44.43825" lon="9.1883933"><ele>242.0</ele><time>2026-03-28T12:51:24.009Z</time></trkpt><trkpt lat="44.4381683" lon="9.1883567"><ele>242.0</ele><time>2026-03-28T12:51:25.01Z</time></trkpt><trkpt lat="44.4380817" lon="9.188345"><ele>242.0</ele><time>2026-03-28T12:51:26.01Z</time></trkpt><trkpt lat="44.437995" lon="9.1883683"><ele>243.66666666666669</ele><time>2026-03-28T12:51:27.009Z</time></trkpt><trkpt lat="44.4379233" lon="9.188415"><ele>245.33333333333334</ele><time>2026-03-28T12:51:28.01Z</time></trkpt><trkpt lat="44.4378517" lon="9.1884817"><ele>247.0</ele><time>2026-03-28T12:51:29.01Z</time></trkpt><trkpt lat="44.4378083" lon="9.1885817"><ele>248.66666666666669</ele><time>2026-03-28T12:51:30.01Z</time></trkpt><trkpt lat="44.4377483" lon="9.1886383"><ele>250.33333333333334</ele><time>2026-03-28T12:51:31.01Z</time></trkpt><trkpt lat="44.4376517" lon="9.1886483"><ele>252.0</ele><time>2026-03-28T12:51:33.009Z</time></trkpt><trkpt lat="44.4376117" lon="9.188565"><ele>252.0</ele><time>2026-03-28T12:51:34.01Z</time></trkpt><trkpt lat="44.4375767" lon="9.1884517"><ele>252.0</ele><time>2026-03-28T12:51:35.01Z</time></trkpt><trkpt lat="44.4375417" lon="9.1883"><ele>252.0</ele><time>2026-03-28T12:51:36.01Z</time></trkpt><trkpt lat="44.437495" lon="9.188175"><ele>252.0</ele><time>2026-03-28T12:51:37.01Z</time></trkpt><trkpt lat="44.4374417" lon="9.1880583"><ele>252.0</ele><time>2026-03-28T12:51:38.01Z</time></trkpt><trkpt lat="44.4373767" lon="9.187965"><ele>249.0</ele><time>2026-03-28T12:51:39.01Z</time></trkpt><trkpt lat="44.43728" lon="9.18789"><ele>246.0</ele><time>2026-03-28T12:51:40.01Z</time></trkpt><trkpt lat="44.4371833" lon="9.1878317"><ele>243.0</ele><time>2026-03-28T12:51:41.009Z</time></trkpt><trkpt lat="44.43709" lon="9.1877983"><ele>240.0</ele><time>2026-03-28T12:51:42.01Z</time></trkpt><trkpt lat="44.43699" lon="9.1877967"><ele>237.0</ele><time>2026-03-28T12:51:43.009Z</time></trkpt><trkpt lat="44.4368983" lon="9.1878233"><ele>237.0</ele><time>2026-03-28T12:51:44.01Z</time></trkpt><trkpt lat="44.436815" lon="9.1878583"><ele>237.0</ele><time>2026-03-28T12:51:45.01Z</time></trkpt><trkpt lat="44.4367283" lon="9.1878833"><ele>237.0</ele><time>2026-03-28T12:51:46.01Z</time></trkpt><trkpt lat="44.4366483" lon="9.1878633"><ele>237.0</ele><time>2026-03-28T12:51:47.01Z</time></trkpt><trkpt lat="44.4365633" lon="9.1878"><ele>237.0</ele><time>2026-03-28T12:51:48.009Z</time></trkpt><trkpt lat="44.4364733" lon="9.18768"><ele>237.0</ele><time>2026-03-28T12:51:49.01Z</time></trkpt><trkpt lat="44.4363933" lon="9.1875383"><ele>237.0</ele><time>2026-03-28T12:51:50.01Z</time></trkpt><trkpt lat="44.436315" lon="9.187395"><ele>237.0</ele><time>2026-03-28T12:51:51.01Z</time></trkpt><trkpt lat="44.4362367" lon="9.1872483"><ele>237.0</ele><time>2026-03-28T12:51:52.01Z</time></trkpt><trkpt lat="44.4361483" lon="9.1870967"><ele>237.25</ele><time>2026-03-28T12:51:53.009Z</time></trkpt><trkpt lat="44.4360533" lon="9.18696"><ele>237.5</ele><time>2026-03-28T12:51:54.01Z</time></trkpt><trkpt lat="44.435965" lon="9.1868233"><ele>237.75</ele><time>2026-03-28T12:51:55.009Z</time></trkpt><trkpt lat="44.4358733" lon="9.1867017"><ele>238.0</ele><time>2026-03-28T12:51:56.009Z</time></trkpt><trkpt lat="44.435805" lon="9.1865617"><ele>231.2</ele><time>2026-03-28T12:51:57.01Z</time></trkpt><trkpt lat="44.4357467" lon="9.1864367"><ele>224.4</ele><time>2026-03-28T12:51:58.01Z</time></trkpt><trkpt lat="44.4356683" lon="9.186345"><ele>217.6</ele><time>2026-03-28T12:51:59.01Z</time></trkpt><trkpt lat="44.4355767" lon="9.186295"><ele>210.79999999999998</ele><time>2026-03-28T12:52:00.009Z</time></trkpt><trkpt lat="44.43548" lon="9.1862817"><ele>204.0</ele><time>2026-03-28T12:52:01.01Z</time></trkpt><trkpt lat="44.4353683" lon="9.1863183"><ele>203.5</ele><time>2026-03-28T12:52:02.01Z</time></trkpt><trkpt lat="44.4352517" lon="9.1863433"><ele>203.0</ele><time>2026-03-28T12:52:03.01Z</time></trkpt><trkpt lat="44.4351283" lon="9.186355"><ele>202.5</ele><time>2026-03-28T12:52:04.01Z</time></trkpt><trkpt lat="44.4350017" lon="9.186395"><ele>202.0</ele><time>2026-03-28T12:52:05.01Z</time></trkpt><trkpt lat="44.4348783" lon="9.1864083"><ele>202.0</ele><time>2026-03-28T12:52:06.01Z</time></trkpt><trkpt lat="44.4347667" lon="9.1864017"><ele>202.0</ele><time>2026-03-28T12:52:07.01Z</time></trkpt><trkpt lat="44.4346533" lon="9.1863683"><ele>202.0</ele><time>2026-03-28T12:52:08.01Z</time></trkpt><trkpt lat="44.4345683" lon="9.1863283"><ele>202.0</ele><time>2026-03-28T12:52:09.01Z</time></trkpt><trkpt lat="44.4344733" lon="9.1862367"><ele>202.0</ele><time>2026-03-28T12:52:10.01Z</time></trkpt><trkpt lat="44.4343617" lon="9.1861833"><ele>201.8</ele><time>2026-03-28T12:52:11.01Z</time></trkpt><trkpt lat="44.4342617" lon="9.186165"><ele>201.6</ele><time>2026-03-28T12:52:12.01Z</time></trkpt><trkpt lat="44.434155" lon="9.1861467"><ele>201.4</ele><time>2026-03-28T12:52:13.01Z</time></trkpt><trkpt lat="44.4340667" lon="9.1861533"><ele>201.20000000000002</ele><time>2026-03-28T12:52:14.01Z</time></trkpt><trkpt lat="44.4339767" lon="9.1861783"><ele>201.0</ele><time>2026-03-28T12:52:15.01Z</time></trkpt><trkpt lat="44.4338917" lon="9.1862383"><ele>199.20000000000002</ele><time>2026-03-28T12:52:16.01Z</time></trkpt><trkpt lat="44.4338017" lon="9.1863267"><ele>197.4</ele><time>2026-03-28T12:52:17.01Z</time></trkpt><trkpt lat="44.4337083" lon="9.186405"><ele>195.6</ele><time>2026-03-28T12:52:18.01Z</time></trkpt><trkpt lat="44.433605" lon="9.1864767"><ele>193.8</ele><time>2026-03-28T12:52:19.01Z</time></trkpt><trkpt lat="44.4334967" lon="9.1865167"><ele>192.0</ele><time>2026-03-28T12:52:20.01Z</time></trkpt><trkpt lat="44.4333783" lon="9.18652"><ele>192.0</ele><time>2026-03-28T12:52:21.01Z</time></trkpt><trkpt lat="44.433255" lon="9.1865067"><ele>192.0</ele><time>2026-03-28T12:52:22.01Z</time></trkpt><trkpt lat="44.43313" lon="9.186495"><ele>192.0</ele><time>2026-03-28T12:52:23.01Z</time></trkpt><trkpt lat="44.432995" lon="9.1864567"><ele>192.0</ele><time>2026-03-28T12:52:24.01Z</time></trkpt><trkpt lat="44.4328517" lon="9.186385"><ele>191.5</ele><time>2026-03-28T12:52:25.01Z</time></trkpt><trkpt lat="44.432715" lon="9.186345"><ele>191.0</ele><time>2026-03-28T12:52:26.01Z</time></trkpt><trkpt lat="44.43257" lon="9.1862717"><ele>190.5</ele><time>2026-03-28T12:52:27.01Z</time></trkpt><trkpt lat="44.4324433" lon="9.1861917"><ele>190.0</ele><time>2026-03-28T12:52:28.01Z</time></trkpt><trkpt lat="44.4323133" lon="9.1861133"><ele>190.0</ele><time>2026-03-28T12:52:29.01Z</time></trkpt><trkpt lat="44.4321967" lon="9.186015"><ele>190.0</ele><time>2026-03-28T12:52:30.01Z</time></trkpt><trkpt lat="44.4321067" lon="9.1859233"><ele>190.0</ele><time>2026-03-28T12:52:31.01Z</time></trkpt><trkpt lat="44.4320283" lon="9.1858033"><ele>190.0</ele><time>2026-03-28T12:52:32.01Z</time></trkpt><trkpt lat="44.4319783" lon="9.1856767"><ele>188.2</ele><time>2026-03-28T12:52:33.01Z</time></trkpt><trkpt lat="44.4319233" lon="9.1855617"><ele>186.4</ele><time>2026-03-28T12:52:34.01Z</time></trkpt><trkpt lat="44.431865" lon="9.1854617"><ele>184.60000000000002</ele><time>2026-03-28T12:52:35.01Z</time></trkpt><trkpt lat="44.4318067" lon="9.18539"><ele>182.8</ele><time>2026-03-28T12:52:36.01Z</time></trkpt><trkpt lat="44.4317433" lon="9.18536"><ele>181.0</ele><time>2026-03-28T12:52:37.01Z</time></trkpt><trkpt lat="44.4316083" lon="9.1854183"><ele>181.0</ele><time>2026-03-28T12:52:39.009Z</time></trkpt><trkpt lat="44.4315183" lon="9.1854933"><ele>181.0</ele><time>2026-03-28T12:52:40.01Z</time></trkpt><trkpt lat="44.431415" lon="9.1855667"><ele>181.0</ele><time>2026-03-28T12:52:41.01Z</time></trkpt><trkpt lat="44.431305" lon="9.1856217"><ele>181.0</ele><time>2026-03-28T12:52:42.01Z</time></trkpt><trkpt lat="44.43119" lon="9.18565"><ele>181.0</ele><time>2026-03-28T12:52:43.01Z</time></trkpt><trkpt lat="44.4310717" lon="9.185675"><ele>181.0</ele><time>2026-03-28T12:52:44.01Z</time></trkpt><trkpt lat="44.4309683" lon="9.1857"><ele>181.0</ele><time>2026-03-28T12:52:45.01Z</time></trkpt><trkpt lat="44.4308667" lon="9.1856967"><ele>181.0</ele><time>2026-03-28T12:52:46.01Z</time></trkpt><trkpt lat="44.4307867" lon="9.18567"><ele>181.0</ele><time>2026-03-28T12:52:47.01Z</time></trkpt><trkpt lat="44.430715" lon="9.1856467"><ele>181.0</ele><time>2026-03-28T12:52:48.01Z</time></trkpt><trkpt lat="44.4306333" lon="9.18558"><ele>181.0</ele><time>2026-03-28T12:52:50.009Z</time></trkpt><trkpt lat="44.4305717" lon="9.1855483"><ele>181.0</ele><time>2026-03-28T12:52:52.01Z</time></trkpt><trkpt lat="44.4304983" lon="9.1856233"><ele>181.0</ele><time>2026-03-28T12:52:56.01Z</time></trkpt><trkpt lat="44.4304433" lon="9.1857517"><ele>181.0</ele><time>2026-03-28T12:52:58.01Z</time></trkpt><trkpt lat="44.4304217" lon="9.1858533"><ele>181.0</ele><time>2026-03-28T12:52:59.01Z</time></trkpt><trkpt lat="44.4304167" lon="9.18596"><ele>183.60000000000002</ele><time>2026-03-28T12:53:00.01Z</time></trkpt><trkpt lat="44.4304233" lon="9.186085"><ele>186.2</ele><time>2026-03-28T12:53:01.01Z</time></trkpt><trkpt lat="44.430445" lon="9.1862033"><ele>188.8</ele><time>2026-03-28T12:53:02.01Z</time></trkpt><trkpt lat="44.4304733" lon="9.1863333"><ele>191.39999999999998</ele><time>2026-03-28T12:53:03.01Z</time></trkpt><trkpt lat="44.4305067" lon="9.1864667"><ele>194.0</ele><time>2026-03-28T12:53:04.01Z</time></trkpt><trkpt lat="44.4305417" lon="9.1866067"><ele>196.0</ele><time>2026-03-28T12:53:05.01Z</time></trkpt><trkpt lat="44.43057" lon="9.1867567"><ele>198.0</ele><time>2026-03-28T12:53:06.009Z</time></trkpt><trkpt lat="44.4305817" lon="9.1869267"><ele>200.0</ele><time>2026-03-28T12:53:07.01Z</time></trkpt><trkpt lat="44.430575" lon="9.187105"><ele>202.0</ele><time>2026-03-28T12:53:08.01Z</time></trkpt><trkpt lat="44.430565" lon="9.1872817"><ele>201.99999999999997</ele><time>2026-03-28T12:53:09.01Z</time></trkpt><trkpt lat="44.43056" lon="9.1874217"><ele>202.0</ele><time>2026-03-28T12:53:10.01Z</time></trkpt><trkpt lat="44.43055" lon="9.1875433"><ele>202.0</ele><time>2026-03-28T12:53:11.009Z</time></trkpt><trkpt lat="44.4305567" lon="9.1876783"><ele>202.0</ele><time>2026-03-28T12:53:13.01Z</time></trkpt><trkpt lat="44.4305567" lon="9.1875817"><ele>201.99999999999997</ele><time>2026-03-28T12:53:29.009Z</time></trkpt><trkpt lat="44.43055" lon="9.1874667"><ele>202.0</ele><time>2026-03-28T12:53:31.01Z</time></trkpt><trkpt lat="44.43057" lon="9.1873417"><ele>201.99999999999997</ele><time>2026-03-28T12:53:33.009Z</time></trkpt><trkpt lat="44.4305833" lon="9.187205"><ele>202.0</ele><time>2026-03-28T12:53:35.01Z</time></trkpt><trkpt lat="44.4305967" lon="9.1870583"><ele>202.0</ele><time>2026-03-28T12:53:37.01Z</time></trkpt><trkpt lat="44.4305933" lon="9.1869233"><ele>202.0</ele><time>2026-03-28T12:53:39.01Z</time></trkpt><trkpt lat="44.4305983" lon="9.18683"><ele>201.99999999999997</ele><time>2026-03-28T12:53:40.01Z</time></trkpt><trkpt lat="44.4306" lon="9.186725"><ele>202.0</ele><time>2026-03-28T12:53:41.01Z</time></trkpt><trkpt lat="44.430595" lon="9.1866267"><ele>200.39999999999998</ele><time>2026-03-28T12:53:42.01Z</time></trkpt><trkpt lat="44.4305583" lon="9.1865083"><ele>198.79999999999998</ele><time>2026-03-28T12:53:43.01Z</time></trkpt><trkpt lat="44.4305217" lon="9.1863917"><ele>197.2</ele><time>2026-03-28T12:53:44.01Z</time></trkpt><trkpt lat="44.4304833" lon="9.18627"><ele>195.6</ele><time>2026-03-28T12:53:45.009Z</time></trkpt><trkpt lat="44.4304567" lon="9.1861433"><ele>194.0</ele><time>2026-03-28T12:53:46.01Z</time></trkpt><trkpt lat="44.4304433" lon="9.18603"><ele>191.83333333333334</ele><time>2026-03-28T12:53:47.01Z</time></trkpt><trkpt lat="44.4304367" lon="9.1859217"><ele>189.66666666666669</ele><time>2026-03-28T12:53:48.01Z</time></trkpt><trkpt lat="44.4304433" lon="9.185815"><ele>187.5</ele><time>2026-03-28T12:53:49.01Z</time></trkpt><trkpt lat="44.43046" lon="9.1857117"><ele>185.33333333333334</ele><time>2026-03-28T12:53:50.01Z</time></trkpt><trkpt lat="44.4304817" lon="9.1856183"><ele>183.16666666666669</ele><time>2026-03-28T12:53:51.01Z</time></trkpt><trkpt lat="44.4305167" lon="9.18554"><ele>181.0</ele><time>2026-03-28T12:53:52.01Z</time></trkpt><trkpt lat="44.4305967" lon="9.1854633"><ele>181.0</ele><time>2026-03-28T12:53:54.01Z</time></trkpt><trkpt lat="44.43067" lon="9.18542"><ele>181.0</ele><time>2026-03-28T12:53:57.01Z</time></trkpt><trkpt lat="44.4307433" lon="9.185425"><ele>181.0</ele><time>2026-03-28T12:54:00.01Z</time></trkpt><trkpt lat="44.43083" lon="9.18541"><ele>181.0</ele><time>2026-03-28T12:54:03.01Z</time></trkpt><trkpt lat="44.4309017" lon="9.1853983"><ele>181.0</ele><time>2026-03-28T12:54:05.01Z</time></trkpt><trkpt lat="44.4309883" lon="9.1853583"><ele>181.0</ele><time>2026-03-28T12:54:07.01Z</time></trkpt><trkpt lat="44.4311167" lon="9.1852767"><ele>181.0</ele><time>2026-03-28T12:54:09.01Z</time></trkpt><trkpt lat="44.4311983" lon="9.1852217"><ele>181.0</ele><time>2026-03-28T12:54:10.01Z</time></trkpt><trkpt lat="44.43129" lon="9.1851483"><ele>181.0</ele><time>2026-03-28T12:54:11.009Z</time></trkpt><trkpt lat="44.4313783" lon="9.1850617"><ele>181.0</ele><time>2026-03-28T12:54:12.009Z</time></trkpt><trkpt lat="44.43146" lon="9.18498"><ele>181.0</ele><time>2026-03-28T12:54:13.01Z</time></trkpt><trkpt lat="44.4315383" lon="9.1849083"><ele>178.20000000000002</ele><time>2026-03-28T12:54:14.009Z</time></trkpt><trkpt lat="44.4316233" lon="9.1848233"><ele>175.4</ele><time>2026-03-28T12:54:15.01Z</time></trkpt><trkpt lat="44.4316883" lon="9.1847383"><ele>172.6</ele><time>2026-03-28T12:54:16.01Z</time></trkpt><trkpt lat="44.43173" lon="9.1846433"><ele>169.8</ele><time>2026-03-28T12:54:17.01Z</time></trkpt><trkpt lat="44.4317467" lon="9.1844817"><ele>167.0</ele><time>2026-03-28T12:54:19.01Z</time></trkpt><trkpt lat="44.4316167" lon="9.1844117"><ele>167.0</ele><time>2026-03-28T12:54:21.01Z</time></trkpt><trkpt lat="44.4315183" lon="9.1844333"><ele>167.0</ele><time>2026-03-28T12:54:22.01Z</time></trkpt><trkpt lat="44.4314133" lon="9.18447"><ele>167.0</ele><time>2026-03-28T12:54:23.01Z</time></trkpt><trkpt lat="44.4313067" lon="9.1845"><ele>167.0</ele><time>2026-03-28T12:54:24.01Z</time></trkpt><trkpt lat="44.43122" lon="9.1845067"><ele>167.0</ele><time>2026-03-28T12:54:25.01Z</time></trkpt><trkpt lat="44.4311433" lon="9.1845133"><ele>167.0</ele><time>2026-03-28T12:54:26.01Z</time></trkpt><trkpt lat="44.4310633" lon="9.1845033"><ele>167.0</ele><time>2026-03-28T12:54:27.01Z</time></trkpt><trkpt lat="44.430985" lon="9.1844767"><ele>167.0</ele><time>2026-03-28T12:54:28.01Z</time></trkpt><trkpt lat="44.4309117" lon="9.184455"><ele>167.0</ele><time>2026-03-28T12:54:29.01Z</time></trkpt><trkpt lat="44.4308317" lon="9.1844283"><ele>167.0</ele><time>2026-03-28T12:54:30.01Z</time></trkpt><trkpt lat="44.430755" lon="9.1843917"><ele>167.0</ele><time>2026-03-28T12:54:31.009Z</time></trkpt><trkpt lat="44.43068" lon="9.18435"><ele>167.0</ele><time>2026-03-28T12:54:32.009Z</time></trkpt><trkpt lat="44.4306317" lon="9.184275"><ele>167.0</ele><time>2026-03-28T12:54:33.01Z</time></trkpt><trkpt lat="44.43059" lon="9.1841783"><ele>167.0</ele><time>2026-03-28T12:54:34.01Z</time></trkpt><trkpt lat="44.4305617" lon="9.18406"><ele>167.0</ele><time>2026-03-28T12:54:35.01Z</time></trkpt><trkpt lat="44.4305467" lon="9.1839267"><ele>167.0</ele><time>2026-03-28T12:54:36.01Z</time></trkpt><trkpt lat="44.430545" lon="9.1837883"><ele>167.0</ele><time>2026-03-28T12:54:37.01Z</time></trkpt><trkpt lat="44.4305367" lon="9.18366"><ele>167.5</ele><time>2026-03-28T12:54:38.01Z</time></trkpt><trkpt lat="44.4305117" lon="9.1835383"><ele>168.0</ele><time>2026-03-28T12:54:39.01Z</time></trkpt><trkpt lat="44.4304133" lon="9.1832983"><ele>168.5</ele><time>2026-03-28T12:54:41.01Z</time></trkpt><trkpt lat="44.4303367" lon="9.1831917"><ele>169.0</ele><time>2026-03-28T12:54:42.01Z</time></trkpt><trkpt lat="44.430265" lon="9.1830883"><ele>166.5</ele><time>2026-03-28T12:54:43.01Z</time></trkpt><trkpt lat="44.4301783" lon="9.1830067"><ele>164.0</ele><time>2026-03-28T12:54:44.01Z</time></trkpt><trkpt lat="44.4300967" lon="9.1829283"><ele>161.5</ele><time>2026-03-28T12:54:45.01Z</time></trkpt><trkpt lat="44.4300333" lon="9.1828533"><ele>159.0</ele><time>2026-03-28T12:54:46.01Z</time></trkpt><trkpt lat="44.4299733" lon="9.182775"><ele>156.5</ele><time>2026-03-28T12:54:47.01Z</time></trkpt><trkpt lat="44.4299233" lon="9.182705"><ele>154.0</ele><time>2026-03-28T12:54:48.01Z</time></trkpt><trkpt lat="44.4298817" lon="9.1826367"><ele>154.0</ele><time>2026-03-28T12:54:49.01Z</time></trkpt><trkpt lat="44.4298333" lon="9.18256"><ele>154.0</ele><time>2026-03-28T12:54:51.009Z</time></trkpt><trkpt lat="44.4297783" lon="9.1826117"><ele>154.0</ele><time>2026-03-28T12:54:59.01Z</time></trkpt><trkpt lat="44.42971" lon="9.18263"><ele>154.0</ele><time>2026-03-28T12:55:01.009Z</time></trkpt><trkpt lat="44.42961" lon="9.18269"><ele>154.0</ele><time>2026-03-28T12:55:03.01Z</time></trkpt><trkpt lat="44.4295517" lon="9.1827317"><ele>154.0</ele><time>2026-03-28T12:55:04.01Z</time></trkpt><trkpt lat="44.4294917" lon="9.182795"><ele>153.4</ele><time>2026-03-28T12:55:05.01Z</time></trkpt><trkpt lat="44.4294317" lon="9.18288"><ele>152.8</ele><time>2026-03-28T12:55:06.01Z</time></trkpt><trkpt lat="44.4293733" lon="9.1829667"><ele>152.2</ele><time>2026-03-28T12:55:07.01Z</time></trkpt><trkpt lat="44.4293183" lon="9.1830717"><ele>151.6</ele><time>2026-03-28T12:55:08.01Z</time></trkpt><trkpt lat="44.42926" lon="9.1831867"><ele>151.0</ele><time>2026-03-28T12:55:09.009Z</time></trkpt><trkpt lat="44.42921" lon="9.183315"><ele>152.2</ele><time>2026-03-28T12:55:10.01Z</time></trkpt><trkpt lat="44.4291667" lon="9.183445"><ele>153.39999999999998</ele><time>2026-03-28T12:55:11.009Z</time></trkpt><trkpt lat="44.42914" lon="9.1835717"><ele>154.6</ele><time>2026-03-28T12:55:12.01Z</time></trkpt><trkpt lat="44.4291217" lon="9.1837"><ele>155.79999999999998</ele><time>2026-03-28T12:55:13.01Z</time></trkpt><trkpt lat="44.4291183" lon="9.1838383"><ele>157.0</ele><time>2026-03-28T12:55:14.01Z</time></trkpt><trkpt lat="44.4291083" lon="9.183965"><ele>157.0</ele><time>2026-03-28T12:55:15.01Z</time></trkpt><trkpt lat="44.42911" lon="9.1841"><ele>157.0</ele><time>2026-03-28T12:55:16.01Z</time></trkpt><trkpt lat="44.429115" lon="9.1842267"><ele>157.0</ele><time>2026-03-28T12:55:17.01Z</time></trkpt><trkpt lat="44.429115" lon="9.1843667"><ele>157.0</ele><time>2026-03-28T12:55:18.009Z</time></trkpt><trkpt lat="44.4291183" lon="9.1844967"><ele>157.0</ele><time>2026-03-28T12:55:19.01Z</time></trkpt><trkpt lat="44.4291217" lon="9.1846267"><ele>157.0</ele><time>2026-03-28T12:55:20.01Z</time></trkpt><trkpt lat="44.4291267" lon="9.1847383"><ele>157.0</ele><time>2026-03-28T12:55:21.01Z</time></trkpt><trkpt lat="44.4291233" lon="9.1848917"><ele>157.0</ele><time>2026-03-28T12:55:23.01Z</time></trkpt><trkpt lat="44.429105" lon="9.1850283"><ele>157.0</ele><time>2026-03-28T12:55:26.01Z</time></trkpt><trkpt lat="44.4291217" lon="9.18512"><ele>157.0</ele><time>2026-03-28T12:55:27.01Z</time></trkpt><trkpt lat="44.4291383" lon="9.1852317"><ele>157.0</ele><time>2026-03-28T12:55:28.01Z</time></trkpt><trkpt lat="44.4291483" lon="9.1853533"><ele>155.79999999999998</ele><time>2026-03-28T12:55:29.01Z</time></trkpt><trkpt lat="44.4291567" lon="9.1854867"><ele>154.6</ele><time>2026-03-28T12:55:30.009Z</time></trkpt><trkpt lat="44.4291783" lon="9.185635"><ele>153.39999999999998</ele><time>2026-03-28T12:55:31.01Z</time></trkpt><trkpt lat="44.4291983" lon="9.1857967"><ele>152.2</ele><time>2026-03-28T12:55:32.01Z</time></trkpt><trkpt lat="44.42921" lon="9.1859633"><ele>151.0</ele><time>2026-03-28T12:55:33.01Z</time></trkpt><trkpt lat="44.4292367" lon="9.1861233"><ele>150.25</ele><time>2026-03-28T12:55:34.01Z</time></trkpt><trkpt lat="44.42927" lon="9.1862933"><ele>149.5</ele><time>2026-03-28T12:55:35.01Z</time></trkpt><trkpt lat="44.4292983" lon="9.1864717"><ele>148.75</ele><time>2026-03-28T12:55:36.01Z</time></trkpt><trkpt lat="44.42932" lon="9.1866517"><ele>148.0</ele><time>2026-03-28T12:55:37.01Z</time></trkpt><trkpt lat="44.429335" lon="9.1868233"><ele>147.5</ele><time>2026-03-28T12:55:38.009Z</time></trkpt><trkpt lat="44.4293417" lon="9.1869967"><ele>147.0</ele><time>2026-03-28T12:55:39.01Z</time></trkpt><trkpt lat="44.4293533" lon="9.18716"><ele>146.5</ele><time>2026-03-28T12:55:40.009Z</time></trkpt><trkpt lat="44.4293783" lon="9.18732"><ele>146.0</ele><time>2026-03-28T12:55:41.01Z</time></trkpt><trkpt lat="44.4293867" lon="9.187485"><ele>145.0</ele><time>2026-03-28T12:55:42.009Z</time></trkpt><trkpt lat="44.4294083" lon="9.1876667"><ele>144.0</ele><time>2026-03-28T12:55:43.01Z</time></trkpt><trkpt lat="44.429425" lon="9.1878483"><ele>143.0</ele><time>2026-03-28T12:55:44.01Z</time></trkpt><trkpt lat="44.4294333" lon="9.18802"><ele>142.0</ele><time>2026-03-28T12:55:45.009Z</time></trkpt><trkpt lat="44.4294433" lon="9.1881933"><ele>142.0</ele><time>2026-03-28T12:55:46.01Z</time></trkpt><trkpt lat="44.4294483" lon="9.1883483"><ele>142.0</ele><time>2026-03-28T12:55:47.01Z</time></trkpt><trkpt lat="44.42945" lon="9.1884967"><ele>142.0</ele><time>2026-03-28T12:55:48.01Z</time></trkpt><trkpt lat="44.42944" lon="9.1886583"><ele>142.0</ele><time>2026-03-28T12:55:49.01Z</time></trkpt><trkpt lat="44.4294333" lon="9.18882"><ele>142.0</ele><time>2026-03-28T12:55:50.01Z</time></trkpt><trkpt lat="44.4294267" lon="9.1889817"><ele>142.5</ele><time>2026-03-28T12:55:51.01Z</time></trkpt><trkpt lat="44.4294167" lon="9.189145"><ele>143.0</ele><time>2026-03-28T12:55:52.009Z</time></trkpt><trkpt lat="44.4293967" lon="9.1893"><ele>143.5</ele><time>2026-03-28T12:55:53.01Z</time></trkpt><trkpt lat="44.42938" lon="9.18946"><ele>144.0</ele><time>2026-03-28T12:55:54.01Z</time></trkpt><trkpt lat="44.4293367" lon="9.1896217"><ele>144.0</ele><time>2026-03-28T12:55:55.009Z</time></trkpt><trkpt lat="44.4292667" lon="9.18978"><ele>144.0</ele><time>2026-03-28T12:55:56.01Z</time></trkpt><trkpt lat="44.4291967" lon="9.18994"><ele>144.0</ele><time>2026-03-28T12:55:57.01Z</time></trkpt><trkpt lat="44.429115" lon="9.19009"><ele>144.0</ele><time>2026-03-28T12:55:58.01Z</time></trkpt><trkpt lat="44.4290283" lon="9.1902417"><ele>143.75</ele><time>2026-03-28T12:55:59.01Z</time></trkpt><trkpt lat="44.428965" lon="9.190395"><ele>143.5</ele><time>2026-03-28T12:56:00.01Z</time></trkpt><trkpt lat="44.4289067" lon="9.1905317"><ele>143.25</ele><time>2026-03-28T12:56:01.01Z</time></trkpt><trkpt lat="44.4288317" lon="9.19065"><ele>143.0</ele><time>2026-03-28T12:56:02.01Z</time></trkpt><trkpt lat="44.4287383" lon="9.1907567"><ele>143.0</ele><time>2026-03-28T12:56:03.01Z</time></trkpt><trkpt lat="44.4286317" lon="9.1908517"><ele>143.0</ele><time>2026-03-28T12:56:04.009Z</time></trkpt><trkpt lat="44.4285117" lon="9.1909283"><ele>143.0</ele><time>2026-03-28T12:56:05.01Z</time></trkpt><trkpt lat="44.4284067" lon="9.19103"><ele>143.0</ele><time>2026-03-28T12:56:06.01Z</time></trkpt><trkpt lat="44.4282933" lon="9.1911183"><ele>143.0</ele><time>2026-03-28T12:56:07.01Z</time></trkpt><trkpt lat="44.4281817" lon="9.191155"><ele>143.0</ele><time>2026-03-28T12:56:08.01Z</time></trkpt><trkpt lat="44.42805" lon="9.191185"><ele>143.0</ele><time>2026-03-28T12:56:09.01Z</time></trkpt><trkpt lat="44.427915" lon="9.1911983"><ele>143.0</ele><time>2026-03-28T12:56:10.009Z</time></trkpt><trkpt lat="44.4277883" lon="9.1911767"><ele>144.5</ele><time>2026-03-28T12:56:11.01Z</time></trkpt><trkpt lat="44.427665" lon="9.191115"><ele>146.0</ele><time>2026-03-28T12:56:12.01Z</time></trkpt><trkpt lat="44.4275383" lon="9.191005"><ele>147.5</ele><time>2026-03-28T12:56:13.009Z</time></trkpt><trkpt lat="44.42742" lon="9.190865"><ele>149.0</ele><time>2026-03-28T12:56:14.01Z</time></trkpt><trkpt lat="44.427275" lon="9.190755"><ele>150.0</ele><time>2026-03-28T12:56:15.01Z</time></trkpt><trkpt lat="44.4271333" lon="9.190675"><ele>151.0</ele><time>2026-03-28T12:56:16.01Z</time></trkpt><trkpt lat="44.426995" lon="9.1906283"><ele>152.0</ele><time>2026-03-28T12:56:17.009Z</time></trkpt><trkpt lat="44.4268383" lon="9.1905933"><ele>149.25</ele><time>2026-03-28T12:56:18.01Z</time></trkpt><trkpt lat="44.4266867" lon="9.190585"><ele>146.5</ele><time>2026-03-28T12:56:19.009Z</time></trkpt><trkpt lat="44.4265533" lon="9.1905917"><ele>143.75</ele><time>2026-03-28T12:56:20.01Z</time></trkpt><trkpt lat="44.4263967" lon="9.190575"><ele>141.0</ele><time>2026-03-28T12:56:21.01Z</time></trkpt><trkpt lat="44.4262467" lon="9.1905617"><ele>140.75</ele><time>2026-03-28T12:56:22.01Z</time></trkpt><trkpt lat="44.426095" lon="9.1905733"><ele>140.5</ele><time>2026-03-28T12:56:23.01Z</time></trkpt><trkpt lat="44.4259433" lon="9.19058"><ele>140.25</ele><time>2026-03-28T12:56:24.01Z</time></trkpt><trkpt lat="44.4258" lon="9.1906167"><ele>140.0</ele><time>2026-03-28T12:56:25.009Z</time></trkpt><trkpt lat="44.4256517" lon="9.1906367"><ele>140.0</ele><time>2026-03-28T12:56:26.01Z</time></trkpt><trkpt lat="44.4255033" lon="9.1906633"><ele>140.0</ele><time>2026-03-28T12:56:27.01Z</time></trkpt><trkpt lat="44.4253683" lon="9.1906767"><ele>140.0</ele><time>2026-03-28T12:56:28.01Z</time></trkpt><trkpt lat="44.4252383" lon="9.1907017"><ele>140.0</ele><time>2026-03-28T12:56:29.009Z</time></trkpt><trkpt lat="44.425115" lon="9.1907467"><ele>140.5</ele><time>2026-03-28T12:56:30.01Z</time></trkpt><trkpt lat="44.4250067" lon="9.1908433"><ele>141.0</ele><time>2026-03-28T12:56:31.01Z</time></trkpt><trkpt lat="44.4249117" lon="9.1909583"><ele>141.5</ele><time>2026-03-28T12:56:32.01Z</time></trkpt><trkpt lat="44.424835" lon="9.1911083"><ele>142.0</ele><time>2026-03-28T12:56:33.01Z</time></trkpt><trkpt lat="44.424785" lon="9.1913017"><ele>142.0</ele><time>2026-03-28T12:56:34.01Z</time></trkpt><trkpt lat="44.4247583" lon="9.1915017"><ele>142.0</ele><time>2026-03-28T12:56:35.01Z</time></trkpt><trkpt lat="44.4247467" lon="9.1917083"><ele>142.0</ele><time>2026-03-28T12:56:36.01Z</time></trkpt><trkpt lat="44.42475" lon="9.1919167"><ele>142.0</ele><time>2026-03-28T12:56:37.01Z</time></trkpt><trkpt lat="44.424785" lon="9.1921283"><ele>144.33333333333334</ele><time>2026-03-28T12:56:38.01Z</time></trkpt><trkpt lat="44.424795" lon="9.192345"><ele>146.66666666666666</ele><time>2026-03-28T12:56:39.01Z</time></trkpt><trkpt lat="44.424795" lon="9.1925667"><ele>149.0</ele><time>2026-03-28T12:56:40.01Z</time></trkpt><trkpt lat="44.4248067" lon="9.192785"><ele>149.0</ele><time>2026-03-28T12:56:41.01Z</time></trkpt><trkpt lat="44.4248233" lon="9.1930117"><ele>149.0</ele><time>2026-03-28T12:56:42.01Z</time></trkpt><trkpt lat="44.42484" lon="9.19323"><ele>149.0</ele><time>2026-03-28T12:56:43.01Z</time></trkpt><trkpt lat="44.4248567" lon="9.193435"><ele>148.25</ele><time>2026-03-28T12:56:44.01Z</time></trkpt><trkpt lat="44.4248917" lon="9.1936233"><ele>147.5</ele><time>2026-03-28T12:56:45.01Z</time></trkpt><trkpt lat="44.4249283" lon="9.1938017"><ele>146.75</ele><time>2026-03-28T12:56:46.01Z</time></trkpt><trkpt lat="44.4249867" lon="9.1939717"><ele>146.0</ele><time>2026-03-28T12:56:47.01Z</time></trkpt><trkpt lat="44.4250433" lon="9.1941467"><ele>144.5</ele><time>2026-03-28T12:56:48.01Z</time></trkpt><trkpt lat="44.4251033" lon="9.194335"><ele>143.0</ele><time>2026-03-28T12:56:49.01Z</time></trkpt><trkpt lat="44.425165" lon="9.194525"><ele>141.5</ele><time>2026-03-28T12:56:50.009Z</time></trkpt><trkpt lat="44.425225" lon="9.19472"><ele>140.0</ele><time>2026-03-28T12:56:51.009Z</time></trkpt><trkpt lat="44.4252783" lon="9.1949217"><ele>138.33333333333331</ele><time>2026-03-28T12:56:52.009Z</time></trkpt><trkpt lat="44.4253367" lon="9.19513"><ele>136.66666666666666</ele><time>2026-03-28T12:56:53.01Z</time></trkpt><trkpt lat="44.4253783" lon="9.1953367"><ele>135.0</ele><time>2026-03-28T12:56:54.01Z</time></trkpt><trkpt lat="44.4254233" lon="9.1955483"><ele>134.0</ele><time>2026-03-28T12:56:55.01Z</time></trkpt><trkpt lat="44.4254217" lon="9.1957567"><ele>133.0</ele><time>2026-03-28T12:56:56.01Z</time></trkpt><trkpt lat="44.425405" lon="9.1959717"><ele>132.0</ele><time>2026-03-28T12:56:57.009Z</time></trkpt><trkpt lat="44.425375" lon="9.1961933"><ele>132.0</ele><time>2026-03-28T12:56:58.01Z</time></trkpt><trkpt lat="44.425355" lon="9.196415"><ele>132.0</ele><time>2026-03-28T12:56:59.01Z</time></trkpt><trkpt lat="44.4253417" lon="9.1966317"><ele>132.0</ele><time>2026-03-28T12:57:00.01Z</time></trkpt><trkpt lat="44.4253217" lon="9.1968483"><ele>132.33333333333334</ele><time>2026-03-28T12:57:01.01Z</time></trkpt><trkpt lat="44.4252883" lon="9.1970717"><ele>132.66666666666669</ele><time>2026-03-28T12:57:02.01Z</time></trkpt><trkpt lat="44.4252267" lon="9.1972683"><ele>133.0</ele><time>2026-03-28T12:57:03.01Z</time></trkpt><trkpt lat="44.4251417" lon="9.1974167"><ele>138.0</ele><time>2026-03-28T12:57:04.009Z</time></trkpt><trkpt lat="44.425025" lon="9.197545"><ele>143.0</ele><time>2026-03-28T12:57:05.01Z</time></trkpt><trkpt lat="44.4249183" lon="9.197705"><ele>148.0</ele><time>2026-03-28T12:57:06.01Z</time></trkpt><trkpt lat="44.42479" lon="9.197845"><ele>148.0</ele><time>2026-03-28T12:57:07.01Z</time></trkpt><trkpt lat="44.4246617" lon="9.1979367"><ele>148.0</ele><time>2026-03-28T12:57:08.01Z</time></trkpt><trkpt lat="44.424515" lon="9.1979917"><ele>148.0</ele><time>2026-03-28T12:57:09.01Z</time></trkpt><trkpt lat="44.424365" lon="9.1980667"><ele>144.66666666666669</ele><time>2026-03-28T12:57:10.01Z</time></trkpt><trkpt lat="44.4242083" lon="9.1981283"><ele>141.33333333333334</ele><time>2026-03-28T12:57:11.009Z</time></trkpt><trkpt lat="44.4240583" lon="9.1981917"><ele>138.0</ele><time>2026-03-28T12:57:12.009Z</time></trkpt><trkpt lat="44.4239267" lon="9.1982367"><ele>136.0</ele><time>2026-03-28T12:57:13.01Z</time></trkpt><trkpt lat="44.4238067" lon="9.1982617"><ele>134.0</ele><time>2026-03-28T12:57:14.009Z</time></trkpt><trkpt lat="44.4237067" lon="9.19831"><ele>132.0</ele><time>2026-03-28T12:57:15.009Z</time></trkpt><trkpt lat="44.4236333" lon="9.198405"><ele>130.0</ele><time>2026-03-28T12:57:16.01Z</time></trkpt><trkpt lat="44.4235767" lon="9.1985467"><ele>128.0</ele><time>2026-03-28T12:57:17.01Z</time></trkpt><trkpt lat="44.4235283" lon="9.1987117"><ele>128.0</ele><time>2026-03-28T12:57:18.01Z</time></trkpt><trkpt lat="44.4234833" lon="9.1988833"><ele>128.0</ele><time>2026-03-28T12:57:19.009Z</time></trkpt><trkpt lat="44.4234383" lon="9.1990767"><ele>128.0</ele><time>2026-03-28T12:57:20.009Z</time></trkpt><trkpt lat="44.42339" lon="9.199265"><ele>128.0</ele><time>2026-03-28T12:57:21.01Z</time></trkpt><trkpt lat="44.423355" lon="9.199445"><ele>128.75</ele><time>2026-03-28T12:57:22.01Z</time></trkpt><trkpt lat="44.4233133" lon="9.1996183"><ele>129.5</ele><time>2026-03-28T12:57:23.009Z</time></trkpt><trkpt lat="44.4233067" lon="9.1997967"><ele>130.25</ele><time>2026-03-28T12:57:24.01Z</time></trkpt><trkpt lat="44.423325" lon="9.1999683"><ele>131.0</ele><time>2026-03-28T12:57:25.01Z</time></trkpt><trkpt lat="44.4233583" lon="9.200155"><ele>131.0</ele><time>2026-03-28T12:57:26.01Z</time></trkpt><trkpt lat="44.4234117" lon="9.2003417"><ele>131.0</ele><time>2026-03-28T12:57:27.01Z</time></trkpt><trkpt lat="44.4234733" lon="9.200535"><ele>131.0</ele><time>2026-03-28T12:57:28.01Z</time></trkpt><trkpt lat="44.42354" lon="9.2007217"><ele>131.0</ele><time>2026-03-28T12:57:29.009Z</time></trkpt><trkpt lat="44.4236017" lon="9.2009183"><ele>130.33333333333331</ele><time>2026-03-28T12:57:30.009Z</time></trkpt><trkpt lat="44.423665" lon="9.2011117"><ele>129.66666666666666</ele><time>2026-03-28T12:57:31.01Z</time></trkpt><trkpt lat="44.4237317" lon="9.2013067"><ele>129.0</ele><time>2026-03-28T12:57:32.01Z</time></trkpt><trkpt lat="44.4237967" lon="9.2015"><ele>131.33333333333334</ele><time>2026-03-28T12:57:33.009Z</time></trkpt><trkpt lat="44.42386" lon="9.2016967"><ele>133.66666666666669</ele><time>2026-03-28T12:57:34.01Z</time></trkpt><trkpt lat="44.42392" lon="9.2018867"><ele>136.0</ele><time>2026-03-28T12:57:35.01Z</time></trkpt><trkpt lat="44.423985" lon="9.2020733"><ele>136.0</ele><time>2026-03-28T12:57:36.01Z</time></trkpt><trkpt lat="44.4240367" lon="9.2022483"><ele>136.0</ele><time>2026-03-28T12:57:37.01Z</time></trkpt><trkpt lat="44.4240933" lon="9.202425"><ele>136.0</ele><time>2026-03-28T12:57:38.009Z</time></trkpt><trkpt lat="44.42415" lon="9.2026033"><ele>136.0</ele><time>2026-03-28T12:57:39.009Z</time></trkpt><trkpt lat="44.4242017" lon="9.202785"><ele>134.0</ele><time>2026-03-28T12:57:40.01Z</time></trkpt><trkpt lat="44.4242517" lon="9.20296"><ele>132.0</ele><time>2026-03-28T12:57:41.01Z</time></trkpt><trkpt lat="44.4242867" lon="9.2031433"><ele>130.0</ele><time>2026-03-28T12:57:42.01Z</time></trkpt><trkpt lat="44.4243" lon="9.2033367"><ele>128.0</ele><time>2026-03-28T12:57:43.01Z</time></trkpt><trkpt lat="44.424285" lon="9.20354"><ele>127.25</ele><time>2026-03-28T12:57:44.01Z</time></trkpt><trkpt lat="44.4242617" lon="9.2037467"><ele>126.5</ele><time>2026-03-28T12:57:45.01Z</time></trkpt><trkpt lat="44.4242383" lon="9.2039467"><ele>125.75</ele><time>2026-03-28T12:57:46.01Z</time></trkpt><trkpt lat="44.42424" lon="9.204135"><ele>125.0</ele><time>2026-03-28T12:57:47.01Z</time></trkpt><trkpt lat="44.4242533" lon="9.2043217"><ele>125.0</ele><time>2026-03-28T12:57:48.01Z</time></trkpt><trkpt lat="44.4242783" lon="9.204495"><ele>125.0</ele><time>2026-03-28T12:57:49.009Z</time></trkpt><trkpt lat="44.4242867" lon="9.20466"><ele>125.0</ele><time>2026-03-28T12:57:50.01Z</time></trkpt><trkpt lat="44.4242583" lon="9.2048233"><ele>125.0</ele><time>2026-03-28T12:57:51.01Z</time></trkpt><trkpt lat="44.4242067" lon="9.20497"><ele>125.75</ele><time>2026-03-28T12:57:52.01Z</time></trkpt><trkpt lat="44.4241217" lon="9.2051017"><ele>126.5</ele><time>2026-03-28T12:57:53.01Z</time></trkpt><trkpt lat="44.42402" lon="9.2052117"><ele>127.25</ele><time>2026-03-28T12:57:54.01Z</time></trkpt><trkpt lat="44.4238983" lon="9.2052983"><ele>128.0</ele><time>2026-03-28T12:57:55.01Z</time></trkpt><trkpt lat="44.4237717" lon="9.2053633"><ele>128.0</ele><time>2026-03-28T12:57:56.01Z</time></trkpt><trkpt lat="44.4236283" lon="9.2054283"><ele>128.0</ele><time>2026-03-28T12:57:57.01Z</time></trkpt><trkpt lat="44.423495" lon="9.2055067"><ele>128.0</ele><time>2026-03-28T12:57:58.01Z</time></trkpt><trkpt lat="44.4233533" lon="9.2055833"><ele>128.0</ele><time>2026-03-28T12:57:59.009Z</time></trkpt><trkpt lat="44.4232117" lon="9.2056633"><ele>127.75</ele><time>2026-03-28T12:58:00.01Z</time></trkpt><trkpt lat="44.4230767" lon="9.2057383"><ele>127.5</ele><time>2026-03-28T12:58:01.009Z</time></trkpt><trkpt lat="44.422935" lon="9.205805"><ele>127.25</ele><time>2026-03-28T12:58:02.009Z</time></trkpt><trkpt lat="44.422795" lon="9.2058717"><ele>127.0</ele><time>2026-03-28T12:58:03.01Z</time></trkpt><trkpt lat="44.4226567" lon="9.2059267"><ele>127.0</ele><time>2026-03-28T12:58:04.01Z</time></trkpt><trkpt lat="44.42252" lon="9.2059733"><ele>127.0</ele><time>2026-03-28T12:58:05.01Z</time></trkpt><trkpt lat="44.4223867" lon="9.2060267"><ele>127.0</ele><time>2026-03-28T12:58:06.01Z</time></trkpt><trkpt lat="44.42226" lon="9.2060933"><ele>127.0</ele><time>2026-03-28T12:58:07.01Z</time></trkpt><trkpt lat="44.4221317" lon="9.2061633"><ele>126.75</ele><time>2026-03-28T12:58:08.01Z</time></trkpt><trkpt lat="44.4220083" lon="9.2062633"><ele>126.5</ele><time>2026-03-28T12:58:09.01Z</time></trkpt><trkpt lat="44.4218917" lon="9.2063767"><ele>126.25</ele><time>2026-03-28T12:58:10.009Z</time></trkpt><trkpt lat="44.4217867" lon="9.206505"><ele>126.0</ele><time>2026-03-28T12:58:11.01Z</time></trkpt><trkpt lat="44.4216783" lon="9.206645"><ele>126.0</ele><time>2026-03-28T12:58:12.01Z</time></trkpt><trkpt lat="44.4215633" lon="9.2067733"><ele>126.0</ele><time>2026-03-28T12:58:13.009Z</time></trkpt><trkpt lat="44.4214567" lon="9.20691"><ele>126.0</ele><time>2026-03-28T12:58:14.01Z</time></trkpt><trkpt lat="44.4213517" lon="9.207035"><ele>126.0</ele><time>2026-03-28T12:58:15.009Z</time></trkpt><trkpt lat="44.4212483" lon="9.2071617"><ele>125.5</ele><time>2026-03-28T12:58:16.01Z</time></trkpt><trkpt lat="44.42114" lon="9.20728"><ele>125.0</ele><time>2026-03-28T12:58:17.01Z</time></trkpt><trkpt lat="44.4210317" lon="9.2073883"><ele>124.5</ele><time>2026-03-28T12:58:18.01Z</time></trkpt><trkpt lat="44.4209317" lon="9.2075167"><ele>124.0</ele><time>2026-03-28T12:58:19.01Z</time></trkpt><trkpt lat="44.4208417" lon="9.2076383"><ele>124.0</ele><time>2026-03-28T12:58:20.01Z</time></trkpt><trkpt lat="44.4207517" lon="9.2077533"><ele>124.0</ele><time>2026-03-28T12:58:21.01Z</time></trkpt><trkpt lat="44.4206567" lon="9.2078833"><ele>124.0</ele><time>2026-03-28T12:58:22.01Z</time></trkpt><trkpt lat="44.4205667" lon="9.208025"><ele>124.0</ele><time>2026-03-28T12:58:23.01Z</time></trkpt><trkpt lat="44.42048" lon="9.20818"><ele>123.75</ele><time>2026-03-28T12:58:24.01Z</time></trkpt><trkpt lat="44.420405" lon="9.20833"><ele>123.5</ele><time>2026-03-28T12:58:25.009Z</time></trkpt><trkpt lat="44.4203383" lon="9.2084817"><ele>123.25</ele><time>2026-03-28T12:58:26.01Z</time></trkpt><trkpt lat="44.4202633" lon="9.20864"><ele>123.0</ele><time>2026-03-28T12:58:27.01Z</time></trkpt><trkpt lat="44.420185" lon="9.2088067"><ele>123.0</ele><time>2026-03-28T12:58:28.01Z</time></trkpt><trkpt lat="44.4201017" lon="9.2089783"><ele>123.0</ele><time>2026-03-28T12:58:29.01Z</time></trkpt><trkpt lat="44.4200317" lon="9.2091417"><ele>123.0</ele><time>2026-03-28T12:58:30.01Z</time></trkpt><trkpt lat="44.4199567" lon="9.2093217"><ele>123.0</ele><time>2026-03-28T12:58:31.01Z</time></trkpt><trkpt lat="44.4198767" lon="9.2094883"><ele>122.75</ele><time>2026-03-28T12:58:32.009Z</time></trkpt><trkpt lat="44.419805" lon="9.2096567"><ele>122.5</ele><time>2026-03-28T12:58:33.01Z</time></trkpt><trkpt lat="44.4197317" lon="9.209825"><ele>122.25</ele><time>2026-03-28T12:58:34.009Z</time></trkpt><trkpt lat="44.41965" lon="9.21"><ele>122.0</ele><time>2026-03-28T12:58:35.01Z</time></trkpt><trkpt lat="44.4195717" lon="9.2101717"><ele>122.0</ele><time>2026-03-28T12:58:36.01Z</time></trkpt><trkpt lat="44.4194867" lon="9.210345"><ele>122.0</ele><time>2026-03-28T12:58:37.01Z</time></trkpt><trkpt lat="44.4194017" lon="9.2105283"><ele>122.0</ele><time>2026-03-28T12:58:38.01Z</time></trkpt><trkpt lat="44.41932" lon="9.2107"><ele>122.8</ele><time>2026-03-28T12:58:39.009Z</time></trkpt><trkpt lat="44.4192467" lon="9.2108617"><ele>123.6</ele><time>2026-03-28T12:58:40.01Z</time></trkpt><trkpt lat="44.4191667" lon="9.2110033"><ele>124.39999999999999</ele><time>2026-03-28T12:58:41.009Z</time></trkpt><trkpt lat="44.41911" lon="9.2111083"><ele>125.19999999999999</ele><time>2026-03-28T12:58:42.01Z</time></trkpt><trkpt lat="44.4190733" lon="9.2111817"><ele>126.0</ele><time>2026-03-28T12:58:43.01Z</time></trkpt><trkpt lat="44.4190417" lon="9.21127"><ele>126.0</ele><time>2026-03-28T12:58:45.01Z</time></trkpt><trkpt lat="44.41899" lon="9.211385"><ele>126.0</ele><time>2026-03-28T12:59:12.01Z</time></trkpt><trkpt lat="44.4189483" lon="9.211485"><ele>126.0</ele><time>2026-03-28T12:59:13.01Z</time></trkpt><trkpt lat="44.4188917" lon="9.211605"><ele>126.0</ele><time>2026-03-28T12:59:14.01Z</time></trkpt><trkpt lat="44.418825" lon="9.2117283"><ele>126.0</ele><time>2026-03-28T12:59:15.01Z</time></trkpt><trkpt lat="44.4187633" lon="9.2118633"><ele>125.0</ele><time>2026-03-28T12:59:16.01Z</time></trkpt><trkpt lat="44.418695" lon="9.2120083"><ele>124.0</ele><time>2026-03-28T12:59:17.01Z</time></trkpt><trkpt lat="44.4186217" lon="9.21215"><ele>123.0</ele><time>2026-03-28T12:59:18.009Z</time></trkpt><trkpt lat="44.4185517" lon="9.2123033"><ele>122.0</ele><time>2026-03-28T12:59:19.01Z</time></trkpt><trkpt lat="44.4184883" lon="9.2124667"><ele>122.0</ele><time>2026-03-28T12:59:20.01Z</time></trkpt><trkpt lat="44.4184117" lon="9.21263"><ele>122.0</ele><time>2026-03-28T12:59:21.01Z</time></trkpt><trkpt lat="44.4183333" lon="9.2128"><ele>122.0</ele><time>2026-03-28T12:59:22.01Z</time></trkpt><trkpt lat="44.418255" lon="9.2129617"><ele>122.0</ele><time>2026-03-28T12:59:23.01Z</time></trkpt><trkpt lat="44.418185" lon="9.2131333"><ele>122.33333333333333</ele><time>2026-03-28T12:59:24.01Z</time></trkpt><trkpt lat="44.4181083" lon="9.2133233"><ele>122.66666666666666</ele><time>2026-03-28T12:59:25.01Z</time></trkpt><trkpt lat="44.4180317" lon="9.2135217"><ele>123.0</ele><time>2026-03-28T12:59:26.01Z</time></trkpt><trkpt lat="44.4179617" lon="9.213725"><ele>121.33333333333334</ele><time>2026-03-28T12:59:27.01Z</time></trkpt><trkpt lat="44.4179083" lon="9.213945"><ele>119.66666666666667</ele><time>2026-03-28T12:59:28.01Z</time></trkpt><trkpt lat="44.4178617" lon="9.2141617"><ele>118.0</ele><time>2026-03-28T12:59:29.01Z</time></trkpt><trkpt lat="44.41782" lon="9.2143917"><ele>118.0</ele><time>2026-03-28T12:59:30.01Z</time></trkpt><trkpt lat="44.4177733" lon="9.2146283"><ele>118.0</ele><time>2026-03-28T12:59:31.01Z</time></trkpt><trkpt lat="44.417735" lon="9.21487"><ele>118.0</ele><time>2026-03-28T12:59:32.01Z</time></trkpt><trkpt lat="44.41769" lon="9.2150933"><ele>118.0</ele><time>2026-03-28T12:59:33.01Z</time></trkpt><trkpt lat="44.4176533" lon="9.2153117"><ele>118.0</ele><time>2026-03-28T12:59:34.01Z</time></trkpt><trkpt lat="44.41761" lon="9.2155133"><ele>118.0</ele><time>2026-03-28T12:59:35.009Z</time></trkpt><trkpt lat="44.4175717" lon="9.2157067"><ele>118.0</ele><time>2026-03-28T12:59:36.009Z</time></trkpt><trkpt lat="44.41754" lon="9.2158933"><ele>118.0</ele><time>2026-03-28T12:59:37.009Z</time></trkpt><trkpt lat="44.41753" lon="9.2160617"><ele>118.0</ele><time>2026-03-28T12:59:38.01Z</time></trkpt><trkpt lat="44.417545" lon="9.2162267"><ele>118.0</ele><time>2026-03-28T12:59:39.009Z</time></trkpt><trkpt lat="44.417595" lon="9.2164"><ele>120.75</ele><time>2026-03-28T12:59:40.01Z</time></trkpt><trkpt lat="44.4176533" lon="9.216575"><ele>123.5</ele><time>2026-03-28T12:59:41.01Z</time></trkpt><trkpt lat="44.4177033" lon="9.21675"><ele>126.25</ele><time>2026-03-28T12:59:42.01Z</time></trkpt><trkpt lat="44.417745" lon="9.2169317"><ele>129.0</ele><time>2026-03-28T12:59:43.009Z</time></trkpt><trkpt lat="44.41778" lon="9.2171433"><ele>127.0</ele><time>2026-03-28T12:59:44.009Z</time></trkpt><trkpt lat="44.4177983" lon="9.2173567"><ele>125.0</ele><time>2026-03-28T12:59:45.01Z</time></trkpt><trkpt lat="44.4177833" lon="9.2175567"><ele>123.0</ele><time>2026-03-28T12:59:46.01Z</time></trkpt><trkpt lat="44.4177383" lon="9.2177417"><ele>121.0</ele><time>2026-03-28T12:59:47.01Z</time></trkpt><trkpt lat="44.4176517" lon="9.2178933"><ele>121.0</ele><time>2026-03-28T12:59:48.009Z</time></trkpt><trkpt lat="44.4175533" lon="9.2180167"><ele>121.0</ele><time>2026-03-28T12:59:49.01Z</time></trkpt><trkpt lat="44.4174233" lon="9.2181083"><ele>121.0</ele><time>2026-03-28T12:59:50.01Z</time></trkpt><trkpt lat="44.4172783" lon="9.2181617"><ele>121.0</ele><time>2026-03-28T12:59:51.01Z</time></trkpt><trkpt lat="44.4171633" lon="9.2181967"><ele>117.5</ele><time>2026-03-28T12:59:52.01Z</time></trkpt><trkpt lat="44.4170533" lon="9.2182283"><ele>114.0</ele><time>2026-03-28T12:59:53.009Z</time></trkpt><trkpt lat="44.416945" lon="9.21826"><ele>110.5</ele><time>2026-03-28T12:59:54.01Z</time></trkpt><trkpt lat="44.4168217" lon="9.2183067"><ele>107.0</ele><time>2026-03-28T12:59:55.01Z</time></trkpt><trkpt lat="44.4166967" lon="9.2183417"><ele>107.0</ele><time>2026-03-28T12:59:56.01Z</time></trkpt><trkpt lat="44.4165517" lon="9.2184"><ele>107.0</ele><time>2026-03-28T12:59:57.009Z</time></trkpt><trkpt lat="44.4163967" lon="9.218455"><ele>107.0</ele><time>2026-03-28T12:59:58.01Z</time></trkpt><trkpt lat="44.41624" lon="9.2185117"><ele>104.33333333333333</ele><time>2026-03-28T12:59:59.01Z</time></trkpt><trkpt lat="44.4160733" lon="9.2185817"><ele>101.66666666666666</ele><time>2026-03-28T13:00:00.009Z</time></trkpt><trkpt lat="44.4159233" lon="9.2186317"><ele>99.0</ele><time>2026-03-28T13:00:01.01Z</time></trkpt><trkpt lat="44.4157683" lon="9.2186833"><ele>99.0</ele><time>2026-03-28T13:00:02.01Z</time></trkpt><trkpt lat="44.4156283" lon="9.21872"><ele>99.0</ele><time>2026-03-28T13:00:03.01Z</time></trkpt><trkpt lat="44.4154967" lon="9.2187117"><ele>99.0</ele><time>2026-03-28T13:00:04.01Z</time></trkpt><trkpt lat="44.415365" lon="9.2186683"><ele>99.0</ele><time>2026-03-28T13:00:05.01Z</time></trkpt><trkpt lat="44.41524" lon="9.2185867"><ele>102.25</ele><time>2026-03-28T13:00:06.009Z</time></trkpt><trkpt lat="44.41512" lon="9.2184833"><ele>105.5</ele><time>2026-03-28T13:00:07.01Z</time></trkpt><trkpt lat="44.4150033" lon="9.2183883"><ele>108.75</ele><time>2026-03-28T13:00:08.01Z</time></trkpt><trkpt lat="44.4148767" lon="9.21831"><ele>112.0</ele><time>2026-03-28T13:00:09.01Z</time></trkpt><trkpt lat="44.41474" lon="9.2182517"><ele>112.5</ele><time>2026-03-28T13:00:10.01Z</time></trkpt><trkpt lat="44.4146067" lon="9.2182133"><ele>113.0</ele><time>2026-03-28T13:00:11.01Z</time></trkpt><trkpt lat="44.41448" lon="9.218195"><ele>113.5</ele><time>2026-03-28T13:00:12.01Z</time></trkpt><trkpt lat="44.4143483" lon="9.21819"><ele>114.0</ele><time>2026-03-28T13:00:13.01Z</time></trkpt><trkpt lat="44.4142117" lon="9.2182083"><ele>114.0</ele><time>2026-03-28T13:00:14.01Z</time></trkpt><trkpt lat="44.41407" lon="9.21823"><ele>114.0</ele><time>2026-03-28T13:00:15.01Z</time></trkpt><trkpt lat="44.4139283" lon="9.2182733"><ele>114.0</ele><time>2026-03-28T13:00:16.01Z</time></trkpt><trkpt lat="44.4137933" lon="9.2183117"><ele>114.0</ele><time>2026-03-28T13:00:17.01Z</time></trkpt><trkpt lat="44.4136567" lon="9.2183833"><ele>111.66666666666666</ele><time>2026-03-28T13:00:18.01Z</time></trkpt><trkpt lat="44.4135233" lon="9.2184817"><ele>109.33333333333333</ele><time>2026-03-28T13:00:19.01Z</time></trkpt><trkpt lat="44.41339" lon="9.2185867"><ele>107.0</ele><time>2026-03-28T13:00:20.01Z</time></trkpt><trkpt lat="44.4132617" lon="9.2187167"><ele>107.0</ele><time>2026-03-28T13:00:21.009Z</time></trkpt><trkpt lat="44.413135" lon="9.2188433"><ele>107.0</ele><time>2026-03-28T13:00:22.01Z</time></trkpt><trkpt lat="44.4130083" lon="9.218975"><ele>107.0</ele><time>2026-03-28T13:00:23.01Z</time></trkpt><trkpt lat="44.412875" lon="9.2190983"><ele>107.25</ele><time>2026-03-28T13:00:24.01Z</time></trkpt><trkpt lat="44.41274" lon="9.219215"><ele>107.5</ele><time>2026-03-28T13:00:25.01Z</time></trkpt><trkpt lat="44.4126183" lon="9.2193283"><ele>107.75</ele><time>2026-03-28T13:00:26.01Z</time></trkpt><trkpt lat="44.4125117" lon="9.2194483"><ele>108.0</ele><time>2026-03-28T13:00:27.01Z</time></trkpt><trkpt lat="44.4124067" lon="9.2195767"><ele>108.0</ele><time>2026-03-28T13:00:28.01Z</time></trkpt><trkpt lat="44.4123183" lon="9.219725"><ele>108.0</ele><time>2026-03-28T13:00:29.01Z</time></trkpt><trkpt lat="44.4122483" lon="9.2198867"><ele>108.0</ele><time>2026-03-28T13:00:30.01Z</time></trkpt><trkpt lat="44.4121867" lon="9.2200817"><ele>108.0</ele><time>2026-03-28T13:00:31.009Z</time></trkpt><trkpt lat="44.4121333" lon="9.2202967"><ele>106.33333333333334</ele><time>2026-03-28T13:00:32.009Z</time></trkpt><trkpt lat="44.4120833" lon="9.2205133"><ele>104.66666666666667</ele><time>2026-03-28T13:00:33.01Z</time></trkpt><trkpt lat="44.41203" lon="9.22072"><ele>103.0</ele><time>2026-03-28T13:00:34.01Z</time></trkpt><trkpt lat="44.4119733" lon="9.22093"><ele>103.0</ele><time>2026-03-28T13:00:35.01Z</time></trkpt><trkpt lat="44.411925" lon="9.2211483"><ele>103.0</ele><time>2026-03-28T13:00:36.01Z</time></trkpt><trkpt lat="44.411875" lon="9.2213483"><ele>103.0</ele><time>2026-03-28T13:00:37.009Z</time></trkpt><trkpt lat="44.411835" lon="9.22154"><ele>102.75</ele><time>2026-03-28T13:00:38.01Z</time></trkpt><trkpt lat="44.4117983" lon="9.2217383"><ele>102.5</ele><time>2026-03-28T13:00:39.009Z</time></trkpt><trkpt lat="44.41179" lon="9.22193"><ele>102.25</ele><time>2026-03-28T13:00:40.009Z</time></trkpt><trkpt lat="44.4117967" lon="9.2221317"><ele>102.0</ele><time>2026-03-28T13:00:41.01Z</time></trkpt><trkpt lat="44.41182" lon="9.22233"><ele>103.66666666666666</ele><time>2026-03-28T13:00:42.01Z</time></trkpt><trkpt lat="44.4118367" lon="9.2225467"><ele>105.33333333333333</ele><time>2026-03-28T13:00:43.01Z</time></trkpt><trkpt lat="44.411855" lon="9.22276"><ele>107.0</ele><time>2026-03-28T13:00:44.009Z</time></trkpt><trkpt lat="44.41189" lon="9.22297"><ele>105.0</ele><time>2026-03-28T13:00:45.009Z</time></trkpt><trkpt lat="44.411935" lon="9.2231833"><ele>103.0</ele><time>2026-03-28T13:00:46.009Z</time></trkpt><trkpt lat="44.41196" lon="9.2234117"><ele>101.0</ele><time>2026-03-28T13:00:47.01Z</time></trkpt><trkpt lat="44.411985" lon="9.22362"><ele>101.0</ele><time>2026-03-28T13:00:48.01Z</time></trkpt><trkpt lat="44.411985" lon="9.2238317"><ele>101.0</ele><time>2026-03-28T13:00:49.01Z</time></trkpt><trkpt lat="44.41199" lon="9.2240217"><ele>101.0</ele><time>2026-03-28T13:00:50.01Z</time></trkpt><trkpt lat="44.4120033" lon="9.22421"><ele>101.0</ele><time>2026-03-28T13:00:51.009Z</time></trkpt><trkpt lat="44.4120267" lon="9.22441"><ele>101.25</ele><time>2026-03-28T13:00:52.01Z</time></trkpt><trkpt lat="44.4120567" lon="9.2246067"><ele>101.5</ele><time>2026-03-28T13:00:53.009Z</time></trkpt><trkpt lat="44.4121033" lon="9.2247983"><ele>101.75</ele><time>2026-03-28T13:00:54.01Z</time></trkpt><trkpt lat="44.4121483" lon="9.225"><ele>102.0</ele><time>2026-03-28T13:00:55.01Z</time></trkpt><trkpt lat="44.4121967" lon="9.2251967"><ele>101.0</ele><time>2026-03-28T13:00:56.01Z</time></trkpt><trkpt lat="44.4122217" lon="9.2253767"><ele>100.0</ele><time>2026-03-28T13:00:57.009Z</time></trkpt><trkpt lat="44.4122267" lon="9.22555"><ele>99.0</ele><time>2026-03-28T13:00:58.01Z</time></trkpt><trkpt lat="44.4121983" lon="9.2257033"><ele>98.0</ele><time>2026-03-28T13:00:59.009Z</time></trkpt><trkpt lat="44.41215" lon="9.2258583"><ele>98.0</ele><time>2026-03-28T13:01:00.01Z</time></trkpt><trkpt lat="44.4120733" lon="9.225995"><ele>98.0</ele><time>2026-03-28T13:01:01.01Z</time></trkpt><trkpt lat="44.4119783" lon="9.2261033"><ele>98.0</ele><time>2026-03-28T13:01:02.009Z</time></trkpt><trkpt lat="44.41187" lon="9.2261917"><ele>98.0</ele><time>2026-03-28T13:01:03.01Z</time></trkpt><trkpt lat="44.411745" lon="9.2262883"><ele>98.0</ele><time>2026-03-28T13:01:04.01Z</time></trkpt><trkpt lat="44.41164" lon="9.2263767"><ele>98.0</ele><time>2026-03-28T13:01:05.009Z</time></trkpt><trkpt lat="44.4115433" lon="9.22648"><ele>98.0</ele><time>2026-03-28T13:01:06.01Z</time></trkpt><trkpt lat="44.4114517" lon="9.2266283"><ele>98.0</ele><time>2026-03-28T13:01:07.01Z</time></trkpt><trkpt lat="44.4113833" lon="9.2268067"><ele>99.25</ele><time>2026-03-28T13:01:08.01Z</time></trkpt><trkpt lat="44.4113533" lon="9.2270067"><ele>100.5</ele><time>2026-03-28T13:01:09.01Z</time></trkpt><trkpt lat="44.411345" lon="9.2272117"><ele>101.75</ele><time>2026-03-28T13:01:10.01Z</time></trkpt><trkpt lat="44.4113467" lon="9.22743"><ele>103.0</ele><time>2026-03-28T13:01:11.01Z</time></trkpt><trkpt lat="44.411355" lon="9.2276517"><ele>103.66666666666667</ele><time>2026-03-28T13:01:12.01Z</time></trkpt><trkpt lat="44.411355" lon="9.2278767"><ele>104.33333333333334</ele><time>2026-03-28T13:01:13.01Z</time></trkpt><trkpt lat="44.411365" lon="9.2280983"><ele>105.0</ele><time>2026-03-28T13:01:14.01Z</time></trkpt><trkpt lat="44.4113683" lon="9.228335"><ele>105.0</ele><time>2026-03-28T13:01:15.01Z</time></trkpt><trkpt lat="44.41138" lon="9.2285767"><ele>105.0</ele><time>2026-03-28T13:01:16.01Z</time></trkpt><trkpt lat="44.411395" lon="9.2288217"><ele>105.0</ele><time>2026-03-28T13:01:17.01Z</time></trkpt><trkpt lat="44.4114083" lon="9.2290717"><ele>105.0</ele><time>2026-03-28T13:01:18.01Z</time></trkpt><trkpt lat="44.411415" lon="9.2293317"><ele>105.0</ele><time>2026-03-28T13:01:19.01Z</time></trkpt><trkpt lat="44.41142" lon="9.2295833"><ele>105.0</ele><time>2026-03-28T13:01:20.009Z</time></trkpt><trkpt lat="44.4114267" lon="9.229825"><ele>105.0</ele><time>2026-03-28T13:01:21.009Z</time></trkpt><trkpt lat="44.4114217" lon="9.230065"><ele>105.0</ele><time>2026-03-28T13:01:22.01Z</time></trkpt><trkpt lat="44.411415" lon="9.2303"><ele>105.0</ele><time>2026-03-28T13:01:23.01Z</time></trkpt><trkpt lat="44.4114083" lon="9.23052"><ele>104.0</ele><time>2026-03-28T13:01:24.01Z</time></trkpt><trkpt lat="44.4113833" lon="9.2307233"><ele>103.0</ele><time>2026-03-28T13:01:25.01Z</time></trkpt><trkpt lat="44.411355" lon="9.2309383"><ele>102.0</ele><time>2026-03-28T13:01:26.009Z</time></trkpt><trkpt lat="44.41132" lon="9.2311517"><ele>97.0</ele><time>2026-03-28T13:01:27.009Z</time></trkpt><trkpt lat="44.41128" lon="9.2313733"><ele>92.0</ele><time>2026-03-28T13:01:28.01Z</time></trkpt><trkpt lat="44.4112433" lon="9.2316"><ele>87.0</ele><time>2026-03-28T13:01:29.01Z</time></trkpt><trkpt lat="44.4112083" lon="9.2318217"><ele>87.0</ele><time>2026-03-28T13:01:30.009Z</time></trkpt><trkpt lat="44.4111617" lon="9.2320317"><ele>87.0</ele><time>2026-03-28T13:01:31.01Z</time></trkpt><trkpt lat="44.41112" lon="9.2322417"><ele>87.0</ele><time>2026-03-28T13:01:32.01Z</time></trkpt><trkpt lat="44.41109" lon="9.2324667"><ele>86.33333333333333</ele><time>2026-03-28T13:01:33.01Z</time></trkpt><trkpt lat="44.4110617" lon="9.2326917"><ele>85.66666666666666</ele><time>2026-03-28T13:01:34.01Z</time></trkpt><trkpt lat="44.411025" lon="9.2329083"><ele>85.0</ele><time>2026-03-28T13:01:35.01Z</time></trkpt><trkpt lat="44.4109933" lon="9.2331067"><ele>85.5</ele><time>2026-03-28T13:01:36.009Z</time></trkpt><trkpt lat="44.4109383" lon="9.23329"><ele>86.0</ele><time>2026-03-28T13:01:37.01Z</time></trkpt><trkpt lat="44.4109033" lon="9.2334883"><ele>86.5</ele><time>2026-03-28T13:01:38.01Z</time></trkpt><trkpt lat="44.4108717" lon="9.23369"><ele>87.0</ele><time>2026-03-28T13:01:39.009Z</time></trkpt><trkpt lat="44.4108283" lon="9.2339"><ele>88.5</ele><time>2026-03-28T13:01:40.01Z</time></trkpt><trkpt lat="44.4107717" lon="9.23409"><ele>90.0</ele><time>2026-03-28T13:01:41.009Z</time></trkpt><trkpt lat="44.4107067" lon="9.23427"><ele>91.5</ele><time>2026-03-28T13:01:42.009Z</time></trkpt><trkpt lat="44.4106467" lon="9.23445"><ele>93.0</ele><time>2026-03-28T13:01:43.009Z</time></trkpt><trkpt lat="44.4105683" lon="9.2346033"><ele>93.0</ele><time>2026-03-28T13:01:44.01Z</time></trkpt><trkpt lat="44.4105233" lon="9.2347633"><ele>93.0</ele><time>2026-03-28T13:01:45.009Z</time></trkpt><trkpt lat="44.4104817" lon="9.2349183"><ele>93.0</ele><time>2026-03-28T13:01:46.01Z</time></trkpt><trkpt lat="44.4104333" lon="9.2350833"><ele>93.0</ele><time>2026-03-28T13:01:47.01Z</time></trkpt><trkpt lat="44.4103883" lon="9.2352467"><ele>90.75</ele><time>2026-03-28T13:01:48.01Z</time></trkpt><trkpt lat="44.4103517" lon="9.2354367"><ele>88.5</ele><time>2026-03-28T13:01:49.01Z</time></trkpt><trkpt lat="44.4102617" lon="9.2355833"><ele>86.25</ele><time>2026-03-28T13:01:50.01Z</time></trkpt><trkpt lat="44.4101583" lon="9.2357183"><ele>84.0</ele><time>2026-03-28T13:01:51.01Z</time></trkpt><trkpt lat="44.4100817" lon="9.2358533"><ele>84.0</ele><time>2026-03-28T13:01:52.01Z</time></trkpt><trkpt lat="44.41002" lon="9.2359817"><ele>84.0</ele><time>2026-03-28T13:01:53.01Z</time></trkpt><trkpt lat="44.4099483" lon="9.2361017"><ele>84.0</ele><time>2026-03-28T13:01:54.009Z</time></trkpt><trkpt lat="44.4098883" lon="9.2362383"><ele>84.0</ele><time>2026-03-28T13:01:55.01Z</time></trkpt><trkpt lat="44.4098283" lon="9.2363783"><ele>84.0</ele><time>2026-03-28T13:01:56.01Z</time></trkpt><trkpt lat="44.409775" lon="9.2365367"><ele>84.0</ele><time>2026-03-28T13:01:57.01Z</time></trkpt><trkpt lat="44.409725" lon="9.2367133"><ele>84.0</ele><time>2026-03-28T13:01:58.01Z</time></trkpt><trkpt lat="44.4096783" lon="9.23689"><ele>84.0</ele><time>2026-03-28T13:01:59.01Z</time></trkpt><trkpt lat="44.4096367" lon="9.2370733"><ele>84.0</ele><time>2026-03-28T13:02:00.01Z</time></trkpt><trkpt lat="44.40959" lon="9.237255"><ele>84.0</ele><time>2026-03-28T13:02:01.01Z</time></trkpt><trkpt lat="44.4095317" lon="9.2374433"><ele>84.0</ele><time>2026-03-28T13:02:02.009Z</time></trkpt><trkpt lat="44.409475" lon="9.2376317"><ele>84.0</ele><time>2026-03-28T13:02:03.01Z</time></trkpt><trkpt lat="44.4093933" lon="9.237785"><ele>84.25</ele><time>2026-03-28T13:02:04.009Z</time></trkpt><trkpt lat="44.4092967" lon="9.2379283"><ele>84.5</ele><time>2026-03-28T13:02:05.009Z</time></trkpt><trkpt lat="44.4091817" lon="9.2380417"><ele>84.75</ele><time>2026-03-28T13:02:06.01Z</time></trkpt><trkpt lat="44.409065" lon="9.2381533"><ele>85.0</ele><time>2026-03-28T13:02:07.01Z</time></trkpt><trkpt lat="44.408945" lon="9.2382633"><ele>83.75</ele><time>2026-03-28T13:02:08.01Z</time></trkpt><trkpt lat="44.4088267" lon="9.238375"><ele>82.5</ele><time>2026-03-28T13:02:09.01Z</time></trkpt><trkpt lat="44.4087167" lon="9.23851"><ele>81.25</ele><time>2026-03-28T13:02:10.01Z</time></trkpt><trkpt lat="44.4086017" lon="9.2386283"><ele>80.0</ele><time>2026-03-28T13:02:11.01Z</time></trkpt><trkpt lat="44.4084783" lon="9.2387483"><ele>80.0</ele><time>2026-03-28T13:02:12.01Z</time></trkpt><trkpt lat="44.4083533" lon="9.2388783"><ele>80.0</ele><time>2026-03-28T13:02:13.01Z</time></trkpt><trkpt lat="44.408235" lon="9.23902"><ele>80.0</ele><time>2026-03-28T13:02:14.01Z</time></trkpt><trkpt lat="44.408115" lon="9.2391433"><ele>81.66666666666667</ele><time>2026-03-28T13:02:15.01Z</time></trkpt><trkpt lat="44.4079967" lon="9.23927"><ele>83.33333333333333</ele><time>2026-03-28T13:02:16.01Z</time></trkpt><trkpt lat="44.40788" lon="9.2394033"><ele>85.0</ele><time>2026-03-28T13:02:17.01Z</time></trkpt><trkpt lat="44.4077567" lon="9.2395233"><ele>85.0</ele><time>2026-03-28T13:02:18.01Z</time></trkpt><trkpt lat="44.4076333" lon="9.2396483"><ele>85.0</ele><time>2026-03-28T13:02:19.009Z</time></trkpt><trkpt lat="44.4075083" lon="9.2397817"><ele>85.0</ele><time>2026-03-28T13:02:20.009Z</time></trkpt><trkpt lat="44.4073883" lon="9.239905"><ele>85.0</ele><time>2026-03-28T13:02:21.01Z</time></trkpt><trkpt lat="44.4072667" lon="9.2400383"><ele>85.0</ele><time>2026-03-28T13:02:22.01Z</time></trkpt><trkpt lat="44.4071567" lon="9.2401717"><ele>85.0</ele><time>2026-03-28T13:02:23.01Z</time></trkpt><trkpt lat="44.4070367" lon="9.2402833"><ele>85.0</ele><time>2026-03-28T13:02:24.01Z</time></trkpt><trkpt lat="44.40692" lon="9.2404167"><ele>85.0</ele><time>2026-03-28T13:02:25.01Z</time></trkpt><trkpt lat="44.4068" lon="9.24054"><ele>85.0</ele><time>2026-03-28T13:02:26.01Z</time></trkpt><trkpt lat="44.4066767" lon="9.2406567"><ele>85.0</ele><time>2026-03-28T13:02:27.01Z</time></trkpt><trkpt lat="44.4065533" lon="9.2407767"><ele>85.0</ele><time>2026-03-28T13:02:28.009Z</time></trkpt><trkpt lat="44.406435" lon="9.24089"><ele>85.25</ele><time>2026-03-28T13:02:29.01Z</time></trkpt><trkpt lat="44.4063133" lon="9.2410083"><ele>85.5</ele><time>2026-03-28T13:02:30.01Z</time></trkpt><trkpt lat="44.4061967" lon="9.2411317"><ele>85.75</ele><time>2026-03-28T13:02:31.01Z</time></trkpt><trkpt lat="44.406085" lon="9.2412533"><ele>86.0</ele><time>2026-03-28T13:02:32.01Z</time></trkpt><trkpt lat="44.4059783" lon="9.2413817"><ele>87.0</ele><time>2026-03-28T13:02:33.009Z</time></trkpt><trkpt lat="44.4058817" lon="9.2415217"><ele>88.0</ele><time>2026-03-28T13:02:34.01Z</time></trkpt><trkpt lat="44.405795" lon="9.2416817"><ele>89.0</ele><time>2026-03-28T13:02:35.009Z</time></trkpt><trkpt lat="44.40573" lon="9.2418533"><ele>90.0</ele><time>2026-03-28T13:02:36.009Z</time></trkpt><trkpt lat="44.40567" lon="9.2420217"><ele>90.0</ele><time>2026-03-28T13:02:37.01Z</time></trkpt><trkpt lat="44.4056133" lon="9.2421767"><ele>90.0</ele><time>2026-03-28T13:02:38.01Z</time></trkpt><trkpt lat="44.4055483" lon="9.24233"><ele>90.0</ele><time>2026-03-28T13:02:39.01Z</time></trkpt><trkpt lat="44.4054867" lon="9.2424917"><ele>90.0</ele><time>2026-03-28T13:02:40.01Z</time></trkpt><trkpt lat="44.4054183" lon="9.2426517"><ele>89.25</ele><time>2026-03-28T13:02:41.01Z</time></trkpt><trkpt lat="44.4053583" lon="9.2428167"><ele>88.5</ele><time>2026-03-28T13:02:42.01Z</time></trkpt><trkpt lat="44.4053" lon="9.242975"><ele>87.75</ele><time>2026-03-28T13:02:43.01Z</time></trkpt><trkpt lat="44.405235" lon="9.243145"><ele>87.0</ele><time>2026-03-28T13:02:44.01Z</time></trkpt><trkpt lat="44.4051733" lon="9.24331"><ele>87.0</ele><time>2026-03-28T13:02:45.009Z</time></trkpt><trkpt lat="44.40511" lon="9.2434817"><ele>87.0</ele><time>2026-03-28T13:02:46.01Z</time></trkpt><trkpt lat="44.40504" lon="9.2436633"><ele>87.0</ele><time>2026-03-28T13:02:47.009Z</time></trkpt><trkpt lat="44.4049733" lon="9.2438217"><ele>87.0</ele><time>2026-03-28T13:02:48.01Z</time></trkpt><trkpt lat="44.404915" lon="9.2439933"><ele>87.0</ele><time>2026-03-28T13:02:49.01Z</time></trkpt><trkpt lat="44.40486" lon="9.2441467"><ele>87.0</ele><time>2026-03-28T13:02:50.01Z</time></trkpt><trkpt lat="44.4048017" lon="9.2443017"><ele>87.0</ele><time>2026-03-28T13:02:51.01Z</time></trkpt><trkpt lat="44.404735" lon="9.24446"><ele>87.0</ele><time>2026-03-28T13:02:52.01Z</time></trkpt><trkpt lat="44.4046683" lon="9.2446267"><ele>86.25</ele><time>2026-03-28T13:02:53.01Z</time></trkpt><trkpt lat="44.404605" lon="9.2447983"><ele>85.5</ele><time>2026-03-28T13:02:54.01Z</time></trkpt><trkpt lat="44.4045367" lon="9.2449717"><ele>84.75</ele><time>2026-03-28T13:02:55.01Z</time></trkpt><trkpt lat="44.4044667" lon="9.2451417"><ele>84.0</ele><time>2026-03-28T13:02:56.01Z</time></trkpt><trkpt lat="44.4043917" lon="9.2453233"><ele>84.0</ele><time>2026-03-28T13:02:57.01Z</time></trkpt><trkpt lat="44.40431" lon="9.245495"><ele>84.0</ele><time>2026-03-28T13:02:58.009Z</time></trkpt><trkpt lat="44.40424" lon="9.2456733"><ele>84.0</ele><time>2026-03-28T13:02:59.009Z</time></trkpt><trkpt lat="44.4041717" lon="9.2458533"><ele>84.0</ele><time>2026-03-28T13:03:00.01Z</time></trkpt><trkpt lat="44.4041117" lon="9.24604"><ele>83.75</ele><time>2026-03-28T13:03:01.01Z</time></trkpt><trkpt lat="44.404045" lon="9.246215"><ele>83.5</ele><time>2026-03-28T13:03:02.01Z</time></trkpt><trkpt lat="44.40399" lon="9.24639"><ele>83.25</ele><time>2026-03-28T13:03:03.01Z</time></trkpt><trkpt lat="44.403925" lon="9.24657"><ele>83.0</ele><time>2026-03-28T13:03:04.01Z</time></trkpt><trkpt lat="44.4038517" lon="9.2467483"><ele>82.75</ele><time>2026-03-28T13:03:05.01Z</time></trkpt><trkpt lat="44.403785" lon="9.24692"><ele>82.5</ele><time>2026-03-28T13:03:06.009Z</time></trkpt><trkpt lat="44.403715" lon="9.24708"><ele>82.25</ele><time>2026-03-28T13:03:07.01Z</time></trkpt><trkpt lat="44.403655" lon="9.2472317"><ele>82.0</ele><time>2026-03-28T13:03:08.009Z</time></trkpt><trkpt lat="44.4035933" lon="9.2473767"><ele>82.0</ele><time>2026-03-28T13:03:09.009Z</time></trkpt><trkpt lat="44.4035333" lon="9.2475183"><ele>82.0</ele><time>2026-03-28T13:03:10.01Z</time></trkpt><trkpt lat="44.4034817" lon="9.247675"><ele>82.0</ele><time>2026-03-28T13:03:11.01Z</time></trkpt><trkpt lat="44.40343" lon="9.2478317"><ele>82.0</ele><time>2026-03-28T13:03:12.01Z</time></trkpt><trkpt lat="44.403375" lon="9.2479817"><ele>81.75</ele><time>2026-03-28T13:03:13.01Z</time></trkpt><trkpt lat="44.40331" lon="9.2481267"><ele>81.5</ele><time>2026-03-28T13:03:14.01Z</time></trkpt><trkpt lat="44.4032333" lon="9.248275"><ele>81.25</ele><time>2026-03-28T13:03:15.009Z</time></trkpt><trkpt lat="44.403155" lon="9.2484267"><ele>81.0</ele><time>2026-03-28T13:03:16.01Z</time></trkpt><trkpt lat="44.4030717" lon="9.24857"><ele>81.0</ele><time>2026-03-28T13:03:17.01Z</time></trkpt><trkpt lat="44.4030067" lon="9.2487283"><ele>81.0</ele><time>2026-03-28T13:03:18.01Z</time></trkpt><trkpt lat="44.4029467" lon="9.2488767"><ele>81.0</ele><time>2026-03-28T13:03:19.01Z</time></trkpt><trkpt lat="44.40292" lon="9.2490567"><ele>81.0</ele><time>2026-03-28T13:03:20.01Z</time></trkpt><trkpt lat="44.402865" lon="9.24919"><ele>80.5</ele><time>2026-03-28T13:03:21.01Z</time></trkpt><trkpt lat="44.4028" lon="9.2493383"><ele>80.0</ele><time>2026-03-28T13:03:22.01Z</time></trkpt><trkpt lat="44.4027433" lon="9.2494917"><ele>79.5</ele><time>2026-03-28T13:03:23.01Z</time></trkpt><trkpt lat="44.4026917" lon="9.2496517"><ele>79.0</ele><time>2026-03-28T13:03:24.009Z</time></trkpt><trkpt lat="44.402645" lon="9.249815"><ele>78.25</ele><time>2026-03-28T13:03:25.01Z</time></trkpt><trkpt lat="44.4026033" lon="9.2499883"><ele>77.5</ele><time>2026-03-28T13:03:26.01Z</time></trkpt><trkpt lat="44.402555" lon="9.25016"><ele>76.75</ele><time>2026-03-28T13:03:27.009Z</time></trkpt><trkpt lat="44.4024933" lon="9.25032"><ele>76.0</ele><time>2026-03-28T13:03:28.01Z</time></trkpt><trkpt lat="44.4024333" lon="9.2504817"><ele>75.5</ele><time>2026-03-28T13:03:29.01Z</time></trkpt><trkpt lat="44.402375" lon="9.2506533"><ele>75.0</ele><time>2026-03-28T13:03:30.01Z</time></trkpt><trkpt lat="44.40231" lon="9.2508233"><ele>74.5</ele><time>2026-03-28T13:03:31.01Z</time></trkpt><trkpt lat="44.4022633" lon="9.2510067"><ele>74.0</ele><time>2026-03-28T13:03:32.01Z</time></trkpt><trkpt lat="44.4022183" lon="9.2511833"><ele>74.0</ele><time>2026-03-28T13:03:33.01Z</time></trkpt><trkpt lat="44.4021717" lon="9.2513567"><ele>74.0</ele><time>2026-03-28T13:03:34.01Z</time></trkpt><trkpt lat="44.4021167" lon="9.2515233"><ele>74.0</ele><time>2026-03-28T13:03:35.01Z</time></trkpt><trkpt lat="44.4020633" lon="9.2516767"><ele>74.0</ele><time>2026-03-28T13:03:36.01Z</time></trkpt><trkpt lat="44.4020133" lon="9.2518233"><ele>74.5</ele><time>2026-03-28T13:03:37.01Z</time></trkpt><trkpt lat="44.401965" lon="9.2519667"><ele>75.0</ele><time>2026-03-28T13:03:38.009Z</time></trkpt><trkpt lat="44.401925" lon="9.252115"><ele>75.5</ele><time>2026-03-28T13:03:39.01Z</time></trkpt><trkpt lat="44.4018733" lon="9.2522617"><ele>76.0</ele><time>2026-03-28T13:03:40.01Z</time></trkpt><trkpt lat="44.4018183" lon="9.2524067"><ele>76.25</ele><time>2026-03-28T13:03:41.01Z</time></trkpt><trkpt lat="44.4017633" lon="9.2525617"><ele>76.5</ele><time>2026-03-28T13:03:42.01Z</time></trkpt><trkpt lat="44.4016967" lon="9.2527117"><ele>76.75</ele><time>2026-03-28T13:03:43.01Z</time></trkpt><trkpt lat="44.4016383" lon="9.2528633"><ele>77.0</ele><time>2026-03-28T13:03:44.01Z</time></trkpt><trkpt lat="44.401575" lon="9.2530183"><ele>77.5</ele><time>2026-03-28T13:03:45.01Z</time></trkpt><trkpt lat="44.4015167" lon="9.2531767"><ele>78.0</ele><time>2026-03-28T13:03:46.01Z</time></trkpt><trkpt lat="44.4014483" lon="9.25333"><ele>78.5</ele><time>2026-03-28T13:03:47.01Z</time></trkpt><trkpt lat="44.40139" lon="9.2534883"><ele>79.0</ele><time>2026-03-28T13:03:48.01Z</time></trkpt><trkpt lat="44.40135" lon="9.2536617"><ele>78.0</ele><time>2026-03-28T13:03:49.01Z</time></trkpt><trkpt lat="44.4013067" lon="9.253825"><ele>77.0</ele><time>2026-03-28T13:03:50.01Z</time></trkpt><trkpt lat="44.4012433" lon="9.2539717"><ele>76.0</ele><time>2026-03-28T13:03:51.01Z</time></trkpt><trkpt lat="44.401185" lon="9.25412"><ele>75.0</ele><time>2026-03-28T13:03:52.01Z</time></trkpt><trkpt lat="44.40112" lon="9.2542733"><ele>75.0</ele><time>2026-03-28T13:03:53.009Z</time></trkpt><trkpt lat="44.401055" lon="9.2544333"><ele>75.0</ele><time>2026-03-28T13:03:54.01Z</time></trkpt><trkpt lat="44.4009983" lon="9.2546033"><ele>75.0</ele><time>2026-03-28T13:03:55.01Z</time></trkpt><trkpt lat="44.4009467" lon="9.25477"><ele>75.0</ele><time>2026-03-28T13:03:56.01Z</time></trkpt><trkpt lat="44.4008933" lon="9.2549467"><ele>75.0</ele><time>2026-03-28T13:03:57.01Z</time></trkpt><trkpt lat="44.400835" lon="9.25513"><ele>75.0</ele><time>2026-03-28T13:03:58.009Z</time></trkpt><trkpt lat="44.4007817" lon="9.2553033"><ele>75.0</ele><time>2026-03-28T13:03:59.01Z</time></trkpt><trkpt lat="44.4007417" lon="9.255465"><ele>75.0</ele><time>2026-03-28T13:04:00.01Z</time></trkpt><trkpt lat="44.4007433" lon="9.2556267"><ele>74.75</ele><time>2026-03-28T13:04:01.009Z</time></trkpt><trkpt lat="44.4007433" lon="9.255805"><ele>74.5</ele><time>2026-03-28T13:04:02.01Z</time></trkpt><trkpt lat="44.4007817" lon="9.2559867"><ele>74.25</ele><time>2026-03-28T13:04:03.01Z</time></trkpt><trkpt lat="44.4008367" lon="9.25618"><ele>74.0</ele><time>2026-03-28T13:04:04.01Z</time></trkpt><trkpt lat="44.40089" lon="9.2563667"><ele>73.75</ele><time>2026-03-28T13:04:05.01Z</time></trkpt><trkpt lat="44.4009433" lon="9.25655"><ele>73.5</ele><time>2026-03-28T13:04:06.01Z</time></trkpt><trkpt lat="44.40099" lon="9.256735"><ele>73.25</ele><time>2026-03-28T13:04:07.01Z</time></trkpt><trkpt lat="44.4010483" lon="9.2569217"><ele>73.0</ele><time>2026-03-28T13:04:08.01Z</time></trkpt><trkpt lat="44.4011017" lon="9.257105"><ele>73.0</ele><time>2026-03-28T13:04:09.01Z</time></trkpt><trkpt lat="44.4011317" lon="9.2572783"><ele>73.0</ele><time>2026-03-28T13:04:10.01Z</time></trkpt><trkpt lat="44.401165" lon="9.2574533"><ele>73.0</ele><time>2026-03-28T13:04:11.01Z</time></trkpt><trkpt lat="44.4011733" lon="9.2576333"><ele>73.0</ele><time>2026-03-28T13:04:12.01Z</time></trkpt><trkpt lat="44.4011617" lon="9.25781"><ele>73.25</ele><time>2026-03-28T13:04:13.009Z</time></trkpt><trkpt lat="44.401115" lon="9.257985"><ele>73.5</ele><time>2026-03-28T13:04:14.009Z</time></trkpt><trkpt lat="44.4010633" lon="9.258155"><ele>73.75</ele><time>2026-03-28T13:04:15.01Z</time></trkpt><trkpt lat="44.400985" lon="9.2583083"><ele>74.0</ele><time>2026-03-28T13:04:16.01Z</time></trkpt><trkpt lat="44.4008533" lon="9.2584317"><ele>75.33333333333334</ele><time>2026-03-28T13:04:17.01Z</time></trkpt><trkpt lat="44.4007417" lon="9.2585917"><ele>76.66666666666667</ele><time>2026-03-28T13:04:18.01Z</time></trkpt><trkpt lat="44.400645" lon="9.2587567"><ele>78.0</ele><time>2026-03-28T13:04:19.01Z</time></trkpt><trkpt lat="44.4005567" lon="9.2589133"><ele>77.5</ele><time>2026-03-28T13:04:20.01Z</time></trkpt><trkpt lat="44.4004817" lon="9.2590683"><ele>77.0</ele><time>2026-03-28T13:04:21.01Z</time></trkpt><trkpt lat="44.4003983" lon="9.2592167"><ele>76.5</ele><time>2026-03-28T13:04:22.01Z</time></trkpt><trkpt lat="44.4003033" lon="9.2593467"><ele>76.0</ele><time>2026-03-28T13:04:23.01Z</time></trkpt><trkpt lat="44.4001983" lon="9.259435"><ele>76.0</ele><time>2026-03-28T13:04:24.01Z</time></trkpt><trkpt lat="44.4000633" lon="9.25949"><ele>76.0</ele><time>2026-03-28T13:04:25.01Z</time></trkpt><trkpt lat="44.3999183" lon="9.25953"><ele>76.0</ele><time>2026-03-28T13:04:26.01Z</time></trkpt><trkpt lat="44.3997633" lon="9.2595533"><ele>76.0</ele><time>2026-03-28T13:04:27.01Z</time></trkpt><trkpt lat="44.3996033" lon="9.25957"><ele>74.25</ele><time>2026-03-28T13:04:28.01Z</time></trkpt><trkpt lat="44.3994483" lon="9.2596017"><ele>72.5</ele><time>2026-03-28T13:04:29.01Z</time></trkpt><trkpt lat="44.39931" lon="9.2596367"><ele>70.75</ele><time>2026-03-28T13:04:30.009Z</time></trkpt><trkpt lat="44.3991783" lon="9.25968"><ele>69.0</ele><time>2026-03-28T13:04:31.01Z</time></trkpt><trkpt lat="44.399055" lon="9.25972"><ele>69.0</ele><time>2026-03-28T13:04:32.01Z</time></trkpt><trkpt lat="44.398915" lon="9.2597367"><ele>69.0</ele><time>2026-03-28T13:04:33.01Z</time></trkpt><trkpt lat="44.398785" lon="9.25971"><ele>69.0</ele><time>2026-03-28T13:04:34.01Z</time></trkpt><trkpt lat="44.39866" lon="9.2596483"><ele>69.0</ele><time>2026-03-28T13:04:35.01Z</time></trkpt><trkpt lat="44.3985417" lon="9.2595733"><ele>69.0</ele><time>2026-03-28T13:04:36.01Z</time></trkpt><trkpt lat="44.3984117" lon="9.2595033"><ele>69.0</ele><time>2026-03-28T13:04:37.01Z</time></trkpt><trkpt lat="44.398275" lon="9.25945"><ele>69.0</ele><time>2026-03-28T13:04:38.01Z</time></trkpt><trkpt lat="44.3981383" lon="9.2594067"><ele>69.0</ele><time>2026-03-28T13:04:39.009Z</time></trkpt><trkpt lat="44.3980033" lon="9.2593767"><ele>69.5</ele><time>2026-03-28T13:04:40.01Z</time></trkpt><trkpt lat="44.39787" lon="9.2593633"><ele>70.0</ele><time>2026-03-28T13:04:41.01Z</time></trkpt><trkpt lat="44.3977383" lon="9.25933"><ele>70.5</ele><time>2026-03-28T13:04:42.01Z</time></trkpt><trkpt lat="44.3976117" lon="9.2593133"><ele>71.0</ele><time>2026-03-28T13:04:43.01Z</time></trkpt><trkpt lat="44.397485" lon="9.2592817"><ele>71.0</ele><time>2026-03-28T13:04:44.01Z</time></trkpt><trkpt lat="44.3973667" lon="9.2592617"><ele>71.0</ele><time>2026-03-28T13:04:45.009Z</time></trkpt><trkpt lat="44.39725" lon="9.259255"><ele>71.0</ele><time>2026-03-28T13:04:46.01Z</time></trkpt><trkpt lat="44.3971333" lon="9.2592467"><ele>71.0</ele><time>2026-03-28T13:04:47.01Z</time></trkpt><trkpt lat="44.3970183" lon="9.2592233"><ele>71.0</ele><time>2026-03-28T13:04:48.01Z</time></trkpt><trkpt lat="44.3969" lon="9.2592233"><ele>71.0</ele><time>2026-03-28T13:04:49.01Z</time></trkpt><trkpt lat="44.3967917" lon="9.2592433"><ele>71.0</ele><time>2026-03-28T13:04:50.01Z</time></trkpt><trkpt lat="44.3966683" lon="9.25926"><ele>71.0</ele><time>2026-03-28T13:04:51.01Z</time></trkpt><trkpt lat="44.396535" lon="9.259305"><ele>71.0</ele><time>2026-03-28T13:04:52.01Z</time></trkpt><trkpt lat="44.3964" lon="9.25934"><ele>71.0</ele><time>2026-03-28T13:04:53.01Z</time></trkpt><trkpt lat="44.3962583" lon="9.25941"><ele>71.0</ele><time>2026-03-28T13:04:54.01Z</time></trkpt><trkpt lat="44.3961217" lon="9.2594617"><ele>71.0</ele><time>2026-03-28T13:04:55.01Z</time></trkpt><trkpt lat="44.3960067" lon="9.2595233"><ele>70.25</ele><time>2026-03-28T13:04:56.01Z</time></trkpt><trkpt lat="44.3958983" lon="9.2595817"><ele>69.5</ele><time>2026-03-28T13:04:57.01Z</time></trkpt><trkpt lat="44.3957933" lon="9.2596333"><ele>68.75</ele><time>2026-03-28T13:04:58.01Z</time></trkpt><trkpt lat="44.3956833" lon="9.2596783"><ele>68.0</ele><time>2026-03-28T13:04:59.01Z</time></trkpt><trkpt lat="44.3955667" lon="9.2597483"><ele>68.5</ele><time>2026-03-28T13:05:00.01Z</time></trkpt><trkpt lat="44.395455" lon="9.25984"><ele>69.0</ele><time>2026-03-28T13:05:01.01Z</time></trkpt><trkpt lat="44.3953617" lon="9.2599617"><ele>69.5</ele><time>2026-03-28T13:05:02.01Z</time></trkpt><trkpt lat="44.3952883" lon="9.260095"><ele>70.0</ele><time>2026-03-28T13:05:03.009Z</time></trkpt><trkpt lat="44.3952167" lon="9.2602467"><ele>70.0</ele><time>2026-03-28T13:05:04.01Z</time></trkpt><trkpt lat="44.3951517" lon="9.2604133"><ele>70.0</ele><time>2026-03-28T13:05:05.01Z</time></trkpt><trkpt lat="44.3950933" lon="9.2605883"><ele>70.0</ele><time>2026-03-28T13:05:06.01Z</time></trkpt><trkpt lat="44.3950317" lon="9.2607583"><ele>70.0</ele><time>2026-03-28T13:05:07.01Z</time></trkpt><trkpt lat="44.3949683" lon="9.2609233"><ele>71.5</ele><time>2026-03-28T13:05:08.009Z</time></trkpt><trkpt lat="44.3949" lon="9.2610883"><ele>73.0</ele><time>2026-03-28T13:05:09.01Z</time></trkpt><trkpt lat="44.39484" lon="9.2612583"><ele>74.5</ele><time>2026-03-28T13:05:10.01Z</time></trkpt><trkpt lat="44.3947867" lon="9.261425"><ele>76.0</ele><time>2026-03-28T13:05:11.01Z</time></trkpt><trkpt lat="44.3947167" lon="9.2615783"><ele>72.25</ele><time>2026-03-28T13:05:12.01Z</time></trkpt><trkpt lat="44.394665" lon="9.26174"><ele>68.5</ele><time>2026-03-28T13:05:13.009Z</time></trkpt><trkpt lat="44.3946217" lon="9.261905"><ele>64.75</ele><time>2026-03-28T13:05:14.01Z</time></trkpt><trkpt lat="44.3945867" lon="9.2620683"><ele>61.0</ele><time>2026-03-28T13:05:15.01Z</time></trkpt><trkpt lat="44.3945583" lon="9.262245"><ele>61.75</ele><time>2026-03-28T13:05:16.01Z</time></trkpt><trkpt lat="44.39455" lon="9.2624283"><ele>62.5</ele><time>2026-03-28T13:05:17.009Z</time></trkpt><trkpt lat="44.3945533" lon="9.262615"><ele>63.25</ele><time>2026-03-28T13:05:18.01Z</time></trkpt><trkpt lat="44.3945767" lon="9.2628"><ele>64.0</ele><time>2026-03-28T13:05:19.01Z</time></trkpt><trkpt lat="44.3946167" lon="9.2629783"><ele>64.25</ele><time>2026-03-28T13:05:20.01Z</time></trkpt><trkpt lat="44.394665" lon="9.2631567"><ele>64.5</ele><time>2026-03-28T13:05:21.01Z</time></trkpt><trkpt lat="44.3947183" lon="9.2633367"><ele>64.75</ele><time>2026-03-28T13:05:22.01Z</time></trkpt><trkpt lat="44.394785" lon="9.2635133"><ele>65.0</ele><time>2026-03-28T13:05:23.01Z</time></trkpt><trkpt lat="44.3948483" lon="9.2636917"><ele>67.75</ele><time>2026-03-28T13:05:24.009Z</time></trkpt><trkpt lat="44.3949017" lon="9.263865"><ele>70.5</ele><time>2026-03-28T13:05:25.01Z</time></trkpt><trkpt lat="44.3949617" lon="9.2640367"><ele>73.25</ele><time>2026-03-28T13:05:26.01Z</time></trkpt><trkpt lat="44.3950017" lon="9.264195"><ele>76.0</ele><time>2026-03-28T13:05:27.01Z</time></trkpt><trkpt lat="44.39503" lon="9.2643433"><ele>76.0</ele><time>2026-03-28T13:05:28.01Z</time></trkpt><trkpt lat="44.3950433" lon="9.264465"><ele>76.0</ele><time>2026-03-28T13:05:29.01Z</time></trkpt><trkpt lat="44.3950567" lon="9.264585"><ele>76.0</ele><time>2026-03-28T13:05:30.009Z</time></trkpt><trkpt lat="44.3950567" lon="9.2647133"><ele>76.0</ele><time>2026-03-28T13:05:31.01Z</time></trkpt><trkpt lat="44.3950467" lon="9.2648533"><ele>76.0</ele><time>2026-03-28T13:05:32.01Z</time></trkpt><trkpt lat="44.3950267" lon="9.2649933"><ele>75.75</ele><time>2026-03-28T13:05:33.009Z</time></trkpt><trkpt lat="44.3949967" lon="9.2651333"><ele>75.5</ele><time>2026-03-28T13:05:34.009Z</time></trkpt><trkpt lat="44.3949683" lon="9.2652833"><ele>75.25</ele><time>2026-03-28T13:05:35.01Z</time></trkpt><trkpt lat="44.394945" lon="9.2654483"><ele>75.0</ele><time>2026-03-28T13:05:36.01Z</time></trkpt><trkpt lat="44.3949167" lon="9.2656283"><ele>74.5</ele><time>2026-03-28T13:05:37.01Z</time></trkpt><trkpt lat="44.3948933" lon="9.2658167"><ele>74.0</ele><time>2026-03-28T13:05:38.01Z</time></trkpt><trkpt lat="44.39487" lon="9.2660233"><ele>73.5</ele><time>2026-03-28T13:05:39.01Z</time></trkpt><trkpt lat="44.3948333" lon="9.266235"><ele>73.0</ele><time>2026-03-28T13:05:40.01Z</time></trkpt><trkpt lat="44.3948033" lon="9.2664517"><ele>75.66666666666666</ele><time>2026-03-28T13:05:41.01Z</time></trkpt><trkpt lat="44.3947767" lon="9.266685"><ele>78.33333333333333</ele><time>2026-03-28T13:05:42.01Z</time></trkpt><trkpt lat="44.3947467" lon="9.2669217"><ele>81.0</ele><time>2026-03-28T13:05:43.01Z</time></trkpt><trkpt lat="44.394715" lon="9.26718"><ele>83.0</ele><time>2026-03-28T13:05:44.01Z</time></trkpt><trkpt lat="44.39468" lon="9.267425"><ele>85.0</ele><time>2026-03-28T13:05:45.01Z</time></trkpt><trkpt lat="44.3946633" lon="9.2676833"><ele>87.0</ele><time>2026-03-28T13:05:46.009Z</time></trkpt><trkpt lat="44.3946333" lon="9.2679333"><ele>80.33333333333333</ele><time>2026-03-28T13:05:47.01Z</time></trkpt><trkpt lat="44.3945817" lon="9.2681633"><ele>73.66666666666666</ele><time>2026-03-28T13:05:48.01Z</time></trkpt><trkpt lat="44.3945533" lon="9.26839"><ele>67.0</ele><time>2026-03-28T13:05:49.01Z</time></trkpt><trkpt lat="44.3945167" lon="9.2686117"><ele>67.0</ele><time>2026-03-28T13:05:50.01Z</time></trkpt><trkpt lat="44.394475" lon="9.268815"><ele>67.0</ele><time>2026-03-28T13:05:51.01Z</time></trkpt><trkpt lat="44.3944367" lon="9.2690167"><ele>67.0</ele><time>2026-03-28T13:05:52.01Z</time></trkpt><trkpt lat="44.3944" lon="9.26923"><ele>68.33333333333333</ele><time>2026-03-28T13:05:53.01Z</time></trkpt><trkpt lat="44.394365" lon="9.2694367"><ele>69.66666666666667</ele><time>2026-03-28T13:05:54.009Z</time></trkpt><trkpt lat="44.3943317" lon="9.2696517"><ele>71.0</ele><time>2026-03-28T13:05:55.01Z</time></trkpt><trkpt lat="44.3942783" lon="9.26985"><ele>73.0</ele><time>2026-03-28T13:05:56.01Z</time></trkpt><trkpt lat="44.3942167" lon="9.27004"><ele>75.0</ele><time>2026-03-28T13:05:57.01Z</time></trkpt><trkpt lat="44.3941517" lon="9.2702217"><ele>77.0</ele><time>2026-03-28T13:05:58.01Z</time></trkpt><trkpt lat="44.3940867" lon="9.2704033"><ele>79.0</ele><time>2026-03-28T13:05:59.01Z</time></trkpt><trkpt lat="44.3940083" lon="9.2705833"><ele>76.25</ele><time>2026-03-28T13:06:00.01Z</time></trkpt><trkpt lat="44.3939383" lon="9.2707617"><ele>73.5</ele><time>2026-03-28T13:06:01.01Z</time></trkpt><trkpt lat="44.3938733" lon="9.2709417"><ele>70.75</ele><time>2026-03-28T13:06:02.01Z</time></trkpt><trkpt lat="44.3938133" lon="9.2711267"><ele>68.0</ele><time>2026-03-28T13:06:03.009Z</time></trkpt><trkpt lat="44.3937533" lon="9.2713167"><ele>68.75</ele><time>2026-03-28T13:06:04.01Z</time></trkpt><trkpt lat="44.3936917" lon="9.2715"><ele>69.5</ele><time>2026-03-28T13:06:05.009Z</time></trkpt><trkpt lat="44.3936283" lon="9.2716783"><ele>70.25</ele><time>2026-03-28T13:06:06.01Z</time></trkpt><trkpt lat="44.3935617" lon="9.2718483"><ele>71.0</ele><time>2026-03-28T13:06:07.009Z</time></trkpt><trkpt lat="44.3934817" lon="9.271985"><ele>71.0</ele><time>2026-03-28T13:06:08.01Z</time></trkpt><trkpt lat="44.3933783" lon="9.2720983"><ele>71.0</ele><time>2026-03-28T13:06:09.01Z</time></trkpt><trkpt lat="44.393255" lon="9.2721633"><ele>71.0</ele><time>2026-03-28T13:06:10.01Z</time></trkpt><trkpt lat="44.3931083" lon="9.2722133"><ele>71.0</ele><time>2026-03-28T13:06:11.01Z</time></trkpt><trkpt lat="44.3929583" lon="9.2722317"><ele>71.25</ele><time>2026-03-28T13:06:12.01Z</time></trkpt><trkpt lat="44.392805" lon="9.272275"><ele>71.5</ele><time>2026-03-28T13:06:13.01Z</time></trkpt><trkpt lat="44.3926683" lon="9.2723183"><ele>71.75</ele><time>2026-03-28T13:06:14.01Z</time></trkpt><trkpt lat="44.3925383" lon="9.2723483"><ele>72.0</ele><time>2026-03-28T13:06:15.01Z</time></trkpt><trkpt lat="44.3924117" lon="9.2723833"><ele>72.0</ele><time>2026-03-28T13:06:16.009Z</time></trkpt><trkpt lat="44.3922983" lon="9.272445"><ele>72.0</ele><time>2026-03-28T13:06:17.01Z</time></trkpt><trkpt lat="44.392185" lon="9.2725283"><ele>72.0</ele><time>2026-03-28T13:06:18.01Z</time></trkpt><trkpt lat="44.3920817" lon="9.2726467"><ele>72.0</ele><time>2026-03-28T13:06:19.01Z</time></trkpt><trkpt lat="44.3919867" lon="9.2727933"><ele>71.0</ele><time>2026-03-28T13:06:20.01Z</time></trkpt><trkpt lat="44.3918983" lon="9.27295"><ele>70.0</ele><time>2026-03-28T13:06:21.009Z</time></trkpt><trkpt lat="44.3918067" lon="9.2731217"><ele>69.0</ele><time>2026-03-28T13:06:22.009Z</time></trkpt><trkpt lat="44.3917167" lon="9.2732883"><ele>68.0</ele><time>2026-03-28T13:06:23.01Z</time></trkpt><trkpt lat="44.3916233" lon="9.2734617"><ele>68.0</ele><time>2026-03-28T13:06:24.01Z</time></trkpt><trkpt lat="44.3915233" lon="9.2736267"><ele>68.0</ele><time>2026-03-28T13:06:25.01Z</time></trkpt><trkpt lat="44.39142" lon="9.2738017"><ele>68.0</ele><time>2026-03-28T13:06:26.01Z</time></trkpt><trkpt lat="44.39133" lon="9.2739783"><ele>64.33333333333334</ele><time>2026-03-28T13:06:27.01Z</time></trkpt><trkpt lat="44.3912433" lon="9.274175"><ele>60.66666666666667</ele><time>2026-03-28T13:06:28.01Z</time></trkpt><trkpt lat="44.3911617" lon="9.2743733"><ele>57.0</ele><time>2026-03-28T13:06:29.01Z</time></trkpt><trkpt lat="44.3910917" lon="9.274575"><ele>58.33333333333333</ele><time>2026-03-28T13:06:30.009Z</time></trkpt><trkpt lat="44.3910167" lon="9.2747717"><ele>59.666666666666664</ele><time>2026-03-28T13:06:31.01Z</time></trkpt><trkpt lat="44.3909583" lon="9.2749667"><ele>61.0</ele><time>2026-03-28T13:06:32.01Z</time></trkpt><trkpt lat="44.3909067" lon="9.27517"><ele>61.0</ele><time>2026-03-28T13:06:33.01Z</time></trkpt><trkpt lat="44.390855" lon="9.2753717"><ele>61.0</ele><time>2026-03-28T13:06:34.01Z</time></trkpt><trkpt lat="44.3908033" lon="9.2755717"><ele>61.0</ele><time>2026-03-28T13:06:35.01Z</time></trkpt><trkpt lat="44.3907367" lon="9.275775"><ele>62.0</ele><time>2026-03-28T13:06:36.01Z</time></trkpt><trkpt lat="44.3906667" lon="9.2759683"><ele>63.0</ele><time>2026-03-28T13:06:37.009Z</time></trkpt><trkpt lat="44.3906017" lon="9.2761567"><ele>64.0</ele><time>2026-03-28T13:06:38.009Z</time></trkpt><trkpt lat="44.3905217" lon="9.276335"><ele>62.5</ele><time>2026-03-28T13:06:39.009Z</time></trkpt><trkpt lat="44.3904233" lon="9.276475"><ele>61.0</ele><time>2026-03-28T13:06:40.01Z</time></trkpt><trkpt lat="44.3903133" lon="9.2766133"><ele>59.5</ele><time>2026-03-28T13:06:41.009Z</time></trkpt><trkpt lat="44.3902017" lon="9.2767517"><ele>58.0</ele><time>2026-03-28T13:06:42.01Z</time></trkpt><trkpt lat="44.3900767" lon="9.276895"><ele>58.0</ele><time>2026-03-28T13:06:43.01Z</time></trkpt><trkpt lat="44.3899667" lon="9.277055"><ele>58.0</ele><time>2026-03-28T13:06:44.01Z</time></trkpt><trkpt lat="44.3898883" lon="9.2772367"><ele>58.0</ele><time>2026-03-28T13:06:45.01Z</time></trkpt><trkpt lat="44.389815" lon="9.2774267"><ele>57.0</ele><time>2026-03-28T13:06:46.01Z</time></trkpt><trkpt lat="44.3897517" lon="9.277635"><ele>56.0</ele><time>2026-03-28T13:06:47.01Z</time></trkpt><trkpt lat="44.3896717" lon="9.277835"><ele>55.0</ele><time>2026-03-28T13:06:48.009Z</time></trkpt><trkpt lat="44.3895817" lon="9.2780067"><ele>55.0</ele><time>2026-03-28T13:06:49.01Z</time></trkpt><trkpt lat="44.3894867" lon="9.2781617"><ele>55.0</ele><time>2026-03-28T13:06:50.01Z</time></trkpt><trkpt lat="44.3893933" lon="9.2783267"><ele>55.0</ele><time>2026-03-28T13:06:51.01Z</time></trkpt><trkpt lat="44.3893083" lon="9.2784967"><ele>55.0</ele><time>2026-03-28T13:06:52.01Z</time></trkpt><trkpt lat="44.3892333" lon="9.278665"><ele>55.0</ele><time>2026-03-28T13:06:53.01Z</time></trkpt><trkpt lat="44.3891667" lon="9.2788167"><ele>55.0</ele><time>2026-03-28T13:06:54.009Z</time></trkpt><trkpt lat="44.3890883" lon="9.2789667"><ele>55.0</ele><time>2026-03-28T13:06:55.01Z</time></trkpt><trkpt lat="44.3890017" lon="9.279105"><ele>55.0</ele><time>2026-03-28T13:06:56.01Z</time></trkpt><trkpt lat="44.3889033" lon="9.2792267"><ele>54.0</ele><time>2026-03-28T13:06:57.01Z</time></trkpt><trkpt lat="44.3887883" lon="9.279355"><ele>53.0</ele><time>2026-03-28T13:06:58.01Z</time></trkpt><trkpt lat="44.3886733" lon="9.2794833"><ele>52.0</ele><time>2026-03-28T13:06:59.01Z</time></trkpt><trkpt lat="44.3885483" lon="9.2796083"><ele>51.0</ele><time>2026-03-28T13:07:00.01Z</time></trkpt><trkpt lat="44.3884183" lon="9.2797333"><ele>53.33333333333333</ele><time>2026-03-28T13:07:01.009Z</time></trkpt><trkpt lat="44.3882917" lon="9.27986"><ele>55.666666666666664</ele><time>2026-03-28T13:07:02.009Z</time></trkpt><trkpt lat="44.388165" lon="9.27997"><ele>58.0</ele><time>2026-03-28T13:07:03.01Z</time></trkpt><trkpt lat="44.3880417" lon="9.280085"><ele>57.0</ele><time>2026-03-28T13:07:04.01Z</time></trkpt><trkpt lat="44.3879267" lon="9.2802117"><ele>56.0</ele><time>2026-03-28T13:07:05.01Z</time></trkpt><trkpt lat="44.387815" lon="9.2803533"><ele>55.0</ele><time>2026-03-28T13:07:06.01Z</time></trkpt><trkpt lat="44.3877083" lon="9.2804967"><ele>54.0</ele><time>2026-03-28T13:07:07.01Z</time></trkpt><trkpt lat="44.38758" lon="9.28061"><ele>54.0</ele><time>2026-03-28T13:07:08.01Z</time></trkpt><trkpt lat="44.38744" lon="9.2807167"><ele>54.0</ele><time>2026-03-28T13:07:09.01Z</time></trkpt><trkpt lat="44.387275" lon="9.2807783"><ele>54.0</ele><time>2026-03-28T13:07:10.01Z</time></trkpt><trkpt lat="44.3871083" lon="9.2808033"><ele>53.0</ele><time>2026-03-28T13:07:11.01Z</time></trkpt><trkpt lat="44.38695" lon="9.2808017"><ele>52.0</ele><time>2026-03-28T13:07:12.009Z</time></trkpt><trkpt lat="44.3868" lon="9.2808083"><ele>51.0</ele><time>2026-03-28T13:07:13.01Z</time></trkpt><trkpt lat="44.3866517" lon="9.2808433"><ele>51.0</ele><time>2026-03-28T13:07:14.01Z</time></trkpt><trkpt lat="44.386515" lon="9.2808883"><ele>51.0</ele><time>2026-03-28T13:07:15.01Z</time></trkpt><trkpt lat="44.38638" lon="9.2809417"><ele>51.0</ele><time>2026-03-28T13:07:16.009Z</time></trkpt><trkpt lat="44.3862517" lon="9.2810367"><ele>51.0</ele><time>2026-03-28T13:07:17.01Z</time></trkpt><trkpt lat="44.3861283" lon="9.2811533"><ele>51.0</ele><time>2026-03-28T13:07:18.01Z</time></trkpt><trkpt lat="44.3860033" lon="9.28127"><ele>51.0</ele><time>2026-03-28T13:07:19.01Z</time></trkpt><trkpt lat="44.385885" lon="9.28138"><ele>51.0</ele><time>2026-03-28T13:07:20.01Z</time></trkpt><trkpt lat="44.3857667" lon="9.28149"><ele>51.0</ele><time>2026-03-28T13:07:21.01Z</time></trkpt><trkpt lat="44.385655" lon="9.281595"><ele>51.5</ele><time>2026-03-28T13:07:22.01Z</time></trkpt><trkpt lat="44.3855467" lon="9.2816933"><ele>52.0</ele><time>2026-03-28T13:07:23.01Z</time></trkpt><trkpt lat="44.3854367" lon="9.2817967"><ele>52.5</ele><time>2026-03-28T13:07:24.01Z</time></trkpt><trkpt lat="44.3853283" lon="9.281905"><ele>53.0</ele><time>2026-03-28T13:07:25.009Z</time></trkpt><trkpt lat="44.3852233" lon="9.28202"><ele>53.25</ele><time>2026-03-28T13:07:26.01Z</time></trkpt><trkpt lat="44.385125" lon="9.28214"><ele>53.5</ele><time>2026-03-28T13:07:27.01Z</time></trkpt><trkpt lat="44.3850333" lon="9.282275"><ele>53.75</ele><time>2026-03-28T13:07:28.01Z</time></trkpt><trkpt lat="44.38493" lon="9.2824067"><ele>54.0</ele><time>2026-03-28T13:07:29.01Z</time></trkpt><trkpt lat="44.3848317" lon="9.2825417"><ele>54.25</ele><time>2026-03-28T13:07:30.01Z</time></trkpt><trkpt lat="44.3847367" lon="9.2826833"><ele>54.5</ele><time>2026-03-28T13:07:31.01Z</time></trkpt><trkpt lat="44.3846283" lon="9.2828367"><ele>54.75</ele><time>2026-03-28T13:07:32.009Z</time></trkpt><trkpt lat="44.3845317" lon="9.2829717"><ele>55.0</ele><time>2026-03-28T13:07:33.01Z</time></trkpt><trkpt lat="44.384435" lon="9.2831267"><ele>55.0</ele><time>2026-03-28T13:07:34.01Z</time></trkpt><trkpt lat="44.3843383" lon="9.2832833"><ele>55.0</ele><time>2026-03-28T13:07:35.009Z</time></trkpt><trkpt lat="44.38423" lon="9.2834367"><ele>55.0</ele><time>2026-03-28T13:07:36.009Z</time></trkpt><trkpt lat="44.3841267" lon="9.28357"><ele>55.0</ele><time>2026-03-28T13:07:37.01Z</time></trkpt><trkpt lat="44.3840183" lon="9.2837083"><ele>55.0</ele><time>2026-03-28T13:07:38.01Z</time></trkpt><trkpt lat="44.383905" lon="9.2838333"><ele>55.0</ele><time>2026-03-28T13:07:39.01Z</time></trkpt><trkpt lat="44.3837883" lon="9.2839517"><ele>55.0</ele><time>2026-03-28T13:07:40.01Z</time></trkpt><trkpt lat="44.383675" lon="9.28407"><ele>55.0</ele><time>2026-03-28T13:07:41.01Z</time></trkpt><trkpt lat="44.383555" lon="9.2842017"><ele>54.0</ele><time>2026-03-28T13:07:42.01Z</time></trkpt><trkpt lat="44.3834317" lon="9.284335"><ele>53.0</ele><time>2026-03-28T13:07:43.01Z</time></trkpt><trkpt lat="44.38331" lon="9.284465"><ele>52.0</ele><time>2026-03-28T13:07:44.01Z</time></trkpt><trkpt lat="44.38319" lon="9.2845883"><ele>52.0</ele><time>2026-03-28T13:07:45.01Z</time></trkpt><trkpt lat="44.3830767" lon="9.2846933"><ele>52.0</ele><time>2026-03-28T13:07:46.01Z</time></trkpt><trkpt lat="44.3829567" lon="9.2847983"><ele>52.0</ele><time>2026-03-28T13:07:47.01Z</time></trkpt><trkpt lat="44.3828317" lon="9.2848967"><ele>52.0</ele><time>2026-03-28T13:07:48.01Z</time></trkpt><trkpt lat="44.3827183" lon="9.285005"><ele>51.75</ele><time>2026-03-28T13:07:49.01Z</time></trkpt><trkpt lat="44.3826" lon="9.28511"><ele>51.5</ele><time>2026-03-28T13:07:50.01Z</time></trkpt><trkpt lat="44.3824883" lon="9.2852383"><ele>51.25</ele><time>2026-03-28T13:07:51.009Z</time></trkpt><trkpt lat="44.38239" lon="9.2853717"><ele>51.0</ele><time>2026-03-28T13:07:52.01Z</time></trkpt><trkpt lat="44.3822967" lon="9.2855117"><ele>51.5</ele><time>2026-03-28T13:07:53.01Z</time></trkpt><trkpt lat="44.3822" lon="9.2856483"><ele>52.0</ele><time>2026-03-28T13:07:54.01Z</time></trkpt><trkpt lat="44.3821033" lon="9.2857733"><ele>52.5</ele><time>2026-03-28T13:07:55.009Z</time></trkpt><trkpt lat="44.382" lon="9.2859117"><ele>53.0</ele><time>2026-03-28T13:07:56.01Z</time></trkpt><trkpt lat="44.3819" lon="9.28605"><ele>53.0</ele><time>2026-03-28T13:07:57.01Z</time></trkpt><trkpt lat="44.381795" lon="9.286175"><ele>53.0</ele><time>2026-03-28T13:07:58.01Z</time></trkpt><trkpt lat="44.3816867" lon="9.286305"><ele>53.0</ele><time>2026-03-28T13:07:59.01Z</time></trkpt><trkpt lat="44.38157" lon="9.2864233"><ele>53.0</ele><time>2026-03-28T13:08:00.01Z</time></trkpt><trkpt lat="44.3814483" lon="9.2865367"><ele>53.25</ele><time>2026-03-28T13:08:01.009Z</time></trkpt><trkpt lat="44.381335" lon="9.2866317"><ele>53.5</ele><time>2026-03-28T13:08:02.01Z</time></trkpt><trkpt lat="44.3812083" lon="9.2867217"><ele>53.75</ele><time>2026-03-28T13:08:03.01Z</time></trkpt><trkpt lat="44.381085" lon="9.2868167"><ele>54.0</ele><time>2026-03-28T13:08:04.01Z</time></trkpt><trkpt lat="44.3809483" lon="9.2869117"><ele>54.0</ele><time>2026-03-28T13:08:05.009Z</time></trkpt><trkpt lat="44.3807967" lon="9.287015"><ele>54.0</ele><time>2026-03-28T13:08:06.009Z</time></trkpt><trkpt lat="44.3806417" lon="9.2871167"><ele>54.0</ele><time>2026-03-28T13:08:07.009Z</time></trkpt><trkpt lat="44.38048" lon="9.2872317"><ele>53.33333333333333</ele><time>2026-03-28T13:08:08.009Z</time></trkpt><trkpt lat="44.3803333" lon="9.2873333"><ele>52.666666666666664</ele><time>2026-03-28T13:08:09.009Z</time></trkpt><trkpt lat="44.3801967" lon="9.28746"><ele>52.0</ele><time>2026-03-28T13:08:10.009Z</time></trkpt><trkpt lat="44.3800833" lon="9.287575"><ele>52.0</ele><time>2026-03-28T13:08:11.008Z</time></trkpt><trkpt lat="44.37997" lon="9.2876883"><ele>52.0</ele><time>2026-03-28T13:08:12.008Z</time></trkpt><trkpt lat="44.37986" lon="9.2878133"><ele>52.0</ele><time>2026-03-28T13:08:13.009Z</time></trkpt><trkpt lat="44.3797467" lon="9.2879417"><ele>52.0</ele><time>2026-03-28T13:08:14.009Z</time></trkpt><trkpt lat="44.379635" lon="9.2880583"><ele>51.5</ele><time>2026-03-28T13:08:15.008Z</time></trkpt><trkpt lat="44.379515" lon="9.288155"><ele>51.0</ele><time>2026-03-28T13:08:16.009Z</time></trkpt><trkpt lat="44.37941" lon="9.2882683"><ele>50.5</ele><time>2026-03-28T13:08:17.009Z</time></trkpt><trkpt lat="44.3793033" lon="9.2883833"><ele>50.0</ele><time>2026-03-28T13:08:18.009Z</time></trkpt><trkpt lat="44.3792" lon="9.2885117"><ele>50.0</ele><time>2026-03-28T13:08:19.008Z</time></trkpt><trkpt lat="44.3790983" lon="9.28865"><ele>50.0</ele><time>2026-03-28T13:08:20.009Z</time></trkpt><trkpt lat="44.378995" lon="9.2887967"><ele>50.0</ele><time>2026-03-28T13:08:21.008Z</time></trkpt><trkpt lat="44.3788933" lon="9.2889533"><ele>50.0</ele><time>2026-03-28T13:08:22.009Z</time></trkpt><trkpt lat="44.3787967" lon="9.2891117"><ele>50.0</ele><time>2026-03-28T13:08:23.009Z</time></trkpt><trkpt lat="44.3787033" lon="9.2892733"><ele>50.0</ele><time>2026-03-28T13:08:24.009Z</time></trkpt><trkpt lat="44.3786117" lon="9.2894317"><ele>50.0</ele><time>2026-03-28T13:08:25.008Z</time></trkpt><trkpt lat="44.3785133" lon="9.2895867"><ele>50.0</ele><time>2026-03-28T13:08:26.009Z</time></trkpt><trkpt lat="44.378425" lon="9.2897517"><ele>52.0</ele><time>2026-03-28T13:08:27.009Z</time></trkpt><trkpt lat="44.3783433" lon="9.28994"><ele>54.0</ele><time>2026-03-28T13:08:28.008Z</time></trkpt><trkpt lat="44.3782633" lon="9.2901333"><ele>56.0</ele><time>2026-03-28T13:08:29.009Z</time></trkpt><trkpt lat="44.3781833" lon="9.2903233"><ele>56.0</ele><time>2026-03-28T13:08:30.009Z</time></trkpt><trkpt lat="44.37811" lon="9.290515"><ele>56.0</ele><time>2026-03-28T13:08:31.009Z</time></trkpt><trkpt lat="44.378025" lon="9.2907083"><ele>56.0</ele><time>2026-03-28T13:08:32.009Z</time></trkpt><trkpt lat="44.3779417" lon="9.2909033"><ele>56.66666666666667</ele><time>2026-03-28T13:08:33.009Z</time></trkpt><trkpt lat="44.3778633" lon="9.29111"><ele>57.33333333333333</ele><time>2026-03-28T13:08:34.008Z</time></trkpt><trkpt lat="44.377785" lon="9.2913117"><ele>58.0</ele><time>2026-03-28T13:08:35.009Z</time></trkpt><trkpt lat="44.377715" lon="9.2915017"><ele>58.0</ele><time>2026-03-28T13:08:36.009Z</time></trkpt><trkpt lat="44.37764" lon="9.2916983"><ele>58.0</ele><time>2026-03-28T13:08:37.009Z</time></trkpt><trkpt lat="44.3775533" lon="9.29188"><ele>58.0</ele><time>2026-03-28T13:08:38.009Z</time></trkpt><trkpt lat="44.3774783" lon="9.2920767"><ele>65.0</ele><time>2026-03-28T13:08:39.009Z</time></trkpt><trkpt lat="44.377415" lon="9.29227"><ele>72.0</ele><time>2026-03-28T13:08:40.009Z</time></trkpt><trkpt lat="44.3773617" lon="9.2924633"><ele>79.0</ele><time>2026-03-28T13:08:41.009Z</time></trkpt><trkpt lat="44.377295" lon="9.2926517"><ele>79.0</ele><time>2026-03-28T13:08:42.008Z</time></trkpt><trkpt lat="44.3772233" lon="9.292835"><ele>79.0</ele><time>2026-03-28T13:08:43.009Z</time></trkpt><trkpt lat="44.3771517" lon="9.2930117"><ele>79.0</ele><time>2026-03-28T13:08:44.008Z</time></trkpt><trkpt lat="44.3770733" lon="9.2931883"><ele>79.0</ele><time>2026-03-28T13:08:45.009Z</time></trkpt><trkpt lat="44.3769867" lon="9.293355"><ele>75.0</ele><time>2026-03-28T13:08:46.009Z</time></trkpt><trkpt lat="44.3768983" lon="9.2935183"><ele>71.0</ele><time>2026-03-28T13:08:47.008Z</time></trkpt><trkpt lat="44.3768117" lon="9.2936833"><ele>67.0</ele><time>2026-03-28T13:08:48.009Z</time></trkpt><trkpt lat="44.3767183" lon="9.2938383"><ele>63.0</ele><time>2026-03-28T13:08:49.009Z</time></trkpt><trkpt lat="44.3766217" lon="9.2939933"><ele>63.0</ele><time>2026-03-28T13:08:50.009Z</time></trkpt><trkpt lat="44.3765183" lon="9.29414"><ele>63.0</ele><time>2026-03-28T13:08:51.008Z</time></trkpt><trkpt lat="44.3764167" lon="9.2943033"><ele>63.0</ele><time>2026-03-28T13:08:52.009Z</time></trkpt><trkpt lat="44.3763083" lon="9.2944567"><ele>57.666666666666664</ele><time>2026-03-28T13:08:53.009Z</time></trkpt><trkpt lat="44.376215" lon="9.2946267"><ele>52.33333333333333</ele><time>2026-03-28T13:08:54.009Z</time></trkpt><trkpt lat="44.3761167" lon="9.2948033"><ele>47.0</ele><time>2026-03-28T13:08:55.009Z</time></trkpt><trkpt lat="44.37601" lon="9.2949583"><ele>47.0</ele><time>2026-03-28T13:08:56.009Z</time></trkpt><trkpt lat="44.3759033" lon="9.2951117"><ele>47.0</ele><time>2026-03-28T13:08:57.009Z</time></trkpt><trkpt lat="44.3757967" lon="9.2952767"><ele>47.0</ele><time>2026-03-28T13:08:58.009Z</time></trkpt><trkpt lat="44.3756867" lon="9.295445"><ele>45.666666666666664</ele><time>2026-03-28T13:08:59.009Z</time></trkpt><trkpt lat="44.3755783" lon="9.29561"><ele>44.333333333333336</ele><time>2026-03-28T13:09:00.009Z</time></trkpt><trkpt lat="44.3754633" lon="9.295775"><ele>43.0</ele><time>2026-03-28T13:09:01.009Z</time></trkpt><trkpt lat="44.3753633" lon="9.295945"><ele>43.0</ele><time>2026-03-28T13:09:02.009Z</time></trkpt><trkpt lat="44.3752633" lon="9.296115"><ele>43.0</ele><time>2026-03-28T13:09:03.009Z</time></trkpt><trkpt lat="44.3751633" lon="9.296295"><ele>43.0</ele><time>2026-03-28T13:09:04.009Z</time></trkpt><trkpt lat="44.3750717" lon="9.2964833"><ele>44.66666666666667</ele><time>2026-03-28T13:09:05.009Z</time></trkpt><trkpt lat="44.3749883" lon="9.2966683"><ele>46.333333333333336</ele><time>2026-03-28T13:09:06.009Z</time></trkpt><trkpt lat="44.3749167" lon="9.2968733"><ele>48.0</ele><time>2026-03-28T13:09:07.008Z</time></trkpt><trkpt lat="44.374865" lon="9.2970867"><ele>48.33333333333333</ele><time>2026-03-28T13:09:08.009Z</time></trkpt><trkpt lat="44.3748133" lon="9.297295"><ele>48.666666666666664</ele><time>2026-03-28T13:09:09.008Z</time></trkpt><trkpt lat="44.3747617" lon="9.2975033"><ele>49.0</ele><time>2026-03-28T13:09:10.009Z</time></trkpt><trkpt lat="44.3747167" lon="9.2977117"><ele>46.666666666666664</ele><time>2026-03-28T13:09:11.009Z</time></trkpt><trkpt lat="44.3746733" lon="9.2979233"><ele>44.33333333333333</ele><time>2026-03-28T13:09:12.009Z</time></trkpt><trkpt lat="44.37462" lon="9.2981317"><ele>42.0</ele><time>2026-03-28T13:09:13.009Z</time></trkpt><trkpt lat="44.3745717" lon="9.29833"><ele>42.0</ele><time>2026-03-28T13:09:14.008Z</time></trkpt><trkpt lat="44.3745283" lon="9.2985383"><ele>42.0</ele><time>2026-03-28T13:09:15.009Z</time></trkpt><trkpt lat="44.3744783" lon="9.29874"><ele>42.0</ele><time>2026-03-28T13:09:16.009Z</time></trkpt><trkpt lat="44.3744233" lon="9.2989517"><ele>43.0</ele><time>2026-03-28T13:09:17.009Z</time></trkpt><trkpt lat="44.3743667" lon="9.2991567"><ele>44.0</ele><time>2026-03-28T13:09:18.009Z</time></trkpt><trkpt lat="44.3743017" lon="9.299355"><ele>45.0</ele><time>2026-03-28T13:09:19.009Z</time></trkpt><trkpt lat="44.3742483" lon="9.2995717"><ele>46.0</ele><time>2026-03-28T13:09:20.009Z</time></trkpt><trkpt lat="44.374195" lon="9.2997867"><ele>47.0</ele><time>2026-03-28T13:09:21.009Z</time></trkpt><trkpt lat="44.3741317" lon="9.3"><ele>48.0</ele><time>2026-03-28T13:09:22.009Z</time></trkpt><trkpt lat="44.37407" lon="9.3002117"><ele>48.0</ele><time>2026-03-28T13:09:23.009Z</time></trkpt><trkpt lat="44.3740067" lon="9.3004217"><ele>48.0</ele><time>2026-03-28T13:09:24.009Z</time></trkpt><trkpt lat="44.373935" lon="9.300635"><ele>48.0</ele><time>2026-03-28T13:09:25.009Z</time></trkpt><trkpt lat="44.3738617" lon="9.30085"><ele>46.333333333333336</ele><time>2026-03-28T13:09:26.008Z</time></trkpt><trkpt lat="44.3738017" lon="9.301065"><ele>44.66666666666667</ele><time>2026-03-28T13:09:27.008Z</time></trkpt><trkpt lat="44.3737433" lon="9.301295"><ele>43.0</ele><time>2026-03-28T13:09:28.008Z</time></trkpt><trkpt lat="44.37369" lon="9.3015283"><ele>43.0</ele><time>2026-03-28T13:09:29.009Z</time></trkpt><trkpt lat="44.3736483" lon="9.30178"><ele>43.0</ele><time>2026-03-28T13:09:30.009Z</time></trkpt><trkpt lat="44.3736083" lon="9.3020167"><ele>43.0</ele><time>2026-03-28T13:09:31.009Z</time></trkpt><trkpt lat="44.3735683" lon="9.302245"><ele>44.0</ele><time>2026-03-28T13:09:32.009Z</time></trkpt><trkpt lat="44.3735367" lon="9.3024717"><ele>45.0</ele><time>2026-03-28T13:09:33.009Z</time></trkpt><trkpt lat="44.3735017" lon="9.3026733"><ele>46.0</ele><time>2026-03-28T13:09:34.008Z</time></trkpt><trkpt lat="44.37346" lon="9.302875"><ele>46.0</ele><time>2026-03-28T13:09:35.009Z</time></trkpt><trkpt lat="44.3733983" lon="9.30306"><ele>46.0</ele><time>2026-03-28T13:09:36.009Z</time></trkpt><trkpt lat="44.37333" lon="9.3032433"><ele>46.0</ele><time>2026-03-28T13:09:37.009Z</time></trkpt><trkpt lat="44.37325" lon="9.3034217"><ele>46.0</ele><time>2026-03-28T13:09:38.009Z</time></trkpt><trkpt lat="44.37316" lon="9.3035833"><ele>47.333333333333336</ele><time>2026-03-28T13:09:39.009Z</time></trkpt><trkpt lat="44.373035" lon="9.3037283"><ele>48.66666666666667</ele><time>2026-03-28T13:09:40.009Z</time></trkpt><trkpt lat="44.3728983" lon="9.3038583"><ele>50.0</ele><time>2026-03-28T13:09:41.009Z</time></trkpt><trkpt lat="44.372745" lon="9.3039683"><ele>50.0</ele><time>2026-03-28T13:09:42.009Z</time></trkpt><trkpt lat="44.3725883" lon="9.3040783"><ele>50.0</ele><time>2026-03-28T13:09:43.008Z</time></trkpt><trkpt lat="44.3724283" lon="9.304175"><ele>50.0</ele><time>2026-03-28T13:09:44.009Z</time></trkpt><trkpt lat="44.3722783" lon="9.3042817"><ele>47.66666666666667</ele><time>2026-03-28T13:09:45.008Z</time></trkpt><trkpt lat="44.3721333" lon="9.3043733"><ele>45.333333333333336</ele><time>2026-03-28T13:09:46.009Z</time></trkpt><trkpt lat="44.3719917" lon="9.3044717"><ele>43.0</ele><time>2026-03-28T13:09:47.009Z</time></trkpt><trkpt lat="44.3718583" lon="9.3045683"><ele>43.0</ele><time>2026-03-28T13:09:48.009Z</time></trkpt><trkpt lat="44.3717383" lon="9.3046733"><ele>43.0</ele><time>2026-03-28T13:09:49.009Z</time></trkpt><trkpt lat="44.371615" lon="9.30477"><ele>43.0</ele><time>2026-03-28T13:09:50.008Z</time></trkpt><trkpt lat="44.3715133" lon="9.3048767"><ele>43.0</ele><time>2026-03-28T13:09:51.009Z</time></trkpt><trkpt lat="44.371415" lon="9.3049933"><ele>42.0</ele><time>2026-03-28T13:09:52.009Z</time></trkpt><trkpt lat="44.37132" lon="9.305125"><ele>41.0</ele><time>2026-03-28T13:09:53.009Z</time></trkpt><trkpt lat="44.3712167" lon="9.305255"><ele>40.0</ele><time>2026-03-28T13:09:54.009Z</time></trkpt><trkpt lat="44.3711133" lon="9.305405"><ele>39.0</ele><time>2026-03-28T13:09:55.009Z</time></trkpt><trkpt lat="44.3710033" lon="9.3055267"><ele>42.75</ele><time>2026-03-28T13:09:56.009Z</time></trkpt><trkpt lat="44.3709067" lon="9.3056633"><ele>46.5</ele><time>2026-03-28T13:09:57.009Z</time></trkpt><trkpt lat="44.3708083" lon="9.3058167"><ele>50.25</ele><time>2026-03-28T13:09:58.009Z</time></trkpt><trkpt lat="44.3707267" lon="9.305985"><ele>54.0</ele><time>2026-03-28T13:09:59.008Z</time></trkpt><trkpt lat="44.3706467" lon="9.30617"><ele>54.0</ele><time>2026-03-28T13:10:00.009Z</time></trkpt><trkpt lat="44.3705833" lon="9.30637"><ele>54.0</ele><time>2026-03-28T13:10:01.009Z</time></trkpt><trkpt lat="44.3705333" lon="9.30657"><ele>54.0</ele><time>2026-03-28T13:10:02.009Z</time></trkpt><trkpt lat="44.3705117" lon="9.3067767"><ele>55.0</ele><time>2026-03-28T13:10:03.009Z</time></trkpt><trkpt lat="44.37051" lon="9.3069833"><ele>56.0</ele><time>2026-03-28T13:10:04.009Z</time></trkpt><trkpt lat="44.370525" lon="9.3071867"><ele>57.0</ele><time>2026-03-28T13:10:05.009Z</time></trkpt><trkpt lat="44.3705517" lon="9.30738"><ele>58.0</ele><time>2026-03-28T13:10:06.008Z</time></trkpt><trkpt lat="44.3705867" lon="9.3075733"><ele>58.0</ele><time>2026-03-28T13:10:07.009Z</time></trkpt><trkpt lat="44.3706417" lon="9.3077517"><ele>58.0</ele><time>2026-03-28T13:10:08.009Z</time></trkpt><trkpt lat="44.3707017" lon="9.3079083"><ele>58.0</ele><time>2026-03-28T13:10:09.008Z</time></trkpt><trkpt lat="44.3707683" lon="9.30807"><ele>58.0</ele><time>2026-03-28T13:10:10.009Z</time></trkpt><trkpt lat="44.37083" lon="9.308235"><ele>55.0</ele><time>2026-03-28T13:10:11.009Z</time></trkpt><trkpt lat="44.370895" lon="9.3083983"><ele>52.0</ele><time>2026-03-28T13:10:12.009Z</time></trkpt><trkpt lat="44.3709633" lon="9.3085433"><ele>49.0</ele><time>2026-03-28T13:10:13.008Z</time></trkpt><trkpt lat="44.3710283" lon="9.3087233"><ele>46.0</ele><time>2026-03-28T13:10:14.009Z</time></trkpt><trkpt lat="44.371095" lon="9.308895"><ele>44.25</ele><time>2026-03-28T13:10:15.009Z</time></trkpt><trkpt lat="44.37117" lon="9.3090683"><ele>42.5</ele><time>2026-03-28T13:10:16.009Z</time></trkpt><trkpt lat="44.3712467" lon="9.309245"><ele>40.75</ele><time>2026-03-28T13:10:17.009Z</time></trkpt><trkpt lat="44.3713217" lon="9.30941"><ele>39.0</ele><time>2026-03-28T13:10:18.009Z</time></trkpt><trkpt lat="44.3713933" lon="9.3095867"><ele>42.25</ele><time>2026-03-28T13:10:19.009Z</time></trkpt><trkpt lat="44.3714717" lon="9.3097633"><ele>45.5</ele><time>2026-03-28T13:10:20.009Z</time></trkpt><trkpt lat="44.3715417" lon="9.30994"><ele>48.75</ele><time>2026-03-28T13:10:21.009Z</time></trkpt><trkpt lat="44.3716083" lon="9.310115"><ele>52.0</ele><time>2026-03-28T13:10:22.009Z</time></trkpt><trkpt lat="44.3716733" lon="9.310295"><ele>52.0</ele><time>2026-03-28T13:10:23.009Z</time></trkpt><trkpt lat="44.37174" lon="9.3104783"><ele>52.0</ele><time>2026-03-28T13:10:24.009Z</time></trkpt><trkpt lat="44.3717917" lon="9.310655"><ele>52.0</ele><time>2026-03-28T13:10:25.009Z</time></trkpt><trkpt lat="44.3718217" lon="9.3108367"><ele>52.0</ele><time>2026-03-28T13:10:26.008Z</time></trkpt><trkpt lat="44.3718233" lon="9.31102"><ele>50.0</ele><time>2026-03-28T13:10:27.009Z</time></trkpt><trkpt lat="44.3718" lon="9.3112133"><ele>48.0</ele><time>2026-03-28T13:10:28.009Z</time></trkpt><trkpt lat="44.3717717" lon="9.3114167"><ele>46.0</ele><time>2026-03-28T13:10:29.009Z</time></trkpt><trkpt lat="44.3717483" lon="9.3116267"><ele>44.0</ele><time>2026-03-28T13:10:30.009Z</time></trkpt><trkpt lat="44.3717217" lon="9.31184"><ele>44.0</ele><time>2026-03-28T13:10:31.009Z</time></trkpt><trkpt lat="44.3716967" lon="9.3120583"><ele>44.0</ele><time>2026-03-28T13:10:32.009Z</time></trkpt><trkpt lat="44.3716783" lon="9.3122683"><ele>44.0</ele><time>2026-03-28T13:10:33.009Z</time></trkpt><trkpt lat="44.3716633" lon="9.3124733"><ele>44.0</ele><time>2026-03-28T13:10:34.009Z</time></trkpt><trkpt lat="44.3716533" lon="9.312675"><ele>44.0</ele><time>2026-03-28T13:10:35.009Z</time></trkpt><trkpt lat="44.37164" lon="9.31288"><ele>44.0</ele><time>2026-03-28T13:10:36.009Z</time></trkpt><trkpt lat="44.3716217" lon="9.3130767"><ele>44.0</ele><time>2026-03-28T13:10:37.009Z</time></trkpt><trkpt lat="44.3716067" lon="9.3132867"><ele>44.5</ele><time>2026-03-28T13:10:38.008Z</time></trkpt><trkpt lat="44.371585" lon="9.3134933"><ele>45.0</ele><time>2026-03-28T13:10:39.009Z</time></trkpt><trkpt lat="44.3715667" lon="9.31369"><ele>45.5</ele><time>2026-03-28T13:10:40.009Z</time></trkpt><trkpt lat="44.3715383" lon="9.3138833"><ele>46.0</ele><time>2026-03-28T13:10:41.009Z</time></trkpt><trkpt lat="44.371505" lon="9.3140767"><ele>45.66666666666667</ele><time>2026-03-28T13:10:42.008Z</time></trkpt><trkpt lat="44.3714533" lon="9.314265"><ele>45.333333333333336</ele><time>2026-03-28T13:10:43.009Z</time></trkpt><trkpt lat="44.3713817" lon="9.3144467"><ele>45.0</ele><time>2026-03-28T13:10:44.009Z</time></trkpt><trkpt lat="44.3712817" lon="9.3146283"><ele>47.33333333333333</ele><time>2026-03-28T13:10:45.009Z</time></trkpt><trkpt lat="44.3711617" lon="9.3147983"><ele>49.666666666666664</ele><time>2026-03-28T13:10:46.009Z</time></trkpt><trkpt lat="44.3710317" lon="9.31497"><ele>52.0</ele><time>2026-03-28T13:10:47.008Z</time></trkpt><trkpt lat="44.3708917" lon="9.3151333"><ele>52.0</ele><time>2026-03-28T13:10:48.009Z</time></trkpt><trkpt lat="44.3707417" lon="9.3152767"><ele>52.0</ele><time>2026-03-28T13:10:49.008Z</time></trkpt><trkpt lat="44.370595" lon="9.315435"><ele>52.0</ele><time>2026-03-28T13:10:50.009Z</time></trkpt><trkpt lat="44.3704383" lon="9.3155717"><ele>49.33333333333333</ele><time>2026-03-28T13:10:51.008Z</time></trkpt><trkpt lat="44.37029" lon="9.3157"><ele>46.666666666666664</ele><time>2026-03-28T13:10:52.009Z</time></trkpt><trkpt lat="44.37015" lon="9.3158333"><ele>44.0</ele><time>2026-03-28T13:10:53.009Z</time></trkpt><trkpt lat="44.3700233" lon="9.3159683"><ele>44.0</ele><time>2026-03-28T13:10:54.009Z</time></trkpt><trkpt lat="44.3699" lon="9.3160733"><ele>44.0</ele><time>2026-03-28T13:10:55.009Z</time></trkpt><trkpt lat="44.3697817" lon="9.3161717"><ele>44.0</ele><time>2026-03-28T13:10:56.009Z</time></trkpt><trkpt lat="44.3696567" lon="9.316235"><ele>44.0</ele><time>2026-03-28T13:10:57.009Z</time></trkpt><trkpt lat="44.3695567" lon="9.3162817"><ele>37.0</ele><time>2026-03-28T13:10:58.009Z</time></trkpt><trkpt lat="44.36946" lon="9.316295"><ele>37.0</ele><time>2026-03-28T13:10:59.009Z</time></trkpt><trkpt lat="44.3693933" lon="9.3162767"><ele>37.0</ele><time>2026-03-28T13:11:00.009Z</time></trkpt><trkpt lat="44.369335" lon="9.3162417"><ele>37.0</ele><time>2026-03-28T13:11:02.009Z</time></trkpt></trkseg></trk></gpx>